Datos completos - ACO
Day Time Location Level(mts) Temp(°C) Humidity(%) Bat(V) ST
07-03-2021 22:26:48 YCU 0.91 23.2 95.0 4.1 ok
07-03-2021 22:16:46 YCU 1.01 23.2 95.0 4.1 ok
07-03-2021 22:06:46 YCU 1.02 23.2 95.0 4.1 ok
07-03-2021 21:56:46 YCU 1.05 23.4 95.0 4.1 ok
07-03-2021 21:46:46 YCU 1.03 23.4 95.0 4.1 ok
07-03-2021 21:36:46 YCU 1.06 23.4 95.0 4.1 ok
07-03-2021 21:26:46 YCU 0.94 23.5 95.0 4.1 ok
07-03-2021 21:16:46 YCU 1.03 23.6 95.0 4.1 ok
07-03-2021 21:06:46 YCU 0.97 23.6 95.0 4.1 ok
07-03-2021 20:56:46 YCU 1.04 23.7 95.0 4.1 ok
07-03-2021 20:46:45 YCU 0.98 23.7 95.0 4.1 ok
07-03-2021 20:36:45 YCU 0.92 23.8 95.0 4.1 ok
07-03-2021 20:26:45 YCU 0.84 23.8 95.0 4.1 ok
07-03-2021 20:16:45 YCU 0.90 23.8 95.0 4.1 ok
07-03-2021 20:06:45 YCU 0.92 23.9 95.0 4.1 ok
07-03-2021 19:56:45 YCU 0.99 23.9 95.0 4.1 ok
07-03-2021 19:46:45 YCU 0.84 23.9 95.0 4.1 ok
07-03-2021 19:36:45 YCU 0.90 24.0 95.0 4.1 ok
07-03-2021 19:26:44 YCU 0.85 24.1 95.0 4.1 ok
07-03-2021 19:16:44 YCU 0.83 24.2 95.0 4.1 ok
07-03-2021 19:06:44 YCU 0.88 24.3 95.0 4.1 ok
07-03-2021 18:56:41 YCU 0.93 24.5 95.0 4.1 ok
07-03-2021 18:46:40 YCU 0.88 24.9 95.0 4.1 ok
07-03-2021 18:36:40 YCU 0.83 25.4 95.0 4.1 ok
07-03-2021 18:26:40 YCU 0.83 25.6 95.0 4.1 ok
07-03-2021 18:16:40 YCU 0.81 25.6 95.0 4.1 ok
07-03-2021 18:06:40 YCU 0.80 25.8 95.0 4.1 ok
07-03-2021 17:56:40 YCU 0.95 25.7 95.0 4.1 ok
07-03-2021 17:46:40 YCU 0.84 25.6 95.0 4.1 ok
07-03-2021 17:36:40 YCU 0.81 25.7 95.0 4.1 ok
07-03-2021 17:26:40 YCU 0.76 25.7 95.0 4.1 ok
07-03-2021 17:16:39 YCU 0.73 25.9 95.0 4.1 ok
07-03-2021 17:06:39 YCU 0.78 26.0 95.0 4.1 ok
07-03-2021 16:56:39 YCU 0.78 25.9 95.0 4.1 ok
07-03-2021 16:46:39 YCU 0.82 25.9 95.0 4.1 ok
07-03-2021 16:36:39 YCU 0.76 25.9 95.0 4.1 ok
07-03-2021 16:26:39 YCU 0.76 25.9 95.0 4.1 ok
07-03-2021 16:16:39 YCU 0.72 26.0 95.0 4.1 ok
07-03-2021 16:06:39 YCU 0.78 26.1 95.0 4.1 ok
07-03-2021 15:56:39 YCU 0.69 26.3 95.0 4.1 ok
07-03-2021 15:46:38 YCU 0.79 26.4 95.0 4.1 ok
07-03-2021 15:36:38 YCU 0.70 26.7 95.0 4.1 ok
07-03-2021 15:26:38 YCU 0.73 26.9 95.0 4.1 ok
07-03-2021 15:16:38 YCU 0.63 27.0 95.0 4.1 ok
07-03-2021 15:06:37 YCU 0.72 27.2 95.0 4.1 ok
07-03-2021 14:56:37 YCU 0.62 27.3 95.0 4.1 ok
07-03-2021 14:46:37 YCU 0.65 27.4 95.0 4.1 ok
07-03-2021 14:36:37 YCU 0.66 27.2 85.0 4.1 ok
07-03-2021 14:26:37 YCU 0.63 27.6 6.0 4.1 ok
07-03-2021 14:16:37 YCU 0.59 27.6 6.0 4.1 ok
07-03-2021 13:56:02 YCU 0.58 27.9 6.0 4.1 ok
07-03-2021 13:46:02 YCU 0.51 28.8 7.0 4.1 ok
07-03-2021 13:36:02 YCU 0.46 29.8 8.0 4.1 ok
07-03-2021 13:26:02 YCU 0.47 29.9 8.0 4.1 ok
07-03-2021 13:16:02 YCU 0.42 29.4 8.0 4.1 ok
07-03-2021 13:06:02 YCU 0.47 30.0 8.0 4.1 ok
07-03-2021 12:56:01 YCU 0.46 29.9 8.0 4.1 ok
07-03-2021 12:46:01 YCU 0.41 29.5 8.0 4.1 ok
07-03-2021 12:36:01 YCU 0.49 28.7 7.0 4.1 ok
07-03-2021 12:26:01 YCU 0.47 29.4 8.0 4.1 ok
07-03-2021 12:16:00 YCU 0.51 29.0 8.0 4.1 ok
07-03-2021 12:05:59 YCU 0.53 28.7 7.0 4.1 ok
07-03-2021 11:55:58 YCU 0.55 27.0 95.0 4.1 ok
07-03-2021 11:45:57 YCU 0.58 27.7 95.0 4.1 ok
07-03-2021 11:35:57 YCU 0.57 27.8 95.0 4.1 ok
07-03-2021 11:25:56 YCU 0.62 26.9 95.0 4.1 ok
07-03-2021 11:15:56 YCU 0.67 27.0 95.0 4.1 ok
07-03-2021 11:05:56 YCU 0.68 26.4 95.0 4.1 ok
07-03-2021 10:55:56 YCU 0.70 26.7 83.0 4.1 ok
07-03-2021 10:45:55 YCU 0.71 26.9 95.0 4.1 ok
07-03-2021 10:35:55 YCU 0.68 26.5 95.0 4.1 ok
07-03-2021 10:25:55 YCU 0.77 26.2 95.0 4.1 ok
07-03-2021 10:15:55 YCU 0.77 25.7 95.0 4.1 ok
07-03-2021 10:05:54 YCU 0.79 25.5 95.0 4.1 ok
07-03-2021 09:55:53 YCU 0.83 24.9 95.0 4.1 ok
07-03-2021 09:45:53 YCU 0.79 24.7 95.0 4.1 ok
07-03-2021 09:35:53 YCU 0.86 24.3 95.0 4.1 ok
07-03-2021 09:25:53 YCU 0.79 24.1 95.0 4.2 ok
07-03-2021 09:15:53 YCU 0.83 23.7 95.0 4.1 ok
07-03-2021 09:05:53 YCU 0.84 23.1 95.0 4.1 ok
07-03-2021 08:55:53 YCU 0.74 23.0 95.0 4.1 ok
07-03-2021 08:45:53 YCU 0.78 22.6 95.0 4.1 ok
07-03-2021 08:35:53 YCU 0.79 22.8 95.0 4.1 ok
07-03-2021 08:25:49 YCU 0.79 22.7 95.0 4.0 ON
07-03-2021 08:11:35 YCU 0.87 22.5 95.0 4.1 ok
07-03-2021 08:01:35 YCU 0.80 21.9 94.0 4.1 ok
07-03-2021 07:51:35 YCU 0.83 20.9 93.0 4.1 ok
07-03-2021 07:41:35 YCU 0.82 20.5 93.0 4.1 ok
07-03-2021 07:31:35 YCU 0.87 20.2 93.0 4.1 ok
07-03-2021 07:21:35 YCU 0.83 19.6 93.0 4.1 ok
07-03-2021 07:11:35 YCU 0.89 19.1 93.0 4.1 ok
07-03-2021 07:01:35 YCU 0.83 18.6 93.0 4.1 ok
07-03-2021 06:51:35 YCU 0.89 18.4 93.0 4.1 ok
07-03-2021 06:41:35 YCU 0.82 18.3 93.0 4.1 ok
07-03-2021 06:31:35 YCU 0.82 18.4 93.0 4.1 ok
07-03-2021 06:21:35 YCU 0.85 18.4 93.0 4.1 ok
07-03-2021 06:11:35 YCU 0.85 18.4 93.0 4.1 ok
07-03-2021 06:01:34 YCU 0.84 18.4 93.0 4.1 ok
07-03-2021 05:51:34 YCU 0.78 18.3 93.0 4.1 ok
07-03-2021 05:41:34 YCU 0.87 18.4 93.0 4.1 ok
07-03-2021 05:31:34 YCU 0.84 18.4 93.0 4.1 ok
07-03-2021 05:21:34 YCU 0.86 18.4 93.0 4.1 ok
07-03-2021 05:11:34 YCU 0.89 18.4 93.0 4.1 ok
07-03-2021 05:01:34 YCU 0.80 18.4 93.0 4.1 ok
07-03-2021 04:51:34 YCU 0.85 18.4 93.0 4.1 ok
07-03-2021 04:41:34 YCU 0.82 18.5 93.0 4.1 ok
07-03-2021 04:31:34 YCU 0.84 18.4 93.0 4.1 ok
07-03-2021 04:21:34 YCU 0.85 18.4 93.0 4.1 ok
07-03-2021 04:11:34 YCU 0.84 18.4 93.0 4.1 ok
07-03-2021 04:01:34 YCU 0.83 18.5 93.0 4.1 ok
07-03-2021 03:51:33 YCU 0.82 18.6 93.0 4.1 ok
07-03-2021 03:41:33 YCU 0.81 18.7 93.0 4.1 ok
07-03-2021 03:31:33 YCU 0.82 18.7 93.0 4.1 ok
07-03-2021 03:21:33 YCU 0.79 18.8 93.0 4.1 ok
07-03-2021 03:11:33 YCU 0.80 19.0 93.0 4.1 ok
07-03-2021 03:01:33 YCU 0.76 19.3 93.0 4.1 ok
07-03-2021 02:51:32 YCU 0.80 19.3 93.0 4.1 ok
07-03-2021 02:41:32 YCU 0.73 19.3 93.0 4.1 ok
07-03-2021 02:31:32 YCU 0.74 19.4 93.0 4.1 ok
07-03-2021 02:21:32 YCU 0.75 19.4 93.0 4.1 ok
07-03-2021 02:11:32 YCU 0.71 19.4 93.0 4.1 ok
07-03-2021 02:01:32 YCU 0.65 19.7 93.0 4.1 ok
07-03-2021 01:51:32 YCU 0.67 19.9 93.0 4.1 ok
07-03-2021 01:41:30 YCU 0.61 20.2 93.0 4.1 ok
07-03-2021 01:31:30 YCU 0.62 20.4 93.0 4.1 ok
07-03-2021 01:21:30 YCU 0.55 20.7 93.0 4.1 ok
07-03-2021 01:11:30 YCU 0.66 20.9 93.0 4.1 ok
07-03-2021 01:01:30 YCU 0.59 21.0 94.0 4.1 ok
07-03-2021 00:51:29 YCU 0.61 21.2 94.0 4.1 ok
07-03-2021 00:41:30 YCU 0.62 21.2 94.0 4.1 ok
07-03-2021 00:31:29 YCU 0.60 21.3 94.0 4.1 ok
07-03-2021 00:21:29 YCU 0.61 21.4 94.0 4.1 ok
07-03-2021 00:11:29 YCU 0.64 21.4 94.0 4.1 ok
07-03-2021 00:01:29 YCU 0.64 21.4 94.0 4.1 ok
06-03-2021 23:51:29 YCU 0.67 21.4 94.0 4.1 ok
06-03-2021 23:41:29 YCU 0.70 21.4 94.0 4.1 ok
06-03-2021 23:31:29 YCU 0.67 21.4 94.0 4.1 ok
06-03-2021 23:21:29 YCU 0.74 21.4 94.0 4.1 ok
06-03-2021 23:11:29 YCU 0.75 21.4 94.0 4.1 ok
06-03-2021 23:01:29 YCU 0.74 21.4 94.0 4.1 ok
06-03-2021 22:51:28 YCU 0.80 21.4 94.0 4.1 ok
06-03-2021 22:41:28 YCU 0.84 21.4 94.0 4.1 ok
06-03-2021 22:31:28 YCU 0.84 21.4 94.0 4.1 ok
06-03-2021 22:21:29 YCU 0.90 21.4 94.0 4.1 ok
06-03-2021 22:11:28 YCU 0.85 21.4 94.0 4.1 ok
06-03-2021 22:01:28 YCU 0.90 21.4 94.0 4.1 ok
06-03-2021 21:51:28 YCU 0.98 21.4 94.0 4.1 ok
06-03-2021 21:41:28 YCU 1.03 21.4 94.0 4.1 ok
06-03-2021 21:31:28 YCU 1.01 21.4 94.0 4.1 ok
06-03-2021 21:21:28 YCU 0.97 21.4 94.0 4.1 ok
06-03-2021 21:11:28 YCU 1.03 21.4 94.0 4.1 ok
06-03-2021 21:01:28 YCU 1.01 21.4 94.0 4.1 ok
06-03-2021 20:51:27 YCU 1.00 21.5 94.0 4.1 ok
06-03-2021 20:41:27 YCU 0.95 21.5 94.0 4.1 ok
06-03-2021 20:31:26 YCU 0.93 21.6 94.0 4.1 ok
06-03-2021 20:21:26 YCU 0.93 21.6 94.0 4.1 ok
06-03-2021 20:11:25 YCU 0.94 21.6 94.0 4.1 ok
06-03-2021 20:01:25 YCU 0.86 21.7 94.0 4.1 ok
06-03-2021 19:51:25 YCU 0.89 21.7 94.0 4.1 ok
06-03-2021 19:41:22 YCU 0.83 21.7 94.0 4.1 ok
06-03-2021 19:31:22 YCU 0.89 21.7 94.0 4.1 ok
06-03-2021 19:21:22 YCU 0.81 21.9 94.0 4.1 ok
06-03-2021 19:11:22 YCU 0.84 22.2 95.0 4.1 ok
06-03-2021 19:01:22 YCU 0.80 22.6 95.0 4.1 ok
06-03-2021 18:51:22 YCU 0.85 23.3 95.0 4.1 ok
06-03-2021 18:41:22 YCU 0.89 24.2 95.0 4.1 ok
06-03-2021 18:31:22 YCU 0.80 24.5 95.0 4.1 ok
06-03-2021 18:21:22 YCU 0.83 24.3 95.0 4.1 ok
06-03-2021 18:11:21 YCU 0.81 24.5 95.0 4.1 ok
06-03-2021 18:01:21 YCU 0.81 24.5 95.0 4.1 ok
06-03-2021 17:51:21 YCU 0.81 24.2 95.0 4.1 ok
06-03-2021 17:41:12 YCU 0.81 24.0 95.0 4.1 ok
06-03-2021 17:31:12 YCU 0.80 24.3 95.0 4.1 ok
06-03-2021 17:21:12 YCU 0.79 24.0 95.0 4.1 ok
06-03-2021 17:11:12 YCU 0.74 24.0 95.0 4.1 ok
06-03-2021 17:01:12 YCU 0.78 24.0 95.0 4.1 ok
06-03-2021 16:51:12 YCU 0.79 24.1 95.0 4.1 ok
06-03-2021 16:41:12 YCU 0.75 24.1 95.0 4.1 ok
06-03-2021 16:31:12 YCU 0.75 24.7 95.0 4.1 ok
06-03-2021 16:21:12 YCU 0.78 24.8 95.0 4.1 ok
06-03-2021 16:11:12 YCU 0.71 24.5 95.0 4.1 ok
06-03-2021 16:01:11 YCU 0.80 24.8 95.0 4.1 ok
06-03-2021 15:51:11 YCU 0.74 24.6 95.0 4.1 ok
06-03-2021 15:41:11 YCU 0.79 24.6 95.0 4.1 ok
06-03-2021 15:31:11 YCU 0.80 24.4 95.0 4.1 ok
06-03-2021 15:21:11 YCU 0.78 24.7 95.0 4.1 ok
06-03-2021 15:11:10 YCU 0.80 24.8 36.0 4.1 ok
06-03-2021 15:01:10 YCU 0.77 25.2 95.0 4.1 ok
06-03-2021 14:51:10 YCU 0.85 25.2 95.0 4.1 ok
06-03-2021 14:41:10 YCU 0.86 25.4 67.0 4.1 ok
06-03-2021 14:31:10 YCU 0.82 26.2 95.0 4.1 ok
06-03-2021 14:21:10 YCU 0.78 26.4 28.0 4.1 ok
06-03-2021 14:11:10 YCU 0.79 26.5 29.0 4.1 ok
06-03-2021 14:01:09 YCU 0.75 26.4 72.0 4.1 ok
06-03-2021 13:51:09 YCU 0.72 26.4 34.0 4.1 ok
06-03-2021 13:41:08 YCU 0.67 26.6 6.0 4.1 ok
06-03-2021 13:31:07 YCU 0.65 27.0 6.0 4.1 ok
06-03-2021 13:21:07 YCU 0.60 27.6 6.0 4.1 ok
06-03-2021 13:11:07 YCU 0.58 28.8 7.0 4.1 ok
06-03-2021 13:01:06 YCU 0.55 28.3 7.0 4.1 ok
06-03-2021 12:51:05 YCU 0.52 27.7 6.0 4.1 ok
06-03-2021 12:41:05 YCU 0.56 27.2 6.0 4.1 ok
06-03-2021 12:31:05 YCU 0.52 26.2 50.0 4.1 ok
06-03-2021 12:21:04 YCU 0.52 25.1 62.0 4.1 ok
06-03-2021 12:11:04 YCU 0.53 24.8 95.0 4.1 ok
06-03-2021 12:01:04 YCU 0.53 24.8 95.0 4.1 ok
06-03-2021 11:51:04 YCU 0.57 24.8 95.0 4.1 ok
06-03-2021 11:41:03 YCU 0.60 24.8 95.0 4.1 ok
06-03-2021 11:31:03 YCU 0.59 24.9 95.0 4.1 ok
06-03-2021 11:21:02 YCU 0.60 24.9 95.0 4.1 ok
06-03-2021 11:11:01 YCU 0.66 24.9 95.0 4.1 ok
06-03-2021 11:01:00 YCU 0.64 24.4 95.0 4.1 ok
06-03-2021 10:51:00 YCU 0.71 24.0 95.0 4.1 ok
06-03-2021 10:41:00 YCU 0.77 23.7 95.0 4.1 ok
06-03-2021 10:31:00 YCU 0.76 23.5 91.0 4.1 ok
06-03-2021 10:20:59 YCU 0.80 23.4 95.0 4.1 ok
06-03-2021 10:10:59 YCU 0.82 23.1 95.0 4.1 ok
06-03-2021 10:00:58 YCU 0.87 22.9 95.0 4.1 ok
06-03-2021 09:50:58 YCU 0.94 22.4 95.0 4.1 ok
06-03-2021 09:40:58 YCU 0.99 22.2 81.0 4.1 ok
06-03-2021 09:30:58 YCU 1.00 21.9 94.0 4.1 ok
06-03-2021 09:20:57 YCU 1.02 21.4 94.0 4.1 ok
06-03-2021 09:10:57 YCU 1.05 21.4 94.0 4.1 ok
06-03-2021 09:00:57 YCU 1.13 21.3 94.0 4.1 ok
06-03-2021 08:50:57 YCU 1.16 21.4 94.0 4.1 ok
06-03-2021 08:40:57 YCU 1.22 21.1 94.0 4.1 ok
06-03-2021 08:30:56 YCU 1.23 20.9 93.0 4.1 ok
06-03-2021 08:20:56 YCU 1.20 20.7 93.0 4.1 ok
06-03-2021 08:10:56 YCU 1.20 20.7 93.0 4.1 ok
06-03-2021 08:00:56 YCU 1.22 20.7 93.0 4.1 ok
06-03-2021 07:50:56 YCU 1.30 20.5 93.0 4.1 ok
06-03-2021 07:40:56 YCU 1.25 20.5 93.0 4.1 ok
06-03-2021 07:30:56 YCU 1.30 20.4 93.0 4.1 ok
06-03-2021 07:20:56 YCU 1.24 20.3 93.0 4.1 ok
06-03-2021 07:10:56 YCU 1.24 20.5 93.0 4.1 ok
06-03-2021 07:00:56 YCU 1.29 20.4 93.0 4.1 ok
06-03-2021 06:50:56 YCU 1.27 20.3 93.0 4.1 ok
06-03-2021 06:40:56 YCU 1.28 20.3 93.0 4.1 ok
06-03-2021 06:30:55 YCU 1.27 20.2 93.0 4.1 ok
06-03-2021 06:20:55 YCU 1.28 20.3 93.0 4.1 ok
06-03-2021 06:10:55 YCU 1.31 20.4 93.0 4.1 ok
06-03-2021 06:00:55 YCU 1.32 20.3 93.0 4.1 ok
06-03-2021 05:50:55 YCU 1.37 20.2 93.0 4.1 ok
06-03-2021 05:40:54 YCU 1.42 20.2 93.0 4.1 ok
06-03-2021 05:30:54 YCU 1.40 20.2 93.0 4.1 ok
06-03-2021 05:20:54 YCU 1.36 20.2 93.0 4.1 ok
06-03-2021 05:10:54 YCU 1.39 20.1 93.0 4.1 ok
06-03-2021 05:00:54 YCU 1.42 20.2 93.0 4.1 ok
06-03-2021 04:50:54 YCU 1.40 20.2 93.0 4.1 ok
06-03-2021 04:40:54 YCU 1.50 20.3 93.0 4.1 ok
06-03-2021 04:30:54 YCU 1.43 20.3 93.0 4.1 ok
06-03-2021 04:20:54 YCU 1.42 20.4 93.0 4.1 ok
06-03-2021 04:10:54 YCU 1.44 20.3 93.0 4.1 ok
06-03-2021 04:00:53 YCU 1.50 20.3 93.0 4.1 ok
06-03-2021 03:50:54 YCU 1.50 20.2 93.0 4.1 ok
06-03-2021 03:40:54 YCU 1.55 20.2 93.0 4.1 ok
06-03-2021 03:30:54 YCU 1.50 20.4 93.0 4.1 ok
06-03-2021 03:20:54 YCU 1.49 20.4 93.0 4.1 ok
06-03-2021 03:10:54 YCU 1.55 20.6 93.0 4.1 ok
06-03-2021 03:00:54 YCU 1.52 20.6 93.0 4.1 ok
06-03-2021 02:50:53 YCU 1.56 20.7 93.0 4.1 ok
06-03-2021 02:40:54 YCU 1.57 20.7 93.0 4.1 ok
06-03-2021 02:30:53 YCU 1.56 20.7 93.0 4.1 ok
06-03-2021 02:20:53 YCU 1.52 20.7 93.0 4.1 ok
06-03-2021 02:10:53 YCU 1.56 20.7 93.0 4.1 ok
06-03-2021 02:00:53 YCU 1.56 20.7 93.0 4.1 ok
06-03-2021 01:50:53 YCU 1.57 20.6 93.0 4.1 ok
06-03-2021 01:40:53 YCU 1.53 20.7 93.0 4.1 ok
06-03-2021 01:30:53 YCU 1.53 20.6 93.0 4.1 ok
06-03-2021 01:20:53 YCU 1.51 20.6 93.0 4.1 ok
06-03-2021 01:10:53 YCU 1.43 20.6 93.0 4.1 ok
06-03-2021 01:00:52 YCU 1.47 20.7 93.0 4.1 ok
06-03-2021 00:50:53 YCU 1.39 20.7 93.0 4.1 ok
06-03-2021 00:40:52 YCU 1.38 20.7 93.0 4.1 ok
06-03-2021 00:30:52 YCU 1.35 20.7 93.0 4.1 ok
06-03-2021 00:20:51 YCU 1.36 20.7 93.0 4.1 ok
06-03-2021 00:10:51 YCU 1.26 20.7 93.0 4.1 ok
06-03-2021 00:00:51 YCU 1.31 20.7 93.0 4.1 ok
05-03-2021 23:50:51 YCU 1.30 20.7 93.0 4.1 ok
05-03-2021 23:40:51 YCU 1.31 20.7 93.0 4.1 ok
05-03-2021 23:30:51 YCU 1.34 20.6 93.0 4.1 ok
05-03-2021 23:20:51 YCU 1.29 20.7 93.0 4.1 ok
05-03-2021 23:10:51 YCU 1.33 20.8 93.0 4.1 ok
05-03-2021 23:00:51 YCU 1.36 20.9 93.0 4.1 ok
05-03-2021 22:50:51 YCU 1.39 21.1 94.0 4.1 ok
05-03-2021 22:40:51 YCU 1.40 21.0 94.0 4.1 ok
05-03-2021 22:30:51 YCU 1.44 21.0 94.0 4.1 ok
05-03-2021 22:20:51 YCU 1.50 21.0 94.0 4.1 ok
05-03-2021 22:10:51 YCU 1.44 21.0 94.0 4.1 ok
05-03-2021 22:00:51 YCU 1.53 21.0 94.0 4.1 ok
05-03-2021 21:50:51 YCU 1.59 21.0 94.0 4.1 ok
05-03-2021 21:40:51 YCU 1.62 21.0 94.0 4.1 ok
05-03-2021 21:30:51 YCU 1.67 21.0 94.0 4.1 ok
05-03-2021 21:20:51 YCU 1.73 21.0 94.0 4.1 WF
05-03-2021 21:08:52 YCU 1.74 21.0 94.0 4.1 ok
05-03-2021 20:58:52 YCU 1.79 21.0 94.0 4.1 ok
05-03-2021 20:48:52 YCU 1.80 21.0 94.0 4.1 ok
05-03-2021 20:38:52 YCU 1.84 21.0 94.0 4.1 ok
05-03-2021 20:28:51 YCU 1.84 20.9 93.0 4.1 ok
05-03-2021 20:18:51 YCU 1.87 21.0 94.0 4.1 ok
05-03-2021 20:08:51 YCU 1.91 21.1 94.0 4.1 ok
05-03-2021 19:58:50 YCU 1.90 21.1 94.0 4.1 ok
05-03-2021 19:48:50 YCU 1.91 21.1 94.0 4.1 ok
05-03-2021 19:38:50 YCU 1.87 21.1 94.0 4.1 ok
05-03-2021 19:28:50 YCU 1.95 21.2 94.0 4.1 ok
05-03-2021 19:18:50 YCU 1.93 21.3 94.0 4.1 ok
05-03-2021 19:08:50 YCU 1.91 21.3 94.0 4.1 ok
05-03-2021 18:58:50 YCU 1.92 21.4 94.0 4.1 ok
05-03-2021 18:48:50 YCU 1.96 21.5 94.0 4.1 ok
05-03-2021 18:38:49 YCU 1.95 21.6 94.0 4.1 ok
05-03-2021 18:28:49 YCU 1.84 21.6 94.0 4.1 ok
05-03-2021 18:18:49 YCU 1.88 21.8 94.0 4.1 ok
05-03-2021 18:08:49 YCU 1.86 21.7 94.0 4.1 ok
05-03-2021 17:58:49 YCU 1.96 22.0 95.0 4.1 ok
05-03-2021 17:48:48 YCU 1.86 22.0 95.0 4.1 ok
05-03-2021 17:38:48 YCU 1.84 22.0 95.0 4.1 ok
05-03-2021 17:28:48 YCU 1.90 21.9 94.0 4.1 ok
05-03-2021 17:18:48 YCU 1.83 22.2 95.0 4.1 ok
05-03-2021 17:08:47 YCU 1.81 22.1 95.0 4.1 ok
05-03-2021 16:58:47 YCU 1.83 22.3 95.0 4.1 ok
05-03-2021 16:48:47 YCU 1.81 22.3 95.0 4.1 ok
05-03-2021 16:38:45 YCU 1.73 22.5 95.0 4.1 ok
05-03-2021 16:28:45 YCU 1.71 22.7 95.0 4.1 ok
05-03-2021 16:18:45 YCU 1.76 22.6 95.0 4.1 ok
05-03-2021 16:08:45 YCU 1.78 22.7 95.0 4.1 ok
05-03-2021 15:58:45 YCU 1.60 23.0 95.0 4.1 ok
05-03-2021 15:48:45 YCU 1.74 22.9 95.0 4.1 ok
05-03-2021 15:38:45 YCU 1.67 23.4 95.0 4.1 ok
05-03-2021 15:28:45 YCU 1.62 23.7 95.0 4.1 ok
05-03-2021 15:18:43 YCU 1.74 23.5 95.0 4.1 ok
05-03-2021 15:08:43 YCU 1.64 23.5 95.0 4.1 ok
05-03-2021 14:58:43 YCU 1.66 23.3 95.0 4.1 ok
05-03-2021 14:48:43 YCU 1.58 23.6 95.0 4.1 ok
05-03-2021 14:38:44 YCU 1.68 23.9 95.0 4.1 ok
05-03-2021 14:28:43 YCU 1.64 23.4 95.0 4.1 ok
05-03-2021 14:18:43 YCU 1.67 23.6 95.0 4.1 ok
05-03-2021 14:08:43 YCU 1.62 24.3 95.0 4.1 ok
05-03-2021 13:58:42 YCU 1.69 24.7 95.0 4.1 ok
05-03-2021 13:48:42 YCU 1.58 24.8 95.0 4.1 ok
05-03-2021 13:38:42 YCU 1.67 24.4 95.0 4.1 ok
05-03-2021 13:28:42 YCU 1.53 25.3 95.0 4.1 ok
05-03-2021 13:18:42 YCU 1.57 25.1 95.0 4.1 ok
05-03-2021 13:08:42 YCU 1.51 24.7 95.0 4.1 ok
05-03-2021 12:58:42 YCU 1.42 24.8 95.0 4.1 ok
05-03-2021 12:48:42 YCU 1.43 25.0 80.0 4.1 ok
05-03-2021 12:38:41 YCU 1.38 25.3 95.0 4.1 ok
05-03-2021 12:28:41 YCU 1.42 26.0 95.0 4.1 ok
05-03-2021 12:18:41 YCU 1.27 25.0 95.0 4.1 ok
05-03-2021 12:08:41 YCU 1.28 26.0 95.0 4.1 ok
05-03-2021 11:58:41 YCU 1.28 26.7 95.0 4.1 ok
05-03-2021 11:48:40 YCU 1.27 27.2 95.0 4.1 ok
05-03-2021 11:38:40 YCU 1.34 27.0 95.0 4.1 ok
05-03-2021 11:28:39 YCU 1.31 26.7 95.0 4.1 ok
05-03-2021 11:18:39 YCU 1.28 26.3 95.0 4.1 ok
05-03-2021 11:08:39 YCU 1.28 27.2 86.0 4.1 ok
05-03-2021 10:58:40 YCU 1.33 26.7 95.0 4.1 ok
05-03-2021 10:48:40 YCU 1.32 26.8 95.0 4.1 WF
05-03-2021 10:36:40 YCU 1.29 26.3 95.0 4.1 ok
05-03-2021 10:26:39 YCU 1.23 26.5 95.0 4.1 ok
05-03-2021 10:16:39 YCU 1.30 25.9 95.0 4.1 ok
05-03-2021 10:06:39 YCU 1.34 25.5 95.0 4.1 ok
05-03-2021 09:56:39 YCU 1.35 25.7 95.0 4.1 ok
05-03-2021 09:46:39 YCU 1.36 26.0 95.0 4.1 ok
05-03-2021 09:36:39 YCU 1.30 25.9 95.0 4.1 ok
05-03-2021 09:26:39 YCU 1.38 25.2 95.0 4.1 ok
05-03-2021 09:16:39 YCU 1.37 24.8 95.0 4.1 ok
05-03-2021 09:06:33 YCU 1.40 24.8 95.0 4.1 ok
05-03-2021 08:56:33 YCU 1.45 24.8 95.0 4.1 ok
05-03-2021 08:46:33 YCU 1.48 25.0 95.0 4.1 ok
05-03-2021 08:36:33 YCU 1.50 25.0 95.0 4.1 ok
05-03-2021 08:26:32 YCU 1.54 24.0 95.0 4.1 ok
05-03-2021 08:16:32 YCU 1.57 24.0 95.0 4.1 ok
05-03-2021 08:06:32 YCU 1.60 24.4 95.0 4.1 ok
05-03-2021 07:56:32 YCU 1.57 23.7 95.0 4.1 ok
05-03-2021 07:46:32 YCU 1.48 24.4 95.0 4.1 ok
05-03-2021 07:36:32 YCU 1.50 24.0 95.0 4.2 ok
05-03-2021 07:26:32 YCU 1.52 23.8 95.0 4.1 ok
05-03-2021 07:16:32 YCU 1.51 23.5 95.0 4.1 ok
05-03-2021 07:06:32 YCU 1.51 23.0 95.0 4.1 ok
05-03-2021 06:56:31 YCU 1.46 22.8 95.0 4.1 ok
05-03-2021 06:46:31 YCU 1.38 22.8 95.0 4.1 ok
05-03-2021 06:36:31 YCU 1.34 22.9 95.0 4.1 ok
05-03-2021 06:26:31 YCU 1.38 22.9 95.0 4.1 ok
05-03-2021 06:16:30 YCU 1.32 22.9 95.0 4.0 ON
05-03-2021 06:02:17 YCU 1.39 23.0 95.0 4.1 ok
05-03-2021 05:52:17 YCU 1.28 23.0 95.0 4.1 ok
05-03-2021 05:42:17 YCU 1.23 23.1 95.0 4.1 ok
05-03-2021 05:32:17 YCU 1.30 23.2 95.0 4.1 ok
05-03-2021 05:22:17 YCU 1.42 23.0 95.0 4.1 ok
05-03-2021 05:12:16 YCU 1.47 23.1 95.0 4.1 ok
05-03-2021 05:02:17 YCU 1.40 23.1 95.0 4.1 ok
05-03-2021 04:52:16 YCU 1.40 23.0 95.0 4.1 ok
05-03-2021 04:42:16 YCU 1.39 23.0 95.0 4.1 ok
05-03-2021 04:32:16 YCU 1.35 23.0 95.0 4.1 ok
05-03-2021 04:22:16 YCU 1.36 23.1 95.0 4.1 ok
05-03-2021 04:12:16 YCU 1.31 23.2 95.0 4.1 ok
05-03-2021 04:02:16 YCU 1.30 23.2 95.0 4.1 ok
05-03-2021 03:52:16 YCU 1.32 23.2 95.0 4.1 ok
05-03-2021 03:42:16 YCU 1.31 23.2 95.0 4.1 ok
05-03-2021 03:32:15 YCU 1.32 23.2 95.0 4.1 ok
05-03-2021 03:22:16 YCU 1.25 23.2 95.0 4.1 WF
05-03-2021 03:10:15 YCU 1.27 23.3 95.0 4.1 ok
05-03-2021 03:00:15 YCU 1.29 23.2 95.0 4.1 ok
05-03-2021 02:50:15 YCU 1.23 23.2 95.0 4.1 ok
05-03-2021 02:40:15 YCU 1.28 23.2 95.0 4.1 ok
05-03-2021 02:30:15 YCU 1.29 23.2 95.0 4.1 ok
05-03-2021 02:20:15 YCU 1.24 23.2 95.0 4.1 ok
05-03-2021 02:10:15 YCU 1.32 23.1 95.0 4.1 ok
05-03-2021 02:00:15 YCU 1.30 23.1 95.0 4.1 ok
05-03-2021 01:50:14 YCU 1.27 23.1 95.0 4.1 ok
05-03-2021 01:40:15 YCU 1.22 23.2 95.0 4.1 ok
05-03-2021 01:30:14 YCU 1.27 23.2 95.0 4.1 ok
05-03-2021 01:20:14 YCU 1.30 23.1 95.0 4.1 ok
05-03-2021 01:10:15 YCU 1.22 23.1 95.0 4.1 ok
05-03-2021 01:00:15 YCU 1.22 23.0 95.0 4.1 ok
05-03-2021 00:50:15 YCU 1.19 23.0 95.0 4.1 ok
05-03-2021 00:40:15 YCU 1.15 23.1 95.0 4.1 ok
05-03-2021 00:30:14 YCU 1.21 23.1 95.0 4.1 ok
05-03-2021 00:20:13 YCU 1.14 23.1 95.0 4.1 ok
05-03-2021 00:10:13 YCU 1.03 23.1 95.0 4.1 ok
05-03-2021 00:00:13 YCU 0.94 23.1 95.0 4.1 ok
04-03-2021 23:50:13 YCU 0.99 23.2 95.0 4.1 ok
04-03-2021 23:40:13 YCU 0.96 23.2 95.0 4.1 ok
04-03-2021 23:30:13 YCU 0.75 23.2 95.0 4.1 ok
04-03-2021 23:20:12 YCU 0.75 23.3 95.0 4.1 ok
04-03-2021 23:10:13 YCU 0.93 23.4 95.0 4.1 ok
04-03-2021 23:00:13 YCU 0.84 23.3 95.0 4.1 ok
04-03-2021 22:50:13 YCU 0.73 23.3 95.0 4.1 ok
04-03-2021 22:40:14 YCU 0.80 23.2 95.0 4.1 ok
04-03-2021 22:30:14 YCU 0.89 23.2 95.0 4.1 WF
04-03-2021 22:18:12 YCU 0.80 23.3 95.0 4.1 ok
04-03-2021 22:08:12 YCU 0.80 23.2 95.0 4.1 ok
04-03-2021 21:58:11 YCU 0.77 23.3 95.0 4.1 ok
04-03-2021 21:48:11 YCU 0.93 23.3 95.0 4.1 ok
04-03-2021 21:38:11 YCU 1.03 23.4 95.0 4.1 ok
04-03-2021 21:28:10 YCU 0.97 23.4 95.0 4.1 ok
04-03-2021 21:18:10 YCU 1.03 23.4 95.0 4.1 ok
04-03-2021 21:08:10 YCU 1.00 23.4 95.0 4.1 ok
04-03-2021 20:58:10 YCU 1.05 23.5 95.0 4.1 ok
04-03-2021 20:48:09 YCU 1.07 23.5 95.0 4.1 ok
04-03-2021 20:38:09 YCU 1.06 23.5 95.0 4.1 ok
04-03-2021 20:28:09 YCU 1.13 23.6 95.0 4.1 ok
04-03-2021 20:18:09 YCU 1.17 23.6 95.0 4.1 ok
04-03-2021 20:08:09 YCU 1.15 23.7 95.0 4.1 ok
04-03-2021 19:58:09 YCU 1.15 23.7 95.0 4.1 ok
04-03-2021 19:48:08 YCU 1.25 23.8 95.0 4.1 ok
04-03-2021 19:38:08 YCU 1.26 23.9 95.0 4.1 ok
04-03-2021 19:28:07 YCU 1.17 24.0 95.0 4.1 ok
04-03-2021 19:18:07 YCU 1.18 24.1 95.0 4.1 ok
04-03-2021 19:08:07 YCU 1.19 24.3 95.0 4.1 ok
04-03-2021 18:58:06 YCU 1.15 24.3 95.0 4.1 ok
04-03-2021 18:48:07 YCU 1.21 24.5 95.0 4.1 ok
04-03-2021 18:38:07 YCU 1.21 24.8 95.0 4.1 ok
04-03-2021 18:28:06 YCU 1.17 24.8 95.0 4.1 ok
04-03-2021 18:18:06 YCU 1.10 25.0 95.0 4.1 ok
04-03-2021 18:08:06 YCU 1.16 25.4 95.0 4.1 ok
04-03-2021 17:58:05 YCU 1.02 25.1 95.0 4.1 ok
04-03-2021 17:48:05 YCU 1.25 25.3 95.0 4.1 ok
04-03-2021 17:38:05 YCU 1.18 25.7 95.0 4.1 ok
04-03-2021 17:28:05 YCU 1.05 25.7 95.0 4.1 ok
04-03-2021 17:18:05 YCU 1.06 25.6 95.0 4.1 ok
04-03-2021 17:08:05 YCU 1.06 25.9 95.0 4.1 ok
04-03-2021 16:58:04 YCU 1.04 25.8 95.0 4.1 ok
04-03-2021 16:48:03 YCU 1.08 25.8 95.0 4.1 ok
04-03-2021 16:38:03 YCU 1.04 25.9 95.0 4.1 ok
04-03-2021 16:28:02 YCU 0.96 26.2 95.0 4.1 ok
04-03-2021 16:18:02 YCU 0.93 26.6 95.0 4.1 ok
04-03-2021 16:08:02 YCU 0.89 26.6 95.0 4.1 ok
04-03-2021 15:58:01 YCU 0.98 26.7 95.0 4.1 ok
04-03-2021 15:48:01 YCU 1.04 27.0 95.0 4.1 ok
04-03-2021 15:38:00 YCU 0.88 27.1 95.0 4.1 ok
04-03-2021 15:27:59 YCU 0.86 27.2 95.0 4.1 ok
04-03-2021 15:17:59 YCU 0.88 27.1 95.0 4.1 ok
04-03-2021 15:07:59 YCU 0.90 26.7 95.0 4.1 ok
04-03-2021 14:57:59 YCU 0.95 27.0 95.0 4.1 ok
04-03-2021 14:47:59 YCU 0.88 26.9 95.0 4.1 ok
04-03-2021 14:37:59 YCU 0.89 27.0 95.0 4.1 ok
04-03-2021 14:27:58 YCU 0.86 27.1 95.0 4.1 ok
04-03-2021 14:17:58 YCU 0.96 27.3 95.0 4.1 ok
04-03-2021 14:07:58 YCU 0.89 27.3 95.0 4.1 ok
04-03-2021 13:57:58 YCU 0.90 27.5 95.0 4.1 ok
04-03-2021 13:47:58 YCU 0.89 27.8 95.0 4.1 ok
04-03-2021 13:37:58 YCU 0.84 28.3 95.0 4.1 ok
04-03-2021 13:27:58 YCU 0.92 28.7 95.0 4.1 ok
04-03-2021 13:17:57 YCU 0.89 28.5 95.0 4.1 ok
04-03-2021 13:07:57 YCU 0.85 28.9 95.0 4.1 ok
04-03-2021 12:57:57 YCU 0.88 29.0 95.0 4.1 ok
04-03-2021 12:47:57 YCU 0.94 28.7 95.0 4.1 ok
04-03-2021 12:37:57 YCU 0.76 28.2 95.0 4.1 ok
04-03-2021 12:27:57 YCU 0.78 28.5 95.0 4.1 ok
04-03-2021 12:17:57 YCU 0.71 28.7 95.0 4.1 ok
04-03-2021 12:07:58 YCU 0.67 28.3 95.0 4.1 ok
04-03-2021 11:57:58 YCU 0.70 28.9 95.0 4.1 ok
04-03-2021 11:47:58 YCU 0.66 28.9 95.0 4.1 WF
04-03-2021 11:35:28 YCU 0.67 28.9 95.0 4.1 ok
04-03-2021 11:25:27 YCU 0.58 28.4 95.0 4.1 ok
04-03-2021 11:15:27 YCU 0.52 28.2 95.0 4.1 ok
04-03-2021 11:05:26 YCU 0.51 28.5 95.0 4.1 ok
04-03-2021 10:55:27 YCU 0.52 28.3 95.0 4.1 WF
04-03-2021 10:43:11 YCU 0.46 27.5 95.0 4.1 ok
04-03-2021 10:33:10 YCU 0.44 27.6 95.0 4.1 ok
04-03-2021 10:23:11 YCU 0.49 27.1 95.0 4.1 ok
04-03-2021 10:13:11 YCU 0.47 27.3 95.0 4.1 ok
04-03-2021 10:03:11 YCU 0.45 26.3 95.0 4.1 ok
04-03-2021 09:53:11 YCU 0.46 25.3 95.0 4.1 ok
04-03-2021 09:43:09 YCU 0.43 24.3 95.0 4.1 ok
04-03-2021 09:33:10 YCU 0.42 24.3 95.0 4.1 ok
04-03-2021 09:23:11 YCU 0.49 24.4 95.0 4.1 ok
04-03-2021 09:13:00 YCU 0.54 24.5 95.0 4.1 ok
04-03-2021 09:03:00 YCU 0.62 24.9 95.0 4.1 ok
04-03-2021 08:53:00 YCU 0.62 25.0 95.0 4.1 ok
04-03-2021 08:43:00 YCU 0.72 24.8 95.0 4.1 ok
04-03-2021 08:33:00 YCU 0.77 24.4 95.0 4.1 ok
04-03-2021 08:23:00 YCU 0.75 24.4 95.0 4.1 ok
04-03-2021 08:13:00 YCU 0.87 24.5 95.0 4.1 ok
04-03-2021 08:03:00 YCU 0.89 24.4 95.0 4.1 ok
04-03-2021 07:53:00 YCU 0.89 23.7 95.0 4.1 ok
04-03-2021 07:42:59 YCU 0.97 23.3 95.0 4.1 ok
04-03-2021 07:32:59 YCU 1.01 23.2 95.0 4.1 ok
04-03-2021 07:22:59 YCU 0.94 23.1 95.0 4.1 ok
04-03-2021 07:12:58 YCU 0.99 23.0 95.0 4.1 ok
04-03-2021 07:02:58 YCU 0.96 22.9 95.0 4.1 ok
04-03-2021 06:52:58 YCU 1.00 22.9 95.0 4.1 ok
04-03-2021 06:42:57 YCU 1.02 23.0 95.0 4.1 ok
04-03-2021 06:32:57 YCU 0.95 23.0 95.0 4.1 ok
04-03-2021 06:22:57 YCU 0.98 23.0 95.0 4.1 ok
04-03-2021 06:12:56 YCU 0.98 22.9 95.0 4.1 ok
04-03-2021 06:02:56 YCU 0.94 22.9 95.0 4.1 ok
04-03-2021 05:52:55 YCU 1.00 22.9 95.0 4.1 ok
04-03-2021 05:42:55 YCU 1.05 22.8 95.0 4.1 ok
04-03-2021 05:32:55 YCU 0.95 22.8 95.0 4.1 ok
04-03-2021 05:22:55 YCU 0.98 22.8 95.0 4.1 ok
04-03-2021 05:12:55 YCU 1.00 22.8 95.0 4.1 ok
04-03-2021 05:02:54 YCU 1.01 22.8 95.0 4.1 ok
04-03-2021 04:52:54 YCU 1.01 22.7 95.0 4.1 ok
04-03-2021 04:42:54 YCU 0.97 22.7 95.0 4.1 ok
04-03-2021 04:32:54 YCU 1.03 22.7 95.0 4.1 ok
04-03-2021 04:22:54 YCU 1.02 22.7 95.0 4.1 ok
04-03-2021 04:12:54 YCU 0.95 22.6 95.0 4.1 ok
04-03-2021 04:02:54 YCU 1.00 22.6 95.0 4.1 ok
04-03-2021 03:52:54 YCU 0.93 22.6 95.0 4.1 ok
04-03-2021 03:42:53 YCU 0.90 22.6 95.0 4.1 ok
04-03-2021 03:32:53 YCU 0.94 22.7 95.0 4.1 ok
04-03-2021 03:22:53 YCU 0.91 22.7 95.0 4.1 ok
04-03-2021 03:12:53 YCU 0.94 22.7 95.0 4.1 ok
04-03-2021 03:02:53 YCU 0.91 22.7 95.0 4.1 ok
04-03-2021 02:52:53 YCU 0.98 22.6 95.0 4.1 ok
04-03-2021 02:42:53 YCU 0.94 22.5 95.0 4.1 ok
04-03-2021 02:32:53 YCU 0.96 22.5 95.0 4.1 ok
04-03-2021 02:22:52 YCU 0.87 22.5 95.0 4.1 ok
04-03-2021 02:12:52 YCU 0.96 22.5 95.0 4.1 ok
04-03-2021 02:02:52 YCU 0.96 22.8 95.0 4.1 ok
04-03-2021 01:52:52 YCU 0.98 23.0 95.0 4.1 ok
04-03-2021 01:42:52 YCU 0.97 23.4 95.0 4.1 ok
04-03-2021 01:32:52 YCU 0.98 23.4 95.0 4.1 ok
04-03-2021 01:22:52 YCU 0.94 23.4 95.0 4.1 ok
04-03-2021 01:12:51 YCU 0.95 23.4 95.0 4.1 ok
04-03-2021 01:02:51 YCU 0.96 23.3 95.0 4.1 ok
04-03-2021 00:52:51 YCU 0.93 23.2 95.0 4.1 ok
04-03-2021 00:42:50 YCU 0.95 23.4 95.0 4.1 ok
04-03-2021 00:32:50 YCU 0.97 23.4 95.0 4.1 ok
04-03-2021 00:22:50 YCU 1.00 23.4 95.0 4.1 ok
04-03-2021 00:12:49 YCU 0.96 23.4 95.0 4.1 ok
04-03-2021 00:02:49 YCU 0.91 23.4 95.0 4.1 ok
03-03-2021 23:52:49 YCU 0.84 23.4 95.0 4.1 ok
03-03-2021 23:42:49 YCU 0.88 23.4 95.0 4.1 ok
03-03-2021 23:32:49 YCU 0.84 23.4 95.0 4.1 ok
03-03-2021 23:22:48 YCU 0.77 23.4 95.0 4.1 ok
03-03-2021 23:12:48 YCU 0.74 23.4 95.0 4.1 ok
03-03-2021 23:02:48 YCU 0.73 23.4 95.0 4.1 ok
03-03-2021 22:52:48 YCU 0.70 23.3 95.0 4.1 ok
03-03-2021 22:42:48 YCU 0.66 23.6 95.0 4.1 ok
03-03-2021 22:32:48 YCU 0.65 23.6 95.0 4.1 ok
03-03-2021 22:22:48 YCU 0.58 23.6 95.0 4.1 WF
03-03-2021 22:10:49 YCU 0.58 23.7 95.0 4.1 ok
03-03-2021 22:00:49 YCU 0.63 23.6 95.0 4.1 ok
03-03-2021 21:50:48 YCU 0.62 23.6 95.0 4.1 ok
03-03-2021 21:40:48 YCU 0.60 23.6 95.0 4.1 ok
03-03-2021 21:30:48 YCU 0.60 23.7 95.0 4.1 ok
03-03-2021 21:20:48 YCU 0.66 23.7 95.0 4.1 ok
03-03-2021 21:10:48 YCU 0.70 23.7 95.0 4.1 ok
03-03-2021 21:00:48 YCU 0.73 23.7 95.0 4.1 ok
03-03-2021 20:50:48 YCU 0.72 23.7 95.0 4.1 ok
03-03-2021 20:40:48 YCU 0.78 23.8 95.0 4.1 ok
03-03-2021 20:30:48 YCU 0.75 23.7 95.0 4.1 ok
03-03-2021 20:20:48 YCU 0.85 23.8 95.0 4.1 ok
03-03-2021 20:10:48 YCU 0.88 23.9 95.0 4.1 ok
03-03-2021 20:00:48 YCU 0.90 23.9 95.0 4.1 ok
03-03-2021 19:50:48 YCU 0.94 23.9 95.0 4.1 ok
03-03-2021 19:40:47 YCU 1.03 23.9 95.0 4.1 ok
03-03-2021 19:30:47 YCU 1.05 23.9 95.0 4.1 ok
03-03-2021 19:20:45 YCU 1.08 24.1 95.0 4.1 ok
03-03-2021 19:10:45 YCU 1.12 24.3 95.0 4.1 ok
03-03-2021 19:00:44 YCU 1.10 24.5 95.0 4.1 ok
03-03-2021 18:50:43 YCU 1.18 24.8 95.0 4.1 ok
03-03-2021 18:40:42 YCU 1.18 25.2 95.0 4.1 ok
03-03-2021 18:30:42 YCU 1.14 25.5 95.0 4.1 ok
03-03-2021 18:20:42 YCU 1.13 25.6 95.0 4.1 ok
03-03-2021 18:10:41 YCU 1.14 25.6 95.0 4.1 ok
03-03-2021 18:00:41 YCU 1.13 25.4 95.0 4.1 ok
03-03-2021 17:50:41 YCU 1.08 25.2 95.0 4.1 ok
03-03-2021 17:40:41 YCU 1.08 25.3 95.0 4.1 ok
03-03-2021 17:30:41 YCU 1.07 25.3 95.0 4.1 ok
03-03-2021 17:20:41 YCU 1.04 25.4 95.0 4.1 ok
03-03-2021 17:10:41 YCU 1.02 25.2 95.0 4.1 ok
03-03-2021 17:00:40 YCU 1.02 25.3 95.0 4.1 ok
03-03-2021 16:50:39 YCU 0.99 25.3 95.0 4.1 ok
03-03-2021 16:40:36 YCU 1.00 25.3 95.0 4.0 ON
03-03-2021 16:26:08 YCU 1.01 25.3 95.0 4.1 ok
03-03-2021 16:16:08 YCU 0.98 25.3 95.0 4.1 ok
03-03-2021 16:06:07 YCU 0.99 25.5 95.0 4.1 ok
03-03-2021 15:56:06 YCU 0.97 25.6 95.0 4.1 ok
03-03-2021 15:46:06 YCU 0.97 25.7 95.0 4.1 ok
03-03-2021 15:36:06 YCU 0.98 25.8 95.0 4.1 ok
03-03-2021 15:26:06 YCU 0.94 25.9 95.0 4.1 ok
03-03-2021 15:16:05 YCU 0.95 26.2 95.0 4.1 ok
03-03-2021 15:06:05 YCU 0.92 26.3 95.0 4.1 ok
03-03-2021 14:56:05 YCU 0.97 26.3 95.0 4.1 ok
03-03-2021 14:46:05 YCU 0.93 26.3 95.0 4.1 ok
03-03-2021 14:36:05 YCU 0.93 26.3 95.0 4.1 ok
03-03-2021 14:26:05 YCU 0.91 26.3 95.0 4.1 ok
03-03-2021 14:16:05 YCU 0.96 26.5 95.0 4.1 ok
03-03-2021 14:06:04 YCU 0.97 26.6 95.0 4.1 ok
03-03-2021 13:56:04 YCU 0.94 26.8 95.0 4.1 ok
03-03-2021 13:46:02 YCU 0.95 27.4 95.0 4.1 ok
03-03-2021 13:36:02 YCU 0.96 28.2 95.0 4.1 ok
03-03-2021 13:26:01 YCU 0.96 28.4 95.0 4.1 ok
03-03-2021 13:16:01 YCU 0.97 28.4 95.0 4.1 ok
03-03-2021 13:06:00 YCU 0.98 28.5 95.0 4.1 ok
03-03-2021 12:56:00 YCU 1.01 28.6 95.0 4.1 ok
03-03-2021 12:46:00 YCU 0.96 28.8 95.0 4.1 ok
03-03-2021 12:35:59 YCU 0.94 28.9 95.0 4.1 ok
03-03-2021 12:25:59 YCU 0.97 28.9 95.0 4.1 ok
03-03-2021 12:15:59 YCU 0.92 29.0 95.0 4.1 ok
03-03-2021 12:05:59 YCU 0.96 28.7 95.0 4.1 ok
03-03-2021 11:55:59 YCU 0.95 28.8 95.0 4.1 ok
03-03-2021 11:45:59 YCU 0.93 29.0 95.0 4.1 ok
03-03-2021 11:35:59 YCU 0.88 28.9 95.0 4.1 ok
03-03-2021 11:25:59 YCU 0.87 28.6 95.0 4.1 ok
03-03-2021 11:15:59 YCU 0.83 28.9 95.0 4.1 ok
03-03-2021 11:05:58 YCU 0.78 28.1 95.0 4.1 ok
03-03-2021 10:55:58 YCU 0.81 27.2 95.0 4.1 ok
03-03-2021 10:45:57 YCU 0.77 26.4 95.0 4.1 ok
03-03-2021 10:35:57 YCU 0.70 25.3 95.0 4.1 ok
03-03-2021 10:25:57 YCU 0.67 25.2 95.0 4.1 ok
03-03-2021 10:15:57 YCU 0.66 25.2 95.0 4.1 ok
03-03-2021 10:05:57 YCU 0.64 24.9 95.0 4.1 ok
03-03-2021 09:55:57 YCU 0.58 24.7 95.0 4.1 ok
03-03-2021 09:45:57 YCU 0.54 24.8 95.0 4.1 ok
03-03-2021 09:35:57 YCU 0.54 24.1 95.0 4.1 ok
03-03-2021 09:25:57 YCU 0.56 24.6 95.0 4.1 ok
03-03-2021 09:15:56 YCU 0.56 25.0 95.0 4.1 ok
03-03-2021 09:05:56 YCU 0.58 25.2 95.0 4.1 ok
03-03-2021 08:55:56 YCU 0.61 25.7 95.0 4.1 ok
03-03-2021 08:45:56 YCU 0.62 25.9 95.0 4.1 ok
03-03-2021 08:35:56 YCU 0.65 26.1 95.0 4.1 ok
03-03-2021 08:25:55 YCU 0.69 25.8 95.0 4.1 ok
03-03-2021 08:15:55 YCU 0.73 25.4 95.0 4.1 ok
03-03-2021 08:05:55 YCU 0.77 25.0 95.0 4.1 ok
03-03-2021 07:55:55 YCU 0.80 24.7 95.0 4.1 ok
03-03-2021 07:45:55 YCU 0.83 24.4 95.0 4.1 ok
03-03-2021 07:35:55 YCU 0.86 24.2 95.0 4.1 ok
03-03-2021 07:25:55 YCU 0.94 24.0 95.0 4.1 ok
03-03-2021 07:15:55 YCU 0.98 23.7 95.0 4.1 ok
03-03-2021 07:05:55 YCU 1.00 23.3 95.0 4.1 ok
03-03-2021 06:55:55 YCU 1.00 23.2 95.0 4.1 ok
03-03-2021 06:45:55 YCU 0.99 23.1 95.0 4.1 ok
03-03-2021 06:35:55 YCU 1.04 23.2 95.0 4.1 ok
03-03-2021 06:25:55 YCU 1.09 23.1 95.0 4.1 ok
03-03-2021 06:15:55 YCU 1.04 23.2 95.0 4.1 ok
03-03-2021 06:05:55 YCU 1.02 23.2 95.0 4.1 ok
03-03-2021 05:55:54 YCU 1.02 23.2 95.0 4.1 ok
03-03-2021 05:45:54 YCU 1.04 23.2 95.0 4.1 ok
03-03-2021 05:35:54 YCU 1.03 23.1 95.0 4.1 ok
03-03-2021 05:25:54 YCU 1.06 23.1 95.0 4.1 ok
03-03-2021 05:15:51 YCU 1.07 23.1 95.0 4.1 ok
03-03-2021 05:05:51 YCU 1.08 23.2 95.0 4.1 ok
03-03-2021 04:55:51 YCU 1.01 23.1 95.0 4.1 ok
03-03-2021 04:45:51 YCU 1.08 23.1 95.0 4.1 ok
03-03-2021 04:35:51 YCU 1.07 23.1 95.0 4.1 ok
03-03-2021 04:25:51 YCU 1.08 23.1 95.0 4.1 ok
03-03-2021 04:15:51 YCU 1.11 23.1 95.0 4.1 ok
03-03-2021 04:05:50 YCU 1.12 23.2 95.0 4.1 ok
03-03-2021 03:55:50 YCU 1.13 23.2 95.0 4.1 ok
03-03-2021 03:45:51 YCU 1.17 23.2 95.0 4.1 ok
03-03-2021 03:35:51 YCU 1.14 23.2 95.0 4.1 WF
03-03-2021 03:23:37 YCU 1.14 23.3 95.0 4.1 ok
03-03-2021 03:13:36 YCU 1.17 23.4 95.0 4.1 ok
03-03-2021 03:03:36 YCU 1.20 23.3 95.0 4.1 ok
03-03-2021 02:53:36 YCU 1.23 23.3 95.0 4.1 ok
03-03-2021 02:43:36 YCU 1.21 23.3 95.0 4.1 ok
03-03-2021 02:33:36 YCU 1.17 23.3 95.0 4.1 ok
03-03-2021 02:23:36 YCU 1.18 23.3 95.0 4.1 ok
03-03-2021 02:13:16 YCU 1.15 23.3 95.0 4.1 ok
03-03-2021 02:03:16 YCU 1.19 23.3 95.0 4.1 ok
03-03-2021 01:53:16 YCU 1.21 23.4 95.0 4.1 ok
03-03-2021 01:43:16 YCU 1.18 23.4 95.0 4.1 ok
03-03-2021 01:33:15 YCU 1.20 23.5 95.0 4.1 ok
03-03-2021 01:23:15 YCU 1.20 23.4 95.0 4.1 ok
03-03-2021 01:13:15 YCU 1.20 23.3 95.0 4.1 ok
03-03-2021 01:03:15 YCU 1.17 23.4 95.0 4.1 ok
03-03-2021 00:53:15 YCU 1.21 23.4 95.0 4.1 ok
03-03-2021 00:43:15 YCU 1.18 23.5 95.0 4.1 ok
03-03-2021 00:33:15 YCU 1.23 23.6 95.0 4.1 ok
03-03-2021 00:23:15 YCU 1.24 23.6 95.0 4.1 ok
03-03-2021 00:13:15 YCU 1.23 23.6 95.0 4.1 ok
03-03-2021 00:03:15 YCU 1.17 23.6 95.0 4.1 ok
02-03-2021 23:53:14 YCU 1.18 23.6 95.0 4.1 ok
02-03-2021 23:43:14 YCU 1.18 23.7 95.0 4.1 ok
02-03-2021 23:33:14 YCU 1.18 23.7 95.0 4.1 ok
02-03-2021 23:23:14 YCU 1.11 23.8 95.0 4.1 ok
02-03-2021 23:13:14 YCU 1.10 23.9 95.0 4.1 ok
02-03-2021 23:03:14 YCU 1.13 24.0 95.0 4.1 ok
02-03-2021 22:53:13 YCU 1.09 24.0 95.0 4.1 ok
02-03-2021 22:43:13 YCU 1.13 24.0 95.0 4.1 ok
02-03-2021 22:33:13 YCU 0.98 24.1 95.0 4.1 ok
02-03-2021 22:23:13 YCU 1.02 24.2 95.0 4.1 ok
02-03-2021 22:13:13 YCU 0.95 24.2 95.0 4.1 ok
02-03-2021 22:03:13 YCU 1.01 24.1 95.0 4.1 ok
02-03-2021 21:53:12 YCU 0.87 24.3 95.0 4.1 ok
02-03-2021 21:43:12 YCU 0.94 24.3 95.0 4.1 ok
02-03-2021 21:33:11 YCU 0.83 24.3 95.0 4.1 ok
02-03-2021 21:23:11 YCU 0.97 24.3 95.0 4.1 ok
02-03-2021 21:13:11 YCU 0.91 24.3 95.0 4.1 ok
02-03-2021 21:03:11 YCU 0.96 24.4 95.0 4.1 ok
02-03-2021 20:53:10 YCU 0.88 24.4 95.0 4.1 ok
02-03-2021 20:43:10 YCU 0.91 24.4 95.0 4.1 ok
02-03-2021 20:33:10 YCU 0.96 24.4 95.0 4.1 ok
02-03-2021 20:23:06 YCU 0.99 24.4 95.0 4.1 ok
02-03-2021 20:13:06 YCU 0.99 24.5 95.0 4.1 ok
02-03-2021 20:03:06 YCU 1.04 24.5 95.0 4.1 ok
02-03-2021 19:53:06 YCU 1.04 24.5 95.0 4.1 ok
02-03-2021 19:43:06 YCU 1.14 24.5 95.0 4.1 ok
02-03-2021 19:33:05 YCU 1.13 24.6 95.0 4.1 ok
02-03-2021 19:23:06 YCU 1.20 24.7 95.0 4.1 ok
02-03-2021 19:13:06 YCU 1.27 24.8 95.0 4.1 ok
02-03-2021 19:03:04 YCU 1.31 24.8 95.0 4.1 ok
02-03-2021 18:53:04 YCU 1.34 25.0 95.0 4.1 ok
02-03-2021 18:43:03 YCU 1.40 25.4 95.0 4.1 ok
02-03-2021 18:33:02 YCU 1.41 25.7 95.0 4.1 ok
02-03-2021 18:23:02 YCU 1.41 25.8 95.0 4.1 ok
02-03-2021 18:13:01 YCU 1.40 25.9 95.0 4.1 ok
02-03-2021 18:03:01 YCU 1.48 25.8 95.0 4.1 ok
02-03-2021 17:52:59 YCU 1.50 25.6 95.0 4.1 ok
02-03-2021 17:42:59 YCU 1.46 25.6 95.0 4.1 ok
02-03-2021 17:32:58 YCU 1.46 25.7 95.0 4.1 ok
02-03-2021 17:22:58 YCU 1.45 25.8 95.0 4.1 ok
02-03-2021 17:12:58 YCU 1.47 25.9 95.0 4.1 ok
02-03-2021 17:02:57 YCU 1.47 26.0 95.0 4.1 ok
02-03-2021 16:52:57 YCU 1.44 26.0 95.0 4.1 ok
02-03-2021 16:42:57 YCU 1.46 26.0 95.0 4.1 ok
02-03-2021 16:32:56 YCU 1.42 26.2 95.0 4.1 ok
02-03-2021 16:22:56 YCU 1.38 26.2 95.0 4.1 ok
02-03-2021 16:12:54 YCU 1.34 26.2 95.0 4.1 ok
02-03-2021 16:02:54 YCU 1.36 26.4 95.0 4.1 ok
02-03-2021 15:52:53 YCU 1.34 26.5 95.0 4.1 ok
02-03-2021 15:42:52 YCU 1.34 26.8 95.0 4.1 ok
02-03-2021 15:32:52 YCU 1.32 26.9 95.0 4.1 ok
02-03-2021 15:22:52 YCU 1.34 27.0 95.0 4.1 ok
02-03-2021 15:12:52 YCU 1.31 27.2 95.0 4.1 ok
02-03-2021 15:02:51 YCU 1.29 27.2 95.0 4.1 ok
02-03-2021 14:52:51 YCU 1.26 27.2 95.0 4.1 ok
02-03-2021 14:42:50 YCU 1.26 27.3 95.0 4.1 ok
02-03-2021 14:32:50 YCU 1.21 27.4 95.0 4.1 ok
02-03-2021 14:22:49 YCU 1.24 27.3 95.0 4.1 ok
02-03-2021 14:12:49 YCU 1.22 27.4 95.0 4.1 ok
02-03-2021 14:02:49 YCU 1.21 27.6 95.0 4.1 ok
02-03-2021 13:52:49 YCU 1.16 27.9 95.0 4.1 ok
02-03-2021 13:42:49 YCU 1.17 28.8 95.0 4.1 ok
02-03-2021 13:32:49 YCU 1.12 29.7 95.0 4.1 ok
02-03-2021 13:22:49 YCU 1.13 29.8 95.0 4.1 ok
02-03-2021 13:12:48 YCU 1.11 30.0 95.0 4.1 ok
02-03-2021 13:02:48 YCU 1.06 30.4 95.0 4.1 ok
02-03-2021 12:52:47 YCU 1.13 30.2 95.0 4.1 ok
02-03-2021 12:42:47 YCU 1.09 30.3 95.0 4.1 ok
02-03-2021 12:32:47 YCU 1.08 30.4 95.0 4.1 ok
02-03-2021 12:22:46 YCU 1.06 30.3 95.0 4.1 ok
02-03-2021 12:12:46 YCU 1.12 30.2 95.0 4.1 ok
02-03-2021 12:02:46 YCU 1.08 30.2 95.0 4.1 ok
02-03-2021 11:52:46 YCU 1.10 29.8 95.0 4.1 ok
02-03-2021 11:42:45 YCU 1.10 29.3 95.0 4.1 ok
02-03-2021 11:32:45 YCU 1.08 28.8 95.0 4.1 ok
02-03-2021 11:22:45 YCU 1.08 27.7 95.0 4.1 ok
02-03-2021 11:12:45 YCU 1.09 28.3 95.0 4.1 ok
02-03-2021 11:02:44 YCU 1.14 28.6 95.0 4.1 ok
02-03-2021 10:52:43 YCU 1.08 28.4 95.0 4.1 ok
02-03-2021 10:42:43 YCU 1.00 28.4 95.0 4.1 ok
02-03-2021 10:32:43 YCU 1.02 28.2 95.0 4.1 ok
02-03-2021 10:22:42 YCU 1.01 28.1 95.0 4.1 ok
02-03-2021 10:12:42 YCU 0.98 27.7 95.0 4.1 ok
02-03-2021 10:02:41 YCU 0.90 27.8 95.0 4.1 ok
02-03-2021 09:52:41 YCU 0.87 27.0 95.0 4.2 ok
02-03-2021 09:42:41 YCU 0.84 26.1 95.0 4.1 ok
02-03-2021 09:32:41 YCU 0.79 25.7 95.0 4.1 ok
02-03-2021 09:22:41 YCU 0.80 25.2 95.0 4.1 ok
02-03-2021 09:12:40 YCU 0.72 25.5 95.0 4.1 ok
02-03-2021 09:02:40 YCU 0.62 25.2 95.0 4.1 ok
02-03-2021 08:52:40 YCU 0.66 24.9 95.0 4.1 ok
02-03-2021 08:42:40 YCU 0.69 25.2 95.0 4.1 ok
02-03-2021 08:32:39 YCU 0.67 24.9 95.0 4.1 ok
02-03-2021 08:22:39 YCU 0.63 25.4 95.0 4.1 ok
02-03-2021 08:12:39 YCU 0.66 24.9 95.0 4.1 ok
02-03-2021 08:02:39 YCU 0.63 24.9 95.0 4.1 ok
02-03-2021 07:52:39 YCU 0.65 24.3 95.0 4.1 ok
02-03-2021 07:42:39 YCU 0.73 23.9 95.0 4.1 ok
02-03-2021 07:32:39 YCU 0.70 23.7 95.0 4.1 ok
02-03-2021 07:22:39 YCU 0.72 23.8 95.0 4.1 ok
02-03-2021 07:12:39 YCU 0.75 23.6 95.0 4.1 ok
02-03-2021 07:02:39 YCU 0.80 23.2 95.0 4.1 ok
02-03-2021 06:52:38 YCU 0.79 23.1 95.0 4.1 ok
02-03-2021 06:42:37 YCU 0.84 23.2 95.0 4.1 ok
02-03-2021 06:32:37 YCU 0.79 23.2 95.0 4.1 ok
02-03-2021 06:22:38 YCU 0.78 23.2 95.0 4.1 ok
02-03-2021 06:12:37 YCU 0.94 23.2 95.0 4.1 ok
02-03-2021 06:02:37 YCU 0.84 23.2 95.0 4.1 ok
02-03-2021 05:52:37 YCU 0.87 23.2 95.0 4.1 ok
02-03-2021 05:42:37 YCU 0.94 23.2 95.0 4.1 ok
02-03-2021 05:32:37 YCU 0.88 23.2 95.0 4.1 ok
02-03-2021 05:22:36 YCU 0.90 23.2 95.0 4.1 ok
02-03-2021 05:12:37 YCU 0.93 23.2 95.0 4.1 ok
02-03-2021 05:02:36 YCU 0.87 23.1 95.0 4.1 ok
02-03-2021 04:52:36 YCU 0.91 23.1 95.0 4.1 ok
02-03-2021 04:42:36 YCU 0.91 23.1 95.0 4.1 ok
02-03-2021 04:32:36 YCU 0.87 23.1 95.0 4.1 ok
02-03-2021 04:22:36 YCU 0.87 23.2 95.0 4.1 ok
02-03-2021 04:12:36 YCU 0.85 23.1 95.0 4.1 ok
02-03-2021 04:02:36 YCU 0.92 23.2 95.0 4.1 ok
02-03-2021 03:52:36 YCU 0.92 23.1 95.0 4.1 ok
02-03-2021 03:42:35 YCU 0.93 23.1 95.0 4.1 ok
02-03-2021 03:32:35 YCU 0.93 23.1 95.0 4.1 ok
02-03-2021 03:22:35 YCU 0.93 23.0 95.0 4.1 ok
02-03-2021 03:12:35 YCU 0.95 23.0 95.0 4.1 ok
02-03-2021 03:02:32 YCU 0.96 23.0 95.0 4.0 ON
02-03-2021 02:48:04 YCU 0.95 23.0 95.0 4.1 ok
02-03-2021 02:38:04 YCU 0.91 23.1 95.0 4.1 ok
02-03-2021 02:28:04 YCU 0.94 23.2 95.0 4.1 ok
02-03-2021 02:18:04 YCU 0.96 23.1 95.0 4.1 ok
02-03-2021 02:08:04 YCU 0.93 23.1 95.0 4.1 ok
02-03-2021 01:58:04 YCU 0.95 23.2 95.0 4.1 ok
02-03-2021 01:48:04 YCU 0.90 23.2 95.0 4.1 ok
02-03-2021 01:38:04 YCU 0.92 23.2 95.0 4.1 ok
02-03-2021 01:28:04 YCU 0.87 23.2 95.0 4.1 ok
02-03-2021 01:18:04 YCU 0.91 23.2 95.0 4.1 ok
02-03-2021 01:08:04 YCU 0.95 23.2 95.0 4.1 ok
02-03-2021 00:58:04 YCU 0.90 23.2 95.0 4.1 ok
02-03-2021 00:48:04 YCU 0.89 23.2 95.0 4.1 ok
02-03-2021 00:38:04 YCU 0.85 23.2 95.0 4.1 ok
02-03-2021 00:28:04 YCU 0.93 23.2 95.0 4.1 ok
02-03-2021 00:18:03 YCU 0.94 23.3 95.0 4.1 ok
02-03-2021 00:08:03 YCU 0.85 23.4 95.0 4.1 ok
01-03-2021 23:58:03 YCU 0.86 23.4 95.0 4.1 ok
01-03-2021 23:48:03 YCU 0.86 23.4 95.0 4.1 ok
01-03-2021 23:38:03 YCU 0.89 23.2 95.0 4.1 ok
01-03-2021 23:28:02 YCU 0.89 23.2 95.0 4.1 ok
01-03-2021 23:18:02 YCU 0.88 23.2 95.0 4.1 ok
01-03-2021 23:08:02 YCU 0.88 23.2 95.0 4.1 ok
01-03-2021 22:58:02 YCU 0.86 23.3 95.0 4.1 ok
01-03-2021 22:47:58 YCU 0.82 23.3 95.0 4.1 ok
01-03-2021 22:37:58 YCU 0.82 23.3 95.0 4.1 WF
01-03-2021 22:26:04 YCU 0.74 23.4 95.0 4.1 WF
01-03-2021 22:14:03 YCU 0.77 23.5 95.0 4.1 ok
01-03-2021 22:04:02 YCU 0.78 23.5 95.0 4.1 ok
01-03-2021 21:54:02 YCU 0.74 23.7 95.0 4.1 ok
01-03-2021 21:44:02 YCU 0.72 23.7 95.0 4.1 ok
01-03-2021 21:34:02 YCU 0.66 23.8 95.0 4.1 ok
01-03-2021 21:24:02 YCU 0.75 23.9 95.0 4.1 ok
01-03-2021 21:14:01 YCU 0.68 24.1 95.0 4.1 ok
01-03-2021 21:04:01 YCU 0.70 24.1 95.0 4.1 ok
01-03-2021 20:54:01 YCU 0.67 24.1 95.0 4.1 ok
01-03-2021 20:44:01 YCU 0.66 24.2 95.0 4.1 ok
01-03-2021 20:34:01 YCU 0.63 24.2 95.0 4.1 ok
01-03-2021 20:24:01 YCU 0.59 24.1 95.0 4.1 ok
01-03-2021 20:13:49 YCU 0.65 24.2 95.0 4.1 ok
01-03-2021 20:03:49 YCU 0.64 24.3 95.0 4.1 ok
01-03-2021 19:53:49 YCU 0.69 24.3 95.0 4.1 ok
01-03-2021 19:43:49 YCU 0.72 24.4 95.0 4.1 ok
01-03-2021 19:33:48 YCU 0.73 24.4 95.0 4.1 ok
01-03-2021 19:23:48 YCU 0.77 24.3 95.0 4.1 ok
01-03-2021 19:13:48 YCU 0.77 24.3 95.0 4.1 ok
01-03-2021 19:03:48 YCU 0.85 24.4 95.0 4.1 ok
01-03-2021 18:53:48 YCU 0.92 24.5 95.0 4.1 ok
01-03-2021 18:43:47 YCU 0.89 25.0 95.0 4.1 ok
01-03-2021 18:33:48 YCU 0.90 25.3 95.0 4.1 ok
01-03-2021 18:23:48 YCU 0.95 25.4 95.0 4.1 ok
01-03-2021 18:13:47 YCU 1.03 25.5 95.0 4.1 ok
01-03-2021 18:03:47 YCU 0.99 25.6 95.0 4.1 ok
01-03-2021 17:53:47 YCU 1.01 25.5 95.0 4.1 ok
01-03-2021 17:43:47 YCU 1.01 25.5 95.0 4.1 ok
01-03-2021 17:33:47 YCU 1.01 25.6 95.0 4.1 ok
01-03-2021 17:23:42 YCU 0.96 25.2 95.0 4.1 ok
01-03-2021 17:13:42 YCU 1.05 25.2 95.0 4.1 ok
01-03-2021 17:03:42 YCU 1.09 25.2 95.0 4.1 ok
01-03-2021 16:53:42 YCU 1.03 25.2 95.0 4.1 ok
01-03-2021 16:43:42 YCU 0.99 25.3 95.0 4.1 ok
01-03-2021 16:33:41 YCU 0.97 25.4 95.0 4.1 ok
01-03-2021 16:23:41 YCU 0.94 25.4 95.0 4.1 ok
01-03-2021 16:13:41 YCU 1.10 25.9 95.0 4.1 ok
01-03-2021 16:03:41 YCU 1.10 26.4 95.0 4.1 ok
01-03-2021 15:53:41 YCU 1.01 26.3 95.0 4.1 ok
01-03-2021 15:43:41 YCU 0.96 26.0 95.0 4.1 ok
01-03-2021 15:33:41 YCU 0.89 25.8 95.0 4.1 ok
01-03-2021 15:23:40 YCU 0.96 25.9 95.0 4.1 ok
01-03-2021 15:13:40 YCU 0.89 26.2 95.0 4.1 ok
01-03-2021 15:03:40 YCU 0.82 26.4 95.0 4.1 ok
01-03-2021 14:53:40 YCU 0.85 27.1 95.0 4.1 ok
01-03-2021 14:43:40 YCU 0.83 27.2 95.0 4.1 ok
01-03-2021 14:33:40 YCU 0.80 26.8 95.0 4.1 ok
01-03-2021 14:23:40 YCU 0.82 26.6 95.0 4.1 ok
01-03-2021 14:13:40 YCU 0.84 27.0 95.0 4.1 ok
01-03-2021 14:03:39 YCU 0.78 27.5 95.0 4.1 ok
01-03-2021 13:53:39 YCU 0.85 27.4 95.0 4.1 ok
01-03-2021 13:43:38 YCU 0.85 28.0 95.0 4.1 ok
01-03-2021 13:33:38 YCU 0.77 29.1 95.0 4.1 ok
01-03-2021 13:23:38 YCU 0.76 28.7 95.0 4.1 ok
01-03-2021 13:13:38 YCU 0.74 27.7 95.0 4.1 ok
01-03-2021 13:03:38 YCU 0.75 28.5 95.0 4.1 ok
01-03-2021 12:53:38 YCU 0.68 29.7 95.0 4.1 ok
01-03-2021 12:43:38 YCU 0.66 29.2 95.0 4.1 ok
01-03-2021 12:33:38 YCU 0.70 29.2 95.0 4.1 ok
01-03-2021 12:23:37 YCU 0.75 28.9 95.0 4.1 ok
01-03-2021 12:13:37 YCU 0.72 28.3 95.0 4.1 ok
01-03-2021 12:03:37 YCU 0.66 28.4 95.0 4.1 ok
01-03-2021 11:53:37 YCU 0.72 27.8 95.0 4.1 ok
01-03-2021 11:43:37 YCU 0.71 28.0 84.0 4.1 ok
01-03-2021 11:33:37 YCU 0.71 28.7 95.0 4.1 ok
01-03-2021 11:23:37 YCU 0.70 28.0 95.0 4.1 ok
01-03-2021 11:13:37 YCU 0.66 27.9 95.0 4.1 ok
01-03-2021 11:03:36 YCU 0.61 27.3 95.0 4.1 ok
01-03-2021 10:53:36 YCU 0.70 27.2 95.0 4.1 ok
01-03-2021 10:43:36 YCU 0.65 26.9 95.0 4.1 ok
01-03-2021 10:33:36 YCU 0.57 26.9 95.0 4.1 ok
01-03-2021 10:23:36 YCU 0.66 26.8 95.0 4.1 ok
01-03-2021 10:13:35 YCU 0.60 26.5 95.0 4.1 ok
01-03-2021 10:03:35 YCU 0.51 26.9 95.0 4.1 ok
01-03-2021 09:53:35 YCU 0.44 26.3 95.0 4.1 ok
01-03-2021 09:43:35 YCU 0.49 26.3 95.0 4.1 ok
01-03-2021 09:33:35 YCU 0.45 25.6 95.0 4.1 ok
01-03-2021 09:23:35 YCU 0.44 25.4 95.0 4.1 ok
01-03-2021 09:13:34 YCU 0.44 25.2 95.0 4.1 ok
01-03-2021 09:03:34 YCU 0.37 25.2 95.0 4.1 ok
01-03-2021 08:53:34 YCU 0.33 24.7 95.0 4.1 ok
01-03-2021 08:43:34 YCU 0.35 24.1 95.0 4.1 ok
01-03-2021 08:33:34 YCU 0.38 23.9 95.0 4.1 ok
01-03-2021 08:23:34 YCU 0.36 23.7 95.0 4.1 ok
01-03-2021 08:13:34 YCU 0.23 23.3 95.0 4.1 ok
01-03-2021 08:03:34 YCU 0.28 22.9 95.0 4.1 ok
01-03-2021 07:53:33 YCU 0.28 22.4 95.0 4.1 ok
01-03-2021 07:43:33 YCU 0.29 21.8 94.0 4.1 ok
01-03-2021 07:33:33 YCU 0.37 21.6 94.0 4.1 ok
01-03-2021 07:23:32 YCU 0.29 21.3 94.0 4.1 ok
01-03-2021 07:13:32 YCU 0.29 21.3 94.0 4.1 ok
01-03-2021 07:03:32 YCU 0.33 20.8 93.0 4.1 ok
01-03-2021 06:53:32 YCU 0.27 20.7 93.0 4.1 ok
01-03-2021 06:43:32 YCU 0.38 20.7 93.0 4.1 ok
01-03-2021 06:33:32 YCU 0.33 20.6 93.0 4.1 ok
01-03-2021 06:23:31 YCU 0.37 20.5 93.0 4.1 ok
01-03-2021 06:13:31 YCU 0.29 20.6 93.0 4.1 ok
01-03-2021 06:03:31 YCU 0.36 20.7 93.0 4.1 ok
01-03-2021 05:53:31 YCU 0.42 20.7 93.0 4.1 ok
01-03-2021 05:43:31 YCU 0.46 20.8 93.0 4.1 ok
01-03-2021 05:33:30 YCU 0.37 20.8 93.0 4.1 ok
01-03-2021 05:23:30 YCU 0.36 20.9 93.0 4.1 ok
01-03-2021 05:13:30 YCU 0.37 20.9 93.0 4.1 ok
01-03-2021 05:03:30 YCU 0.28 20.9 93.0 4.1 ok
01-03-2021 04:53:30 YCU 0.39 20.9 93.0 4.1 ok
01-03-2021 04:43:30 YCU 0.35 21.0 94.0 4.1 ok
01-03-2021 04:33:30 YCU 0.42 21.0 94.0 4.1 ok
01-03-2021 04:23:30 YCU 0.36 20.9 93.0 4.1 ok
01-03-2021 04:13:30 YCU 0.31 21.0 94.0 4.1 ok
01-03-2021 04:03:30 YCU 0.38 21.0 94.0 4.1 ok
01-03-2021 03:53:29 YCU 0.35 21.1 94.0 4.1 ok
01-03-2021 03:43:29 YCU 0.39 21.2 94.0 4.1 ok
01-03-2021 03:33:29 YCU 0.42 21.2 94.0 4.1 ok
01-03-2021 03:23:29 YCU 0.38 21.3 94.0 4.1 ok
01-03-2021 03:13:29 YCU 0.31 21.3 94.0 4.1 ok
01-03-2021 03:03:29 YCU 0.44 21.3 94.0 4.1 ok
01-03-2021 02:53:28 YCU 0.45 21.5 94.0 4.1 ok
01-03-2021 02:43:28 YCU 0.36 21.5 94.0 4.1 ok
01-03-2021 02:33:28 YCU 0.52 21.6 94.0 4.1 ok
01-03-2021 02:23:28 YCU 0.44 21.7 94.0 4.1 ok
01-03-2021 02:13:28 YCU 0.41 21.7 94.0 4.1 ok
01-03-2021 02:03:25 YCU 0.34 21.8 94.0 4.1 ok
01-03-2021 01:53:25 YCU 0.45 21.9 94.0 4.1 ok
01-03-2021 01:43:24 YCU 0.37 21.9 94.0 4.1 ok
01-03-2021 01:33:24 YCU 0.46 21.9 94.0 4.1 ok
01-03-2021 01:23:24 YCU 0.42 22.0 95.0 4.1 ok
01-03-2021 01:13:24 YCU 0.51 22.1 95.0 4.1 ok
01-03-2021 01:03:24 YCU 0.36 22.2 95.0 4.1 ok
01-03-2021 00:53:24 YCU 0.46 22.3 95.0 4.1 ok
01-03-2021 00:43:24 YCU 0.37 22.4 95.0 4.1 ok
01-03-2021 00:33:24 YCU 0.51 22.6 95.0 4.1 ok
01-03-2021 00:23:24 YCU 0.31 22.7 95.0 4.1 ok
01-03-2021 00:13:24 YCU 0.42 22.8 95.0 4.1 ok
01-03-2021 00:03:23 YCU 0.50 23.0 95.0 4.1 ok
28-02-2021 23:53:23 YCU 0.42 23.1 95.0 4.1 ok
28-02-2021 23:43:23 YCU 0.50 23.2 95.0 4.1 ok
28-02-2021 23:33:23 YCU 0.48 23.3 95.0 4.1 ok
28-02-2021 23:23:23 YCU 0.44 23.5 95.0 4.1 ok
28-02-2021 23:13:20 YCU 0.40 23.6 95.0 4.1 ok
28-02-2021 23:03:19 YCU 0.49 23.7 95.0 4.1 ok
28-02-2021 22:53:19 YCU 0.43 23.9 95.0 4.1 ok
28-02-2021 22:43:19 YCU 0.46 24.1 95.0 4.1 ok
28-02-2021 22:33:19 YCU 0.43 24.2 95.0 4.1 ok
28-02-2021 22:23:19 YCU 0.54 24.3 95.0 4.1 ok
28-02-2021 22:13:19 YCU 0.51 24.5 95.0 4.1 ok
28-02-2021 22:03:18 YCU 0.44 24.7 95.0 4.1 ok
28-02-2021 21:53:17 YCU 0.44 24.9 95.0 4.1 ok
28-02-2021 21:43:15 YCU 0.51 24.9 95.0 4.1 ok
28-02-2021 21:33:15 YCU 0.49 25.0 95.0 4.1 ok
28-02-2021 21:23:15 YCU 0.51 25.1 93.0 4.1 ok
28-02-2021 21:13:15 YCU 0.46 25.3 95.0 4.1 ok
28-02-2021 21:03:15 YCU 0.38 25.4 95.0 4.1 ok
28-02-2021 20:53:16 YCU 0.42 25.6 95.0 4.1 ok
28-02-2021 20:43:16 YCU 0.44 25.6 95.0 4.1 WF
28-02-2021 20:31:06 YCU 0.40 26.1 95.0 4.1 ok
28-02-2021 20:21:06 YCU 0.43 26.2 82.0 4.1 WF
28-02-2021 20:09:07 YCU 0.42 26.4 95.0 4.1 ok
28-02-2021 19:59:07 YCU 0.36 26.6 95.0 4.1 ok
28-02-2021 19:49:07 YCU 0.37 26.7 95.0 4.1 ok
28-02-2021 19:39:06 YCU 0.31 26.9 95.0 4.1 ok
28-02-2021 19:29:06 YCU 0.41 27.2 44.0 4.1 ok
28-02-2021 19:19:06 YCU 0.38 27.4 93.0 4.1 ok
28-02-2021 19:09:06 YCU 0.47 27.5 95.0 4.1 ok
28-02-2021 18:59:06 YCU 0.46 27.6 95.0 4.1 ok
28-02-2021 18:49:06 YCU 0.58 27.7 95.0 4.1 ok
28-02-2021 18:39:05 YCU 0.53 27.9 95.0 4.1 ok
28-02-2021 18:29:05 YCU 0.54 27.7 95.0 4.1 ok
28-02-2021 18:19:05 YCU 0.56 27.4 90.0 4.1 ok
28-02-2021 18:09:05 YCU 0.61 27.4 95.0 4.1 ok
28-02-2021 17:59:05 YCU 0.69 26.9 95.0 4.1 ok
28-02-2021 17:49:04 YCU 0.76 27.0 95.0 4.1 ok
28-02-2021 17:39:04 YCU 0.69 26.9 95.0 4.1 ok
28-02-2021 17:29:04 YCU 0.68 27.2 95.0 4.1 ok
28-02-2021 17:19:04 YCU 0.70 27.4 95.0 4.1 ok
28-02-2021 17:09:03 YCU 0.71 27.3 95.0 4.1 ok
28-02-2021 16:59:03 YCU 0.73 27.6 95.0 4.1 ok
28-02-2021 16:49:03 YCU 0.84 28.3 95.0 4.1 ok
28-02-2021 16:39:02 YCU 0.79 28.8 95.0 4.1 ok
28-02-2021 16:29:01 YCU 0.71 28.4 57.0 4.1 ok
28-02-2021 16:19:01 YCU 0.77 28.2 95.0 4.1 ok
28-02-2021 16:09:01 YCU 0.81 28.7 11.0 4.1 ok
28-02-2021 15:59:00 YCU 0.76 28.8 77.0 4.1 ok
28-02-2021 15:49:00 YCU 0.86 28.5 7.0 4.1 ok
28-02-2021 15:39:00 YCU 0.77 28.6 7.0 4.1 ok
28-02-2021 15:29:00 YCU 0.81 28.8 7.0 4.1 ok
28-02-2021 15:19:00 YCU 0.73 28.8 7.0 4.1 ok
28-02-2021 15:09:00 YCU 0.82 28.5 7.0 4.1 ok
28-02-2021 14:59:00 YCU 0.73 28.7 7.0 4.1 ok
28-02-2021 14:49:00 YCU 0.72 28.5 7.0 4.1 ok
28-02-2021 14:39:00 YCU 0.82 28.6 7.0 4.1 ok
28-02-2021 14:28:59 YCU 0.71 28.5 7.0 4.1 ok
28-02-2021 14:18:59 YCU 0.70 28.4 7.0 4.1 ok
28-02-2021 14:08:59 YCU 0.75 28.8 7.0 4.1 ok
28-02-2021 13:58:48 YCU 0.70 28.7 10.0 4.1 ok
28-02-2021 13:48:48 YCU 0.75 28.7 7.0 4.1 ok
28-02-2021 13:38:48 YCU 0.68 29.2 8.0 4.1 ok
28-02-2021 13:28:48 YCU 0.72 29.6 8.0 4.1 ok
28-02-2021 13:18:48 YCU 0.64 29.4 8.0 4.1 ok
28-02-2021 13:08:48 YCU 0.66 29.4 9.0 4.1 ok
28-02-2021 12:58:47 YCU 0.64 29.0 8.0 4.1 ok
28-02-2021 12:48:47 YCU 0.60 29.4 8.0 4.1 ok
28-02-2021 12:38:47 YCU 0.56 29.7 8.0 4.1 ok
28-02-2021 12:28:47 YCU 0.63 29.3 77.0 4.1 ok
28-02-2021 12:18:47 YCU 0.64 28.8 95.0 4.1 ok
28-02-2021 12:08:47 YCU 0.59 28.7 95.0 4.1 ok
28-02-2021 11:58:47 YCU 0.60 28.6 95.0 4.1 ok
28-02-2021 11:48:47 YCU 0.64 28.6 95.0 4.1 ok
28-02-2021 11:38:47 YCU 0.63 28.4 95.0 4.1 ok
28-02-2021 11:28:46 YCU 0.61 28.2 95.0 4.1 ok
28-02-2021 11:18:46 YCU 0.64 28.2 95.0 4.1 ok
28-02-2021 11:08:46 YCU 0.64 27.7 95.0 4.1 ok
28-02-2021 10:58:46 YCU 0.65 27.4 95.0 4.1 ok
28-02-2021 10:48:46 YCU 0.64 27.0 95.0 4.1 ok
28-02-2021 10:38:46 YCU 0.60 26.8 95.0 4.1 ok
28-02-2021 10:28:45 YCU 0.53 26.4 95.0 4.1 ok
28-02-2021 10:18:45 YCU 0.52 26.5 95.0 4.1 ok
28-02-2021 10:08:45 YCU 0.56 25.8 95.0 4.1 ok
28-02-2021 09:58:45 YCU 0.55 25.6 95.0 4.1 ok
28-02-2021 09:48:44 YCU 0.61 25.1 95.0 4.1 ok
28-02-2021 09:38:44 YCU 0.51 24.5 95.0 4.1 ok
28-02-2021 09:28:44 YCU 0.46 24.5 95.0 4.1 ok
28-02-2021 09:18:44 YCU 0.50 24.4 95.0 4.1 ok
28-02-2021 09:08:44 YCU 0.46 24.9 95.0 4.1 ok
28-02-2021 08:58:44 YCU 0.44 24.3 95.0 4.1 ok
28-02-2021 08:48:44 YCU 0.43 23.8 95.0 4.1 ok
28-02-2021 08:38:44 YCU 0.37 23.6 95.0 4.1 ok
28-02-2021 08:28:43 YCU 0.40 23.0 95.0 4.1 ok
28-02-2021 08:18:43 YCU 0.39 22.5 95.0 4.1 ok
28-02-2021 08:08:43 YCU 0.37 22.2 95.0 4.1 ok
28-02-2021 07:58:43 YCU 0.33 22.3 95.0 4.1 ok
28-02-2021 07:48:43 YCU 0.33 22.1 95.0 4.1 ok
28-02-2021 07:38:43 YCU 0.33 21.7 94.0 4.1 ok
28-02-2021 07:28:43 YCU 0.34 21.4 94.0 4.1 ok
28-02-2021 07:18:43 YCU 0.33 21.1 94.0 4.1 ok
28-02-2021 07:08:43 YCU 0.36 20.8 93.0 4.1 ok
28-02-2021 06:58:43 YCU 0.33 20.8 93.0 4.1 ok
28-02-2021 06:48:43 YCU 0.38 20.8 93.0 4.1 ok
28-02-2021 06:38:43 YCU 0.37 20.8 93.0 4.1 ok
28-02-2021 06:28:42 YCU 0.36 20.9 93.0 4.1 ok
28-02-2021 06:18:43 YCU 0.39 20.9 93.0 4.1 ok
28-02-2021 06:08:43 YCU 0.42 21.0 94.0 4.1 ok
28-02-2021 05:58:43 YCU 0.42 21.1 94.0 4.1 ok
28-02-2021 05:48:43 YCU 0.46 21.2 94.0 4.1 ok
28-02-2021 05:38:43 YCU 0.49 21.3 94.0 4.1 ok
28-02-2021 05:28:43 YCU 0.50 21.4 94.0 4.1 ok
28-02-2021 05:18:42 YCU 0.53 21.5 94.0 4.1 ok
28-02-2021 05:08:42 YCU 0.54 21.5 94.0 4.1 ok
28-02-2021 04:58:43 YCU 0.63 21.7 94.0 4.1 ok
28-02-2021 04:48:42 YCU 0.60 21.6 94.0 4.1 ok
28-02-2021 04:38:42 YCU 0.62 21.7 94.0 4.1 ok
28-02-2021 04:28:42 YCU 0.65 21.6 94.0 4.1 ok
28-02-2021 04:18:41 YCU 0.66 21.7 94.0 4.1 ok
28-02-2021 04:08:41 YCU 0.63 21.7 94.0 4.1 ok
28-02-2021 03:58:41 YCU 0.70 21.8 94.0 4.1 ok
28-02-2021 03:48:41 YCU 0.61 21.9 94.0 4.1 ok
28-02-2021 03:38:41 YCU 0.64 21.8 94.0 4.1 ok
28-02-2021 03:28:41 YCU 0.61 22.0 95.0 4.1 ok
28-02-2021 03:18:40 YCU 0.63 21.9 94.0 4.1 ok
28-02-2021 03:08:40 YCU 0.66 21.8 94.0 4.1 ok
28-02-2021 02:58:40 YCU 0.65 21.8 94.0 4.1 ok
28-02-2021 02:48:40 YCU 0.61 21.8 94.0 4.1 ok
28-02-2021 02:38:39 YCU 0.65 21.8 94.0 4.1 ok
28-02-2021 02:28:30 YCU 0.64 21.8 94.0 4.1 ok
28-02-2021 02:18:31 YCU 0.65 21.9 94.0 4.1 ok
28-02-2021 02:08:30 YCU 0.67 21.9 94.0 4.1 WF
28-02-2021 01:56:31 YCU 0.72 21.9 94.0 4.1 ok
28-02-2021 01:46:31 YCU 0.75 22.0 95.0 4.1 ok
28-02-2021 01:36:31 YCU 0.73 22.1 95.0 4.1 ok
28-02-2021 01:26:31 YCU 0.77 22.1 95.0 4.1 ok
28-02-2021 01:16:30 YCU 0.74 22.1 95.0 4.1 WF
28-02-2021 01:04:30 YCU 0.70 22.3 95.0 4.1 ok
28-02-2021 00:54:30 YCU 0.74 22.2 95.0 4.1 ok
28-02-2021 00:44:30 YCU 0.75 22.3 95.0 4.1 ok
28-02-2021 00:34:30 YCU 0.71 22.5 95.0 4.1 ok
28-02-2021 00:24:30 YCU 0.68 22.5 95.0 4.1 ok
28-02-2021 00:14:30 YCU 0.70 22.6 95.0 4.1 ok
28-02-2021 00:04:30 YCU 0.67 22.8 95.0 4.1 ok
27-02-2021 23:54:30 YCU 0.69 22.9 95.0 4.1 ok
27-02-2021 23:44:30 YCU 0.64 23.0 95.0 4.1 ok
27-02-2021 23:34:29 YCU 0.65 23.1 95.0 4.1 ok
27-02-2021 23:24:29 YCU 0.69 23.2 95.0 4.1 ok
27-02-2021 23:14:28 YCU 0.72 23.2 95.0 4.1 ok
27-02-2021 23:04:28 YCU 0.68 23.3 95.0 4.1 ok
27-02-2021 22:54:28 YCU 0.66 23.5 95.0 4.1 ok
27-02-2021 22:44:28 YCU 0.67 23.6 95.0 4.1 ok
27-02-2021 22:34:25 YCU 0.72 23.7 95.0 4.1 ok
27-02-2021 22:24:25 YCU 0.71 23.7 95.0 4.1 ok
27-02-2021 22:14:25 YCU 0.78 23.7 95.0 4.1 ok
27-02-2021 22:04:25 YCU 0.72 23.9 95.0 4.1 ok
27-02-2021 21:54:25 YCU 0.72 24.0 95.0 4.1 ok
27-02-2021 21:44:24 YCU 0.76 24.2 95.0 4.1 ok
27-02-2021 21:34:23 YCU 0.72 24.4 95.0 4.1 ok
27-02-2021 21:24:23 YCU 0.73 24.4 95.0 4.1 ok
27-02-2021 21:14:23 YCU 0.78 24.3 95.0 4.1 ok
27-02-2021 21:04:23 YCU 0.78 24.4 95.0 4.1 ok
27-02-2021 20:54:22 YCU 0.77 24.4 95.0 4.1 ok
27-02-2021 20:44:21 YCU 0.74 24.5 95.0 4.1 ok
27-02-2021 20:34:20 YCU 0.78 24.5 95.0 4.1 ok
27-02-2021 20:24:19 YCU 0.74 24.4 95.0 4.1 ok
27-02-2021 20:14:18 YCU 0.67 24.3 95.0 4.1 ok
27-02-2021 20:04:19 YCU 0.65 24.3 95.0 4.1 ok
27-02-2021 19:54:18 YCU 0.74 24.4 95.0 4.1 ok
27-02-2021 19:44:18 YCU 0.70 24.3 95.0 4.1 ok
27-02-2021 19:34:17 YCU 0.68 24.4 95.0 4.1 ok
27-02-2021 19:24:17 YCU 0.70 24.5 95.0 4.1 ok
27-02-2021 19:14:17 YCU 0.70 24.7 95.0 4.1 ok
27-02-2021 19:04:17 YCU 0.67 24.8 95.0 4.1 ok
27-02-2021 18:54:17 YCU 0.75 25.0 95.0 4.1 ok
27-02-2021 18:44:16 YCU 0.78 25.3 95.0 4.1 ok
27-02-2021 18:34:16 YCU 0.77 25.5 95.0 4.1 ok
27-02-2021 18:24:15 YCU 0.78 25.7 95.0 4.1 ok
27-02-2021 18:14:15 YCU 0.82 25.8 95.0 4.1 ok
27-02-2021 18:04:14 YCU 0.85 25.9 95.0 4.1 ok
27-02-2021 17:54:14 YCU 0.88 25.6 95.0 4.1 ok
27-02-2021 17:44:14 YCU 0.93 25.7 95.0 4.1 ok
27-02-2021 17:34:14 YCU 0.96 25.7 95.0 4.1 ok
27-02-2021 17:24:14 YCU 0.99 26.0 95.0 4.1 ok
27-02-2021 17:14:13 YCU 1.00 26.0 95.0 4.1 ok
27-02-2021 17:04:13 YCU 1.03 26.0 95.0 4.1 ok
27-02-2021 16:54:13 YCU 1.03 26.0 95.0 4.1 ok
27-02-2021 16:44:13 YCU 1.02 26.1 95.0 4.1 ok
27-02-2021 16:34:13 YCU 1.05 26.0 95.0 4.1 ok
27-02-2021 16:24:12 YCU 1.12 26.0 95.0 4.1 ok
27-02-2021 16:14:12 YCU 1.15 26.1 95.0 4.1 ok
27-02-2021 16:04:12 YCU 1.11 26.0 95.0 4.1 ok
27-02-2021 15:54:12 YCU 1.11 25.9 95.0 4.1 ok
27-02-2021 15:44:12 YCU 1.12 26.0 95.0 4.1 ok
27-02-2021 15:34:12 YCU 1.13 26.2 95.0 4.1 ok
27-02-2021 15:24:12 YCU 1.16 26.2 95.0 4.1 ok
27-02-2021 15:14:12 YCU 1.15 26.2 95.0 4.1 ok
27-02-2021 15:04:12 YCU 1.14 26.5 95.0 4.1 ok
27-02-2021 14:54:12 YCU 1.19 26.4 95.0 4.1 ok
27-02-2021 14:44:11 YCU 1.17 26.5 95.0 4.1 ok
27-02-2021 14:34:11 YCU 1.18 26.5 95.0 4.1 ok
27-02-2021 14:24:10 YCU 1.22 26.6 95.0 4.1 ok
27-02-2021 14:14:10 YCU 1.18 26.7 95.0 4.1 ok
27-02-2021 14:04:09 YCU 1.17 27.1 95.0 4.1 ok
27-02-2021 13:54:09 YCU 1.15 27.1 95.0 4.0 ON
27-02-2021 13:39:56 YCU 1.12 28.3 95.0 4.1 ok
27-02-2021 13:29:55 YCU 1.14 28.8 95.0 4.1 ok
27-02-2021 13:19:55 YCU 1.15 28.9 95.0 4.1 ok
27-02-2021 13:09:54 YCU 1.17 28.9 95.0 4.1 ok
27-02-2021 12:59:54 YCU 1.16 28.7 95.0 4.1 ok
27-02-2021 12:49:54 YCU 1.14 28.8 95.0 4.1 ok
27-02-2021 12:39:53 YCU 1.10 28.6 95.0 4.1 ok
27-02-2021 12:29:53 YCU 1.14 28.6 95.0 4.1 ok
27-02-2021 12:19:53 YCU 1.13 28.5 95.0 4.1 ok
27-02-2021 12:09:53 YCU 1.14 28.5 95.0 4.1 ok
27-02-2021 11:59:53 YCU 1.08 28.5 95.0 4.1 ok
27-02-2021 11:49:53 YCU 1.11 28.5 95.0 4.1 ok
27-02-2021 11:39:53 YCU 1.13 28.3 95.0 4.1 ok
27-02-2021 11:29:52 YCU 1.11 27.9 95.0 4.1 ok
27-02-2021 11:19:51 YCU 1.15 27.3 95.0 4.1 ok
27-02-2021 11:09:51 YCU 1.14 26.6 95.0 4.1 ok
27-02-2021 10:59:51 YCU 1.16 26.4 95.0 4.1 ok
27-02-2021 10:49:50 YCU 1.13 25.9 95.0 4.1 ok
27-02-2021 10:39:51 YCU 1.16 25.2 95.0 4.1 ok
27-02-2021 10:29:51 YCU 1.13 25.7 95.0 4.1 ok
27-02-2021 10:19:51 YCU 1.12 25.9 95.0 4.1 ok
27-02-2021 10:09:50 YCU 1.11 26.1 95.0 4.1 ok
27-02-2021 09:59:51 YCU 1.08 25.9 95.0 4.1 ok
27-02-2021 09:49:51 YCU 1.07 25.8 95.0 4.1 ok
27-02-2021 09:39:50 YCU 1.05 25.9 95.0 4.1 ok
27-02-2021 09:29:50 YCU 1.04 25.6 95.0 4.1 ok
27-02-2021 09:19:50 YCU 1.04 24.9 95.0 4.1 ok
27-02-2021 09:09:50 YCU 1.01 24.2 95.0 4.1 ok
27-02-2021 08:59:50 YCU 0.97 23.9 95.0 4.1 ok
27-02-2021 08:49:50 YCU 1.00 24.5 95.0 4.1 ok
27-02-2021 08:39:50 YCU 0.97 24.0 95.0 4.1 ok
27-02-2021 08:29:49 YCU 1.00 23.8 95.0 4.1 ok
27-02-2021 08:19:49 YCU 0.95 23.7 95.0 4.1 ok
27-02-2021 08:09:49 YCU 0.97 23.2 95.0 4.1 ok
27-02-2021 07:59:49 YCU 0.94 22.9 95.0 4.1 ok
27-02-2021 07:49:49 YCU 0.93 22.5 95.0 4.1 ok
27-02-2021 07:39:49 YCU 0.94 22.2 95.0 4.1 ok
27-02-2021 07:29:48 YCU 0.90 22.0 95.0 4.1 ok
27-02-2021 07:19:48 YCU 0.87 21.4 94.0 4.1 ok
27-02-2021 07:09:48 YCU 0.86 20.7 93.0 4.1 ok
27-02-2021 06:59:48 YCU 0.84 20.4 93.0 4.1 ok
27-02-2021 06:49:48 YCU 0.85 20.1 93.0 4.1 ok
27-02-2021 06:39:48 YCU 0.80 20.0 93.0 4.1 ok
27-02-2021 06:29:48 YCU 0.80 19.9 93.0 4.1 ok
27-02-2021 06:19:48 YCU 0.84 19.9 93.0 4.1 ok
27-02-2021 06:09:47 YCU 0.79 20.0 93.0 4.1 ok
27-02-2021 05:59:47 YCU 0.79 19.8 93.0 4.1 ok
27-02-2021 05:49:47 YCU 0.81 19.8 93.0 4.1 ok
27-02-2021 05:39:47 YCU 0.82 19.8 93.0 4.1 ok
27-02-2021 05:29:47 YCU 0.82 19.9 93.0 4.1 ok
27-02-2021 05:19:47 YCU 0.85 20.0 93.0 4.1 ok
27-02-2021 05:09:47 YCU 0.92 20.1 93.0 4.1 ok
27-02-2021 04:59:47 YCU 0.91 20.1 93.0 4.1 ok
27-02-2021 04:49:46 YCU 0.94 20.2 93.0 4.1 ok
27-02-2021 04:39:46 YCU 1.01 20.1 93.0 4.1 ok
27-02-2021 04:29:46 YCU 1.00 20.1 93.0 4.1 ok
27-02-2021 04:19:46 YCU 1.04 20.3 93.0 4.1 ok
27-02-2021 04:09:46 YCU 1.11 20.2 93.0 4.1 ok
27-02-2021 03:59:46 YCU 1.08 20.2 93.0 4.1 ok
27-02-2021 03:49:46 YCU 1.11 20.4 93.0 4.1 ok
27-02-2021 03:39:45 YCU 1.08 20.4 93.0 4.1 ok
27-02-2021 03:29:45 YCU 1.09 20.5 93.0 4.1 ok
27-02-2021 03:19:45 YCU 1.09 20.5 93.0 4.1 ok
27-02-2021 03:09:45 YCU 1.12 20.6 93.0 4.1 ok
27-02-2021 02:59:45 YCU 1.11 20.7 93.0 4.1 ok
27-02-2021 02:49:45 YCU 1.06 21.0 94.0 4.1 ok
27-02-2021 02:39:46 YCU 1.06 21.0 94.0 4.1 ok
27-02-2021 02:29:46 YCU 1.08 21.0 94.0 4.1 ok
27-02-2021 02:19:46 YCU 1.10 21.1 94.0 4.1 ok
27-02-2021 02:09:46 YCU 1.01 21.2 94.0 4.1 ok
27-02-2021 01:59:46 YCU 1.02 21.2 94.0 4.1 WF
27-02-2021 01:47:02 YCU 1.06 21.4 94.0 4.1 ok
27-02-2021 01:37:02 YCU 1.08 21.5 94.0 4.1 ok
27-02-2021 01:27:03 YCU 1.04 21.7 94.0 4.1 ok
27-02-2021 01:17:03 YCU 1.00 21.8 94.0 4.1 ok
27-02-2021 01:07:03 YCU 1.11 21.9 94.0 4.1 ok
27-02-2021 00:57:03 YCU 1.06 22.0 95.0 4.1 ok
27-02-2021 00:47:04 YCU 1.06 21.9 94.0 4.1 WF
27-02-2021 00:34:49 YCU 1.03 22.5 95.0 4.1 ok
27-02-2021 00:24:49 YCU 1.07 22.8 95.0 4.1 ok
27-02-2021 00:14:49 YCU 1.04 23.1 95.0 4.1 ok
27-02-2021 00:04:49 YCU 1.03 23.2 95.0 4.1 ok
26-02-2021 23:54:48 YCU 0.99 23.4 95.0 4.1 ok
26-02-2021 23:44:48 YCU 0.99 23.6 95.0 4.1 ok
26-02-2021 23:34:48 YCU 0.97 23.8 95.0 4.1 ok
26-02-2021 23:24:48 YCU 0.93 24.0 95.0 4.1 ok
26-02-2021 23:14:48 YCU 0.95 24.1 95.0 4.1 ok
26-02-2021 23:04:48 YCU 0.95 24.3 95.0 4.1 ok
26-02-2021 22:54:47 YCU 0.93 24.4 95.0 4.1 ok
26-02-2021 22:44:47 YCU 0.95 24.5 95.0 4.1 ok
26-02-2021 22:34:47 YCU 0.95 24.6 95.0 4.1 ok
26-02-2021 22:24:42 YCU 0.96 24.7 95.0 4.1 ok
26-02-2021 22:14:42 YCU 0.94 24.8 95.0 4.1 ok
26-02-2021 22:04:42 YCU 0.99 24.9 95.0 4.1 ok
26-02-2021 21:54:42 YCU 0.98 24.9 95.0 4.1 ok
26-02-2021 21:44:41 YCU 1.05 25.0 95.0 4.1 ok
26-02-2021 21:34:41 YCU 1.00 25.1 95.0 4.1 ok
26-02-2021 21:24:41 YCU 1.05 25.2 95.0 4.1 ok
26-02-2021 21:14:41 YCU 1.05 25.3 95.0 4.1 ok
26-02-2021 21:04:41 YCU 1.06 25.3 95.0 4.1 ok
26-02-2021 20:54:41 YCU 1.08 25.4 95.0 4.1 ok
26-02-2021 20:44:41 YCU 1.09 25.4 95.0 4.1 ok
26-02-2021 20:34:40 YCU 1.07 25.3 95.0 4.1 ok
26-02-2021 20:24:40 YCU 1.04 25.3 95.0 4.1 ok
26-02-2021 20:14:40 YCU 1.06 25.4 95.0 4.1 ok
26-02-2021 20:04:40 YCU 1.03 25.3 95.0 4.1 ok
26-02-2021 19:54:40 YCU 1.04 25.3 95.0 4.1 ok
26-02-2021 19:44:40 YCU 1.03 25.4 95.0 4.1 ok
26-02-2021 19:34:40 YCU 1.00 25.5 95.0 4.1 ok
26-02-2021 19:24:40 YCU 0.96 25.6 95.0 4.1 ok
26-02-2021 19:14:40 YCU 0.99 25.7 95.0 4.1 ok
26-02-2021 19:04:40 YCU 1.00 25.9 95.0 4.1 ok
26-02-2021 18:54:39 YCU 1.00 26.3 95.0 4.1 ok
26-02-2021 18:44:39 YCU 0.98 26.7 95.0 4.1 ok
26-02-2021 18:34:39 YCU 0.96 26.9 95.0 4.1 ok
26-02-2021 18:24:39 YCU 0.94 27.0 87.0 4.1 ok
26-02-2021 18:14:39 YCU 0.98 27.0 95.0 4.1 ok
26-02-2021 18:04:38 YCU 0.98 27.0 95.0 4.1 ok
26-02-2021 17:54:37 YCU 0.99 26.8 95.0 4.1 ok
26-02-2021 17:44:37 YCU 1.01 26.8 95.0 4.1 ok
26-02-2021 17:34:37 YCU 1.02 26.9 91.0 4.1 ok
26-02-2021 17:24:36 YCU 1.05 26.9 93.0 4.1 ok
26-02-2021 17:14:36 YCU 1.02 27.0 95.0 4.1 ok
26-02-2021 17:04:36 YCU 1.04 27.1 95.0 4.1 ok
26-02-2021 16:54:36 YCU 1.08 27.1 95.0 4.1 ok
26-02-2021 16:44:35 YCU 1.11 27.1 95.0 4.1 ok
26-02-2021 16:34:36 YCU 1.07 27.2 95.0 4.1 ok
26-02-2021 16:24:35 YCU 1.11 27.2 95.0 4.1 ok
26-02-2021 16:14:35 YCU 1.10 27.2 95.0 4.1 ok
26-02-2021 16:04:35 YCU 1.16 27.2 95.0 4.1 ok
26-02-2021 15:54:34 YCU 1.17 27.3 95.0 4.1 ok
26-02-2021 15:44:34 YCU 1.19 27.4 95.0 4.1 ok
26-02-2021 15:34:34 YCU 1.18 27.6 95.0 4.1 ok
26-02-2021 15:24:32 YCU 1.21 27.7 95.0 4.1 ok
26-02-2021 15:14:31 YCU 1.24 27.9 95.0 4.1 ok
26-02-2021 15:04:31 YCU 1.26 27.9 95.0 4.1 ok
26-02-2021 14:54:31 YCU 1.25 27.9 95.0 4.1 ok
26-02-2021 14:44:31 YCU 1.27 27.8 95.0 4.1 ok
26-02-2021 14:34:30 YCU 1.31 27.7 95.0 4.1 ok
26-02-2021 14:24:30 YCU 1.31 27.8 95.0 4.1 ok
26-02-2021 14:14:30 YCU 1.33 27.9 95.0 4.1 ok
26-02-2021 14:04:30 YCU 1.36 28.1 95.0 4.1 ok
26-02-2021 13:54:29 YCU 1.35 28.4 95.0 4.1 ok
26-02-2021 13:44:29 YCU 1.37 29.2 95.0 4.1 ok
26-02-2021 13:34:29 YCU 1.39 30.2 95.0 4.1 ok
26-02-2021 13:24:28 YCU 1.33 30.5 95.0 4.1 ok
26-02-2021 13:14:28 YCU 1.35 30.9 95.0 4.1 ok
26-02-2021 13:04:27 YCU 1.35 30.9 95.0 4.1 ok
26-02-2021 12:54:27 YCU 1.31 30.9 95.0 4.1 ok
26-02-2021 12:44:27 YCU 1.33 31.1 95.0 4.1 ok
26-02-2021 12:34:26 YCU 1.29 31.3 95.0 4.1 ok
26-02-2021 12:24:26 YCU 1.30 31.5 95.0 4.1 ok
26-02-2021 12:14:25 YCU 1.32 31.6 95.0 4.1 ok
26-02-2021 12:04:25 YCU 1.30 31.5 83.0 4.1 ok
26-02-2021 11:54:24 YCU 1.31 31.9 57.0 4.1 ok
26-02-2021 11:44:24 YCU 1.30 32.4 9.0 4.1 ok
26-02-2021 11:34:24 YCU 1.30 32.8 9.0 4.1 ok
26-02-2021 11:24:24 YCU 1.34 33.1 10.0 4.1 ok
26-02-2021 11:14:24 YCU 1.33 32.9 9.0 4.1 ok
26-02-2021 11:04:24 YCU 1.33 32.7 9.0 4.2 WF
26-02-2021 10:52:23 YCU 1.31 31.5 9.0 4.1 ok
26-02-2021 10:42:23 YCU 1.30 31.2 9.0 4.1 ok
26-02-2021 10:32:23 YCU 1.31 30.4 8.0 4.1 ok
26-02-2021 10:22:23 YCU 1.31 29.4 8.0 4.1 ok
26-02-2021 10:12:23 YCU 1.30 29.0 59.0 4.1 ok
26-02-2021 10:02:23 YCU 1.29 28.4 95.0 4.1 ok
26-02-2021 09:52:22 YCU 1.30 28.3 95.0 4.1 ok
26-02-2021 09:42:23 YCU 1.32 27.6 95.0 4.1 ok
26-02-2021 09:32:12 YCU 1.31 27.2 95.0 4.1 ok
26-02-2021 09:22:12 YCU 1.31 26.8 95.0 4.1 ok
26-02-2021 09:12:12 YCU 1.31 26.1 95.0 4.1 ok
26-02-2021 09:02:12 YCU 1.29 25.5 95.0 4.1 ok
26-02-2021 08:52:12 YCU 1.29 25.2 95.0 4.1 ok
26-02-2021 08:42:12 YCU 1.30 24.9 95.0 4.1 ok
26-02-2021 08:32:11 YCU 1.27 24.5 95.0 4.1 ok
26-02-2021 08:22:11 YCU 1.24 24.4 95.0 4.1 ok
26-02-2021 08:12:11 YCU 1.26 24.0 95.0 4.1 ok
26-02-2021 08:02:10 YCU 1.27 23.5 95.0 4.1 ok
26-02-2021 07:52:09 YCU 1.27 22.8 95.0 4.1 ok
26-02-2021 07:42:09 YCU 1.22 22.5 95.0 4.1 ok
26-02-2021 07:32:09 YCU 1.25 22.2 95.0 4.1 ok
26-02-2021 07:22:08 YCU 1.24 22.0 95.0 4.1 ok
26-02-2021 07:12:08 YCU 1.22 21.5 94.0 4.1 ok
26-02-2021 07:02:08 YCU 1.21 21.2 94.0 4.1 ok
26-02-2021 06:52:08 YCU 1.18 21.0 94.0 4.1 ok
26-02-2021 06:42:08 YCU 1.15 20.9 93.0 4.1 ok
26-02-2021 06:32:08 YCU 1.17 20.9 93.0 4.1 ok
26-02-2021 06:22:07 YCU 1.16 20.9 93.0 4.1 ok
26-02-2021 06:12:06 YCU 1.12 20.8 93.0 4.1 ok
26-02-2021 06:02:06 YCU 1.12 20.8 93.0 4.1 ok
26-02-2021 05:52:06 YCU 1.15 21.0 94.0 4.1 ok
26-02-2021 05:42:06 YCU 1.11 21.1 94.0 4.1 ok
26-02-2021 05:32:06 YCU 1.12 21.2 94.0 4.1 ok
26-02-2021 05:22:05 YCU 1.11 21.2 94.0 4.1 ok
26-02-2021 05:12:05 YCU 1.13 21.3 94.0 4.1 ok
26-02-2021 05:02:05 YCU 1.14 21.5 94.0 4.1 ok
26-02-2021 04:52:05 YCU 1.16 21.6 94.0 4.1 ok
26-02-2021 04:42:05 YCU 1.17 21.7 94.0 4.1 ok
26-02-2021 04:32:05 YCU 1.18 21.6 94.0 4.1 ok
26-02-2021 04:22:05 YCU 1.23 21.7 94.0 4.1 ok
26-02-2021 04:12:05 YCU 1.24 21.8 94.0 4.1 ok
26-02-2021 04:02:05 YCU 1.23 22.0 95.0 4.1 ok
26-02-2021 03:52:05 YCU 1.27 22.0 95.0 4.1 ok
26-02-2021 03:42:05 YCU 1.28 22.1 95.0 4.1 ok
26-02-2021 03:32:04 YCU 1.25 22.2 95.0 4.1 ok
26-02-2021 03:22:04 YCU 1.28 22.2 95.0 4.1 ok
26-02-2021 03:12:04 YCU 1.31 22.3 95.0 4.1 ok
26-02-2021 03:02:03 YCU 1.29 22.5 95.0 4.1 ok
26-02-2021 02:52:03 YCU 1.28 22.6 95.0 4.1 ok
26-02-2021 02:42:03 YCU 1.31 22.8 95.0 4.1 ok
26-02-2021 02:32:03 YCU 1.27 22.8 95.0 4.1 ok
26-02-2021 02:22:03 YCU 1.32 23.0 95.0 4.1 ok
26-02-2021 02:12:03 YCU 1.26 23.0 95.0 4.1 ok
26-02-2021 02:02:03 YCU 1.32 23.1 95.0 4.1 ok
26-02-2021 01:52:03 YCU 1.32 23.1 95.0 4.1 ok
26-02-2021 01:42:03 YCU 1.32 23.1 95.0 4.1 ok
26-02-2021 01:32:03 YCU 1.31 23.1 95.0 4.1 ok
26-02-2021 01:22:03 YCU 1.33 23.2 95.0 4.1 ok
26-02-2021 01:12:03 YCU 1.31 23.3 95.0 4.1 ok
26-02-2021 01:02:03 YCU 1.33 23.4 95.0 4.1 ok
26-02-2021 00:52:03 YCU 1.31 23.6 95.0 4.1 ok
26-02-2021 00:42:02 YCU 1.32 23.8 95.0 4.1 ok
26-02-2021 00:32:02 YCU 1.33 23.9 95.0 4.1 ok
26-02-2021 00:22:02 YCU 1.35 23.8 95.0 4.1 ok
26-02-2021 00:12:02 YCU 1.31 23.8 88.0 4.1 ok
26-02-2021 00:02:02 YCU 1.30 23.8 95.0 4.1 ok
25-02-2021 23:52:02 YCU 1.34 23.7 95.0 4.1 ok
25-02-2021 23:42:01 YCU 1.38 23.6 95.0 4.1 ok
25-02-2021 23:32:01 YCU 1.34 23.4 95.0 4.1 ok
25-02-2021 23:22:00 YCU 1.33 23.5 95.0 4.1 ok
25-02-2021 23:12:00 YCU 1.36 23.5 95.0 4.1 ok
25-02-2021 23:02:00 YCU 1.32 23.6 95.0 4.1 ok
25-02-2021 22:52:00 YCU 1.31 23.6 95.0 4.1 ok
25-02-2021 22:42:00 YCU 1.28 23.7 95.0 4.1 ok
25-02-2021 22:32:00 YCU 1.32 23.7 95.0 4.1 ok
25-02-2021 22:21:59 YCU 1.31 23.7 95.0 4.1 ok
25-02-2021 22:12:00 YCU 1.34 23.8 95.0 4.1 ok
25-02-2021 22:01:59 YCU 1.30 23.9 95.0 4.1 ok
25-02-2021 21:51:59 YCU 1.30 24.0 95.0 4.1 ok
25-02-2021 21:41:59 YCU 1.28 24.1 95.0 4.1 ok
25-02-2021 21:31:59 YCU 1.34 24.1 95.0 4.1 ok
25-02-2021 21:21:58 YCU 1.33 24.1 95.0 4.1 ok
25-02-2021 21:11:57 YCU 1.32 24.1 95.0 4.1 ok
25-02-2021 21:01:57 YCU 1.37 24.2 95.0 4.1 ok
25-02-2021 20:51:56 YCU 1.36 24.3 95.0 4.1 ok
25-02-2021 20:41:56 YCU 1.36 24.3 95.0 4.1 ok
25-02-2021 20:31:55 YCU 1.36 24.4 95.0 4.1 ok
25-02-2021 20:21:54 YCU 1.35 24.5 95.0 4.1 ok
25-02-2021 20:11:52 YCU 1.33 24.6 95.0 4.1 ok
25-02-2021 20:01:52 YCU 1.26 24.8 95.0 4.1 ok
25-02-2021 19:51:51 YCU 1.29 24.9 95.0 4.1 ok
25-02-2021 19:41:51 YCU 1.32 25.0 95.0 4.1 ok
25-02-2021 19:31:51 YCU 1.30 25.4 95.0 4.1 ok
25-02-2021 19:21:51 YCU 1.30 25.8 95.0 4.1 ok
25-02-2021 19:11:51 YCU 1.25 26.4 95.0 4.1 ok
25-02-2021 19:01:51 YCU 1.27 27.2 95.0 4.1 ok
25-02-2021 18:51:50 YCU 1.22 28.0 95.0 4.1 ok
25-02-2021 18:41:50 YCU 1.19 28.3 95.0 4.1 ok
25-02-2021 18:31:50 YCU 1.22 28.4 95.0 4.1 ok
25-02-2021 18:21:49 YCU 1.23 28.4 95.0 4.1 ok
25-02-2021 18:11:49 YCU 1.16 28.3 95.0 4.1 ok
25-02-2021 18:01:48 YCU 1.14 27.9 95.0 4.1 ok
25-02-2021 17:51:47 YCU 1.16 27.7 95.0 4.1 ok
25-02-2021 17:41:47 YCU 1.16 27.6 95.0 4.1 ok
25-02-2021 17:31:46 YCU 1.09 27.6 95.0 4.1 ok
25-02-2021 17:21:45 YCU 1.11 27.7 95.0 4.1 ok
25-02-2021 17:11:45 YCU 1.08 27.6 95.0 4.1 ok
25-02-2021 17:01:46 YCU 1.07 27.6 95.0 4.1 ok
25-02-2021 16:51:45 YCU 1.10 27.7 95.0 4.1 ok
25-02-2021 16:41:45 YCU 1.10 27.7 95.0 4.1 ok
25-02-2021 16:31:45 YCU 1.11 27.9 95.0 4.1 ok
25-02-2021 16:21:44 YCU 1.05 28.3 95.0 4.1 ok
25-02-2021 16:11:43 YCU 1.08 28.3 95.0 4.1 ok
25-02-2021 16:01:43 YCU 1.06 28.3 7.0 4.1 ok
25-02-2021 15:51:43 YCU 1.10 28.0 7.0 4.1 ok
25-02-2021 15:41:42 YCU 1.10 28.0 95.0 4.1 ok
25-02-2021 15:31:41 YCU 1.17 28.0 95.0 4.1 ok
25-02-2021 15:21:41 YCU 1.11 28.1 95.0 4.1 ok
25-02-2021 15:11:41 YCU 1.14 28.5 95.0 4.1 ok
25-02-2021 15:01:41 YCU 1.11 28.8 95.0 4.1 ok
25-02-2021 14:51:41 YCU 1.16 28.7 7.0 4.1 ok
25-02-2021 14:41:41 YCU 1.22 28.8 7.0 4.1 ok
25-02-2021 14:31:40 YCU 1.19 28.7 7.0 4.1 ok
25-02-2021 14:21:40 YCU 1.16 28.7 7.0 4.1 ok
25-02-2021 14:11:40 YCU 1.17 28.7 7.0 4.1 ok
25-02-2021 14:01:40 YCU 1.20 28.7 7.0 4.1 ok
25-02-2021 13:51:39 YCU 1.26 28.9 7.0 4.1 ok
25-02-2021 13:41:39 YCU 1.22 30.0 8.0 4.1 ok
25-02-2021 13:31:39 YCU 1.20 30.5 8.0 4.1 ok
25-02-2021 13:21:39 YCU 1.23 30.4 8.0 4.1 ok
25-02-2021 13:11:39 YCU 1.19 30.5 8.0 4.1 ok
25-02-2021 13:01:39 YCU 1.20 30.5 8.0 4.1 ok
25-02-2021 12:51:39 YCU 1.17 30.7 8.0 4.1 ok
25-02-2021 12:41:39 YCU 1.17 31.0 9.0 4.1 ok
25-02-2021 12:31:38 YCU 1.12 30.7 8.0 4.1 ok
25-02-2021 12:21:38 YCU 1.16 31.2 9.0 4.1 ok
25-02-2021 12:11:38 YCU 1.18 31.6 9.0 4.1 ok
25-02-2021 12:01:38 YCU 1.20 31.7 9.0 4.1 ok
25-02-2021 11:51:38 YCU 1.14 31.8 9.0 4.1 ok
25-02-2021 11:41:37 YCU 1.13 31.9 9.0 4.1 ok
25-02-2021 11:31:37 YCU 1.14 31.8 9.0 4.1 ok
25-02-2021 11:21:37 YCU 1.16 31.5 9.0 4.1 ok
25-02-2021 11:11:37 YCU 1.13 31.3 9.0 4.1 ok
25-02-2021 11:01:37 YCU 1.09 31.4 9.0 4.1 ok
25-02-2021 10:51:36 YCU 1.07 31.5 9.0 4.1 ok
25-02-2021 10:41:36 YCU 1.11 31.2 9.0 4.1 ok
25-02-2021 10:31:35 YCU 1.06 31.3 9.0 4.1 ok
25-02-2021 10:21:35 YCU 1.10 30.8 8.0 4.1 ok
25-02-2021 10:11:34 YCU 1.04 30.1 8.0 4.1 ok
25-02-2021 10:01:34 YCU 1.02 29.4 8.0 4.1 ok
25-02-2021 09:51:34 YCU 1.00 28.6 72.0 4.1 ok
25-02-2021 09:41:34 YCU 1.02 28.1 76.0 4.1 ok
25-02-2021 09:31:33 YCU 1.03 27.5 95.0 4.1 ok
25-02-2021 09:21:33 YCU 1.03 27.2 95.0 4.1 ok
25-02-2021 09:11:33 YCU 0.99 26.5 95.0 4.1 ok
25-02-2021 09:01:33 YCU 0.99 26.3 95.0 4.1 ok
25-02-2021 08:51:32 YCU 0.98 25.9 95.0 4.1 ok
25-02-2021 08:41:32 YCU 1.03 25.5 95.0 4.1 ok
25-02-2021 08:31:32 YCU 0.99 25.1 95.0 4.1 ok
25-02-2021 08:21:32 YCU 1.01 24.7 95.0 4.1 ok
25-02-2021 08:11:32 YCU 0.98 24.4 95.0 4.1 ok
25-02-2021 08:01:31 YCU 1.00 23.6 95.0 4.1 ok
25-02-2021 07:51:31 YCU 1.00 23.2 95.0 4.1 ok
25-02-2021 07:41:31 YCU 0.93 22.9 95.0 4.1 ok
25-02-2021 07:31:31 YCU 0.96 22.5 95.0 4.1 ok
25-02-2021 07:21:31 YCU 0.99 22.2 95.0 4.1 ok
25-02-2021 07:11:31 YCU 0.94 21.7 94.0 4.1 ok
25-02-2021 07:01:31 YCU 0.92 21.2 94.0 4.1 ok
25-02-2021 06:51:31 YCU 0.91 20.8 93.0 4.1 ok
25-02-2021 06:41:31 YCU 0.84 20.8 93.0 4.1 ok
25-02-2021 06:31:31 YCU 0.88 20.8 93.0 4.1 ok
25-02-2021 06:21:31 YCU 0.88 20.8 93.0 4.1 ok
25-02-2021 06:11:31 YCU 0.84 20.8 93.0 4.1 ok
25-02-2021 06:01:31 YCU 0.84 20.8 93.0 4.1 ok
25-02-2021 05:51:31 YCU 0.82 20.8 93.0 4.1 ok
25-02-2021 05:41:31 YCU 0.81 20.7 93.0 4.1 ok
25-02-2021 05:31:30 YCU 0.78 20.7 93.0 4.1 ok
25-02-2021 05:21:30 YCU 0.79 20.8 93.0 4.1 ok
25-02-2021 05:11:30 YCU 0.75 20.8 93.0 4.1 ok
25-02-2021 05:01:30 YCU 0.76 20.9 93.0 4.1 ok
25-02-2021 04:51:30 YCU 0.77 21.1 94.0 4.1 ok
25-02-2021 04:41:30 YCU 0.86 21.0 94.0 4.1 ok
25-02-2021 04:31:30 YCU 0.85 20.8 93.0 4.1 ok
25-02-2021 04:21:30 YCU 0.92 20.7 93.0 4.1 ok
25-02-2021 04:11:30 YCU 0.78 20.7 93.0 4.1 ok
25-02-2021 04:01:31 YCU 0.87 20.7 93.0 4.1 ok
25-02-2021 03:51:30 YCU 0.90 20.7 93.0 4.1 ok
25-02-2021 03:41:30 YCU 0.93 20.7 93.0 4.1 ok
25-02-2021 03:31:30 YCU 0.91 20.7 93.0 4.1 ok
25-02-2021 03:21:31 YCU 0.93 20.7 93.0 4.1 WF
25-02-2021 03:09:31 YCU 0.91 20.7 93.0 4.1 ok
25-02-2021 02:59:29 YCU 0.92 20.7 93.0 4.1 ok
25-02-2021 02:49:29 YCU 0.96 20.7 93.0 4.1 ok
25-02-2021 02:39:30 YCU 0.98 20.7 93.0 4.1 ok
25-02-2021 02:29:29 YCU 0.97 20.7 93.0 4.1 ok
25-02-2021 02:19:29 YCU 0.96 20.8 93.0 4.1 ok
25-02-2021 02:09:29 YCU 0.99 20.9 93.0 4.1 ok
25-02-2021 01:59:29 YCU 0.99 21.1 94.0 4.1 ok
25-02-2021 01:49:29 YCU 1.01 21.3 94.0 4.1 ok
25-02-2021 01:39:29 YCU 1.05 21.5 94.0 4.1 ok
25-02-2021 01:29:29 YCU 1.02 21.5 94.0 4.1 ok
25-02-2021 01:19:29 YCU 1.06 21.6 94.0 4.1 ok
25-02-2021 01:09:29 YCU 1.07 21.7 94.0 4.1 ok
25-02-2021 00:59:30 YCU 1.01 21.7 94.0 4.1 ok
25-02-2021 00:49:30 YCU 1.00 21.8 94.0 4.1 ok
25-02-2021 00:39:30 YCU 1.01 21.9 94.0 4.1 ok
25-02-2021 00:29:30 YCU 1.05 21.9 94.0 4.1 ok
25-02-2021 00:19:30 YCU 1.02 22.0 95.0 4.1 ok
25-02-2021 00:09:29 YCU 1.02 22.2 95.0 4.1 ok
24-02-2021 23:59:29 YCU 1.04 22.2 95.0 4.1 ok
24-02-2021 23:49:29 YCU 1.04 22.2 95.0 4.1 ok
24-02-2021 23:39:29 YCU 1.06 22.2 95.0 4.1 ok
24-02-2021 23:29:30 YCU 1.04 22.3 95.0 4.1 ok
24-02-2021 23:19:30 YCU 1.06 22.3 95.0 4.1 ok
24-02-2021 23:09:30 YCU 1.04 22.4 95.0 4.1 ok
24-02-2021 22:59:31 YCU 1.05 22.4 95.0 4.1 ok
24-02-2021 22:49:31 YCU 1.03 22.4 95.0 4.1 WF
24-02-2021 22:37:31 YCU 1.04 22.5 95.0 4.1 ok
24-02-2021 22:27:31 YCU 1.08 22.6 95.0 4.1 ok
24-02-2021 22:17:31 YCU 1.10 22.6 95.0 4.1 ok
24-02-2021 22:07:29 YCU 1.12 22.7 95.0 4.1 ok
24-02-2021 21:57:29 YCU 1.15 22.8 95.0 4.1 ok
24-02-2021 21:47:29 YCU 1.18 22.8 95.0 4.1 ok
24-02-2021 21:37:28 YCU 1.15 22.8 95.0 4.1 ok
24-02-2021 21:27:28 YCU 1.20 22.9 95.0 4.1 ok
24-02-2021 21:17:28 YCU 1.22 22.9 95.0 4.1 ok
24-02-2021 21:07:28 YCU 1.19 23.0 95.0 4.1 ok
24-02-2021 20:57:28 YCU 1.24 23.0 95.0 4.1 ok
24-02-2021 20:47:27 YCU 1.22 23.0 95.0 4.1 ok
24-02-2021 20:37:27 YCU 1.25 23.1 95.0 4.1 ok
24-02-2021 20:27:27 YCU 1.27 23.1 95.0 4.1 ok
24-02-2021 20:17:26 YCU 1.24 23.2 95.0 4.1 ok
24-02-2021 20:07:26 YCU 1.21 23.3 95.0 4.1 ok
24-02-2021 19:57:26 YCU 1.27 23.5 95.0 4.1 ok
24-02-2021 19:47:26 YCU 1.27 23.7 95.0 4.1 ok
24-02-2021 19:37:26 YCU 1.30 23.9 95.0 4.1 ok
24-02-2021 19:27:26 YCU 1.23 24.2 95.0 4.1 ok
24-02-2021 19:17:26 YCU 1.30 24.8 95.0 4.1 ok
24-02-2021 19:07:24 YCU 1.34 25.3 88.0 4.1 ok
24-02-2021 18:57:24 YCU 1.31 26.2 95.0 4.1 ok
24-02-2021 18:47:23 YCU 1.31 27.0 95.0 4.1 ok
24-02-2021 18:37:23 YCU 1.30 27.2 95.0 4.1 ok
24-02-2021 18:27:23 YCU 1.31 27.7 52.0 4.1 ok
24-02-2021 18:17:23 YCU 1.35 27.6 54.0 4.1 ok
24-02-2021 18:07:22 YCU 1.36 27.3 29.0 4.1 ok
24-02-2021 17:57:22 YCU 1.30 26.9 63.0 4.1 ok
24-02-2021 17:47:21 YCU 1.31 26.9 15.0 4.1 ok
24-02-2021 17:37:21 YCU 1.36 26.9 6.0 4.1 ok
24-02-2021 17:27:21 YCU 1.34 26.9 6.0 4.1 ok
24-02-2021 17:17:21 YCU 1.35 27.0 6.0 4.1 ok
24-02-2021 17:07:21 YCU 1.32 27.0 6.0 4.1 ok
24-02-2021 16:57:20 YCU 1.30 26.9 6.0 4.1 ok
24-02-2021 16:47:20 YCU 1.32 26.9 6.0 4.1 ok
24-02-2021 16:37:19 YCU 1.34 26.9 6.0 4.1 ok
24-02-2021 16:27:20 YCU 1.31 26.9 6.0 4.1 ok
24-02-2021 16:17:08 YCU 1.31 27.0 6.0 4.1 ok
24-02-2021 16:07:08 YCU 1.33 26.9 6.0 4.1 ok
24-02-2021 15:57:08 YCU 1.32 26.8 6.0 4.1 ok
24-02-2021 15:47:08 YCU 1.38 26.7 6.0 4.1 ok
24-02-2021 15:37:08 YCU 1.34 26.3 23.0 4.1 ok
24-02-2021 15:27:07 YCU 1.37 26.0 31.0 4.1 ok
24-02-2021 15:17:07 YCU 1.38 26.4 22.0 4.1 ok
24-02-2021 15:07:07 YCU 1.41 26.3 95.0 4.1 ok
24-02-2021 14:57:06 YCU 1.41 26.1 95.0 4.1 ok
24-02-2021 14:47:06 YCU 1.41 26.0 95.0 4.1 ok
24-02-2021 14:37:05 YCU 1.40 25.7 95.0 4.1 ok
24-02-2021 14:27:05 YCU 1.45 25.8 95.0 4.1 ok
24-02-2021 14:17:05 YCU 1.47 26.1 95.0 4.1 ok
24-02-2021 14:07:05 YCU 1.45 26.3 95.0 4.1 ok
24-02-2021 13:57:05 YCU 1.49 26.8 95.0 4.1 ok
24-02-2021 13:47:05 YCU 1.54 27.4 29.0 4.1 ok
24-02-2021 13:37:04 YCU 1.54 28.2 7.0 4.1 ok
24-02-2021 13:27:04 YCU 1.51 28.8 7.0 4.1 ok
24-02-2021 13:17:04 YCU 1.53 28.6 7.0 4.1 ok
24-02-2021 13:07:03 YCU 1.54 27.9 6.0 4.1 ok
24-02-2021 12:57:03 YCU 1.56 28.0 7.0 4.1 ok
24-02-2021 12:47:03 YCU 1.59 27.9 6.0 4.1 ok
24-02-2021 12:37:03 YCU 1.56 28.3 7.0 4.1 ok
24-02-2021 12:27:03 YCU 1.55 28.2 7.0 4.1 ok
24-02-2021 12:17:03 YCU 1.59 28.1 7.0 4.1 ok
24-02-2021 12:07:03 YCU 1.58 27.9 6.0 4.1 ok
24-02-2021 11:57:03 YCU 1.55 27.9 6.0 4.1 ok
24-02-2021 11:47:03 YCU 1.60 27.5 6.0 4.1 ok
24-02-2021 11:37:03 YCU 1.65 27.6 6.0 4.1 ok
24-02-2021 11:27:03 YCU 1.67 27.0 6.0 4.1 ok
24-02-2021 11:17:03 YCU 1.62 26.8 6.0 4.1 ok
24-02-2021 11:07:03 YCU 1.62 26.4 6.0 4.1 ok
24-02-2021 10:57:03 YCU 1.59 27.4 6.0 4.1 ok
24-02-2021 10:47:02 YCU 1.61 27.0 6.0 4.1 ok
24-02-2021 10:37:02 YCU 1.62 26.4 6.0 4.1 ok
24-02-2021 10:27:02 YCU 1.58 26.4 6.0 4.1 ok
24-02-2021 10:17:02 YCU 1.57 26.0 11.0 4.1 ok
24-02-2021 10:07:02 YCU 1.50 25.7 30.0 4.1 ok
24-02-2021 09:57:02 YCU 1.53 24.8 70.0 4.1 ok
24-02-2021 09:47:02 YCU 1.50 25.0 64.0 4.1 ok
24-02-2021 09:37:02 YCU 1.48 24.2 95.0 4.1 ok
24-02-2021 09:27:02 YCU 1.42 23.9 95.0 4.1 ok
24-02-2021 09:17:02 YCU 1.48 23.2 95.0 4.1 ok
24-02-2021 09:07:02 YCU 1.48 22.9 95.0 4.1 ok
24-02-2021 08:57:02 YCU 1.44 22.5 95.0 4.1 ok
24-02-2021 08:47:02 YCU 1.48 22.3 95.0 4.1 ok
24-02-2021 08:37:01 YCU 1.46 22.2 95.0 4.1 ok
24-02-2021 08:27:02 YCU 1.48 22.0 95.0 4.1 ok
24-02-2021 08:17:01 YCU 1.43 21.6 94.0 4.1 ok
24-02-2021 08:07:01 YCU 1.46 21.1 94.0 4.1 ok
24-02-2021 07:57:01 YCU 1.42 20.6 93.0 4.1 ok
24-02-2021 07:47:01 YCU 1.51 20.3 93.0 4.1 ok
24-02-2021 07:37:01 YCU 1.49 20.1 93.0 4.1 ok
24-02-2021 07:27:01 YCU 1.43 19.7 84.0 4.1 ok
24-02-2021 07:17:01 YCU 1.47 19.3 93.0 4.1 ok
24-02-2021 07:07:01 YCU 1.46 19.1 93.0 4.1 ok
24-02-2021 06:57:01 YCU 1.48 18.7 93.0 4.1 ok
24-02-2021 06:47:01 YCU 1.43 18.8 93.0 4.1 ok
24-02-2021 06:37:00 YCU 1.40 19.0 93.0 4.1 ok
24-02-2021 06:27:00 YCU 1.42 19.1 93.0 4.1 ok
24-02-2021 06:17:00 YCU 1.36 19.2 93.0 4.1 ok
24-02-2021 06:07:00 YCU 1.42 19.4 93.0 4.1 ok
24-02-2021 05:57:00 YCU 1.39 19.4 86.0 4.1 ok
24-02-2021 05:47:00 YCU 1.37 19.5 93.0 4.1 ok
24-02-2021 05:37:00 YCU 1.34 19.7 93.0 4.1 ok
24-02-2021 05:27:00 YCU 1.30 19.7 93.0 4.1 ok
24-02-2021 05:17:00 YCU 1.33 19.7 93.0 4.1 ok
24-02-2021 05:07:00 YCU 1.27 19.6 93.0 4.1 ok
24-02-2021 04:57:00 YCU 1.29 19.7 93.0 4.1 ok
24-02-2021 04:47:00 YCU 1.26 19.8 93.0 4.1 ok
24-02-2021 04:37:00 YCU 1.17 19.8 67.0 4.1 ok
24-02-2021 04:27:01 YCU 1.17 19.7 93.0 4.1 ok
24-02-2021 04:17:01 YCU 1.19 19.5 93.0 4.1 ok
24-02-2021 04:07:01 YCU 1.19 19.5 93.0 4.1 ok
24-02-2021 03:56:59 YCU 1.11 19.5 93.0 4.1 ok
24-02-2021 03:46:59 YCU 1.13 19.7 93.0 4.1 ok
24-02-2021 03:36:59 YCU 1.17 19.8 87.0 4.1 ok
24-02-2021 03:27:00 YCU 1.13 19.9 67.0 4.1 ok
24-02-2021 03:17:00 YCU 1.14 19.9 93.0 4.1 WF
24-02-2021 03:05:01 YCU 1.13 20.0 93.0 4.1 ok
24-02-2021 02:55:01 YCU 1.12 20.0 93.0 4.1 ok
24-02-2021 02:45:01 YCU 1.12 20.1 93.0 4.1 ok
24-02-2021 02:35:00 YCU 1.13 20.2 93.0 4.1 ok
24-02-2021 02:25:00 YCU 1.22 20.2 93.0 4.1 ok
24-02-2021 02:15:00 YCU 1.19 20.2 93.0 4.1 ok
24-02-2021 02:05:00 YCU 1.21 20.3 93.0 4.1 ok
24-02-2021 01:54:55 YCU 1.22 20.3 93.0 4.1 ok
24-02-2021 01:44:54 YCU 1.24 20.4 93.0 4.1 ok
24-02-2021 01:34:55 YCU 1.24 20.5 93.0 4.1 ok
24-02-2021 01:24:54 YCU 1.26 20.5 93.0 4.1 ok
24-02-2021 01:14:54 YCU 1.29 20.5 93.0 4.1 ok
24-02-2021 01:04:54 YCU 1.31 20.5 93.0 4.1 ok
24-02-2021 00:54:54 YCU 1.25 20.5 93.0 4.1 ok
24-02-2021 00:44:54 YCU 1.28 20.5 93.0 4.1 ok
24-02-2021 00:34:54 YCU 1.27 20.6 93.0 4.1 ok
24-02-2021 00:24:54 YCU 1.26 20.6 93.0 4.1 ok
24-02-2021 00:14:54 YCU 1.26 20.7 93.0 4.1 ok
24-02-2021 00:04:54 YCU 1.28 20.7 93.0 4.1 ok
23-02-2021 23:54:54 YCU 1.28 20.7 93.0 4.1 ok
23-02-2021 23:44:53 YCU 1.25 20.8 93.0 4.1 ok
23-02-2021 23:34:52 YCU 1.23 20.8 93.0 4.1 ok
23-02-2021 23:24:52 YCU 1.22 20.9 93.0 4.1 ok
23-02-2021 23:14:52 YCU 1.26 20.9 91.0 4.1 ok
23-02-2021 23:04:52 YCU 1.24 21.0 94.0 4.1 ok
23-02-2021 22:54:52 YCU 1.17 21.2 94.0 4.1 ok
23-02-2021 22:44:52 YCU 1.12 21.3 94.0 4.1 ok
23-02-2021 22:34:52 YCU 1.16 21.4 94.0 4.1 ok
23-02-2021 22:24:52 YCU 1.21 21.5 94.0 4.1 ok
23-02-2021 22:14:52 YCU 1.26 21.5 94.0 4.1 WF
23-02-2021 22:02:51 YCU 1.20 21.6 94.0 4.1 ok
23-02-2021 21:52:51 YCU 1.21 21.7 94.0 4.1 ok
23-02-2021 21:42:50 YCU 1.18 21.8 94.0 4.1 ok
23-02-2021 21:32:50 YCU 1.18 21.8 94.0 4.1 ok
23-02-2021 21:22:50 YCU 1.24 22.0 95.0 4.1 ok
23-02-2021 21:12:50 YCU 1.24 22.1 95.0 4.1 ok
23-02-2021 21:02:49 YCU 1.32 22.2 95.0 4.1 ok
23-02-2021 20:52:48 YCU 1.23 22.3 89.0 4.1 ok
23-02-2021 20:42:48 YCU 1.20 22.4 49.0 4.1 ok
23-02-2021 20:32:48 YCU 1.24 22.4 21.0 4.1 ok
23-02-2021 20:22:47 YCU 1.26 22.6 64.0 4.1 ok
23-02-2021 20:12:46 YCU 1.22 22.5 8.0 4.1 ok
23-02-2021 20:02:46 YCU 1.30 22.4 95.0 4.1 ok
23-02-2021 19:52:46 YCU 1.26 22.5 95.0 4.1 ok
23-02-2021 19:42:44 YCU 1.27 22.7 95.0 4.1 ok
23-02-2021 19:32:44 YCU 1.28 23.0 40.0 4.1 ok
23-02-2021 19:22:44 YCU 1.24 23.2 63.0 4.1 ok
23-02-2021 19:12:44 YCU 1.33 23.7 5.0 4.1 ok
23-02-2021 19:02:43 YCU 1.23 24.4 5.0 4.1 ok
23-02-2021 18:52:42 YCU 1.29 25.3 5.0 4.1 ok
23-02-2021 18:42:42 YCU 1.24 25.8 5.0 4.1 ok
23-02-2021 18:32:41 YCU 1.26 25.8 5.0 4.1 ok
23-02-2021 18:22:41 YCU 1.31 25.8 5.0 4.1 ok
23-02-2021 18:12:41 YCU 1.31 25.5 5.0 4.1 ok
23-02-2021 18:02:41 YCU 1.27 24.9 5.0 4.1 ok
23-02-2021 17:52:39 YCU 1.31 24.8 25.0 4.1 ok
23-02-2021 17:42:39 YCU 1.30 24.6 5.0 4.1 ok
23-02-2021 17:32:38 YCU 1.30 24.7 5.0 4.1 ok
23-02-2021 17:22:38 YCU 1.34 24.8 5.0 4.1 ok
23-02-2021 17:12:38 YCU 1.21 24.8 9.0 4.1 ok
23-02-2021 17:02:37 YCU 1.28 24.7 20.0 4.1 ok
23-02-2021 16:52:36 YCU 1.27 24.7 5.0 4.1 ok
23-02-2021 16:42:35 YCU 1.24 24.7 5.0 4.1 ok
23-02-2021 16:32:35 YCU 1.20 24.6 40.0 4.1 ok
23-02-2021 16:22:35 YCU 1.22 24.7 5.0 4.1 ok
23-02-2021 16:12:34 YCU 1.21 24.7 5.0 4.1 ok
23-02-2021 16:02:34 YCU 1.23 24.8 5.0 4.1 ok
23-02-2021 15:52:34 YCU 1.29 24.8 5.0 4.1 ok
23-02-2021 15:42:34 YCU 1.27 24.9 22.0 4.1 ok
23-02-2021 15:32:33 YCU 1.35 25.2 5.0 4.1 ok
23-02-2021 15:22:33 YCU 1.31 25.3 36.0 4.1 ok
23-02-2021 15:12:33 YCU 1.33 25.3 25.0 4.1 ok
23-02-2021 15:02:34 YCU 1.32 25.4 46.0 4.1 ok
23-02-2021 14:52:34 YCU 1.33 25.5 39.0 4.1 WF
23-02-2021 14:40:34 YCU 1.40 25.7 49.0 4.1 ok
23-02-2021 14:30:33 YCU 1.39 25.9 68.0 4.1 ok
23-02-2021 14:20:33 YCU 1.35 26.2 68.0 4.1 ok
23-02-2021 14:10:32 YCU 1.31 26.4 6.0 4.1 ok
23-02-2021 14:00:32 YCU 1.44 26.7 8.0 4.1 ok
23-02-2021 13:50:32 YCU 1.39 27.0 6.0 4.1 ok
23-02-2021 13:40:32 YCU 1.44 28.6 7.0 4.1 ok
23-02-2021 13:30:32 YCU 1.34 29.1 8.0 4.1 ok
23-02-2021 13:20:31 YCU 1.37 29.5 8.0 4.1 ok
23-02-2021 13:10:30 YCU 1.39 29.2 8.0 4.1 ok
23-02-2021 13:00:31 YCU 1.41 29.6 8.0 4.1 ok
23-02-2021 12:50:30 YCU 1.36 29.7 8.0 4.1 ok
23-02-2021 12:40:30 YCU 1.39 29.6 8.0 4.2 ok
23-02-2021 12:30:30 YCU 1.43 29.6 8.0 4.1 ok
23-02-2021 12:20:29 YCU 1.46 29.8 8.0 4.1 ok
23-02-2021 12:10:29 YCU 1.43 29.7 8.0 4.1 ok
23-02-2021 12:00:29 YCU 1.49 29.2 8.0 4.1 ok
23-02-2021 11:50:29 YCU 1.46 29.0 8.0 4.1 ok
23-02-2021 11:40:29 YCU 1.49 28.7 7.0 4.1 ok
23-02-2021 11:30:29 YCU 1.52 28.4 13.0 4.1 ok
23-02-2021 11:20:28 YCU 1.52 28.3 13.0 4.1 ok
23-02-2021 11:10:28 YCU 1.56 28.1 23.0 4.1 ok
23-02-2021 11:00:28 YCU 1.54 27.9 9.0 4.1 ok
23-02-2021 10:50:28 YCU 1.60 27.7 95.0 4.1 ok
23-02-2021 10:40:28 YCU 1.60 27.3 95.0 4.1 ok
23-02-2021 10:30:27 YCU 1.50 27.2 95.0 4.1 ok
23-02-2021 10:20:26 YCU 1.50 26.9 95.0 4.1 ok
23-02-2021 10:10:26 YCU 1.51 26.7 95.0 4.1 ok
23-02-2021 10:00:26 YCU 1.57 25.7 95.0 4.1 ok
23-02-2021 09:50:24 YCU 1.56 25.7 95.0 4.1 ok
23-02-2021 09:40:24 YCU 1.59 26.0 95.0 4.1 ok
23-02-2021 09:30:24 YCU 1.63 25.6 95.0 4.1 ok
23-02-2021 09:20:24 YCU 1.60 25.1 95.0 4.1 ok
23-02-2021 09:10:23 YCU 1.60 25.0 95.0 4.1 ok
23-02-2021 09:00:23 YCU 1.58 24.8 95.0 4.1 ok
23-02-2021 08:50:23 YCU 1.51 24.5 95.0 4.1 ok
23-02-2021 08:40:22 YCU 1.49 24.4 95.0 4.1 ok
23-02-2021 08:30:22 YCU 1.50 24.0 95.0 4.1 ok
23-02-2021 08:20:22 YCU 1.51 23.9 95.0 4.1 ok
23-02-2021 08:10:22 YCU 1.51 23.3 95.0 4.1 ok
23-02-2021 08:00:22 YCU 1.57 22.7 95.0 4.1 ok
23-02-2021 07:50:22 YCU 1.51 22.6 95.0 4.1 ok
23-02-2021 07:40:22 YCU 1.48 22.3 95.0 4.1 ok
23-02-2021 07:30:21 YCU 1.54 22.1 95.0 4.1 ok
23-02-2021 07:20:21 YCU 1.51 21.7 94.0 4.1 ok
23-02-2021 07:10:21 YCU 1.46 21.6 94.0 4.1 ok
23-02-2021 07:00:21 YCU 1.53 21.0 94.0 4.1 ok
23-02-2021 06:50:21 YCU 1.56 20.8 93.0 4.1 ok
23-02-2021 06:40:20 YCU 1.53 20.8 93.0 4.1 ok
23-02-2021 06:30:20 YCU 1.56 20.8 93.0 4.1 ok
23-02-2021 06:20:19 YCU 1.54 21.0 94.0 4.1 ok
23-02-2021 06:10:19 YCU 1.60 21.1 94.0 4.1 ok
23-02-2021 06:00:19 YCU 1.52 21.1 94.0 4.1 ok
23-02-2021 05:50:19 YCU 1.53 21.0 94.0 4.1 ok
23-02-2021 05:40:19 YCU 1.49 21.1 94.0 4.1 ok
23-02-2021 05:30:19 YCU 1.50 21.1 94.0 4.1 ok
23-02-2021 05:20:20 YCU 1.39 20.9 93.0 4.1 ok
23-02-2021 05:10:19 YCU 1.42 20.8 93.0 4.1 ok
23-02-2021 05:00:19 YCU 1.45 20.9 93.0 4.1 ok
23-02-2021 04:50:19 YCU 1.47 20.9 93.0 4.1 ok
23-02-2021 04:40:19 YCU 1.41 21.0 94.0 4.1 ok
23-02-2021 04:30:19 YCU 1.47 21.1 94.0 4.1 ok
23-02-2021 04:20:19 YCU 1.51 21.1 94.0 4.1 ok
23-02-2021 04:10:19 YCU 1.49 21.0 94.0 4.1 ok
23-02-2021 04:00:19 YCU 1.57 21.1 94.0 4.1 ok
23-02-2021 03:50:19 YCU 1.59 21.2 94.0 4.1 ok
23-02-2021 03:40:19 YCU 1.64 21.5 94.0 4.1 ok
23-02-2021 03:30:18 YCU 1.55 21.7 94.0 4.1 ok
23-02-2021 03:20:18 YCU 1.58 21.9 94.0 4.1 ok
23-02-2021 03:10:18 YCU 1.60 22.0 95.0 4.1 ok
23-02-2021 03:00:18 YCU 1.56 22.0 95.0 4.1 ok
23-02-2021 02:50:17 YCU 1.54 22.0 95.0 4.1 ok
23-02-2021 02:40:17 YCU 1.52 22.1 95.0 4.1 ok
23-02-2021 02:30:17 YCU 1.54 22.1 95.0 4.1 ok
23-02-2021 02:20:17 YCU 1.51 22.2 95.0 4.1 ok
23-02-2021 02:10:17 YCU 1.42 22.2 95.0 4.1 ok
23-02-2021 02:00:17 YCU 1.42 22.2 95.0 4.1 ok
23-02-2021 01:50:17 YCU 1.47 22.1 95.0 4.1 ok
23-02-2021 01:40:17 YCU 1.55 22.2 95.0 4.1 ok
23-02-2021 01:30:17 YCU 1.51 22.1 95.0 4.1 ok
23-02-2021 01:20:17 YCU 1.46 22.2 95.0 4.1 ok
23-02-2021 01:10:17 YCU 1.59 22.2 95.0 4.1 ok
23-02-2021 01:00:17 YCU 1.58 22.2 95.0 4.1 ok
23-02-2021 00:50:17 YCU 1.53 22.3 95.0 4.1 ok
23-02-2021 00:40:14 YCU 1.59 22.4 95.0 4.1 ok
23-02-2021 00:30:14 YCU 1.58 22.8 95.0 4.1 ok
23-02-2021 00:20:14 YCU 1.66 23.2 95.0 4.1 ok
23-02-2021 00:10:14 YCU 1.64 23.2 95.0 4.1 ok
23-02-2021 00:00:14 YCU 1.62 23.2 95.0 4.1 ok
22-02-2021 23:50:14 YCU 1.66 23.2 95.0 4.1 ok
22-02-2021 23:40:14 YCU 1.64 23.2 95.0 4.1 ok
22-02-2021 23:30:14 YCU 1.63 23.3 95.0 4.1 ok
22-02-2021 23:20:14 YCU 1.50 23.2 95.0 4.1 ok
22-02-2021 23:10:13 YCU 1.50 23.3 95.0 4.1 ok
22-02-2021 23:00:13 YCU 1.39 23.4 95.0 4.1 ok
22-02-2021 22:50:13 YCU 1.38 23.4 95.0 4.1 ok
22-02-2021 22:40:12 YCU 1.40 23.5 95.0 4.1 ok
22-02-2021 22:30:10 YCU 1.45 23.5 95.0 4.1 ok
22-02-2021 22:20:10 YCU 1.32 23.5 95.0 4.1 ok
22-02-2021 22:10:10 YCU 1.29 23.4 95.0 4.1 ok
22-02-2021 22:00:10 YCU 1.35 23.4 95.0 4.1 ok
22-02-2021 21:50:10 YCU 1.36 23.5 95.0 4.1 ok
22-02-2021 21:40:08 YCU 1.36 23.5 95.0 4.1 ok
22-02-2021 21:30:08 YCU 1.27 23.5 95.0 4.1 ok
22-02-2021 21:20:07 YCU 1.35 23.5 95.0 4.1 ok
22-02-2021 21:10:06 YCU 1.33 23.5 95.0 4.1 ok
22-02-2021 21:00:06 YCU 1.29 23.6 95.0 4.1 ok
22-02-2021 20:50:05 YCU 1.25 23.7 95.0 4.1 ok
22-02-2021 20:40:05 YCU 1.31 23.9 95.0 4.1 ok
22-02-2021 20:30:05 YCU 1.39 24.1 95.0 4.1 ok
22-02-2021 20:20:05 YCU 1.32 24.3 95.0 4.1 ok
22-02-2021 20:10:05 YCU 1.29 24.4 95.0 4.1 ok
22-02-2021 20:00:05 YCU 1.23 24.5 95.0 4.1 ok
22-02-2021 19:50:04 YCU 1.29 24.7 95.0 4.1 ok
22-02-2021 19:40:04 YCU 1.23 24.8 95.0 4.1 ok
22-02-2021 19:30:03 YCU 1.21 24.9 95.0 4.1 ok
22-02-2021 19:20:03 YCU 1.23 25.2 95.0 4.1 ok
22-02-2021 19:10:03 YCU 1.26 25.5 95.0 4.1 ok
22-02-2021 19:00:03 YCU 1.22 26.2 95.0 4.1 ok
22-02-2021 18:50:03 YCU 1.33 26.8 95.0 4.1 ok
22-02-2021 18:40:03 YCU 1.28 26.9 95.0 4.1 ok
22-02-2021 18:30:03 YCU 1.31 26.8 95.0 4.1 ok
22-02-2021 18:20:03 YCU 1.22 27.2 95.0 4.1 ok
22-02-2021 18:10:03 YCU 1.22 27.2 95.0 4.1 ok
22-02-2021 18:00:03 YCU 1.13 26.7 93.0 4.1 ok
22-02-2021 17:50:02 YCU 1.07 26.6 95.0 4.1 ok
22-02-2021 17:40:02 YCU 1.11 26.4 95.0 4.1 ok
22-02-2021 17:30:02 YCU 1.08 26.4 95.0 4.1 ok
22-02-2021 17:20:02 YCU 1.07 26.2 95.0 4.1 ok
22-02-2021 17:10:02 YCU 0.94 26.1 95.0 4.1 ok
22-02-2021 17:00:02 YCU 1.00 25.8 95.0 4.1 ok
22-02-2021 16:50:01 YCU 0.99 25.5 95.0 4.1 ok
22-02-2021 16:39:58 YCU 0.90 25.3 95.0 4.1 ok
22-02-2021 16:29:58 YCU 0.89 24.8 95.0 4.1 ok
22-02-2021 16:19:58 YCU 0.98 24.3 95.0 4.1 ok
22-02-2021 16:09:57 YCU 1.00 23.8 95.0 4.1 ok
22-02-2021 15:59:57 YCU 0.86 23.4 95.0 4.1 ok
22-02-2021 15:49:57 YCU 0.86 23.1 95.0 4.1 ok
22-02-2021 15:39:57 YCU 0.85 22.5 95.0 4.1 ok
22-02-2021 15:29:57 YCU 0.89 22.0 95.0 4.1 ok
22-02-2021 15:19:55 YCU 0.84 21.7 94.0 4.1 ok
22-02-2021 15:09:55 YCU 0.80 21.4 94.0 4.1 ok
22-02-2021 14:59:55 YCU 0.86 21.2 94.0 4.1 ok
22-02-2021 14:49:55 YCU 0.80 21.1 94.0 4.1 ok
22-02-2021 14:39:54 YCU 0.80 21.1 94.0 4.1 ok
22-02-2021 14:29:54 YCU 0.87 21.1 94.0 4.1 ok
22-02-2021 14:19:51 YCU 0.91 21.0 94.0 4.1 ok
22-02-2021 14:09:51 YCU 0.85 21.0 94.0 4.1 ok
22-02-2021 13:59:51 YCU 0.72 21.1 94.0 4.1 ok
22-02-2021 13:49:50 YCU 0.79 21.0 94.0 4.1 ok
22-02-2021 13:39:50 YCU 0.86 21.1 94.0 4.1 ok
22-02-2021 13:29:50 YCU 0.60 21.2 94.0 4.1 ok
22-02-2021 13:19:49 YCU 0.72 21.0 94.0 4.1 ok
22-02-2021 13:09:49 YCU 0.72 21.0 94.0 4.1 ok
22-02-2021 12:59:49 YCU 0.67 21.0 94.0 4.1 ok
22-02-2021 12:49:49 YCU 0.74 21.2 94.0 4.1 ok
22-02-2021 12:39:49 YCU 0.69 21.3 94.0 4.1 ok
22-02-2021 12:29:49 YCU 0.71 21.4 94.0 4.1 ok
22-02-2021 12:19:47 YCU 0.66 21.4 94.0 4.2 ok
22-02-2021 12:09:46 YCU 0.66 21.3 94.0 4.1 ok
22-02-2021 11:59:46 YCU 0.62 21.2 94.0 4.1 ok
22-02-2021 11:49:46 YCU 0.56 21.2 94.0 4.1 ok
22-02-2021 11:39:46 YCU 0.62 21.2 94.0 4.1 ok
22-02-2021 11:29:46 YCU 0.77 21.2 94.0 4.1 ok
22-02-2021 11:19:46 YCU 0.90 21.2 94.0 4.1 WF
22-02-2021 11:07:47 YCU 0.93 21.4 94.0 4.1 ok
22-02-2021 10:57:46 YCU 0.87 21.7 94.0 4.1 ok
22-02-2021 10:47:46 YCU 0.90 21.8 94.0 4.1 ok
22-02-2021 10:37:46 YCU 0.99 21.9 94.0 4.1 ok
22-02-2021 10:27:45 YCU 1.01 22.3 95.0 4.1 ok
22-02-2021 10:17:45 YCU 0.96 22.7 95.0 4.1 ok
22-02-2021 10:07:45 YCU 1.02 22.8 95.0 4.1 ok
22-02-2021 09:57:45 YCU 1.11 22.9 95.0 4.1 ok
22-02-2021 09:47:45 YCU 1.10 22.9 95.0 4.1 ok
22-02-2021 09:37:45 YCU 1.17 22.7 95.0 4.1 ok
22-02-2021 09:27:44 YCU 1.20 22.7 95.0 4.1 ok
22-02-2021 09:17:44 YCU 1.14 22.9 95.0 4.1 ok
22-02-2021 09:07:44 YCU 1.01 23.1 95.0 4.1 ok
22-02-2021 08:57:44 YCU 1.00 23.0 95.0 4.1 ok
22-02-2021 08:47:44 YCU 0.97 22.9 95.0 4.1 ok
22-02-2021 08:37:44 YCU 0.90 22.6 95.0 4.1 ok
22-02-2021 08:27:44 YCU 1.04 22.8 95.0 4.1 ok
22-02-2021 08:17:44 YCU 0.84 23.2 95.0 4.1 ok
22-02-2021 08:07:44 YCU 0.78 23.5 95.0 4.1 ok
22-02-2021 07:57:44 YCU 0.75 23.4 95.0 4.1 ok
22-02-2021 07:47:44 YCU 0.75 23.2 95.0 4.1 ok
22-02-2021 07:37:44 YCU 0.93 23.2 95.0 4.1 ok
22-02-2021 07:27:44 YCU 0.85 22.9 95.0 4.1 ok
22-02-2021 07:17:43 YCU 0.78 23.0 95.0 4.1 ok
22-02-2021 07:07:43 YCU 0.82 22.9 95.0 4.1 ok
22-02-2021 06:57:43 YCU 0.83 22.8 95.0 4.1 ok
22-02-2021 06:47:43 YCU 0.85 22.9 95.0 4.1 ok
22-02-2021 06:37:42 YCU 0.91 23.0 95.0 4.1 ok
22-02-2021 06:27:42 YCU 0.93 23.0 95.0 4.1 ok
22-02-2021 06:17:42 YCU 0.87 23.1 95.0 4.1 ok
22-02-2021 06:07:42 YCU 0.90 23.1 95.0 4.1 ok
22-02-2021 05:57:42 YCU 0.96 23.1 95.0 4.1 ok
22-02-2021 05:47:41 YCU 1.01 23.1 95.0 4.1 ok
22-02-2021 05:37:41 YCU 1.04 23.1 95.0 4.1 ok
22-02-2021 05:27:41 YCU 0.85 23.1 95.0 4.1 ok
22-02-2021 05:17:41 YCU 0.93 23.1 95.0 4.1 ok
22-02-2021 05:07:41 YCU 0.69 23.1 95.0 4.1 ok
22-02-2021 04:57:41 YCU 0.71 22.9 95.0 4.1 ok
22-02-2021 04:47:40 YCU 0.67 22.9 95.0 4.1 ok
22-02-2021 04:37:40 YCU 0.74 22.9 95.0 4.1 ok
22-02-2021 04:27:40 YCU 0.78 22.9 95.0 4.1 ok
22-02-2021 04:17:40 YCU 0.68 22.9 95.0 4.1 ok
22-02-2021 04:07:40 YCU 0.73 23.0 95.0 4.1 ok
22-02-2021 03:57:40 YCU 0.74 22.9 95.0 4.1 ok
22-02-2021 03:47:40 YCU 0.77 22.7 95.0 4.1 ok
22-02-2021 03:37:39 YCU 0.75 22.5 95.0 4.1 ok
22-02-2021 03:27:39 YCU 0.70 22.3 95.0 4.1 ok
22-02-2021 03:17:38 YCU 0.73 22.5 95.0 4.1 ok
22-02-2021 03:07:38 YCU 0.71 22.5 95.0 4.1 ok
22-02-2021 02:57:38 YCU 0.77 22.6 95.0 4.1 ok
22-02-2021 02:47:38 YCU 0.73 22.7 95.0 4.1 ok
22-02-2021 02:37:38 YCU 0.75 22.8 95.0 4.1 ok
22-02-2021 02:27:38 YCU 0.73 22.9 95.0 4.1 ok
22-02-2021 02:17:38 YCU 0.73 23.0 95.0 4.1 ok
22-02-2021 02:07:38 YCU 0.73 23.1 95.0 4.1 ok
22-02-2021 01:57:38 YCU 0.69 23.3 95.0 4.1 ok
22-02-2021 01:47:38 YCU 0.73 23.4 95.0 4.1 ok
22-02-2021 01:37:38 YCU 0.68 23.6 95.0 4.1 ok
22-02-2021 01:27:38 YCU 0.68 23.8 95.0 4.1 ok
22-02-2021 01:17:38 YCU 0.76 24.0 95.0 4.1 ok
22-02-2021 01:07:38 YCU 0.72 24.2 95.0 4.1 ok
22-02-2021 00:57:38 YCU 0.75 24.2 95.0 4.1 ok
22-02-2021 00:47:37 YCU 0.77 24.1 95.0 4.1 ok
22-02-2021 00:37:37 YCU 0.82 24.2 95.0 4.1 ok
22-02-2021 00:27:37 YCU 0.78 24.1 95.0 4.1 ok
22-02-2021 00:17:37 YCU 0.75 24.1 95.0 4.1 ok
22-02-2021 00:07:37 YCU 0.79 24.0 95.0 4.1 ok
21-02-2021 23:57:37 YCU 0.85 24.0 95.0 4.1 ok
21-02-2021 23:47:37 YCU 0.84 24.0 95.0 4.1 ok
21-02-2021 23:37:37 YCU 0.80 24.1 95.0 4.1 ok
21-02-2021 23:27:37 YCU 0.82 24.1 95.0 4.1 ok
21-02-2021 23:17:37 YCU 0.87 24.1 95.0 4.1 ok
21-02-2021 23:07:37 YCU 0.90 24.0 95.0 4.1 ok
21-02-2021 22:57:37 YCU 0.85 23.8 95.0 4.1 ok
21-02-2021 22:47:37 YCU 0.85 23.7 95.0 4.1 ok
21-02-2021 22:37:37 YCU 0.83 23.7 95.0 4.1 ok
21-02-2021 22:27:37 YCU 0.84 23.7 95.0 4.1 ok
21-02-2021 22:17:36 YCU 0.90 23.8 95.0 4.1 ok
21-02-2021 22:07:37 YCU 0.84 23.9 95.0 4.1 ok
21-02-2021 21:57:36 YCU 0.87 24.0 95.0 4.1 ok
21-02-2021 21:47:36 YCU 0.87 24.1 95.0 4.1 ok
21-02-2021 21:37:35 YCU 0.92 24.1 95.0 4.1 ok
21-02-2021 21:27:34 YCU 0.92 24.1 95.0 4.1 ok
21-02-2021 21:17:34 YCU 0.86 24.2 95.0 4.1 ok
21-02-2021 21:07:34 YCU 0.89 24.1 95.0 4.1 ok
21-02-2021 20:57:34 YCU 0.85 24.1 95.0 4.1 ok
21-02-2021 20:47:34 YCU 0.86 24.1 95.0 4.1 ok
21-02-2021 20:37:34 YCU 0.88 24.0 95.0 4.1 ok
21-02-2021 20:27:34 YCU 0.93 24.0 95.0 4.1 ok
21-02-2021 20:17:34 YCU 0.95 24.0 95.0 4.1 ok
21-02-2021 20:07:33 YCU 0.91 24.1 95.0 4.1 ok
21-02-2021 19:57:33 YCU 0.91 24.1 95.0 4.1 ok
21-02-2021 19:47:33 YCU 0.90 24.2 95.0 4.1 ok
21-02-2021 19:37:33 YCU 0.92 24.2 95.0 4.1 ok
21-02-2021 19:27:33 YCU 0.94 24.3 95.0 4.1 ok
21-02-2021 19:17:33 YCU 0.94 24.5 95.0 4.1 ok
21-02-2021 19:07:33 YCU 0.91 24.8 95.0 4.1 ok
21-02-2021 18:57:32 YCU 0.92 25.2 95.0 4.1 ok
21-02-2021 18:47:32 YCU 0.96 25.4 95.0 4.1 ok
21-02-2021 18:37:32 YCU 0.93 26.0 95.0 4.1 ok
21-02-2021 18:27:32 YCU 0.94 26.1 95.0 4.1 ok
21-02-2021 18:17:31 YCU 0.95 26.2 95.0 4.1 WF
21-02-2021 18:05:29 YCU 0.95 26.2 95.0 4.1 ok
21-02-2021 17:55:29 YCU 0.97 26.3 95.0 4.1 ok
21-02-2021 17:45:28 YCU 0.94 26.4 95.0 4.1 ok
21-02-2021 17:35:28 YCU 0.94 26.5 95.0 4.1 ok
21-02-2021 17:25:28 YCU 0.92 26.7 95.0 4.1 ok
21-02-2021 17:15:27 YCU 0.93 26.8 95.0 4.1 ok
21-02-2021 17:05:28 YCU 0.94 26.8 95.0 4.1 ok
21-02-2021 16:55:27 YCU 0.94 26.8 95.0 4.1 ok
21-02-2021 16:45:27 YCU 0.95 27.0 95.0 4.1 ok
21-02-2021 16:35:27 YCU 0.95 27.2 95.0 4.1 ok
21-02-2021 16:25:27 YCU 0.96 27.3 95.0 4.1 ok
21-02-2021 16:15:27 YCU 0.95 27.2 95.0 4.1 ok
21-02-2021 16:05:27 YCU 0.95 27.4 95.0 4.1 ok
21-02-2021 15:55:27 YCU 0.96 27.5 95.0 4.1 ok
21-02-2021 15:45:26 YCU 0.92 27.7 95.0 4.1 ok
21-02-2021 15:35:26 YCU 0.94 27.9 95.0 4.1 ok
21-02-2021 15:25:26 YCU 0.94 28.0 95.0 4.1 ok
21-02-2021 15:15:26 YCU 0.94 27.7 95.0 4.1 ok
21-02-2021 15:05:26 YCU 0.92 27.5 95.0 4.1 ok
21-02-2021 14:55:26 YCU 0.92 27.1 95.0 4.1 ok
21-02-2021 14:45:26 YCU 0.91 27.3 95.0 4.1 ok
21-02-2021 14:35:26 YCU 0.91 27.6 95.0 4.1 ok
21-02-2021 14:25:25 YCU 0.92 27.4 95.0 4.1 ok
21-02-2021 14:15:25 YCU 0.93 28.5 95.0 4.1 ok
21-02-2021 14:05:25 YCU 0.91 28.9 7.0 4.1 ok
21-02-2021 13:55:25 YCU 0.92 28.9 28.0 4.1 ok
21-02-2021 13:45:25 YCU 0.93 29.0 30.0 4.1 ok
21-02-2021 13:35:25 YCU 0.94 30.1 8.0 4.1 ok
21-02-2021 13:25:23 YCU 0.93 30.3 31.0 4.1 ok
21-02-2021 13:15:23 YCU 0.92 30.2 8.0 4.1 ok
21-02-2021 13:05:23 YCU 0.95 28.8 7.0 4.1 ok
21-02-2021 12:55:23 YCU 0.94 29.0 31.0 4.1 ok
21-02-2021 12:45:22 YCU 0.89 29.0 8.0 4.1 ok
21-02-2021 12:35:22 YCU 0.94 28.8 7.0 4.1 ok
21-02-2021 12:25:20 YCU 0.96 29.5 8.0 4.1 ok
21-02-2021 12:15:20 YCU 0.94 29.0 8.0 4.1 ok
21-02-2021 12:05:20 YCU 0.96 28.9 7.0 4.1 ok
21-02-2021 11:55:20 YCU 0.99 28.4 95.0 4.1 ok
21-02-2021 11:45:20 YCU 1.01 27.9 95.0 4.1 ok
21-02-2021 11:35:20 YCU 1.04 27.0 95.0 4.1 ok
21-02-2021 11:25:20 YCU 1.02 25.7 95.0 4.1 ok
21-02-2021 11:15:20 YCU 1.01 24.5 95.0 4.1 ok
21-02-2021 11:05:20 YCU 1.05 24.3 95.0 4.1 ok
21-02-2021 10:55:19 YCU 1.04 23.7 95.0 4.1 ok
21-02-2021 10:45:19 YCU 1.11 23.2 95.0 4.1 ok
21-02-2021 10:35:17 YCU 1.16 22.4 95.0 4.1 ok
21-02-2021 10:25:17 YCU 1.08 21.4 94.0 4.1 ok
21-02-2021 10:15:17 YCU 1.17 20.7 93.0 4.1 ok
21-02-2021 10:05:17 YCU 1.11 20.4 93.0 4.1 ok
21-02-2021 09:55:17 YCU 1.14 20.5 93.0 4.1 ok
21-02-2021 09:45:17 YCU 1.15 20.5 93.0 4.1 ok
21-02-2021 09:35:17 YCU 1.17 20.7 93.0 4.1 ok
21-02-2021 09:25:17 YCU 1.15 19.6 93.0 4.1 ok
21-02-2021 09:15:16 YCU 1.21 19.3 93.0 4.1 ok
21-02-2021 09:05:16 YCU 1.18 19.0 93.0 4.1 ok
21-02-2021 08:55:16 YCU 1.14 18.9 93.0 4.1 ok
21-02-2021 08:45:16 YCU 1.22 18.7 93.0 4.1 ok
21-02-2021 08:35:16 YCU 1.26 18.7 93.0 4.1 ok
21-02-2021 08:25:16 YCU 1.21 18.6 93.0 4.1 ok
21-02-2021 08:15:16 YCU 1.21 18.4 93.0 4.1 ok
21-02-2021 08:05:16 YCU 1.21 18.4 93.0 4.1 ok
21-02-2021 07:55:16 YCU 1.23 18.4 93.0 4.1 ok
21-02-2021 07:45:16 YCU 1.27 18.5 93.0 4.1 ok
21-02-2021 07:35:16 YCU 1.28 18.4 68.0 4.1 ok
21-02-2021 07:25:16 YCU 1.30 18.4 5.0 4.1 ok
21-02-2021 07:15:16 YCU 1.27 18.5 25.0 4.1 ok
21-02-2021 07:05:16 YCU 1.26 18.6 5.0 4.1 ok
21-02-2021 06:55:15 YCU 1.26 18.7 59.0 4.1 ok
21-02-2021 06:45:15 YCU 1.32 18.9 5.0 4.1 ok
21-02-2021 06:35:15 YCU 1.28 18.7 59.0 4.1 ok
21-02-2021 06:25:15 YCU 1.27 18.6 93.0 4.1 ok
21-02-2021 06:15:15 YCU 1.34 18.4 16.0 4.1 ok
21-02-2021 06:05:14 YCU 1.34 18.3 5.0 4.1 ok
21-02-2021 05:55:14 YCU 1.27 18.0 5.0 4.1 ok
21-02-2021 05:45:14 YCU 1.31 18.0 15.0 4.1 ok
21-02-2021 05:35:14 YCU 1.33 18.0 5.0 4.1 ok
21-02-2021 05:25:14 YCU 1.35 17.9 88.0 4.1 ok
21-02-2021 05:15:13 YCU 1.37 18.0 5.0 4.1 ok
21-02-2021 05:05:14 YCU 1.36 18.1 59.0 4.1 ok
21-02-2021 04:55:03 YCU 1.38 18.2 26.0 4.1 ok
21-02-2021 04:45:03 YCU 1.41 18.2 5.0 4.1 ok
21-02-2021 04:35:02 YCU 1.43 18.1 5.0 4.1 ok
21-02-2021 04:25:03 YCU 1.46 18.0 32.0 4.1 ok
21-02-2021 04:15:03 YCU 1.43 18.0 75.0 4.1 ok
21-02-2021 04:05:03 YCU 1.43 18.1 5.0 4.1 ok
21-02-2021 03:55:03 YCU 1.51 18.2 5.0 4.1 ok
21-02-2021 03:45:03 YCU 1.50 18.2 5.0 4.1 ok
21-02-2021 03:35:04 YCU 1.50 18.3 5.0 4.1 ok
21-02-2021 03:25:04 YCU 1.52 18.3 5.0 4.1 ok
21-02-2021 03:15:04 YCU 1.53 18.3 5.0 4.1 WF
21-02-2021 03:02:49 YCU 1.50 18.3 5.0 4.1 ok
21-02-2021 02:52:49 YCU 1.50 18.2 5.0 4.1 ok
21-02-2021 02:42:49 YCU 1.52 18.2 5.0 4.1 ok
21-02-2021 02:32:48 YCU 1.52 18.2 5.0 4.1 ok
21-02-2021 02:22:48 YCU 1.50 18.2 5.0 4.1 ok
21-02-2021 02:12:48 YCU 1.51 18.3 5.0 4.1 ok
21-02-2021 02:02:48 YCU 1.52 18.6 5.0 4.1 ok
21-02-2021 01:52:48 YCU 1.54 18.7 5.0 4.1 ok
21-02-2021 01:42:48 YCU 1.54 18.9 5.0 4.1 ok
21-02-2021 01:32:48 YCU 1.55 19.0 5.0 4.1 ok
21-02-2021 01:22:42 YCU 1.58 19.0 5.0 4.0 ON
21-02-2021 01:08:12 YCU 1.62 19.2 5.0 4.1 ok
21-02-2021 00:58:12 YCU 1.60 19.2 5.0 4.1 ok
21-02-2021 00:48:11 YCU 1.59 19.4 5.0 4.1 ok
21-02-2021 00:38:11 YCU 1.61 19.6 5.0 4.1 ok
21-02-2021 00:28:11 YCU 1.64 19.7 5.0 4.1 ok
21-02-2021 00:18:11 YCU 1.66 19.8 5.0 4.1 ok
21-02-2021 00:08:10 YCU 1.60 19.8 5.0 4.1 ok
20-02-2021 23:58:10 YCU 1.64 19.8 5.0 4.1 ok
20-02-2021 23:48:09 YCU 1.66 19.8 5.0 4.1 ok
20-02-2021 23:38:09 YCU 1.68 19.9 5.0 4.1 ok
20-02-2021 23:28:09 YCU 1.66 20.0 5.0 4.1 ok
20-02-2021 23:18:08 YCU 1.62 20.2 5.0 4.1 ok
20-02-2021 23:08:07 YCU 1.65 20.3 5.0 4.1 ok
20-02-2021 22:58:07 YCU 1.63 20.3 5.0 4.1 ok
20-02-2021 22:48:08 YCU 1.73 20.4 5.0 4.1 ok
20-02-2021 22:38:07 YCU 1.74 20.6 7.0 4.1 ok
20-02-2021 22:28:07 YCU 1.73 20.6 5.0 4.1 ok
20-02-2021 22:18:07 YCU 1.70 20.6 5.0 4.1 ok
20-02-2021 22:08:07 YCU 1.77 20.7 5.0 4.1 ok
20-02-2021 21:58:07 YCU 1.82 20.8 5.0 4.1 ok
20-02-2021 21:48:07 YCU 1.84 20.8 5.0 4.1 ok
20-02-2021 21:38:06 YCU 1.85 20.9 5.0 4.1 ok
20-02-2021 21:28:06 YCU 1.87 21.0 5.0 4.1 ok
20-02-2021 21:18:07 YCU 1.89 21.1 5.0 4.1 ok
20-02-2021 21:08:07 YCU 1.93 21.2 5.0 4.1 ok
20-02-2021 20:58:06 YCU 1.91 21.3 5.0 4.1 ok
20-02-2021 20:48:06 YCU 1.90 21.4 5.0 4.1 ok
20-02-2021 20:38:06 YCU 1.94 21.6 5.0 4.1 ok
20-02-2021 20:28:06 YCU 1.96 21.6 5.0 4.1 ok
20-02-2021 20:18:06 YCU 1.96 21.6 5.0 4.1 ok
20-02-2021 20:08:06 YCU 1.95 21.5 28.0 4.1 ok
20-02-2021 19:58:06 YCU 1.98 21.4 24.0 4.1 ok
20-02-2021 19:48:05 YCU 1.99 21.6 5.0 4.1 ok
20-02-2021 19:38:05 YCU 2.01 21.8 27.0 4.1 ok
20-02-2021 19:28:05 YCU 2.01 22.1 5.0 4.1 ok
20-02-2021 19:18:05 YCU 1.99 22.6 18.0 4.1 ok
20-02-2021 19:08:04 YCU 2.02 23.1 5.0 4.1 ok
20-02-2021 18:58:04 YCU 2.04 23.8 5.0 4.1 ok
20-02-2021 18:48:04 YCU 2.03 24.6 5.0 4.1 ok
20-02-2021 18:38:04 YCU 2.06 24.9 5.0 4.1 ok
20-02-2021 18:28:04 YCU 2.09 24.9 5.0 4.1 ok
20-02-2021 18:18:04 YCU 2.07 24.8 5.0 4.1 ok
20-02-2021 18:08:04 YCU 2.09 24.2 5.0 4.1 ok
20-02-2021 17:58:04 YCU 2.06 23.8 5.0 4.1 ok
20-02-2021 17:48:03 YCU 2.09 23.9 5.0 4.1 ok
20-02-2021 17:38:03 YCU 2.10 23.7 5.0 4.1 ok
20-02-2021 17:28:01 YCU 2.12 23.8 5.0 4.1 ok
20-02-2021 17:18:01 YCU 2.10 23.8 5.0 4.1 ok
20-02-2021 17:08:01 YCU 2.14 23.7 5.0 4.1 ok
20-02-2021 16:58:01 YCU 2.14 23.7 5.0 4.1 ok
20-02-2021 16:48:01 YCU 2.10 23.6 5.0 4.1 ok
20-02-2021 16:38:01 YCU 2.03 23.6 5.0 4.1 ok
20-02-2021 16:28:02 YCU 2.11 23.6 5.0 4.1 ok
20-02-2021 16:17:51 YCU 2.07 23.7 5.0 4.1 ok
20-02-2021 16:07:50 YCU 2.06 23.6 5.0 4.1 ok
20-02-2021 15:57:50 YCU 2.10 23.7 5.0 4.1 ok
20-02-2021 15:47:50 YCU 2.11 23.6 5.0 4.1 ok
20-02-2021 15:37:50 YCU 2.08 23.7 5.0 4.1 ok
20-02-2021 15:27:49 YCU 2.09 23.7 5.0 4.1 ok
20-02-2021 15:17:49 YCU 2.07 23.7 5.0 4.1 ok
20-02-2021 15:07:49 YCU 2.09 23.8 5.0 4.1 ok
20-02-2021 14:57:49 YCU 2.06 23.9 5.0 4.1 ok
20-02-2021 14:47:49 YCU 2.09 23.9 5.0 4.1 ok
20-02-2021 14:37:48 YCU 2.07 24.0 5.0 4.1 ok
20-02-2021 14:27:48 YCU 2.11 24.2 5.0 4.1 ok
20-02-2021 14:17:48 YCU 2.12 24.3 5.0 4.1 ok
20-02-2021 14:07:48 YCU 2.14 24.5 5.0 4.1 ok
20-02-2021 13:57:47 YCU 2.10 24.8 5.0 4.1 ok
20-02-2021 13:47:45 YCU 2.09 25.6 5.0 4.1 ok
20-02-2021 13:37:45 YCU 2.08 26.7 6.0 4.1 ok
20-02-2021 13:27:45 YCU 2.08 27.1 6.0 4.1 ok
20-02-2021 13:17:44 YCU 2.06 27.2 6.0 4.1 ok
20-02-2021 13:07:44 YCU 2.01 27.3 6.0 4.1 ok
20-02-2021 12:57:44 YCU 2.07 27.3 6.0 4.1 ok
20-02-2021 12:47:44 YCU 2.03 27.0 6.0 4.1 ok
20-02-2021 12:37:44 YCU 2.06 27.4 6.0 4.1 ok
20-02-2021 12:27:44 YCU 1.98 27.5 6.0 4.1 ok
20-02-2021 12:17:44 YCU 1.98 27.6 6.0 4.1 ok
20-02-2021 12:07:43 YCU 2.02 27.2 6.0 4.1 ok
20-02-2021 11:57:43 YCU 1.99 26.5 6.0 4.1 ok
20-02-2021 11:47:43 YCU 2.04 27.1 6.0 4.1 ok
20-02-2021 11:37:43 YCU 2.07 28.1 7.0 4.1 ok
20-02-2021 11:27:43 YCU 2.05 27.8 6.0 4.1 ok
20-02-2021 11:17:43 YCU 1.98 27.6 6.0 4.1 ok
20-02-2021 11:07:43 YCU 2.03 27.4 6.0 4.1 ok
20-02-2021 10:57:43 YCU 2.06 27.3 6.0 4.1 ok
20-02-2021 10:47:43 YCU 2.12 27.1 6.0 4.1 ok
20-02-2021 10:37:42 YCU 2.02 26.5 6.0 4.1 ok
20-02-2021 10:27:41 YCU 2.04 25.4 5.0 4.1 ok
20-02-2021 07:53:30 YCU 2.14 21.1 94.0 4.1 ok
20-02-2021 07:43:30 YCU 2.11 21.1 94.0 4.1 ok
20-02-2021 07:33:30 YCU 2.12 21.0 94.0 4.1 ok
20-02-2021 07:23:30 YCU 2.14 20.8 93.0 4.1 ok
20-02-2021 07:13:29 YCU 2.16 20.7 93.0 4.1 ok
20-02-2021 07:03:29 YCU 2.08 20.5 93.0 4.1 ok
20-02-2021 06:53:29 YCU 2.21 20.5 93.0 4.1 ok
20-02-2021 06:43:29 YCU 2.09 20.4 93.0 4.1 ok
20-02-2021 06:33:28 YCU 2.13 20.4 93.0 4.1 ok
20-02-2021 06:23:28 YCU 2.07 20.4 93.0 4.1 ok
20-02-2021 06:13:27 YCU 2.11 20.5 93.0 4.1 ok
20-02-2021 06:03:27 YCU 2.16 20.3 93.0 4.1 ok
20-02-2021 05:53:27 YCU 2.09 20.3 93.0 4.1 ok
20-02-2021 05:43:27 YCU 2.20 20.3 93.0 4.1 ok
20-02-2021 05:33:27 YCU 2.06 20.4 93.0 4.1 ok
20-02-2021 05:23:27 YCU 2.15 20.5 93.0 4.1 ok
20-02-2021 05:13:27 YCU 2.14 20.4 93.0 4.1 ok
20-02-2021 05:03:27 YCU 2.17 20.5 93.0 4.1 ok
20-02-2021 04:53:27 YCU 2.16 20.5 93.0 4.1 ok
20-02-2021 04:43:26 YCU 2.07 20.6 93.0 4.1 ok
20-02-2021 04:33:26 YCU 2.00 20.7 93.0 4.1 ok
20-02-2021 04:23:27 YCU 2.09 20.6 93.0 4.1 ok
20-02-2021 04:13:27 YCU 2.07 20.5 93.0 4.1 ok
20-02-2021 04:03:27 YCU 2.10 20.6 93.0 4.1 ok
20-02-2021 03:53:26 YCU 2.17 20.7 93.0 4.1 ok
20-02-2021 03:43:27 YCU 2.05 20.7 93.0 4.1 ok
20-02-2021 03:33:27 YCU 2.05 20.7 93.0 4.1 ok
20-02-2021 03:23:26 YCU 2.11 20.6 93.0 4.1 ok
20-02-2021 03:13:26 YCU 1.99 20.5 93.0 4.1 ok
20-02-2021 03:03:26 YCU 2.09 20.6 93.0 4.1 ok
20-02-2021 02:53:26 YCU 2.02 20.6 93.0 4.1 ok
20-02-2021 02:43:26 YCU 2.04 20.6 93.0 4.1 ok
20-02-2021 02:33:26 YCU 2.08 20.6 93.0 4.1 WF
20-02-2021 02:21:11 YCU 1.98 20.7 93.0 4.1 ok
20-02-2021 02:11:11 YCU 1.99 20.7 93.0 4.1 ok
20-02-2021 02:01:11 YCU 1.98 20.7 93.0 4.1 ok
20-02-2021 01:51:11 YCU 1.92 20.8 93.0 4.1 ok
20-02-2021 01:41:11 YCU 2.06 20.7 93.0 4.1 ok
20-02-2021 01:31:10 YCU 2.01 20.7 93.0 4.1 ok
20-02-2021 01:21:10 YCU 1.95 20.7 93.0 4.1 ok
20-02-2021 01:11:10 YCU 1.94 20.7 93.0 4.1 ok
20-02-2021 01:01:10 YCU 1.91 20.7 93.0 4.1 ok
20-02-2021 00:51:10 YCU 1.93 20.7 93.0 4.1 ok
20-02-2021 00:41:10 YCU 1.97 20.7 93.0 4.1 ok
20-02-2021 00:31:10 YCU 1.96 20.8 93.0 4.1 ok
20-02-2021 00:21:09 YCU 1.95 20.9 93.0 4.1 ok
20-02-2021 00:11:09 YCU 2.01 20.9 93.0 4.1 ok
20-02-2021 00:01:09 YCU 1.94 21.0 94.0 4.1 ok
19-02-2021 23:51:09 YCU 1.84 21.1 94.0 4.1 ok
19-02-2021 23:41:09 YCU 1.94 21.1 94.0 4.1 ok
19-02-2021 23:31:09 YCU 1.91 21.1 94.0 4.1 ok
19-02-2021 23:21:09 YCU 1.82 21.3 94.0 4.1 ok
19-02-2021 23:11:09 YCU 1.79 21.3 94.0 4.1 ok
19-02-2021 23:01:09 YCU 1.77 21.4 94.0 4.1 ok
19-02-2021 22:51:09 YCU 1.81 21.5 94.0 4.1 ok
19-02-2021 22:41:09 YCU 1.82 21.5 94.0 4.1 ok
19-02-2021 22:31:09 YCU 1.77 21.6 94.0 4.1 ok
19-02-2021 22:21:09 YCU 1.81 21.7 94.0 4.1 ok
19-02-2021 22:11:09 YCU 1.86 21.9 94.0 4.1 ok
19-02-2021 22:01:09 YCU 1.91 22.0 95.0 4.1 ok
19-02-2021 21:51:09 YCU 1.87 22.2 95.0 4.1 ok
19-02-2021 21:41:09 YCU 1.83 22.3 95.0 4.1 ok
19-02-2021 21:31:08 YCU 1.86 22.5 95.0 4.1 ok
19-02-2021 21:21:07 YCU 1.93 22.6 95.0 4.1 ok
19-02-2021 21:11:06 YCU 1.89 22.6 95.0 4.1 ok
19-02-2021 21:01:06 YCU 1.88 22.6 95.0 4.1 ok
19-02-2021 20:51:05 YCU 1.87 22.5 95.0 4.1 ok
19-02-2021 20:41:05 YCU 1.87 22.4 95.0 4.1 ok
19-02-2021 20:31:04 YCU 1.83 22.6 95.0 4.1 ok
19-02-2021 20:21:04 YCU 1.79 22.6 95.0 4.1 ok
19-02-2021 20:11:03 YCU 1.73 22.6 95.0 4.1 ok
19-02-2021 20:01:03 YCU 1.80 22.7 95.0 4.1 ok
19-02-2021 19:51:03 YCU 1.69 22.8 95.0 4.1 ok
19-02-2021 19:41:03 YCU 1.71 22.9 95.0 4.1 ok
19-02-2021 19:31:02 YCU 1.69 23.0 95.0 4.1 ok
19-02-2021 19:21:02 YCU 1.69 23.2 95.0 4.1 ok
19-02-2021 19:11:02 YCU 1.62 23.3 95.0 4.1 ok
19-02-2021 19:01:02 YCU 1.53 23.7 95.0 4.1 ok
19-02-2021 18:51:02 YCU 1.52 24.0 95.0 4.1 ok
19-02-2021 18:41:02 YCU 1.54 24.3 95.0 4.1 ok
19-02-2021 18:31:02 YCU 1.55 24.4 95.0 4.1 ok
19-02-2021 18:21:01 YCU 1.63 24.5 95.0 4.1 ok
19-02-2021 18:11:00 YCU 1.59 24.4 95.0 4.1 ok
19-02-2021 18:01:00 YCU 1.57 24.1 95.0 4.1 ok
19-02-2021 17:51:00 YCU 1.50 24.2 95.0 4.1 ok
19-02-2021 17:41:00 YCU 1.51 24.1 95.0 4.1 ok
19-02-2021 17:31:00 YCU 1.51 24.2 95.0 4.1 ok
19-02-2021 17:20:59 YCU 1.48 24.7 95.0 4.1 ok
19-02-2021 17:10:59 YCU 1.43 24.9 95.0 4.1 ok
19-02-2021 17:00:59 YCU 1.38 25.3 95.0 4.1 ok
19-02-2021 16:50:59 YCU 1.40 25.4 95.0 4.1 ok
19-02-2021 16:40:59 YCU 1.38 25.7 95.0 4.1 ok
19-02-2021 16:30:58 YCU 1.28 25.7 95.0 4.1 ok
19-02-2021 16:20:58 YCU 1.31 25.9 95.0 4.1 ok
19-02-2021 16:10:58 YCU 1.36 25.8 95.0 4.1 ok
19-02-2021 16:00:58 YCU 1.26 25.9 95.0 4.1 ok
19-02-2021 15:50:58 YCU 1.30 26.0 95.0 4.1 ok
19-02-2021 15:40:58 YCU 1.34 26.3 95.0 4.1 ok
19-02-2021 15:30:58 YCU 1.31 26.8 95.0 4.1 ok
19-02-2021 15:20:57 YCU 1.29 27.7 95.0 4.1 ok
19-02-2021 15:10:57 YCU 1.32 27.8 95.0 4.1 ok
19-02-2021 15:00:57 YCU 1.31 27.5 95.0 4.1 ok
19-02-2021 14:50:57 YCU 1.26 27.9 95.0 4.1 ok
19-02-2021 14:40:57 YCU 1.23 27.9 95.0 4.1 WI
19-02-2021 14:23:57 YCU 1.04 27.5 95.0 4.1 ok
19-02-2021 14:13:57 YCU 1.09 27.5 95.0 4.1 ok
19-02-2021 14:03:57 YCU 1.12 27.7 95.0 4.1 ok
19-02-2021 13:53:57 YCU 1.06 27.7 95.0 4.1 ok
19-02-2021 13:43:57 YCU 0.98 28.3 95.0 4.1 ok
19-02-2021 13:33:56 YCU 0.94 29.1 25.0 4.1 ok
19-02-2021 13:23:56 YCU 0.96 29.3 8.0 4.1 ok
19-02-2021 13:13:56 YCU 0.93 29.4 8.0 4.1 ok
19-02-2021 13:03:56 YCU 0.93 29.4 12.0 4.1 ok
19-02-2021 12:53:56 YCU 0.87 29.6 41.0 4.1 ok
19-02-2021 12:43:56 YCU 0.84 29.0 66.0 4.1 ok
19-02-2021 12:33:55 YCU 0.86 28.5 95.0 4.1 ok
19-02-2021 12:23:55 YCU 0.84 28.3 95.0 4.1 ok
19-02-2021 12:13:55 YCU 0.89 28.3 95.0 4.1 ok
19-02-2021 12:03:55 YCU 0.77 28.6 95.0 4.1 ok
19-02-2021 11:53:55 YCU 0.81 28.4 95.0 4.1 ok
19-02-2021 11:43:55 YCU 0.80 27.9 95.0 4.1 ok
19-02-2021 11:33:55 YCU 0.81 27.9 95.0 4.1 ok
19-02-2021 11:23:54 YCU 0.80 27.6 95.0 4.1 ok
19-02-2021 11:13:54 YCU 0.82 28.4 95.0 4.1 ok
19-02-2021 11:03:54 YCU 0.82 28.2 95.0 4.1 ok
19-02-2021 10:53:54 YCU 0.86 27.8 95.0 4.1 ok
19-02-2021 10:43:54 YCU 0.89 27.7 95.0 4.1 ok
19-02-2021 10:33:53 YCU 0.88 28.2 95.0 4.1 ok
19-02-2021 10:23:53 YCU 0.87 28.5 95.0 4.1 ok
19-02-2021 10:13:52 YCU 0.98 28.2 95.0 4.1 ok
19-02-2021 10:03:52 YCU 0.93 28.0 95.0 4.1 ok
19-02-2021 09:53:52 YCU 0.94 28.2 95.0 4.1 ok
19-02-2021 09:43:52 YCU 0.93 28.0 95.0 4.1 ok
19-02-2021 09:33:52 YCU 0.98 27.8 95.0 4.1 ok
19-02-2021 09:23:52 YCU 1.01 27.7 95.0 4.2 ok
19-02-2021 09:13:51 YCU 1.01 27.6 95.0 4.2 ok
19-02-2021 09:03:51 YCU 0.98 27.1 95.0 4.1 ok
19-02-2021 08:53:51 YCU 1.03 26.7 95.0 4.1 ok
19-02-2021 08:43:51 YCU 1.03 26.0 95.0 4.1 ok
19-02-2021 08:33:51 YCU 1.14 25.4 95.0 4.1 ok
19-02-2021 08:23:51 YCU 1.08 25.1 95.0 4.1 ok
19-02-2021 08:13:51 YCU 1.02 24.7 95.0 4.1 ok
19-02-2021 08:03:51 YCU 1.06 24.2 95.0 4.1 ok
19-02-2021 07:53:50 YCU 1.04 23.9 95.0 4.1 ok
19-02-2021 07:43:50 YCU 1.07 23.8 95.0 4.1 ok
19-02-2021 07:33:50 YCU 1.14 23.5 95.0 4.1 ok
19-02-2021 07:23:50 YCU 1.08 22.7 95.0 4.1 ok
19-02-2021 07:13:50 YCU 1.08 22.6 95.0 4.1 ok
19-02-2021 07:03:50 YCU 1.09 22.5 95.0 4.1 ok
19-02-2021 06:53:50 YCU 1.03 22.4 95.0 4.1 ok
19-02-2021 06:43:49 YCU 1.03 22.4 95.0 4.1 ok
19-02-2021 06:33:49 YCU 1.04 22.3 95.0 4.1 ok
19-02-2021 06:23:49 YCU 1.00 22.3 95.0 4.1 ok
19-02-2021 06:13:49 YCU 0.98 22.2 95.0 4.1 ok
19-02-2021 06:03:49 YCU 0.96 22.1 95.0 4.1 ok
19-02-2021 05:53:49 YCU 0.97 22.2 95.0 4.1 ok
19-02-2021 05:43:49 YCU 0.95 22.2 95.0 4.1 ok
19-02-2021 05:33:49 YCU 0.92 22.1 95.0 4.1 ok
19-02-2021 05:23:49 YCU 0.97 22.0 95.0 4.1 ok
19-02-2021 05:13:48 YCU 0.92 21.9 94.0 4.1 ok
19-02-2021 05:03:48 YCU 0.96 22.0 95.0 4.1 ok
19-02-2021 04:53:48 YCU 0.96 22.0 95.0 4.1 ok
19-02-2021 04:43:48 YCU 0.97 22.1 95.0 4.1 ok
19-02-2021 04:33:48 YCU 0.95 22.2 95.0 4.1 ok
19-02-2021 04:23:48 YCU 0.95 22.2 95.0 4.1 ok
19-02-2021 04:13:48 YCU 1.03 22.3 95.0 4.1 ok
19-02-2021 04:03:48 YCU 0.97 22.4 95.0 4.1 ok
19-02-2021 03:53:48 YCU 0.98 22.4 95.0 4.1 ok
19-02-2021 03:43:47 YCU 0.94 22.6 95.0 4.1 ok
19-02-2021 03:33:47 YCU 0.97 22.7 95.0 4.1 ok
19-02-2021 03:23:47 YCU 1.06 22.8 95.0 4.1 ok
19-02-2021 03:13:47 YCU 0.96 22.8 95.0 4.1 ok
19-02-2021 03:03:47 YCU 1.02 22.6 95.0 4.1 ok
19-02-2021 02:53:47 YCU 1.00 22.7 95.0 4.1 ok
19-02-2021 02:43:47 YCU 0.97 22.5 95.0 4.1 ok
19-02-2021 02:33:48 YCU 1.06 22.6 95.0 4.1 ok
19-02-2021 02:23:48 YCU 0.99 22.8 95.0 4.1 ok
19-02-2021 02:13:47 YCU 0.99 22.8 95.0 4.1 WF
19-02-2021 02:01:32 YCU 1.07 22.7 95.0 4.1 ok
19-02-2021 01:51:32 YCU 1.06 22.4 95.0 4.1 ok
19-02-2021 01:41:32 YCU 1.08 22.4 95.0 4.1 ok
19-02-2021 01:31:32 YCU 1.03 22.4 95.0 4.1 ok
19-02-2021 01:21:32 YCU 1.08 22.5 95.0 4.1 ok
19-02-2021 01:11:32 YCU 1.10 22.6 95.0 4.1 ok
19-02-2021 01:01:32 YCU 1.08 22.6 95.0 4.1 ok
19-02-2021 00:51:32 YCU 1.11 22.6 95.0 4.1 ok
19-02-2021 00:41:32 YCU 1.05 22.4 95.0 4.1 ok
19-02-2021 00:31:32 YCU 0.98 22.6 95.0 4.1 ok
19-02-2021 00:21:32 YCU 1.05 22.8 95.0 4.1 ok
19-02-2021 00:11:31 YCU 1.03 22.7 95.0 4.1 ok
19-02-2021 00:01:31 YCU 1.02 22.3 95.0 4.1 ok
18-02-2021 23:51:31 YCU 1.01 22.1 95.0 4.1 ok
18-02-2021 23:41:30 YCU 1.00 22.1 95.0 4.1 ok
18-02-2021 23:31:30 YCU 0.97 22.1 95.0 4.1 ok
18-02-2021 23:21:29 YCU 1.00 22.1 95.0 4.1 ok
18-02-2021 23:11:29 YCU 0.96 22.1 95.0 4.1 ok
18-02-2021 23:01:29 YCU 0.95 22.2 95.0 4.1 ok
18-02-2021 22:51:29 YCU 0.96 22.2 95.0 4.1 ok
18-02-2021 22:41:29 YCU 0.98 22.1 95.0 4.1 ok
18-02-2021 22:31:29 YCU 0.99 22.1 95.0 4.1 ok
18-02-2021 22:21:29 YCU 1.04 22.2 95.0 4.1 ok
18-02-2021 22:11:29 YCU 1.00 22.2 95.0 4.1 ok
18-02-2021 22:01:29 YCU 1.03 22.3 95.0 4.1 ok
18-02-2021 21:51:28 YCU 1.08 22.4 95.0 4.1 ok
18-02-2021 21:41:28 YCU 1.13 22.6 95.0 4.1 ok
18-02-2021 21:31:28 YCU 1.13 22.8 95.0 4.1 ok
18-02-2021 21:21:28 YCU 1.17 22.9 95.0 4.1 ok
18-02-2021 21:11:28 YCU 1.20 23.0 95.0 4.1 ok
18-02-2021 21:01:28 YCU 1.26 23.1 95.0 4.1 ok
18-02-2021 20:51:27 YCU 1.27 23.3 95.0 4.1 ok
18-02-2021 20:41:27 YCU 1.28 23.3 95.0 4.1 ok
18-02-2021 20:31:27 YCU 1.30 23.4 95.0 4.1 ok
18-02-2021 20:21:27 YCU 1.35 23.5 95.0 4.1 ok
18-02-2021 20:11:26 YCU 1.29 23.5 95.0 4.1 ok
18-02-2021 20:01:26 YCU 1.31 23.5 95.0 4.1 ok
18-02-2021 19:51:25 YCU 1.30 23.6 95.0 4.1 ok
18-02-2021 19:41:25 YCU 1.30 23.6 95.0 4.1 ok
18-02-2021 19:31:24 YCU 1.31 23.7 95.0 4.1 ok
18-02-2021 19:21:24 YCU 1.26 23.9 95.0 4.1 ok
18-02-2021 19:11:24 YCU 1.27 24.2 95.0 4.1 ok
18-02-2021 19:01:24 YCU 1.24 24.7 95.0 4.1 ok
18-02-2021 18:51:24 YCU 1.22 25.0 95.0 4.1 ok
18-02-2021 18:41:24 YCU 1.24 25.6 95.0 4.1 ok
18-02-2021 18:31:24 YCU 1.26 26.0 95.0 4.1 ok
18-02-2021 18:21:23 YCU 1.22 25.9 95.0 4.1 ok
18-02-2021 18:11:24 YCU 1.19 25.4 95.0 4.1 ok
18-02-2021 18:01:23 YCU 1.20 24.9 95.0 4.1 ok
18-02-2021 17:51:23 YCU 1.24 25.3 95.0 4.1 ok
18-02-2021 17:41:23 YCU 1.23 25.4 95.0 4.1 ok
18-02-2021 17:31:23 YCU 1.23 25.5 95.0 4.1 ok
18-02-2021 17:21:23 YCU 1.21 25.6 95.0 4.1 ok
18-02-2021 17:11:23 YCU 1.18 25.6 95.0 4.1 ok
18-02-2021 17:01:23 YCU 1.19 25.4 95.0 4.1 ok
18-02-2021 16:51:22 YCU 1.18 25.3 95.0 4.1 ok
18-02-2021 16:41:22 YCU 1.17 25.1 95.0 4.1 ok
18-02-2021 16:31:22 YCU 1.18 25.0 95.0 4.1 ok
18-02-2021 16:21:22 YCU 1.18 25.1 95.0 4.1 ok
18-02-2021 16:11:22 YCU 1.14 25.0 95.0 4.1 ok
18-02-2021 16:01:22 YCU 1.15 25.0 95.0 4.1 ok
18-02-2021 15:51:21 YCU 1.11 25.3 95.0 4.1 ok
18-02-2021 15:41:21 YCU 1.11 25.3 95.0 4.1 ok
18-02-2021 15:31:21 YCU 1.11 25.4 95.0 4.1 ok
18-02-2021 15:21:21 YCU 1.12 25.6 95.0 4.1 ok
18-02-2021 15:11:20 YCU 1.13 25.7 95.0 4.1 ok
18-02-2021 15:01:18 YCU 1.15 25.7 95.0 4.1 ok
18-02-2021 14:51:18 YCU 1.11 25.9 95.0 4.1 ok
18-02-2021 14:41:18 YCU 1.11 26.0 95.0 4.1 ok
18-02-2021 14:31:18 YCU 1.12 26.1 95.0 4.1 ok
18-02-2021 14:21:18 YCU 1.15 26.3 95.0 4.1 ok
18-02-2021 14:11:18 YCU 1.18 26.4 86.0 4.1 ok
18-02-2021 14:01:18 YCU 1.17 26.3 95.0 4.1 ok
18-02-2021 13:51:18 YCU 1.13 26.7 95.0 4.1 ok
18-02-2021 13:41:18 YCU 1.11 27.7 95.0 4.1 ok
18-02-2021 13:31:18 YCU 1.13 28.7 95.0 4.1 ok
18-02-2021 13:21:18 YCU 1.12 28.9 95.0 4.1 ok
18-02-2021 13:11:10 YCU 1.07 28.9 95.0 4.0 ON
18-02-2021 12:56:57 YCU 1.10 29.4 95.0 4.1 ok
18-02-2021 12:46:57 YCU 1.06 29.5 95.0 4.1 ok
18-02-2021 12:36:57 YCU 1.04 29.8 95.0 4.1 ok
18-02-2021 12:26:56 YCU 1.00 29.7 95.0 4.1 ok
18-02-2021 12:16:56 YCU 1.00 29.7 95.0 4.1 ok
18-02-2021 12:06:55 YCU 0.98 29.7 95.0 4.1 ok
18-02-2021 11:56:56 YCU 0.97 29.3 95.0 4.1 ok
18-02-2021 11:46:55 YCU 0.97 28.9 95.0 4.1 ok
18-02-2021 11:36:55 YCU 0.95 29.0 95.0 4.1 ok
18-02-2021 11:26:54 YCU 0.98 28.9 95.0 4.1 ok
18-02-2021 11:16:54 YCU 0.95 28.9 95.0 4.1 ok
18-02-2021 11:06:54 YCU 0.96 28.7 95.0 4.1 ok
18-02-2021 10:56:54 YCU 0.94 28.5 95.0 4.1 ok
18-02-2021 10:46:54 YCU 0.93 28.5 92.0 4.1 ok
18-02-2021 10:36:54 YCU 0.93 28.5 95.0 4.0 ON
18-02-2021 08:15:45 YCU 1.25 22.6 95.0 4.1 ok
18-02-2021 08:05:45 YCU 1.31 22.5 95.0 4.1 ok
18-02-2021 07:55:45 YCU 1.32 22.0 95.0 4.1 ok
18-02-2021 07:45:44 YCU 1.33 21.8 94.0 4.1 ok
18-02-2021 07:35:45 YCU 1.35 21.8 94.0 4.1 WF
18-02-2021 07:23:21 YCU 1.33 21.6 94.0 4.1 ok
18-02-2021 07:13:21 YCU 1.36 21.6 94.0 4.1 ok
18-02-2021 07:03:21 YCU 1.31 21.5 94.0 4.1 ok
18-02-2021 06:53:21 YCU 1.32 21.5 94.0 4.1 ok
18-02-2021 06:43:21 YCU 1.33 21.6 94.0 4.1 ok
18-02-2021 06:33:21 YCU 1.34 21.4 94.0 4.1 ok
18-02-2021 06:23:21 YCU 1.36 21.3 94.0 4.2 ok
18-02-2021 06:13:21 YCU 1.32 21.3 94.0 4.1 ok
18-02-2021 06:03:20 YCU 1.34 21.3 94.0 4.1 ok
18-02-2021 05:53:21 YCU 1.34 21.2 94.0 4.1 ok
18-02-2021 05:43:19 YCU 1.34 21.2 94.0 4.1 ok
18-02-2021 05:33:20 YCU 1.36 21.2 94.0 4.1 ok
18-02-2021 05:23:19 YCU 1.33 21.1 94.0 4.1 ok
18-02-2021 05:13:19 YCU 1.36 21.2 94.0 4.1 ok
18-02-2021 05:03:19 YCU 1.37 21.3 94.0 4.1 ok
18-02-2021 04:53:19 YCU 1.39 21.6 94.0 4.1 ok
18-02-2021 04:43:19 YCU 1.38 21.7 94.0 4.1 ok
18-02-2021 04:33:19 YCU 1.40 21.6 94.0 4.1 ok
18-02-2021 04:23:19 YCU 1.40 21.7 94.0 4.1 ok
18-02-2021 04:13:19 YCU 1.35 21.7 94.0 4.1 ok
18-02-2021 04:03:18 YCU 1.32 21.6 94.0 4.1 ok
18-02-2021 03:53:18 YCU 1.32 21.6 94.0 4.1 ok
18-02-2021 03:43:18 YCU 1.34 21.6 94.0 4.1 ok
18-02-2021 03:33:18 YCU 1.35 21.6 94.0 4.1 ok
18-02-2021 03:23:18 YCU 1.34 21.6 94.0 4.1 ok
18-02-2021 03:13:17 YCU 1.32 21.5 94.0 4.1 ok
18-02-2021 03:03:18 YCU 1.32 21.4 94.0 4.1 ok
18-02-2021 02:53:18 YCU 1.27 21.4 94.0 4.1 ok
18-02-2021 02:43:17 YCU 1.27 21.3 94.0 4.1 ok
18-02-2021 02:33:17 YCU 1.29 21.3 94.0 4.1 ok
18-02-2021 02:23:17 YCU 1.25 21.3 94.0 4.1 ok
18-02-2021 02:13:17 YCU 1.29 21.3 94.0 4.1 ok
18-02-2021 02:03:17 YCU 1.32 21.3 94.0 4.1 ok
18-02-2021 01:53:17 YCU 1.30 21.3 94.0 4.1 WF
18-02-2021 01:41:13 YCU 1.31 21.2 94.0 4.1 ok
18-02-2021 01:31:13 YCU 1.31 21.2 94.0 4.1 ok
18-02-2021 01:21:12 YCU 1.30 21.2 94.0 4.1 ok
18-02-2021 01:11:12 YCU 1.30 21.2 94.0 4.1 ok
18-02-2021 01:01:12 YCU 1.32 21.2 94.0 4.1 ok
18-02-2021 00:51:12 YCU 1.34 21.2 94.0 4.1 ok
18-02-2021 00:41:13 YCU 1.35 21.3 94.0 4.1 ok
18-02-2021 00:31:13 YCU 1.38 21.6 94.0 4.1 ok
18-02-2021 00:21:12 YCU 1.36 21.7 94.0 4.1 ok
18-02-2021 00:11:12 YCU 1.35 21.6 94.0 4.1 ok
18-02-2021 00:01:12 YCU 1.37 21.5 94.0 4.1 ok
17-02-2021 23:51:12 YCU 1.31 21.5 94.0 4.1 ok
17-02-2021 23:41:12 YCU 1.28 21.5 94.0 4.1 ok
17-02-2021 23:31:11 YCU 1.30 21.5 94.0 4.1 ok
17-02-2021 23:21:11 YCU 1.26 21.6 94.0 4.1 ok
17-02-2021 23:11:11 YCU 1.27 21.7 94.0 4.1 ok
17-02-2021 23:01:11 YCU 1.23 21.8 94.0 4.1 ok
17-02-2021 22:51:11 YCU 1.24 22.0 95.0 4.1 ok
17-02-2021 22:41:11 YCU 1.24 21.9 94.0 4.1 ok
17-02-2021 22:31:11 YCU 1.23 22.0 95.0 4.1 ok
17-02-2021 22:21:11 YCU 1.26 22.1 95.0 4.1 ok
17-02-2021 22:11:11 YCU 1.26 22.2 95.0 4.1 ok
17-02-2021 22:01:11 YCU 1.28 22.1 95.0 4.1 ok
17-02-2021 21:51:10 YCU 1.29 22.1 95.0 4.1 ok
17-02-2021 21:41:09 YCU 1.34 22.1 95.0 4.1 ok
17-02-2021 21:31:09 YCU 1.33 22.1 95.0 4.1 ok
17-02-2021 21:21:09 YCU 1.31 22.1 95.0 4.1 ok
17-02-2021 21:11:09 YCU 1.34 22.2 95.0 4.1 ok
17-02-2021 21:01:09 YCU 1.38 22.2 95.0 4.1 ok
17-02-2021 20:51:09 YCU 1.39 22.1 95.0 4.1 ok
17-02-2021 20:41:08 YCU 1.39 22.0 95.0 4.1 ok
17-02-2021 20:31:08 YCU 1.43 22.0 95.0 4.1 ok
17-02-2021 20:21:08 YCU 1.44 22.1 95.0 4.1 ok
17-02-2021 20:11:08 YCU 1.46 22.1 95.0 4.1 ok
17-02-2021 20:01:08 YCU 1.45 22.2 95.0 4.1 ok
17-02-2021 19:51:07 YCU 1.42 22.2 95.0 4.1 ok
17-02-2021 19:41:08 YCU 1.45 22.3 95.0 4.1 ok
17-02-2021 19:31:07 YCU 1.47 22.4 95.0 4.1 ok
17-02-2021 19:21:08 YCU 1.49 22.4 95.0 4.1 ok
17-02-2021 19:10:56 YCU 1.44 22.6 95.0 4.1 ok
17-02-2021 19:00:56 YCU 1.40 22.9 95.0 4.1 ok
17-02-2021 18:50:56 YCU 1.39 23.2 95.0 4.1 ok
17-02-2021 18:40:56 YCU 1.44 23.6 95.0 4.1 ok
17-02-2021 18:30:56 YCU 1.43 23.9 95.0 4.1 ok
17-02-2021 18:20:56 YCU 1.42 23.7 95.0 4.1 ok
17-02-2021 18:10:56 YCU 1.41 23.8 95.0 4.1 ok
17-02-2021 18:00:56 YCU 1.43 23.5 95.0 4.1 ok
17-02-2021 17:50:57 YCU 1.45 23.5 95.0 4.1 ok
17-02-2021 17:40:57 YCU 1.43 23.8 95.0 4.1 ok
17-02-2021 17:30:56 YCU 1.43 23.7 95.0 4.1 WF
17-02-2021 17:18:42 YCU 1.40 24.0 95.0 4.1 ok
17-02-2021 17:08:42 YCU 1.33 23.9 95.0 4.1 ok
17-02-2021 16:58:42 YCU 1.36 23.7 95.0 4.1 ok
17-02-2021 16:48:42 YCU 1.33 23.6 95.0 4.1 ok
17-02-2021 16:38:42 YCU 1.24 23.7 95.0 4.1 ok
17-02-2021 16:28:42 YCU 1.26 23.9 95.0 4.1 ok
17-02-2021 16:18:41 YCU 1.30 23.8 95.0 4.1 ok
17-02-2021 16:08:41 YCU 1.24 23.7 95.0 4.1 ok
17-02-2021 15:58:41 YCU 1.26 23.6 95.0 4.1 ok
17-02-2021 15:48:41 YCU 1.23 23.4 95.0 4.1 ok
17-02-2021 15:38:41 YCU 1.25 23.3 95.0 4.1 ok
17-02-2021 15:28:41 YCU 1.28 22.7 95.0 4.1 ok
17-02-2021 15:18:40 YCU 1.26 22.2 95.0 4.1 ok
17-02-2021 15:08:40 YCU 1.24 21.9 94.0 4.1 ok
17-02-2021 14:58:39 YCU 1.25 21.9 94.0 4.1 ok
17-02-2021 14:48:39 YCU 1.28 22.2 95.0 4.1 ok
17-02-2021 14:38:39 YCU 1.32 22.4 95.0 4.1 ok
17-02-2021 14:28:39 YCU 1.29 23.2 95.0 4.1 ok
17-02-2021 14:18:39 YCU 1.29 23.4 95.0 4.1 ok
17-02-2021 14:08:39 YCU 1.31 24.0 95.0 4.1 ok
17-02-2021 13:58:39 YCU 1.32 24.1 95.0 4.1 ok
17-02-2021 13:48:39 YCU 1.35 24.0 95.0 4.1 ok
17-02-2021 13:38:39 YCU 1.36 23.6 95.0 4.1 ok
17-02-2021 13:28:39 YCU 1.29 23.6 95.0 4.1 ok
17-02-2021 13:18:38 YCU 1.30 23.4 95.0 4.1 ok
17-02-2021 13:08:38 YCU 1.24 23.6 95.0 4.1 ok
17-02-2021 12:58:38 YCU 1.27 24.8 95.0 4.1 ok
17-02-2021 12:48:38 YCU 1.23 25.0 95.0 4.1 ok
17-02-2021 12:38:38 YCU 1.16 24.9 95.0 4.1 ok
17-02-2021 12:28:38 YCU 1.15 26.4 95.0 4.1 ok
17-02-2021 12:18:38 YCU 1.16 25.0 95.0 4.1 ok
17-02-2021 12:08:37 YCU 1.13 24.5 95.0 4.1 ok
17-02-2021 11:58:38 YCU 1.07 25.9 95.0 4.1 ok
17-02-2021 11:48:38 YCU 1.01 26.9 95.0 4.1 WF
17-02-2021 11:36:43 YCU 0.97 27.0 95.0 4.1 WF
17-02-2021 11:24:41 YCU 1.00 24.7 95.0 4.1 ok
17-02-2021 11:14:41 YCU 0.98 25.4 95.0 4.1 ok
17-02-2021 11:04:37 YCU 0.92 25.4 95.0 4.1 ok
17-02-2021 10:54:36 YCU 0.91 25.4 95.0 4.1 ok
17-02-2021 10:44:36 YCU 0.91 25.4 95.0 4.1 ok
17-02-2021 10:34:36 YCU 0.91 25.8 95.0 4.1 ok
17-02-2021 10:24:36 YCU 0.88 26.3 95.0 4.1 ok
17-02-2021 10:14:35 YCU 0.87 26.4 95.0 4.1 ok
17-02-2021 10:04:35 YCU 0.88 26.2 95.0 4.1 ok
17-02-2021 09:54:35 YCU 0.84 25.7 95.0 4.1 ok
17-02-2021 09:44:34 YCU 0.92 24.6 95.0 4.1 ok
17-02-2021 09:34:34 YCU 0.94 24.4 95.0 4.1 ok
17-02-2021 09:24:34 YCU 0.94 24.5 95.0 4.1 ok
17-02-2021 09:14:34 YCU 1.06 24.1 95.0 4.1 ok
17-02-2021 09:04:34 YCU 1.05 24.5 95.0 4.1 ok
17-02-2021 08:54:33 YCU 1.09 24.0 95.0 4.1 ok
17-02-2021 08:44:33 YCU 1.14 23.7 95.0 4.1 ok
17-02-2021 08:34:33 YCU 1.15 23.2 95.0 4.1 ok
17-02-2021 08:24:33 YCU 1.21 22.1 95.0 4.1 ok
17-02-2021 08:14:33 YCU 1.19 22.0 95.0 4.1 ok
17-02-2021 08:04:33 YCU 1.24 21.8 94.0 4.1 ok
17-02-2021 07:54:32 YCU 1.29 21.5 94.0 4.1 ok
17-02-2021 07:44:32 YCU 1.29 21.9 94.0 4.1 ok
17-02-2021 07:34:32 YCU 1.29 22.0 95.0 4.1 ok
17-02-2021 07:24:31 YCU 1.31 21.8 94.0 4.1 ok
17-02-2021 07:14:31 YCU 1.27 21.7 94.0 4.1 ok
17-02-2021 07:04:31 YCU 1.27 21.5 94.0 4.1 ok
17-02-2021 06:54:30 YCU 1.26 21.3 94.0 4.1 ok
17-02-2021 06:44:30 YCU 1.21 21.2 94.0 4.1 ok
17-02-2021 06:34:30 YCU 1.18 21.1 94.0 4.1 ok
17-02-2021 06:24:30 YCU 1.19 21.1 94.0 4.1 ok
17-02-2021 06:14:30 YCU 1.24 21.1 94.0 4.1 ok
17-02-2021 06:04:30 YCU 1.16 21.1 94.0 4.1 ok
17-02-2021 05:54:29 YCU 1.21 21.0 94.0 4.1 ok
17-02-2021 05:44:29 YCU 1.21 21.2 94.0 4.1 ok
17-02-2021 05:34:29 YCU 1.28 21.2 94.0 4.1 ok
17-02-2021 05:24:29 YCU 1.25 21.0 94.0 4.1 ok
17-02-2021 05:14:26 YCU 1.23 21.1 94.0 4.1 ok
17-02-2021 05:04:26 YCU 1.22 20.9 93.0 4.1 ok
17-02-2021 04:54:25 YCU 1.28 20.9 93.0 4.1 ok
17-02-2021 04:44:25 YCU 1.27 20.8 93.0 4.1 ok
17-02-2021 04:34:24 YCU 1.27 20.9 93.0 4.1 ok
17-02-2021 04:24:24 YCU 1.29 20.9 93.0 4.1 ok
17-02-2021 04:14:24 YCU 1.31 20.9 93.0 4.1 ok
17-02-2021 04:04:24 YCU 1.26 21.0 94.0 4.1 ok
17-02-2021 03:54:24 YCU 1.30 21.1 94.0 4.1 ok
17-02-2021 03:44:23 YCU 1.27 21.1 94.0 4.1 ok
17-02-2021 03:34:23 YCU 1.27 21.0 94.0 4.1 ok
17-02-2021 03:24:22 YCU 1.30 21.0 94.0 4.1 ok
17-02-2021 03:14:22 YCU 1.34 21.0 94.0 4.1 ok
17-02-2021 03:04:22 YCU 1.29 21.0 94.0 4.1 ok
17-02-2021 02:54:22 YCU 1.26 20.9 93.0 4.1 ok
17-02-2021 02:44:22 YCU 1.32 20.8 93.0 4.1 ok
17-02-2021 02:34:22 YCU 1.26 20.8 93.0 4.1 ok
17-02-2021 02:24:22 YCU 1.28 20.7 93.0 4.1 ok
17-02-2021 02:14:22 YCU 1.26 20.7 93.0 4.1 ok
17-02-2021 02:04:21 YCU 1.27 20.7 93.0 4.1 ok
17-02-2021 01:54:21 YCU 1.22 20.7 93.0 4.1 ok
17-02-2021 01:44:20 YCU 1.19 20.6 93.0 4.1 ok
17-02-2021 01:34:20 YCU 1.23 21.0 94.0 4.1 ok
17-02-2021 01:24:20 YCU 1.27 21.1 94.0 4.1 ok
17-02-2021 01:14:20 YCU 1.30 20.9 93.0 4.1 ok
17-02-2021 01:04:20 YCU 1.29 20.9 93.0 4.0 ON
17-02-2021 00:50:06 YCU 1.31 20.3 93.0 4.1 ok
17-02-2021 00:40:06 YCU 1.24 20.4 93.0 4.1 ok
17-02-2021 00:30:06 YCU 1.25 20.4 93.0 4.1 ok
17-02-2021 00:20:06 YCU 1.26 20.5 93.0 4.1 ok
17-02-2021 00:10:05 YCU 1.23 20.5 93.0 4.1 ok
17-02-2021 00:00:05 YCU 1.19 20.4 93.0 4.1 ok
16-02-2021 23:50:05 YCU 1.14 20.5 93.0 4.1 ok
16-02-2021 23:40:05 YCU 1.09 20.6 93.0 4.1 ok
16-02-2021 23:30:04 YCU 1.09 20.6 93.0 4.1 ok
16-02-2021 23:20:04 YCU 1.12 20.4 93.0 4.1 ok
16-02-2021 23:10:04 YCU 1.12 20.6 93.0 4.1 ok
16-02-2021 23:00:03 YCU 1.15 20.3 93.0 4.1 ok
16-02-2021 22:50:03 YCU 1.08 20.4 93.0 4.1 ok
16-02-2021 22:40:03 YCU 1.11 20.5 93.0 4.1 ok
16-02-2021 22:30:03 YCU 1.20 20.6 93.0 4.1 ok
16-02-2021 22:20:03 YCU 1.21 20.5 93.0 4.1 ok
16-02-2021 22:10:02 YCU 1.17 20.3 93.0 4.1 ok
16-02-2021 22:00:02 YCU 1.18 20.4 93.0 4.1 ok
16-02-2021 21:50:02 YCU 1.23 20.5 93.0 4.1 ok
16-02-2021 21:40:02 YCU 1.25 20.8 93.0 4.1 ok
16-02-2021 21:30:02 YCU 1.28 20.7 93.0 4.1 ok
16-02-2021 21:20:01 YCU 1.29 21.0 94.0 4.1 ok
16-02-2021 21:10:01 YCU 1.40 20.8 93.0 4.1 ok
16-02-2021 20:59:58 YCU 1.44 20.8 93.0 4.1 ok
16-02-2021 20:49:58 YCU 1.36 21.0 94.0 4.1 ok
16-02-2021 20:39:58 YCU 1.41 21.0 94.0 4.1 ok
16-02-2021 20:29:57 YCU 1.46 21.2 94.0 4.1 ok
16-02-2021 20:19:57 YCU 1.48 21.7 94.0 4.1 ok
16-02-2021 20:09:56 YCU 1.46 21.8 94.0 4.1 ok
16-02-2021 19:59:56 YCU 1.42 21.9 94.0 4.1 ok
16-02-2021 19:49:57 YCU 1.41 21.9 94.0 4.1 ok
16-02-2021 19:39:56 YCU 1.47 21.9 94.0 4.1 ok
16-02-2021 19:29:56 YCU 1.50 21.9 94.0 4.1 ok
16-02-2021 19:19:56 YCU 1.52 21.7 94.0 4.1 ok
16-02-2021 19:09:56 YCU 1.52 21.6 94.0 4.1 ok
16-02-2021 18:59:57 YCU 1.53 21.6 94.0 4.1 ok
16-02-2021 18:49:40 YCU 1.54 21.8 94.0 4.1 ok
16-02-2021 18:39:40 YCU 1.51 21.5 94.0 4.1 ok
16-02-2021 18:29:39 YCU 1.54 21.4 94.0 4.1 ok
16-02-2021 18:19:39 YCU 1.52 21.7 94.0 4.1 ok
16-02-2021 18:09:39 YCU 1.49 22.0 95.0 4.1 ok
16-02-2021 17:59:39 YCU 1.48 22.0 95.0 4.1 ok
16-02-2021 17:49:39 YCU 1.47 22.2 95.0 4.1 ok
16-02-2021 17:39:39 YCU 1.44 22.2 95.0 4.1 ok
16-02-2021 17:29:39 YCU 1.47 22.0 95.0 4.1 ok
16-02-2021 17:19:39 YCU 1.41 22.0 95.0 4.1 ok
16-02-2021 17:09:39 YCU 1.35 22.5 95.0 4.1 ok
16-02-2021 16:59:39 YCU 1.35 22.8 95.0 4.1 ok
16-02-2021 16:49:38 YCU 1.29 22.7 95.0 4.1 ok
16-02-2021 16:39:38 YCU 1.31 22.8 95.0 4.1 ok
16-02-2021 16:29:38 YCU 1.28 22.8 95.0 4.1 ok
16-02-2021 16:19:39 YCU 1.35 22.3 95.0 4.1 ok
16-02-2021 16:09:38 YCU 1.30 22.4 95.0 4.1 ok
16-02-2021 15:59:38 YCU 1.29 22.1 95.0 4.1 ok
16-02-2021 15:49:38 YCU 1.29 22.1 95.0 4.1 ok
16-02-2021 15:39:37 YCU 1.25 22.1 95.0 4.1 ok
16-02-2021 15:29:37 YCU 1.28 22.0 95.0 4.1 ok
16-02-2021 15:19:37 YCU 1.23 21.7 94.0 4.1 ok
16-02-2021 15:09:37 YCU 1.26 21.7 94.0 4.1 ok
16-02-2021 14:59:36 YCU 1.22 21.7 94.0 4.1 ok
16-02-2021 14:49:36 YCU 1.26 21.7 94.0 4.1 ok
16-02-2021 14:39:36 YCU 1.29 21.9 94.0 4.1 ok
16-02-2021 14:29:36 YCU 1.27 22.0 95.0 4.1 ok
16-02-2021 14:19:36 YCU 1.30 22.0 95.0 4.1 ok
16-02-2021 14:09:36 YCU 1.28 22.2 95.0 4.1 ok
16-02-2021 13:59:36 YCU 1.27 21.6 94.0 4.1 ok
16-02-2021 13:49:36 YCU 1.25 21.2 94.0 4.1 ok
16-02-2021 13:39:36 YCU 1.32 21.0 94.0 4.1 ok
16-02-2021 13:29:35 YCU 1.32 21.3 94.0 4.1 ok
16-02-2021 13:19:35 YCU 1.33 21.3 94.0 4.1 ok
16-02-2021 13:09:35 YCU 1.33 21.3 94.0 4.1 ok
16-02-2021 12:59:35 YCU 1.28 21.4 94.0 4.1 ok
16-02-2021 12:49:35 YCU 1.28 21.5 94.0 4.2 ok
16-02-2021 12:39:35 YCU 1.32 21.4 94.0 4.1 ok
16-02-2021 12:29:35 YCU 1.28 21.6 94.0 4.1 ok
16-02-2021 12:19:35 YCU 1.26 21.5 94.0 4.1 ok
16-02-2021 12:09:34 YCU 1.20 21.4 94.0 4.1 ok
16-02-2021 11:59:34 YCU 1.18 21.2 94.0 4.1 ok
16-02-2021 11:49:34 YCU 1.16 20.9 93.0 4.1 ok
16-02-2021 11:39:33 YCU 1.15 20.7 93.0 4.1 ok
16-02-2021 11:29:33 YCU 1.18 20.9 93.0 4.1 ok
16-02-2021 11:19:32 YCU 1.17 20.8 93.0 4.1 ok
16-02-2021 11:09:32 YCU 1.12 20.9 93.0 4.1 ok
16-02-2021 10:59:32 YCU 1.11 21.0 94.0 4.1 ok
16-02-2021 10:49:32 YCU 1.05 21.1 94.0 4.1 ok
16-02-2021 10:39:32 YCU 1.01 21.2 94.0 4.1 ok
16-02-2021 10:29:32 YCU 1.00 21.0 94.0 4.1 ok
16-02-2021 10:19:31 YCU 1.01 20.8 93.0 4.1 ok
16-02-2021 10:09:31 YCU 1.02 20.9 93.0 4.1 ok
16-02-2021 09:59:30 YCU 0.96 20.8 93.0 4.1 ok
16-02-2021 09:49:30 YCU 0.92 20.9 93.0 4.1 ok
16-02-2021 09:39:30 YCU 0.93 20.9 93.0 4.1 ok
16-02-2021 09:29:30 YCU 0.97 21.2 94.0 4.1 ok
16-02-2021 09:19:30 YCU 0.98 21.6 94.0 4.1 ok
16-02-2021 09:09:29 YCU 0.99 22.0 95.0 4.1 ok
16-02-2021 08:59:29 YCU 1.00 21.7 94.0 4.1 ok
16-02-2021 08:49:29 YCU 1.04 21.7 94.0 4.1 ok
16-02-2021 08:39:29 YCU 1.08 21.6 94.0 4.1 ok
16-02-2021 08:29:29 YCU 1.10 21.6 94.0 4.1 ok
16-02-2021 08:19:29 YCU 1.14 21.6 94.0 4.1 ok
16-02-2021 08:09:29 YCU 1.18 21.4 94.0 4.1 ok
16-02-2021 07:59:29 YCU 1.19 21.3 94.0 4.1 ok
16-02-2021 07:49:28 YCU 1.26 21.1 94.0 4.1 ok
16-02-2021 07:39:28 YCU 1.29 20.9 93.0 4.1 ok
16-02-2021 07:29:28 YCU 1.30 20.6 93.0 4.1 ok
16-02-2021 07:19:28 YCU 1.36 20.5 93.0 4.1 ok
16-02-2021 07:09:28 YCU 1.35 20.3 93.0 4.1 ok
16-02-2021 06:59:28 YCU 1.37 20.4 93.0 4.1 ok
16-02-2021 06:49:28 YCU 1.32 20.4 93.0 4.1 ok
16-02-2021 06:39:28 YCU 1.35 20.3 93.0 4.1 ok
16-02-2021 06:29:27 YCU 1.32 20.5 93.0 4.1 ok
16-02-2021 06:19:27 YCU 1.31 20.6 93.0 4.1 ok
16-02-2021 06:09:26 YCU 1.33 20.7 93.0 4.1 ok
16-02-2021 05:59:26 YCU 1.32 20.7 93.0 4.1 ok
16-02-2021 05:49:26 YCU 1.34 20.8 93.0 4.1 WF
16-02-2021 05:37:11 YCU 1.31 21.1 94.0 4.1 ok
16-02-2021 05:27:11 YCU 1.35 21.0 94.0 4.1 ok
16-02-2021 05:17:11 YCU 1.39 21.0 94.0 4.1 ok
16-02-2021 05:07:11 YCU 1.37 21.0 94.0 4.1 ok
16-02-2021 04:57:10 YCU 1.40 21.0 94.0 4.1 ok
16-02-2021 04:47:10 YCU 1.39 21.0 94.0 4.1 ok
16-02-2021 04:37:10 YCU 1.41 21.1 94.0 4.1 ok
16-02-2021 04:27:10 YCU 1.40 21.1 94.0 4.1 ok
16-02-2021 04:17:10 YCU 1.42 21.1 94.0 4.1 ok
16-02-2021 04:07:10 YCU 1.39 21.1 94.0 4.1 ok
16-02-2021 03:57:10 YCU 1.40 21.2 94.0 4.1 ok
16-02-2021 03:47:09 YCU 1.39 21.6 94.0 4.1 ok
16-02-2021 03:37:09 YCU 1.41 21.8 94.0 4.1 ok
16-02-2021 03:27:09 YCU 1.38 21.9 94.0 4.1 ok
16-02-2021 03:17:09 YCU 1.42 22.0 95.0 4.1 ok
16-02-2021 03:07:09 YCU 1.41 22.0 95.0 4.1 ok
16-02-2021 02:57:09 YCU 1.43 22.0 95.0 4.1 ok
16-02-2021 02:47:09 YCU 1.41 22.0 95.0 4.1 ok
16-02-2021 02:37:09 YCU 1.43 22.0 95.0 4.1 ok
16-02-2021 02:27:09 YCU 1.45 21.9 94.0 4.1 ok
16-02-2021 02:17:09 YCU 1.43 21.7 94.0 4.1 ok
16-02-2021 02:07:08 YCU 1.42 21.7 94.0 4.1 ok
16-02-2021 01:57:08 YCU 1.43 21.7 94.0 4.1 ok
16-02-2021 01:47:08 YCU 1.45 21.7 94.0 4.1 ok
16-02-2021 01:37:08 YCU 1.45 21.9 94.0 4.1 ok
16-02-2021 01:27:08 YCU 1.50 22.0 95.0 4.1 ok
16-02-2021 01:17:08 YCU 1.51 22.3 95.0 4.1 ok
16-02-2021 01:07:08 YCU 1.50 22.5 95.0 4.1 ok
16-02-2021 00:57:08 YCU 1.55 22.4 95.0 4.0 ON
16-02-2021 00:42:55 YCU 1.58 22.3 95.0 4.1 ok
16-02-2021 00:32:55 YCU 1.55 22.2 95.0 4.1 ok
16-02-2021 00:22:54 YCU 1.55 22.5 95.0 4.1 ok
16-02-2021 00:12:54 YCU 1.54 22.4 95.0 4.1 ok
16-02-2021 00:02:54 YCU 1.55 22.3 95.0 4.1 ok
15-02-2021 23:52:54 YCU 1.56 22.5 95.0 4.1 ok
15-02-2021 23:42:54 YCU 1.51 22.6 95.0 4.1 ok
15-02-2021 23:32:54 YCU 1.49 22.9 95.0 4.1 ok
15-02-2021 23:22:54 YCU 1.48 23.0 95.0 4.1 ok
15-02-2021 23:12:54 YCU 1.47 23.0 95.0 4.1 ok
15-02-2021 23:02:53 YCU 1.44 23.1 95.0 4.1 ok
15-02-2021 22:52:53 YCU 1.43 23.1 95.0 4.1 ok
15-02-2021 22:42:53 YCU 1.40 23.2 95.0 4.1 ok
15-02-2021 22:32:53 YCU 1.36 23.1 95.0 4.1 ok
15-02-2021 22:22:53 YCU 1.38 23.0 95.0 4.1 ok
15-02-2021 22:12:52 YCU 1.35 23.1 95.0 4.1 ok
15-02-2021 22:02:52 YCU 1.36 23.0 95.0 4.1 ok
15-02-2021 21:52:52 YCU 1.37 23.0 95.0 4.1 ok
15-02-2021 21:42:52 YCU 1.35 23.1 95.0 4.1 ok
15-02-2021 21:32:51 YCU 1.35 23.2 95.0 4.1 ok
15-02-2021 21:22:52 YCU 1.42 23.5 95.0 4.1 ok
15-02-2021 21:12:52 YCU 1.42 23.5 95.0 4.1 ok
15-02-2021 21:02:51 YCU 1.41 23.5 95.0 4.1 ok
15-02-2021 20:52:51 YCU 1.43 23.4 95.0 4.1 ok
15-02-2021 20:42:51 YCU 1.44 23.4 95.0 4.1 ok
15-02-2021 20:32:51 YCU 1.47 23.4 95.0 4.1 ok
15-02-2021 20:22:51 YCU 1.51 23.5 95.0 4.1 ok
15-02-2021 20:12:51 YCU 1.53 23.6 95.0 4.1 ok
15-02-2021 20:02:51 YCU 1.56 23.4 95.0 4.1 ok
15-02-2021 19:52:51 YCU 1.57 23.5 95.0 4.1 ok
15-02-2021 19:42:50 YCU 1.65 23.4 95.0 4.1 ok
15-02-2021 19:32:50 YCU 1.65 23.4 95.0 4.1 ok
15-02-2021 19:22:50 YCU 1.69 23.5 95.0 4.1 ok
15-02-2021 19:12:50 YCU 1.70 23.8 95.0 4.1 ok
15-02-2021 19:02:50 YCU 1.73 24.1 95.0 4.1 ok
15-02-2021 18:52:50 YCU 1.71 24.4 95.0 4.1 ok
15-02-2021 18:42:50 YCU 1.76 24.9 95.0 4.1 ok
15-02-2021 18:32:50 YCU 1.78 25.4 95.0 4.1 ok
15-02-2021 18:22:50 YCU 1.77 25.8 95.0 4.1 ok
15-02-2021 18:12:50 YCU 1.76 25.3 95.0 4.1 ok
15-02-2021 18:02:50 YCU 1.79 24.9 95.0 4.1 ok
15-02-2021 17:52:50 YCU 1.81 25.0 95.0 4.1 ok
15-02-2021 17:42:50 YCU 1.79 25.0 95.0 4.1 ok
15-02-2021 17:32:50 YCU 1.77 25.0 95.0 4.1 ok
15-02-2021 17:22:50 YCU 1.82 24.9 95.0 4.1 ok
15-02-2021 17:12:50 YCU 1.79 25.0 95.0 4.1 ok
15-02-2021 17:02:50 YCU 1.74 25.0 95.0 4.1 ok
15-02-2021 16:52:48 YCU 1.71 24.9 95.0 4.1 ok
15-02-2021 16:42:48 YCU 1.70 24.6 95.0 4.1 ok
15-02-2021 16:32:48 YCU 1.69 24.6 95.0 4.1 ok
15-02-2021 16:22:48 YCU 1.69 24.8 95.0 4.1 ok
15-02-2021 16:12:48 YCU 1.67 24.8 95.0 4.1 ok
15-02-2021 16:02:48 YCU 1.68 24.8 95.0 4.1 ok
15-02-2021 15:52:47 YCU 1.66 24.9 95.0 4.1 ok
15-02-2021 15:42:47 YCU 1.68 24.9 95.0 4.1 ok
15-02-2021 15:32:47 YCU 1.67 25.0 95.0 4.1 ok
15-02-2021 15:22:47 YCU 1.65 24.9 95.0 4.1 ok
15-02-2021 15:12:47 YCU 1.68 24.9 95.0 4.1 ok
15-02-2021 15:02:47 YCU 1.66 25.0 95.0 4.1 ok
15-02-2021 14:52:47 YCU 1.65 25.0 95.0 4.1 ok
15-02-2021 14:42:46 YCU 1.64 24.8 95.0 4.1 ok
15-02-2021 14:32:46 YCU 1.69 24.6 95.0 4.1 ok
15-02-2021 14:22:46 YCU 1.66 24.4 95.0 4.1 ok
15-02-2021 14:12:47 YCU 1.66 24.9 95.0 4.1 ok
15-02-2021 14:02:46 YCU 1.65 25.0 95.0 4.1 ok
15-02-2021 13:52:46 YCU 1.67 24.9 95.0 4.1 ok
15-02-2021 13:42:46 YCU 1.69 24.9 95.0 4.1 ok
15-02-2021 13:32:46 YCU 1.61 25.7 95.0 4.1 ok
15-02-2021 13:22:45 YCU 1.60 26.4 95.0 4.1 ok
15-02-2021 13:12:46 YCU 1.58 26.3 95.0 4.1 ok
15-02-2021 13:02:45 YCU 1.61 26.3 95.0 4.1 ok
15-02-2021 12:52:45 YCU 1.59 26.7 95.0 4.1 ok
15-02-2021 12:42:45 YCU 1.59 27.0 95.0 4.1 ok
15-02-2021 12:32:45 YCU 1.55 26.4 95.0 4.1 ok
15-02-2021 12:22:45 YCU 1.55 26.1 95.0 4.1 ok
15-02-2021 12:12:45 YCU 1.52 25.0 95.0 4.1 ok
15-02-2021 12:02:45 YCU 1.53 25.0 95.0 4.1 ok
15-02-2021 11:52:44 YCU 1.51 24.8 95.0 4.1 ok
15-02-2021 11:42:44 YCU 1.47 24.6 95.0 4.1 ok
15-02-2021 11:32:44 YCU 1.43 24.2 95.0 4.1 ok
15-02-2021 11:22:44 YCU 1.45 23.8 95.0 4.1 ok
15-02-2021 11:12:44 YCU 1.47 23.9 95.0 4.1 ok
15-02-2021 11:02:44 YCU 1.41 23.7 95.0 4.1 ok
15-02-2021 10:52:44 YCU 1.38 23.7 95.0 4.1 ok
15-02-2021 10:42:44 YCU 1.40 23.8 95.0 4.1 ok
15-02-2021 10:32:43 YCU 1.35 23.8 95.0 4.1 ok
15-02-2021 10:22:43 YCU 1.33 24.0 95.0 4.1 ok
15-02-2021 10:12:43 YCU 1.29 24.5 95.0 4.1 ok
15-02-2021 10:02:43 YCU 1.24 25.2 95.0 4.1 ok
15-02-2021 09:52:43 YCU 1.24 25.7 95.0 4.1 ok
15-02-2021 09:42:43 YCU 1.17 25.9 95.0 4.1 ok
15-02-2021 09:32:40 YCU 1.12 26.8 95.0 4.1 ok
15-02-2021 09:22:40 YCU 1.05 26.9 95.0 4.1 ok
15-02-2021 09:12:39 YCU 1.04 26.3 95.0 4.1 ok
15-02-2021 09:02:39 YCU 1.05 26.0 95.0 4.1 ok
15-02-2021 08:52:39 YCU 1.06 25.7 95.0 4.1 ok
15-02-2021 08:42:39 YCU 1.05 26.5 95.0 4.1 ok
15-02-2021 08:32:39 YCU 1.04 26.8 95.0 4.1 ok
15-02-2021 08:22:39 YCU 1.06 26.7 95.0 4.1 ok
15-02-2021 08:12:39 YCU 1.12 25.9 95.0 4.1 ok
15-02-2021 08:02:38 YCU 1.12 25.0 95.0 4.1 ok
15-02-2021 07:52:38 YCU 1.11 24.5 95.0 4.1 ok
15-02-2021 07:42:38 YCU 1.15 23.9 95.0 4.1 ok
15-02-2021 07:32:37 YCU 1.23 23.6 95.0 4.1 ok
15-02-2021 07:22:37 YCU 1.23 23.6 95.0 4.1 ok
15-02-2021 07:12:37 YCU 1.28 23.3 95.0 4.1 ok
15-02-2021 07:02:34 YCU 1.27 23.3 95.0 4.1 ok
15-02-2021 06:52:34 YCU 1.33 23.2 95.0 4.1 ok
15-02-2021 06:42:34 YCU 1.36 23.2 95.0 4.1 ok
15-02-2021 06:32:34 YCU 1.31 23.2 95.0 4.1 ok
15-02-2021 06:22:34 YCU 1.38 23.2 95.0 4.1 ok
15-02-2021 06:12:33 YCU 1.37 23.1 95.0 4.1 ok
15-02-2021 06:02:33 YCU 1.35 23.2 95.0 4.1 ok
15-02-2021 05:52:33 YCU 1.34 23.1 95.0 4.1 ok
15-02-2021 05:42:33 YCU 1.32 23.1 95.0 4.1 ok
15-02-2021 05:32:32 YCU 1.34 23.0 95.0 4.1 ok
15-02-2021 05:22:32 YCU 1.28 23.0 95.0 4.1 ok
15-02-2021 05:12:32 YCU 1.28 22.9 95.0 4.1 ok
15-02-2021 05:02:32 YCU 1.24 22.9 95.0 4.1 ok
15-02-2021 04:52:32 YCU 1.23 23.0 95.0 4.1 ok
15-02-2021 04:42:32 YCU 1.20 23.0 95.0 4.1 ok
15-02-2021 04:32:32 YCU 1.24 23.0 95.0 4.1 ok
15-02-2021 04:22:33 YCU 1.30 23.0 95.0 4.1 ok
15-02-2021 04:12:32 YCU 1.32 23.1 95.0 4.1 WF
15-02-2021 04:00:33 YCU 1.35 22.9 95.0 4.1 ok
15-02-2021 03:50:33 YCU 1.35 22.9 95.0 4.1 ok
15-02-2021 03:40:33 YCU 1.26 23.0 95.0 4.1 ok
15-02-2021 03:30:33 YCU 1.26 23.2 95.0 4.1 ok
15-02-2021 03:20:32 YCU 1.29 23.2 95.0 4.1 ok
15-02-2021 03:10:32 YCU 1.21 23.3 95.0 4.1 ok
15-02-2021 03:00:32 YCU 1.21 23.4 95.0 4.1 ok
15-02-2021 02:50:32 YCU 1.17 23.5 95.0 4.1 ok
15-02-2021 02:40:32 YCU 1.13 23.6 95.0 4.1 ok
15-02-2021 02:30:32 YCU 1.18 23.6 95.0 4.1 ok
15-02-2021 02:20:32 YCU 1.20 23.6 95.0 4.1 ok
15-02-2021 02:10:32 YCU 1.21 23.6 95.0 4.2 ok
15-02-2021 02:00:32 YCU 1.20 23.6 95.0 4.1 ok
15-02-2021 01:50:32 YCU 1.16 23.6 95.0 4.1 ok
15-02-2021 01:40:32 YCU 1.10 23.6 95.0 4.1 ok
15-02-2021 01:30:32 YCU 1.07 23.7 95.0 4.1 ok
15-02-2021 01:20:32 YCU 1.05 23.6 95.0 4.1 ok
15-02-2021 01:10:32 YCU 1.09 23.6 95.0 4.1 ok
15-02-2021 01:00:32 YCU 1.07 23.7 95.0 4.1 ok
15-02-2021 00:50:32 YCU 1.09 23.7 95.0 4.1 ok
15-02-2021 00:40:31 YCU 1.06 23.7 95.0 4.1 ok
15-02-2021 00:30:31 YCU 1.07 23.7 95.0 4.1 ok
15-02-2021 00:20:31 YCU 1.07 23.7 95.0 4.1 ok
15-02-2021 00:10:31 YCU 1.10 23.7 95.0 4.1 ok
15-02-2021 00:00:31 YCU 1.10 23.7 95.0 4.1 ok
14-02-2021 23:50:31 YCU 1.08 23.7 95.0 4.1 ok
14-02-2021 23:40:31 YCU 1.05 23.7 95.0 4.1 ok
14-02-2021 23:30:30 YCU 1.08 23.6 95.0 4.1 ok
14-02-2021 23:20:30 YCU 1.07 23.6 95.0 4.1 ok
14-02-2021 23:10:30 YCU 1.06 23.5 95.0 4.1 ok
14-02-2021 23:00:30 YCU 1.05 23.4 95.0 4.1 ok
14-02-2021 22:50:30 YCU 1.00 23.3 95.0 4.1 ok
14-02-2021 22:40:30 YCU 0.99 23.5 95.0 4.1 ok
14-02-2021 22:30:30 YCU 0.93 23.5 95.0 4.1 ok
14-02-2021 22:20:30 YCU 0.94 23.6 95.0 4.1 ok
14-02-2021 22:10:30 YCU 0.93 23.6 95.0 4.1 ok
14-02-2021 22:00:29 YCU 0.92 23.7 95.0 4.1 ok
14-02-2021 21:50:28 YCU 0.87 23.7 95.0 4.1 ok
14-02-2021 21:40:28 YCU 0.89 23.7 95.0 4.1 ok
14-02-2021 21:30:28 YCU 0.84 23.7 95.0 4.1 ok
14-02-2021 21:20:28 YCU 0.89 23.7 95.0 4.1 ok
14-02-2021 21:10:28 YCU 0.86 23.7 95.0 4.1 ok
14-02-2021 21:00:28 YCU 0.86 23.8 95.0 4.1 ok
14-02-2021 20:50:28 YCU 0.82 23.8 95.0 4.1 ok
14-02-2021 20:40:28 YCU 0.85 23.8 95.0 4.1 ok
14-02-2021 20:30:28 YCU 0.86 23.7 95.0 4.1 ok
14-02-2021 20:20:28 YCU 0.90 23.7 95.0 4.1 ok
14-02-2021 20:10:27 YCU 0.89 23.7 95.0 4.1 ok
14-02-2021 20:00:27 YCU 0.92 23.8 95.0 4.1 ok
14-02-2021 19:50:27 YCU 0.93 23.8 95.0 4.1 ok
14-02-2021 19:40:28 YCU 0.98 24.0 95.0 4.1 ok
14-02-2021 19:30:28 YCU 0.99 24.1 95.0 4.1 ok
14-02-2021 19:20:27 YCU 1.05 24.4 95.0 4.1 ok
14-02-2021 19:10:27 YCU 1.03 24.9 95.0 4.1 ok
14-02-2021 19:00:27 YCU 1.12 25.3 95.0 4.1 ok
14-02-2021 18:50:27 YCU 1.14 25.6 95.0 4.1 ok
14-02-2021 18:40:27 YCU 1.16 25.9 95.0 4.1 ok
14-02-2021 18:30:27 YCU 1.14 26.3 95.0 4.1 ok
14-02-2021 18:20:27 YCU 1.17 26.3 95.0 4.1 ok
14-02-2021 18:10:26 YCU 1.14 25.8 95.0 4.1 ok
14-02-2021 18:00:26 YCU 1.17 25.7 95.0 4.1 ok
14-02-2021 17:50:26 YCU 1.14 26.0 95.0 4.1 ok
14-02-2021 17:40:26 YCU 1.12 26.0 95.0 4.1 ok
14-02-2021 17:30:26 YCU 1.11 25.7 95.0 4.1 ok
14-02-2021 17:20:26 YCU 1.11 25.2 95.0 4.1 ok
14-02-2021 17:10:26 YCU 1.10 25.1 95.0 4.1 ok
14-02-2021 17:00:25 YCU 1.07 25.0 95.0 4.1 ok
14-02-2021 16:50:25 YCU 1.01 25.0 95.0 4.1 ok
14-02-2021 16:40:25 YCU 1.00 25.2 95.0 4.1 ok
14-02-2021 16:30:25 YCU 0.97 24.7 95.0 4.1 ok
14-02-2021 16:20:25 YCU 1.00 24.1 95.0 4.1 ok
14-02-2021 16:10:25 YCU 0.92 23.8 95.0 4.1 ok
14-02-2021 16:00:24 YCU 0.92 23.5 95.0 4.1 ok
14-02-2021 15:50:24 YCU 0.89 23.5 95.0 4.1 ok
14-02-2021 15:40:24 YCU 0.87 23.6 95.0 4.1 ok
14-02-2021 15:30:24 YCU 0.90 23.7 95.0 4.1 ok
14-02-2021 15:20:24 YCU 0.88 23.7 95.0 4.1 ok
14-02-2021 15:10:23 YCU 0.87 23.8 95.0 4.1 ok
14-02-2021 15:00:23 YCU 0.89 23.9 95.0 4.1 ok
14-02-2021 14:50:23 YCU 0.92 24.1 95.0 4.1 ok
14-02-2021 14:40:23 YCU 0.87 24.2 95.0 4.1 ok
14-02-2021 14:30:23 YCU 0.87 24.1 95.0 4.1 ok
14-02-2021 14:20:23 YCU 0.84 24.1 95.0 4.1 ok
14-02-2021 14:10:23 YCU 0.88 24.4 95.0 4.1 ok
14-02-2021 14:00:22 YCU 0.84 24.4 95.0 4.1 ok
14-02-2021 13:50:22 YCU 0.84 24.1 95.0 4.1 ok
14-02-2021 13:40:22 YCU 0.86 23.4 95.0 4.1 ok
14-02-2021 13:30:22 YCU 0.87 23.7 95.0 4.1 ok
14-02-2021 13:20:21 YCU 0.86 25.0 95.0 4.1 ok
14-02-2021 13:10:20 YCU 0.82 26.8 95.0 4.1 ok
14-02-2021 13:00:20 YCU 0.86 27.7 95.0 4.1 ok
14-02-2021 12:50:20 YCU 0.82 27.2 95.0 4.1 ok
14-02-2021 12:40:20 YCU 0.81 28.0 95.0 4.1 ok
14-02-2021 12:30:20 YCU 0.80 30.1 95.0 4.1 ok
14-02-2021 12:20:19 YCU 0.84 30.3 95.0 4.1 ok
14-02-2021 12:10:19 YCU 0.83 31.5 95.0 4.1 ok
14-02-2021 12:00:19 YCU 0.79 30.7 95.0 4.1 ok
14-02-2021 11:50:19 YCU 0.82 30.2 95.0 4.1 ok
14-02-2021 11:40:19 YCU 0.84 30.5 95.0 4.1 ok
14-02-2021 11:30:19 YCU 0.81 31.2 95.0 4.1 ok
14-02-2021 11:20:19 YCU 0.77 30.9 91.0 4.1 ok
14-02-2021 11:10:19 YCU 0.79 30.5 95.0 4.1 ok
14-02-2021 11:00:18 YCU 0.72 28.9 95.0 4.1 ok
14-02-2021 10:50:18 YCU 0.67 29.0 95.0 4.1 ok
14-02-2021 10:40:18 YCU 0.66 30.0 95.0 4.1 ok
14-02-2021 10:30:18 YCU 0.63 30.0 95.0 4.1 ok
14-02-2021 10:20:18 YCU 0.60 29.2 95.0 4.1 ok
14-02-2021 10:10:18 YCU 0.54 28.9 95.0 4.1 ok
14-02-2021 10:00:18 YCU 0.50 28.3 95.0 4.1 ok
14-02-2021 09:50:17 YCU 0.43 27.7 95.0 4.1 ok
14-02-2021 09:40:17 YCU 0.37 27.5 95.0 4.1 ok
14-02-2021 09:30:17 YCU 0.36 27.3 95.0 4.1 ok
14-02-2021 09:20:17 YCU 0.35 26.6 95.0 4.1 ok
14-02-2021 09:10:17 YCU 0.37 26.4 95.0 4.1 WF
14-02-2021 08:58:17 YCU 0.31 26.0 95.0 4.1 ok
14-02-2021 08:48:17 YCU 0.29 25.6 95.0 4.1 ok
14-02-2021 08:38:17 YCU 0.30 25.0 95.0 4.1 ok
14-02-2021 08:28:17 YCU 0.30 24.3 95.0 4.1 ok
14-02-2021 08:18:17 YCU 0.28 23.8 95.0 4.1 ok
14-02-2021 08:08:16 YCU 0.30 23.6 95.0 4.1 ok
14-02-2021 07:58:16 YCU 0.35 23.2 95.0 4.1 ok
14-02-2021 07:48:16 YCU 0.35 22.7 95.0 4.1 ok
14-02-2021 07:38:15 YCU 0.42 22.5 95.0 4.1 ok
14-02-2021 07:28:16 YCU 0.43 22.5 95.0 4.1 ok
14-02-2021 07:18:16 YCU 0.46 22.4 95.0 4.1 ok
14-02-2021 07:08:14 YCU 0.48 22.0 95.0 4.1 ok
14-02-2021 06:58:14 YCU 0.53 21.6 94.0 4.1 ok
14-02-2021 06:48:14 YCU 0.57 21.0 94.0 4.1 ok
14-02-2021 06:38:14 YCU 0.54 21.0 94.0 4.1 ok
14-02-2021 06:28:14 YCU 0.57 21.0 94.0 4.1 ok
14-02-2021 06:18:14 YCU 0.59 21.0 94.0 4.1 ok
14-02-2021 06:08:14 YCU 0.61 21.0 94.0 4.1 ok
14-02-2021 05:58:14 YCU 0.61 21.0 94.0 4.1 ok
14-02-2021 05:48:14 YCU 0.63 21.0 94.0 4.1 ok
14-02-2021 05:38:13 YCU 0.62 21.2 94.0 4.1 ok
14-02-2021 05:28:13 YCU 0.61 21.2 94.0 4.1 ok
14-02-2021 05:18:12 YCU 0.64 21.3 94.0 4.1 ok
14-02-2021 05:08:12 YCU 0.66 21.4 94.0 4.1 ok
14-02-2021 04:58:12 YCU 0.65 21.4 94.0 4.1 ok
14-02-2021 04:48:12 YCU 0.62 21.5 94.0 4.1 ok
14-02-2021 04:38:12 YCU 0.60 21.6 94.0 4.1 ok
14-02-2021 04:28:12 YCU 0.55 21.7 94.0 4.1 ok
14-02-2021 04:18:11 YCU 0.55 21.7 94.0 4.1 ok
14-02-2021 04:08:11 YCU 0.65 21.8 94.0 4.1 ok
14-02-2021 03:58:11 YCU 0.59 21.8 94.0 4.1 ok
14-02-2021 03:48:10 YCU 0.62 21.8 94.0 4.1 ok
14-02-2021 03:38:10 YCU 0.62 21.9 94.0 4.1 ok
14-02-2021 03:28:10 YCU 0.66 22.0 95.0 4.1 ok
14-02-2021 03:18:10 YCU 0.66 22.1 95.0 4.1 ok
14-02-2021 03:08:10 YCU 0.64 22.2 95.0 4.1 ok
14-02-2021 02:58:10 YCU 0.67 22.2 95.0 4.1 ok
14-02-2021 02:48:10 YCU 0.69 22.3 95.0 4.1 ok
14-02-2021 02:38:10 YCU 0.69 22.4 95.0 4.1 ok
14-02-2021 02:28:10 YCU 0.65 22.4 95.0 4.1 ok
14-02-2021 02:18:09 YCU 0.65 22.4 95.0 4.1 ok
14-02-2021 02:08:09 YCU 0.63 22.5 95.0 4.1 ok
14-02-2021 01:58:09 YCU 0.66 22.6 95.0 4.1 ok
14-02-2021 01:48:09 YCU 0.69 22.6 95.0 4.1 ok
14-02-2021 01:38:08 YCU 0.68 22.8 95.0 4.1 ok
14-02-2021 01:28:08 YCU 0.68 22.7 95.0 4.1 ok
14-02-2021 01:18:08 YCU 0.65 22.7 95.0 4.1 WF
14-02-2021 01:05:53 YCU 0.64 22.7 95.0 4.1 ok
14-02-2021 00:55:53 YCU 0.66 22.8 95.0 4.1 ok
14-02-2021 00:45:53 YCU 0.63 22.7 95.0 4.1 ok
14-02-2021 00:35:53 YCU 0.69 22.8 95.0 4.1 ok
14-02-2021 00:25:53 YCU 0.71 22.8 95.0 4.1 ok
14-02-2021 00:15:53 YCU 0.66 22.9 95.0 4.1 ok
14-02-2021 00:05:52 YCU 0.72 23.0 95.0 4.1 ok
13-02-2021 23:55:51 YCU 0.71 23.0 95.0 4.1 ok
13-02-2021 23:45:51 YCU 0.70 23.2 95.0 4.1 ok
13-02-2021 23:35:51 YCU 0.67 23.2 95.0 4.1 ok
13-02-2021 23:15:33 YCU 0.72 23.3 95.0 4.1 ok
13-02-2021 23:05:33 YCU 0.71 23.4 95.0 4.1 WF
13-02-2021 22:53:33 YCU 0.67 23.4 95.0 4.1 ok
13-02-2021 22:43:29 YCU 0.73 23.4 95.0 4.1 WF
13-02-2021 22:31:30 YCU 0.73 23.6 95.0 4.1 ok
13-02-2021 22:21:30 YCU 0.69 23.5 95.0 4.1 ok
13-02-2021 22:11:30 YCU 0.70 23.5 95.0 4.1 WF
13-02-2021 21:59:14 YCU 0.64 23.6 95.0 4.1 ok
13-02-2021 21:49:14 YCU 0.64 23.6 95.0 4.1 ok
13-02-2021 21:39:14 YCU 0.63 23.7 95.0 4.1 ok
13-02-2021 21:29:14 YCU 0.65 23.7 95.0 4.1 ok
13-02-2021 21:19:08 YCU 0.64 23.7 95.0 4.1 ok
13-02-2021 21:09:08 YCU 0.60 23.7 95.0 4.1 ok
13-02-2021 20:59:08 YCU 0.60 23.7 95.0 4.1 ok
13-02-2021 20:49:08 YCU 0.60 23.7 95.0 4.1 WF
13-02-2021 20:37:08 YCU 0.62 23.7 95.0 4.1 ok
13-02-2021 20:27:08 YCU 0.64 23.6 95.0 4.1 ok
13-02-2021 20:17:04 YCU 0.65 23.6 95.0 4.1 WF
13-02-2021 20:05:09 YCU 0.62 23.4 95.0 4.1 WF
13-02-2021 19:53:08 YCU 0.67 23.4 95.0 4.1 ok
13-02-2021 19:43:08 YCU 0.75 23.5 95.0 4.1 ok
13-02-2021 19:33:08 YCU 0.74 23.6 95.0 4.1 ok
13-02-2021 19:23:08 YCU 0.76 23.7 95.0 4.1 ok
13-02-2021 19:13:08 YCU 0.82 24.0 95.0 4.1 ok
13-02-2021 19:03:08 YCU 0.88 24.3 95.0 4.1 ok
13-02-2021 18:53:08 YCU 0.90 24.7 95.0 4.1 ok
13-02-2021 18:43:08 YCU 0.93 24.9 95.0 4.1 ok
13-02-2021 18:33:07 YCU 0.98 25.0 95.0 4.1 ok
13-02-2021 18:23:07 YCU 0.99 25.1 95.0 4.1 ok
13-02-2021 18:13:07 YCU 1.04 24.9 95.0 4.1 ok
13-02-2021 18:03:07 YCU 1.05 24.7 95.0 4.1 ok
13-02-2021 17:53:06 YCU 1.08 24.8 95.0 4.1 ok
13-02-2021 17:43:06 YCU 1.18 25.0 95.0 4.1 ok
13-02-2021 17:33:06 YCU 1.14 25.2 95.0 4.1 ok
13-02-2021 17:23:06 YCU 1.18 25.2 95.0 4.1 ok
13-02-2021 17:13:06 YCU 1.16 25.1 95.0 4.1 ok
13-02-2021 17:03:05 YCU 1.13 25.2 95.0 4.1 ok
13-02-2021 16:53:04 YCU 1.16 25.3 95.0 4.1 ok
13-02-2021 16:43:05 YCU 1.16 25.4 95.0 4.1 ok
13-02-2021 16:33:05 YCU 1.09 25.4 95.0 4.1 ok
13-02-2021 16:23:05 YCU 1.12 25.6 95.0 4.1 ok
13-02-2021 16:13:04 YCU 1.12 25.7 95.0 4.1 ok
13-02-2021 16:03:04 YCU 1.12 25.7 95.0 4.1 ok
13-02-2021 15:53:04 YCU 1.12 26.0 95.0 4.1 ok
13-02-2021 15:43:04 YCU 1.13 26.2 95.0 4.1 ok
13-02-2021 15:33:03 YCU 1.11 26.3 95.0 4.1 ok
13-02-2021 15:23:03 YCU 1.06 26.3 95.0 4.1 ok
13-02-2021 15:13:03 YCU 1.08 26.2 95.0 4.1 ok
13-02-2021 15:03:03 YCU 1.05 26.4 95.0 4.1 ok
13-02-2021 14:53:03 YCU 1.07 26.4 95.0 4.1 WF
13-02-2021 14:41:03 YCU 1.06 26.5 95.0 4.1 ok
13-02-2021 14:31:03 YCU 1.11 26.8 95.0 4.1 ok
13-02-2021 14:21:03 YCU 1.07 26.9 95.0 4.1 ok
13-02-2021 14:11:03 YCU 1.13 27.0 95.0 4.1 ok
13-02-2021 14:01:03 YCU 1.10 27.3 95.0 4.1 ok
13-02-2021 13:51:03 YCU 1.12 27.9 95.0 4.1 ok
13-02-2021 13:41:03 YCU 1.07 28.7 95.0 4.1 ok
13-02-2021 13:31:02 YCU 1.02 28.7 95.0 4.1 ok
13-02-2021 13:21:02 YCU 1.02 28.8 95.0 4.1 ok
13-02-2021 13:11:02 YCU 0.97 28.9 95.0 4.1 ok
13-02-2021 13:01:02 YCU 0.97 28.8 95.0 4.1 ok
13-02-2021 12:51:02 YCU 0.98 28.6 95.0 4.1 ok
13-02-2021 12:41:02 YCU 1.00 28.3 95.0 4.1 ok
13-02-2021 12:31:02 YCU 0.98 27.3 95.0 4.1 ok
13-02-2021 12:21:02 YCU 0.99 28.2 95.0 4.1 ok
13-02-2021 12:11:02 YCU 0.95 29.1 95.0 4.1 ok
13-02-2021 12:01:02 YCU 0.96 28.8 95.0 4.1 ok
13-02-2021 11:51:02 YCU 1.00 27.6 95.0 4.2 ok
13-02-2021 11:41:02 YCU 1.01 25.4 95.0 4.2 ok
13-02-2021 11:31:02 YCU 1.02 24.8 95.0 4.2 ok
13-02-2021 11:21:02 YCU 1.04 24.9 95.0 4.1 ok
13-02-2021 11:11:02 YCU 1.00 24.4 95.0 4.1 ok
13-02-2021 11:01:02 YCU 1.02 23.9 95.0 4.1 ok
13-02-2021 10:51:01 YCU 1.02 23.7 95.0 4.1 ok
13-02-2021 10:41:01 YCU 1.01 23.8 95.0 4.1 ok
13-02-2021 10:31:01 YCU 0.99 23.7 95.0 4.1 ok
13-02-2021 10:21:01 YCU 0.95 23.6 95.0 4.1 ok
13-02-2021 10:11:01 YCU 0.94 23.5 95.0 4.1 ok
13-02-2021 10:01:01 YCU 0.85 22.9 95.0 4.1 ok
13-02-2021 09:51:01 YCU 0.83 22.8 95.0 4.1 ok
13-02-2021 09:41:01 YCU 0.84 22.5 95.0 4.1 ok
13-02-2021 09:31:00 YCU 0.79 22.5 95.0 4.1 ok
13-02-2021 09:21:00 YCU 0.70 22.5 95.0 4.1 ok
13-02-2021 09:11:00 YCU 0.71 22.2 95.0 4.1 ok
13-02-2021 09:01:00 YCU 0.71 22.0 95.0 4.1 ok
13-02-2021 08:51:00 YCU 0.62 21.6 94.0 4.1 ok
13-02-2021 08:40:59 YCU 0.64 21.2 94.0 4.1 ok
13-02-2021 08:30:59 YCU 0.61 21.2 94.0 4.1 ok
13-02-2021 08:20:58 YCU 0.65 21.0 94.0 4.1 ok
13-02-2021 08:10:58 YCU 0.57 20.9 93.0 4.1 ok
13-02-2021 08:00:58 YCU 0.57 20.8 93.0 4.1 ok
13-02-2021 07:50:58 YCU 0.59 20.7 93.0 4.1 ok
13-02-2021 07:40:58 YCU 0.58 20.7 93.0 4.1 ok
13-02-2021 07:30:57 YCU 0.59 20.6 93.0 4.1 ok
13-02-2021 07:20:57 YCU 0.60 20.5 93.0 4.1 ok
13-02-2021 07:10:56 YCU 0.60 20.4 93.0 4.1 ok
13-02-2021 07:00:55 YCU 0.56 20.4 93.0 4.1 ok
13-02-2021 06:50:55 YCU 0.64 20.4 93.0 4.1 ok
13-02-2021 06:40:55 YCU 0.68 20.4 93.0 4.1 ok
13-02-2021 06:30:55 YCU 0.68 20.5 93.0 4.1 ok
13-02-2021 06:20:55 YCU 0.65 20.6 93.0 4.1 ok
13-02-2021 06:10:55 YCU 0.64 20.7 93.0 4.1 ok
13-02-2021 06:00:55 YCU 0.66 20.8 93.0 4.1 ok
13-02-2021 05:50:55 YCU 0.73 20.7 93.0 4.1 ok
13-02-2021 05:40:55 YCU 0.75 20.7 93.0 4.1 ok
13-02-2021 05:30:55 YCU 0.80 20.7 93.0 4.1 ok
13-02-2021 05:20:55 YCU 0.77 20.8 93.0 4.1 ok
13-02-2021 05:10:55 YCU 0.75 20.8 93.0 4.1 ok
13-02-2021 05:00:55 YCU 0.76 20.8 93.0 4.1 ok
13-02-2021 04:50:55 YCU 0.80 20.8 93.0 4.1 ok
13-02-2021 04:40:55 YCU 0.74 20.8 93.0 4.1 ok
13-02-2021 04:30:55 YCU 0.77 20.8 93.0 4.1 ok
13-02-2021 04:20:54 YCU 0.73 20.7 93.0 4.1 ok
13-02-2021 04:10:53 YCU 0.73 20.7 93.0 4.1 ok
13-02-2021 04:00:52 YCU 0.72 20.7 93.0 4.1 ok
13-02-2021 03:50:52 YCU 0.69 20.6 93.0 4.1 ok
13-02-2021 03:40:52 YCU 0.67 20.6 93.0 4.1 ok
13-02-2021 03:30:52 YCU 0.67 20.6 93.0 4.1 ok
13-02-2021 03:20:52 YCU 0.73 20.6 93.0 4.1 ok
13-02-2021 03:10:52 YCU 0.67 20.6 93.0 4.1 ok
13-02-2021 03:00:52 YCU 0.68 20.5 93.0 4.1 ok
13-02-2021 02:50:52 YCU 0.66 20.5 93.0 4.1 ok
13-02-2021 02:40:51 YCU 0.64 20.5 93.0 4.1 ok
13-02-2021 02:30:51 YCU 0.68 20.5 93.0 4.1 ok
13-02-2021 02:20:51 YCU 0.65 20.5 93.0 4.1 ok
13-02-2021 02:10:51 YCU 0.65 20.5 93.0 4.1 ok
13-02-2021 02:00:51 YCU 0.55 20.4 93.0 4.1 ok
13-02-2021 01:50:51 YCU 0.56 20.4 93.0 4.1 ok
13-02-2021 01:40:51 YCU 0.61 20.4 93.0 4.1 ok
13-02-2021 01:30:51 YCU 0.59 20.5 93.0 4.1 ok
13-02-2021 01:20:51 YCU 0.56 20.4 93.0 4.1 ok
13-02-2021 01:10:49 YCU 0.55 20.4 93.0 4.1 ok
13-02-2021 01:00:49 YCU 0.58 20.4 93.0 4.1 ok
13-02-2021 00:50:49 YCU 0.61 20.3 93.0 4.1 ok
13-02-2021 00:40:48 YCU 0.57 20.4 93.0 4.1 ok
13-02-2021 00:30:48 YCU 0.55 20.4 93.0 4.1 ok
13-02-2021 00:20:48 YCU 0.51 20.5 93.0 4.1 ok
13-02-2021 00:10:48 YCU 0.52 20.5 93.0 4.1 ok
13-02-2021 00:00:48 YCU 0.55 20.5 93.0 4.1 ok
12-02-2021 23:50:48 YCU 0.48 20.5 93.0 4.1 ok
12-02-2021 23:40:48 YCU 0.45 20.6 93.0 4.1 ok
12-02-2021 23:30:49 YCU 0.48 20.5 93.0 4.1 ok
12-02-2021 23:20:32 YCU 0.44 20.5 93.0 4.1 ok
12-02-2021 23:10:32 YCU 0.44 20.5 93.0 4.1 ok
12-02-2021 23:00:32 YCU 0.40 20.5 93.0 4.1 ok
12-02-2021 22:50:32 YCU 0.45 20.5 93.0 4.1 ok
12-02-2021 22:40:32 YCU 0.42 20.6 93.0 4.1 ok
12-02-2021 22:30:32 YCU 0.43 20.6 93.0 4.1 ok
12-02-2021 22:20:31 YCU 0.43 20.7 93.0 4.1 ok
12-02-2021 22:10:31 YCU 0.40 20.7 93.0 4.1 ok
12-02-2021 22:00:31 YCU 0.39 20.7 93.0 4.1 ok
12-02-2021 21:50:31 YCU 0.38 20.9 93.0 4.1 ok
12-02-2021 21:40:31 YCU 0.39 21.0 94.0 4.1 ok
12-02-2021 21:30:31 YCU 0.39 21.0 94.0 4.1 ok
12-02-2021 21:20:31 YCU 0.43 21.2 94.0 4.1 ok
12-02-2021 21:10:31 YCU 0.31 21.2 94.0 4.1 ok
12-02-2021 21:00:31 YCU 0.35 21.2 94.0 4.1 ok
12-02-2021 20:50:31 YCU 0.38 21.2 94.0 4.1 ok
12-02-2021 20:40:31 YCU 0.27 21.2 94.0 4.1 ok
12-02-2021 20:30:31 YCU 0.30 21.3 94.0 4.1 ok
12-02-2021 20:20:31 YCU 0.31 21.3 94.0 4.1 ok
12-02-2021 20:10:30 YCU 0.24 21.2 94.0 4.1 ok
12-02-2021 20:00:31 YCU 0.26 21.3 94.0 4.2 ok
12-02-2021 19:50:30 YCU 0.24 21.4 94.0 4.1 ok
12-02-2021 19:40:30 YCU 0.23 21.4 94.0 4.1 ok
12-02-2021 19:30:30 YCU 0.24 21.6 94.0 4.1 ok
12-02-2021 19:20:29 YCU 0.27 21.6 94.0 4.1 ok
12-02-2021 19:10:29 YCU 0.25 21.8 94.0 4.1 ok
12-02-2021 19:00:29 YCU 0.30 21.9 94.0 4.1 ok
12-02-2021 18:50:29 YCU 0.32 22.0 95.0 4.1 ok
12-02-2021 18:40:29 YCU 0.34 22.2 95.0 4.1 ok
12-02-2021 18:30:29 YCU 0.38 22.3 95.0 4.1 ok
12-02-2021 18:20:30 YCU 0.40 22.5 95.0 4.1 ok
12-02-2021 18:10:30 YCU 0.43 22.5 95.0 4.1 ok
12-02-2021 18:00:30 YCU 0.43 22.6 95.0 4.1 ok
12-02-2021 17:50:29 YCU 0.44 22.6 95.0 4.1 WF
12-02-2021 17:38:30 YCU 0.47 22.9 95.0 4.1 ok
12-02-2021 17:28:30 YCU 0.46 22.9 95.0 4.1 ok
12-02-2021 17:18:30 YCU 0.58 23.1 95.0 4.1 ok
12-02-2021 17:08:29 YCU 0.51 23.2 95.0 4.1 ok
12-02-2021 16:58:29 YCU 0.48 23.2 95.0 4.1 ok
12-02-2021 16:48:29 YCU 0.53 23.2 95.0 4.1 ok
12-02-2021 16:38:29 YCU 0.52 23.2 95.0 4.1 ok
12-02-2021 16:28:28 YCU 0.50 23.2 95.0 4.1 ok
12-02-2021 16:18:26 YCU 0.53 23.3 95.0 4.1 ok
12-02-2021 16:08:26 YCU 0.58 23.4 95.0 4.1 ok
12-02-2021 15:58:26 YCU 0.47 23.2 95.0 4.1 ok
12-02-2021 15:48:26 YCU 0.47 23.3 95.0 4.1 ok
12-02-2021 15:38:26 YCU 0.49 23.2 95.0 4.1 ok
12-02-2021 15:28:26 YCU 0.46 23.3 95.0 4.1 ok
12-02-2021 15:18:26 YCU 0.47 23.0 95.0 4.1 ok
12-02-2021 15:08:26 YCU 0.49 22.6 95.0 4.1 ok
12-02-2021 14:58:25 YCU 0.40 22.3 95.0 4.1 ok
12-02-2021 14:48:25 YCU 0.42 22.0 95.0 4.1 ok
12-02-2021 14:38:25 YCU 0.41 21.8 94.0 4.1 ok
12-02-2021 14:28:25 YCU 0.41 21.6 94.0 4.1 ok
12-02-2021 14:18:25 YCU 0.51 21.6 94.0 4.1 ok
12-02-2021 14:08:25 YCU 0.45 21.7 94.0 4.1 ok
12-02-2021 13:58:25 YCU 0.51 21.8 94.0 4.1 ok
12-02-2021 13:48:25 YCU 0.44 21.9 94.0 4.1 ok
12-02-2021 13:38:24 YCU 0.45 21.8 94.0 4.1 ok
12-02-2021 13:28:24 YCU 0.45 21.9 94.0 4.1 ok
12-02-2021 13:18:24 YCU 0.46 22.1 95.0 4.1 ok
12-02-2021 13:08:23 YCU 0.46 22.5 95.0 4.1 ok
12-02-2021 12:58:23 YCU 0.52 22.7 95.0 4.1 ok
12-02-2021 12:48:23 YCU 0.44 22.8 95.0 4.1 ok
12-02-2021 12:38:23 YCU 0.42 23.0 95.0 4.1 ok
12-02-2021 12:28:23 YCU 0.47 22.9 95.0 4.1 WF
12-02-2021 12:16:24 YCU 0.44 23.4 95.0 4.1 ok
12-02-2021 12:06:24 YCU 0.52 23.5 95.0 4.1 ok
12-02-2021 11:56:23 YCU 0.45 23.4 95.0 4.1 ok
12-02-2021 11:46:22 YCU 0.49 23.2 95.0 4.1 ok
12-02-2021 11:36:22 YCU 0.49 23.1 95.0 4.1 ok
12-02-2021 11:26:22 YCU 0.52 23.0 95.0 4.1 ok
12-02-2021 11:16:22 YCU 0.54 22.9 95.0 4.1 ok
12-02-2021 11:06:22 YCU 0.50 22.8 95.0 4.1 ok
12-02-2021 10:56:22 YCU 0.50 22.7 95.0 4.1 ok
12-02-2021 10:46:22 YCU 0.50 22.7 95.0 4.1 ok
12-02-2021 10:36:22 YCU 0.49 22.6 95.0 4.1 ok
12-02-2021 10:26:21 YCU 0.47 22.5 95.0 4.1 ok
12-02-2021 10:16:21 YCU 0.48 22.4 95.0 4.1 ok
12-02-2021 10:06:21 YCU 0.45 22.3 95.0 4.1 ok
12-02-2021 09:56:21 YCU 0.46 22.2 95.0 4.1 ok
12-02-2021 09:46:21 YCU 0.43 22.2 95.0 4.1 ok
12-02-2021 09:36:21 YCU 0.38 22.1 95.0 4.1 ok
12-02-2021 09:26:21 YCU 0.39 22.1 95.0 4.1 ok
12-02-2021 09:16:21 YCU 0.38 22.0 95.0 4.1 ok
12-02-2021 09:06:21 YCU 0.35 22.0 95.0 4.1 ok
12-02-2021 08:56:21 YCU 0.29 21.9 94.0 4.1 ok
12-02-2021 08:46:21 YCU 0.25 21.9 94.0 4.1 ok
12-02-2021 08:36:21 YCU 0.21 21.9 94.0 4.1 ok
12-02-2021 08:26:21 YCU 0.19 21.8 94.0 4.1 ok
12-02-2021 08:16:21 YCU 0.20 21.8 94.0 4.1 ok
12-02-2021 08:06:21 YCU 0.19 21.7 94.0 4.1 ok
12-02-2021 07:56:21 YCU 0.18 21.6 94.0 4.1 ok
12-02-2021 07:46:21 YCU 0.18 21.6 94.0 4.1 ok
12-02-2021 07:36:21 YCU 0.18 21.6 94.0 4.1 ok
12-02-2021 07:26:21 YCU 0.18 21.6 94.0 4.1 ok
12-02-2021 07:16:21 YCU 0.18 21.6 94.0 4.1 ok
12-02-2021 07:06:21 YCU 0.18 21.7 94.0 4.1 ok
12-02-2021 06:56:21 YCU 0.18 21.7 94.0 4.1 ok
12-02-2021 06:46:21 YCU 0.18 21.7 94.0 4.1 ok
12-02-2021 06:36:21 YCU 0.18 21.7 94.0 4.1 ok
12-02-2021 06:26:21 YCU 0.21 21.7 94.0 4.1 ok
12-02-2021 06:16:21 YCU 0.26 21.8 94.0 4.1 ok
12-02-2021 06:06:21 YCU 0.25 21.8 94.0 4.1 WF
12-02-2021 05:54:21 YCU 0.27 21.8 94.0 4.1 ok
12-02-2021 05:44:21 YCU 0.31 21.9 94.0 4.1 ok
12-02-2021 05:34:21 YCU 0.37 21.8 94.0 4.1 ok
12-02-2021 05:24:21 YCU 0.39 21.8 94.0 4.2 ok
12-02-2021 05:14:21 YCU 0.41 21.9 94.0 4.1 ok
12-02-2021 05:04:20 YCU 0.41 21.9 94.0 4.1 ok
12-02-2021 04:54:19 YCU 0.44 21.8 94.0 4.1 ok
12-02-2021 04:44:19 YCU 0.44 21.8 94.0 4.1 ok
12-02-2021 04:34:19 YCU 0.48 21.8 94.0 4.1 ok
12-02-2021 04:24:18 YCU 0.47 21.7 94.0 4.1 ok
12-02-2021 04:14:18 YCU 0.47 21.7 94.0 4.1 ok
12-02-2021 04:04:18 YCU 0.49 21.7 94.0 4.1 ok
12-02-2021 03:54:18 YCU 0.52 21.5 94.0 4.1 ok
12-02-2021 03:44:18 YCU 0.50 21.5 94.0 4.1 ok
12-02-2021 03:34:18 YCU 0.48 21.4 94.0 4.1 ok
12-02-2021 03:24:18 YCU 0.45 21.4 94.0 4.1 ok
12-02-2021 03:14:18 YCU 0.47 21.4 94.0 4.1 ok
12-02-2021 03:04:18 YCU 0.48 21.3 94.0 4.1 ok
12-02-2021 02:54:17 YCU 0.45 21.3 94.0 4.1 ok
12-02-2021 02:44:17 YCU 0.43 21.2 94.0 4.1 ok
12-02-2021 02:34:17 YCU 0.44 21.2 94.0 4.1 ok
12-02-2021 02:24:17 YCU 0.43 21.2 94.0 4.1 ok
12-02-2021 02:14:16 YCU 0.41 21.2 94.0 4.1 ok
12-02-2021 02:04:16 YCU 0.37 21.3 94.0 4.1 ok
12-02-2021 01:54:16 YCU 0.36 21.3 94.0 4.1 ok
12-02-2021 01:44:16 YCU 0.36 21.3 94.0 4.1 ok
12-02-2021 01:34:16 YCU 0.39 21.3 94.0 4.1 ok
12-02-2021 01:24:16 YCU 0.35 21.3 94.0 4.1 ok
12-02-2021 01:14:16 YCU 0.34 21.3 94.0 4.1 ok
12-02-2021 01:04:16 YCU 0.28 21.3 94.0 4.1 ok
12-02-2021 00:54:16 YCU 0.30 21.4 94.0 4.1 ok
12-02-2021 00:44:16 YCU 0.26 21.3 94.0 4.1 ok
12-02-2021 00:34:16 YCU 0.25 21.4 94.0 4.1 ok
12-02-2021 00:24:16 YCU 0.31 21.4 94.0 4.1 ok
12-02-2021 00:14:16 YCU 0.30 21.5 94.0 4.1 ok
12-02-2021 00:04:16 YCU 0.26 21.4 94.0 4.1 ok
11-02-2021 23:54:14 YCU 0.28 21.5 94.0 4.1 ok
11-02-2021 23:44:14 YCU 0.26 21.5 94.0 4.1 ok
11-02-2021 23:34:14 YCU 0.24 21.5 94.0 4.1 ok
11-02-2021 23:24:14 YCU 0.26 21.5 94.0 4.1 ok
11-02-2021 23:14:13 YCU 0.28 21.5 94.0 4.1 ok
11-02-2021 23:04:13 YCU 0.26 21.4 94.0 4.1 ok
11-02-2021 22:54:12 YCU 0.30 21.3 94.0 4.1 ok
11-02-2021 22:44:12 YCU 0.28 21.3 94.0 4.1 WF
11-02-2021 22:32:10 YCU 0.27 21.2 94.0 4.1 ok
11-02-2021 22:22:10 YCU 0.30 21.3 94.0 4.1 ok
11-02-2021 22:12:10 YCU 0.25 21.4 94.0 4.1 ok
11-02-2021 22:02:09 YCU 0.28 21.4 94.0 4.1 ok
11-02-2021 21:52:09 YCU 0.25 21.4 94.0 4.1 ok
11-02-2021 21:42:09 YCU 0.28 21.4 94.0 4.1 ok
11-02-2021 21:32:09 YCU 0.30 21.5 94.0 4.1 ok
11-02-2021 21:22:09 YCU 0.32 21.5 94.0 4.1 ok
11-02-2021 21:12:08 YCU 0.37 21.6 94.0 4.1 ok
11-02-2021 21:02:08 YCU 1.87 21.6 94.0 4.1 ok
11-02-2021 20:52:08 YCU 0.35 21.7 94.0 4.1 ok
11-02-2021 20:42:08 YCU 0.41 21.7 94.0 4.1 ok
11-02-2021 20:32:08 YCU 1.14 21.7 94.0 4.1 ok
11-02-2021 20:22:08 YCU 0.34 21.8 94.0 4.1 ok
11-02-2021 20:12:07 YCU 0.31 21.9 94.0 4.1 ok
11-02-2021 20:02:06 YCU 1.86 21.9 94.0 4.1 ok
11-02-2021 19:52:06 YCU 1.09 21.9 94.0 4.1 ok
11-02-2021 19:42:05 YCU 0.31 22.0 95.0 4.1 ok
11-02-2021 19:32:05 YCU 0.27 22.2 95.0 4.1 ok
11-02-2021 19:22:05 YCU 0.29 22.2 95.0 4.1 ok
11-02-2021 19:12:04 YCU 0.33 22.3 95.0 4.1 ok
11-02-2021 19:02:04 YCU 0.31 22.2 95.0 4.1 ok
11-02-2021 18:52:04 YCU 0.35 22.2 95.0 4.1 ok
11-02-2021 18:42:04 YCU 0.38 22.0 95.0 4.1 ok
11-02-2021 18:32:03 YCU 0.34 22.0 95.0 4.1 ok
11-02-2021 18:22:03 YCU 0.38 21.9 94.0 4.1 ok
11-02-2021 18:12:03 YCU 0.43 22.0 95.0 4.1 ok
11-02-2021 18:02:03 YCU 0.47 21.8 94.0 4.1 ok
11-02-2021 17:52:03 YCU 0.49 22.0 95.0 4.1 ok
11-02-2021 17:42:02 YCU 1.87 22.0 95.0 4.1 RL
30-01-2021 15:52:17 YCU 2.09 22.2 95.0 4.1 ok
30-01-2021 15:42:17 YCU 2.08 22.4 95.0 4.1 ok
30-01-2021 15:32:16 YCU 2.02 22.8 95.0 4.1 ok
30-01-2021 15:22:16 YCU 1.98 23.0 95.0 4.1 ok
30-01-2021 15:12:16 YCU 2.04 23.0 95.0 4.1 ok
30-01-2021 15:02:16 YCU 1.99 23.2 95.0 4.1 ok
30-01-2021 14:52:16 YCU 1.91 23.5 95.0 4.1 ok
30-01-2021 14:42:16 YCU 1.89 23.8 95.0 4.1 ok
30-01-2021 14:32:16 YCU 1.87 24.0 95.0 4.1 ok
30-01-2021 14:22:16 YCU 1.85 24.2 95.0 4.1 ok
30-01-2021 14:12:15 YCU 1.76 24.5 95.0 4.1 ok
30-01-2021 14:02:15 YCU 1.77 24.9 95.0 4.1 ok
30-01-2021 13:52:15 YCU 1.75 25.0 95.0 4.1 ok
30-01-2021 13:42:15 YCU 1.81 25.2 95.0 4.1 ok
30-01-2021 13:32:15 YCU 1.74 25.6 95.0 4.1 ok
30-01-2021 13:22:15 YCU 1.70 25.7 95.0 4.1 ok
30-01-2021 13:12:15 YCU 1.73 26.1 95.0 4.1 ok
30-01-2021 13:02:15 YCU 1.70 26.3 95.0 4.1 ok
30-01-2021 12:52:15 YCU 1.71 26.0 95.0 4.1 ok
30-01-2021 12:42:14 YCU 1.68 26.2 95.0 4.1 ok
30-01-2021 12:32:14 YCU 1.66 26.3 95.0 4.1 ok
30-01-2021 12:22:14 YCU 1.69 26.2 95.0 4.1 ok
30-01-2021 12:12:14 YCU 1.73 26.2 95.0 4.1 ok
30-01-2021 12:02:14 YCU 1.67 26.3 95.0 4.1 ok
30-01-2021 11:52:14 YCU 1.63 26.4 95.0 4.1 ok
30-01-2021 11:42:14 YCU 1.65 26.7 95.0 4.1 ok
30-01-2021 11:32:13 YCU 1.61 27.1 95.0 4.1 ok
30-01-2021 11:22:15 YCU 1.60 27.4 95.0 4.1 ok
30-01-2021 11:11:59 YCU 1.59 27.3 95.0 4.1 ok
30-01-2021 11:01:59 YCU 1.62 27.2 95.0 4.1 ok
30-01-2021 10:51:59 YCU 1.60 27.6 95.0 4.1 ok
30-01-2021 10:41:59 YCU 1.59 28.2 95.0 4.1 ok
30-01-2021 10:31:59 YCU 1.57 28.2 95.0 4.1 ok
30-01-2021 10:21:58 YCU 1.54 28.5 95.0 4.1 ok
30-01-2021 10:11:57 YCU 1.52 29.0 95.0 4.1 ok
30-01-2021 10:01:57 YCU 1.49 29.5 95.0 4.1 ok
30-01-2021 09:51:57 YCU 1.47 28.9 95.0 4.1 ok
30-01-2021 09:41:57 YCU 1.46 29.4 95.0 4.1 ok
30-01-2021 09:31:57 YCU 1.42 30.2 92.0 4.1 ok
30-01-2021 09:21:56 YCU 1.39 30.2 95.0 4.1 ok
30-01-2021 09:11:56 YCU 1.34 30.1 95.0 4.1 ok
30-01-2021 09:01:55 YCU 1.29 29.5 95.0 4.1 ok
30-01-2021 08:51:55 YCU 1.23 29.1 95.0 4.1 ok
30-01-2021 08:41:55 YCU 1.22 28.9 95.0 4.1 ok
30-01-2021 08:31:55 YCU 1.17 29.0 95.0 4.1 ok
30-01-2021 08:21:55 YCU 1.16 28.8 95.0 4.1 ok
30-01-2021 08:11:55 YCU 1.14 28.2 95.0 4.1 ok
30-01-2021 08:01:55 YCU 1.13 27.3 95.0 4.1 ok
30-01-2021 07:51:56 YCU 1.07 27.1 95.0 4.1 ok
30-01-2021 07:41:56 YCU 1.04 26.9 95.0 4.1 ok
30-01-2021 07:31:56 YCU 1.09 26.7 95.0 4.1 ok
30-01-2021 07:21:56 YCU 0.99 25.7 95.0 4.1 ok
30-01-2021 07:11:57 YCU 1.03 24.5 95.0 4.1 ok
30-01-2021 07:01:57 YCU 1.00 23.8 95.0 4.1 ok
30-01-2021 06:51:57 YCU 0.97 23.7 95.0 4.1 WF
30-01-2021 06:39:56 YCU 1.00 23.1 95.0 4.1 ok
30-01-2021 06:29:56 YCU 1.06 22.9 95.0 4.1 ok
30-01-2021 06:19:56 YCU 1.07 22.8 95.0 4.1 ok
30-01-2021 06:09:56 YCU 1.03 22.8 95.0 4.1 ok
30-01-2021 05:59:55 YCU 1.06 22.7 95.0 4.1 ok
30-01-2021 05:49:55 YCU 1.11 22.7 95.0 4.1 ok
30-01-2021 05:39:55 YCU 1.13 22.8 95.0 4.1 ok
30-01-2021 05:29:55 YCU 1.10 22.8 95.0 4.1 ok
30-01-2021 05:19:55 YCU 1.12 22.9 95.0 4.1 ok
30-01-2021 05:09:55 YCU 1.13 22.9 95.0 4.1 ok
30-01-2021 04:59:55 YCU 1.17 23.0 95.0 4.1 ok
30-01-2021 04:49:55 YCU 1.09 23.1 95.0 4.1 ok
30-01-2021 04:39:55 YCU 1.07 23.1 95.0 4.1 ok
30-01-2021 04:29:55 YCU 1.04 23.2 95.0 4.1 ok
30-01-2021 04:19:54 YCU 1.06 23.2 95.0 4.1 ok
30-01-2021 04:09:54 YCU 1.08 23.2 95.0 4.1 ok
30-01-2021 03:59:54 YCU 1.04 23.2 95.0 4.1 ok
30-01-2021 03:49:54 YCU 1.04 23.1 95.0 4.1 ok
30-01-2021 03:39:54 YCU 1.10 23.2 95.0 4.1 ok
30-01-2021 03:29:54 YCU 1.08 23.2 95.0 4.1 ok
30-01-2021 03:19:54 YCU 1.07 23.1 95.0 4.1 ok
30-01-2021 03:09:54 YCU 1.08 23.0 95.0 4.1 ok
30-01-2021 02:59:54 YCU 1.04 22.9 95.0 4.1 ok
30-01-2021 02:49:54 YCU 1.08 22.9 95.0 4.1 ok
30-01-2021 02:39:54 YCU 1.14 22.9 95.0 4.1 ok
30-01-2021 02:29:54 YCU 1.14 22.8 95.0 4.1 ok
30-01-2021 02:19:54 YCU 1.09 22.8 95.0 4.1 ok
30-01-2021 02:09:54 YCU 1.11 22.8 95.0 4.1 ok
30-01-2021 01:59:54 YCU 1.15 22.7 95.0 4.1 ok
30-01-2021 01:49:54 YCU 1.19 22.8 95.0 4.1 ok
30-01-2021 01:39:54 YCU 1.21 23.1 95.0 4.1 ok
30-01-2021 01:29:53 YCU 1.11 23.2 95.0 4.1 ok
30-01-2021 01:19:53 YCU 1.10 23.3 95.0 4.1 ok
30-01-2021 00:59:53 YCU 1.10 23.2 95.0 4.1 ok
30-01-2021 00:49:53 YCU 1.13 23.2 95.0 4.1 ok
30-01-2021 00:39:53 YCU 1.12 23.3 95.0 4.1 ok
30-01-2021 00:29:53 YCU 1.16 23.3 95.0 4.1 ok
30-01-2021 00:19:53 YCU 1.11 23.4 95.0 4.1 ok
30-01-2021 00:09:52 YCU 1.10 23.3 95.0 4.1 ok
29-01-2021 23:59:52 YCU 1.13 23.3 95.0 4.1 ok
29-01-2021 23:49:52 YCU 1.09 23.3 95.0 4.1 ok
29-01-2021 23:39:52 YCU 1.11 23.3 95.0 4.1 ok
29-01-2021 23:29:52 YCU 1.17 23.4 95.0 4.1 ok
29-01-2021 23:19:52 YCU 1.16 23.5 95.0 4.1 ok
29-01-2021 23:09:51 YCU 1.16 23.5 95.0 4.1 ok
29-01-2021 22:59:49 YCU 1.17 23.5 95.0 4.1 ok
29-01-2021 22:49:49 YCU 1.17 23.6 95.0 4.1 ok
29-01-2021 22:39:49 YCU 1.12 23.6 95.0 4.1 ok
29-01-2021 22:29:48 YCU 1.14 23.7 95.0 4.1 ok
29-01-2021 22:19:48 YCU 1.17 23.7 95.0 4.1 ok
29-01-2021 22:09:48 YCU 1.15 23.8 95.0 4.1 ok
29-01-2021 21:59:47 YCU 1.06 23.9 95.0 4.1 ok
29-01-2021 21:49:47 YCU 1.11 24.0 95.0 4.1 ok
29-01-2021 21:39:47 YCU 1.19 24.0 95.0 4.1 ok
29-01-2021 21:29:45 YCU 1.15 24.0 95.0 4.1 ok
29-01-2021 21:19:45 YCU 1.14 24.1 95.0 4.1 ok
29-01-2021 21:09:45 YCU 1.13 24.0 95.0 4.1 ok
29-01-2021 20:59:45 YCU 1.11 24.1 95.0 4.1 ok
29-01-2021 20:49:45 YCU 1.11 24.1 95.0 4.1 ok
29-01-2021 20:39:44 YCU 1.03 24.2 95.0 4.1 ok
29-01-2021 20:29:44 YCU 1.05 24.3 95.0 4.1 ok
29-01-2021 20:19:43 YCU 0.99 24.3 95.0 4.1 ok
29-01-2021 20:09:42 YCU 1.00 24.5 95.0 4.1 ok
29-01-2021 19:59:42 YCU 0.98 24.8 95.0 4.1 ok
29-01-2021 19:49:42 YCU 0.98 25.3 95.0 4.1 ok
29-01-2021 19:39:42 YCU 0.99 26.0 95.0 4.1 ok
29-01-2021 19:29:41 YCU 0.98 26.8 95.0 4.1 ok
29-01-2021 19:19:41 YCU 0.98 27.4 95.0 4.1 ok
29-01-2021 19:09:41 YCU 1.02 27.6 95.0 4.1 ok
29-01-2021 18:59:41 YCU 0.94 27.7 95.0 4.1 ok
29-01-2021 18:49:41 YCU 1.01 27.7 84.0 4.0 ON
29-01-2021 18:35:12 YCU 1.06 27.6 95.0 4.1 ok
29-01-2021 18:25:13 YCU 1.17 27.2 95.0 4.1 ok
29-01-2021 18:15:13 YCU 1.21 26.5 95.0 4.1 ok
29-01-2021 18:05:12 YCU 1.13 26.4 95.0 4.1 ok
29-01-2021 17:55:12 YCU 1.13 26.5 95.0 4.1 ok
29-01-2021 17:45:12 YCU 1.24 26.6 95.0 4.1 ok
29-01-2021 17:35:12 YCU 1.23 26.7 95.0 4.1 ok
29-01-2021 17:25:12 YCU 1.20 26.8 95.0 4.1 ok
29-01-2021 17:15:12 YCU 1.20 26.9 91.0 4.1 ok
29-01-2021 17:05:12 YCU 1.23 26.8 95.0 4.1 ok
29-01-2021 16:55:12 YCU 1.24 27.1 95.0 4.1 ok
29-01-2021 16:45:12 YCU 1.24 27.4 95.0 4.1 ok
29-01-2021 16:35:12 YCU 1.26 27.2 95.0 4.1 ok
29-01-2021 16:25:12 YCU 1.26 26.8 95.0 4.1 ok
29-01-2021 16:15:12 YCU 1.30 26.8 95.0 4.1 ok
29-01-2021 16:05:12 YCU 1.39 27.0 95.0 4.1 ok
29-01-2021 15:55:12 YCU 1.32 27.3 95.0 4.1 ok
29-01-2021 15:45:12 YCU 1.30 27.5 95.0 4.1 ok
29-01-2021 15:35:11 YCU 1.42 27.6 95.0 4.1 ok
29-01-2021 15:25:11 YCU 1.36 27.6 95.0 4.1 ok
29-01-2021 15:15:11 YCU 1.35 27.2 95.0 4.1 ok
29-01-2021 15:05:11 YCU 1.36 26.7 95.0 4.1 ok
29-01-2021 14:55:10 YCU 1.34 26.6 95.0 4.1 ok
29-01-2021 14:45:10 YCU 1.36 26.4 95.0 4.1 ok
29-01-2021 14:35:10 YCU 1.29 26.5 95.0 4.1 ok
29-01-2021 14:25:10 YCU 1.29 26.8 95.0 4.1 ok
29-01-2021 14:15:09 YCU 1.34 26.8 95.0 4.1 ok
29-01-2021 14:05:09 YCU 1.39 26.8 95.0 4.1 ok
29-01-2021 13:55:09 YCU 1.40 26.3 95.0 4.1 ok
29-01-2021 13:45:09 YCU 1.30 25.7 95.0 4.1 ok
29-01-2021 13:35:09 YCU 1.27 25.9 95.0 4.1 ok
29-01-2021 13:25:09 YCU 1.36 26.5 95.0 4.1 ok
29-01-2021 13:15:09 YCU 1.37 26.9 88.0 4.1 ok
29-01-2021 13:05:09 YCU 1.28 27.1 95.0 4.1 ok
29-01-2021 12:55:09 YCU 1.22 26.4 95.0 4.1 ok
29-01-2021 12:45:09 YCU 1.28 26.2 95.0 4.1 ok
29-01-2021 12:35:09 YCU 1.28 26.2 95.0 4.1 ok
29-01-2021 12:25:09 YCU 1.25 26.5 95.0 4.1 ok
29-01-2021 12:15:09 YCU 1.27 26.3 95.0 4.1 ok
29-01-2021 12:05:09 YCU 1.17 26.2 95.0 4.1 ok
29-01-2021 11:55:09 YCU 1.22 26.5 95.0 4.1 ok
29-01-2021 11:45:08 YCU 1.27 26.1 95.0 4.1 ok
29-01-2021 11:35:08 YCU 1.24 25.1 95.0 4.1 ok
29-01-2021 11:25:08 YCU 1.20 24.8 95.0 4.1 ok
29-01-2021 11:15:08 YCU 1.15 24.8 95.0 4.1 ok
29-01-2021 11:05:08 YCU 1.18 24.3 95.0 4.1 ok
29-01-2021 10:55:08 YCU 1.25 24.0 95.0 4.1 ok
29-01-2021 10:45:08 YCU 1.17 23.9 95.0 4.1 ok
29-01-2021 10:35:08 YCU 1.20 23.7 95.0 4.1 ok
29-01-2021 10:25:08 YCU 1.24 23.6 95.0 4.1 ok
29-01-2021 10:15:08 YCU 1.13 23.8 95.0 4.1 ok
29-01-2021 10:05:08 YCU 1.14 23.8 95.0 4.1 ok
29-01-2021 09:55:07 YCU 1.14 23.7 95.0 4.1 ok
29-01-2021 09:45:07 YCU 1.15 23.9 95.0 4.1 ok
29-01-2021 09:35:07 YCU 1.22 23.5 95.0 4.1 ok
29-01-2021 09:25:07 YCU 1.19 23.2 95.0 4.1 ok
29-01-2021 09:15:07 YCU 1.23 23.1 95.0 4.1 ok
29-01-2021 09:05:06 YCU 1.18 22.9 95.0 4.1 ok
29-01-2021 08:55:06 YCU 1.11 22.8 95.0 4.1 ok
29-01-2021 08:45:06 YCU 1.10 22.8 95.0 4.1 ok
29-01-2021 08:35:06 YCU 1.19 22.7 95.0 4.1 ok
29-01-2021 08:25:06 YCU 1.13 22.4 95.0 4.1 ok
29-01-2021 08:15:06 YCU 1.17 22.2 95.0 4.1 ok
29-01-2021 08:05:06 YCU 1.24 22.2 95.0 4.1 ok
29-01-2021 07:55:06 YCU 1.15 22.1 95.0 4.1 ok
29-01-2021 07:45:06 YCU 1.23 22.2 95.0 4.1 ok
29-01-2021 07:35:06 YCU 1.12 22.4 95.0 4.1 ok
29-01-2021 07:25:06 YCU 1.04 22.4 95.0 4.1 ok
29-01-2021 07:15:06 YCU 0.95 22.4 95.0 4.1 ok
29-01-2021 07:05:05 YCU 0.93 22.5 95.0 4.1 ok
29-01-2021 06:55:05 YCU 1.02 22.7 95.0 4.1 ok
29-01-2021 06:45:05 YCU 1.04 22.9 95.0 4.1 ok
29-01-2021 06:35:05 YCU 1.05 23.3 95.0 4.1 ok
29-01-2021 06:25:05 YCU 0.98 23.7 95.0 4.1 ok
29-01-2021 06:15:05 YCU 0.94 23.8 5.0 4.1 ok
29-01-2021 06:05:03 YCU 0.90 23.7 5.0 4.1 ok
29-01-2021 05:55:03 YCU 0.93 23.6 5.0 4.1 ok
29-01-2021 05:45:03 YCU 1.01 23.6 15.0 4.1 ok
29-01-2021 05:35:03 YCU 0.92 23.7 5.0 4.1 ok
29-01-2021 05:25:02 YCU 0.94 23.7 50.0 4.1 ok
29-01-2021 05:15:02 YCU 0.96 23.8 5.0 4.1 ok
29-01-2021 05:05:02 YCU 0.94 23.9 84.0 4.1 ok
29-01-2021 04:55:03 YCU 0.96 24.0 84.0 4.1 ok
29-01-2021 04:45:02 YCU 1.01 24.0 38.0 4.1 ok
29-01-2021 04:35:02 YCU 1.03 24.1 95.0 4.1 ok
29-01-2021 04:25:02 YCU 1.04 23.9 95.0 4.1 ok
29-01-2021 04:15:02 YCU 1.04 24.1 95.0 4.1 ok
29-01-2021 04:05:02 YCU 1.18 24.3 95.0 4.1 ok
29-01-2021 03:55:02 YCU 1.21 24.2 95.0 4.1 ok
29-01-2021 03:45:02 YCU 1.21 24.1 95.0 4.1 ok
29-01-2021 03:35:01 YCU 1.10 23.9 95.0 4.1 ok
29-01-2021 03:25:02 YCU 1.14 23.7 95.0 4.1 ok
29-01-2021 03:15:02 YCU 1.15 23.5 95.0 4.1 ok
29-01-2021 03:04:57 YCU 1.17 23.3 95.0 4.1 ok
29-01-2021 02:54:56 YCU 1.14 23.1 95.0 4.1 ok
29-01-2021 02:44:56 YCU 1.11 23.0 95.0 4.1 ok
29-01-2021 02:34:56 YCU 1.09 23.1 95.0 4.1 ok
29-01-2021 02:24:56 YCU 1.10 23.2 95.0 4.1 ok
29-01-2021 02:14:56 YCU 1.09 23.2 95.0 4.1 ok
29-01-2021 02:04:56 YCU 1.08 23.3 95.0 4.1 ok
29-01-2021 01:54:56 YCU 1.05 23.5 95.0 4.1 ok
29-01-2021 01:44:56 YCU 1.12 23.7 95.0 4.1 ok
29-01-2021 01:34:56 YCU 1.05 23.8 95.0 4.1 ok
29-01-2021 01:24:56 YCU 1.11 23.9 95.0 4.1 ok
29-01-2021 01:14:56 YCU 1.12 24.0 95.0 4.1 ok
29-01-2021 01:04:56 YCU 1.06 24.0 95.0 4.1 ok
29-01-2021 00:54:56 YCU 1.06 23.9 95.0 4.1 ok
29-01-2021 00:44:56 YCU 1.08 24.0 95.0 4.1 ok
29-01-2021 00:34:56 YCU 1.12 24.0 95.0 4.1 ok
29-01-2021 00:24:56 YCU 1.07 24.2 95.0 4.1 ok
29-01-2021 00:14:56 YCU 1.03 24.2 95.0 4.1 ok
29-01-2021 00:04:55 YCU 1.09 24.2 95.0 4.1 ok
28-01-2021 23:54:54 YCU 1.10 24.2 95.0 4.1 ok
28-01-2021 23:44:53 YCU 1.12 24.1 95.0 4.1 ok
28-01-2021 23:34:53 YCU 1.05 24.1 95.0 4.1 ok
28-01-2021 23:24:53 YCU 1.06 24.1 95.0 4.1 ok
28-01-2021 23:14:53 YCU 1.13 24.2 95.0 4.1 ok
28-01-2021 23:04:53 YCU 1.14 24.2 95.0 4.1 ok
28-01-2021 22:54:53 YCU 1.14 24.3 95.0 4.1 ok
28-01-2021 22:44:53 YCU 1.18 24.3 95.0 4.1 ok
28-01-2021 22:34:52 YCU 1.13 24.5 95.0 4.1 ok
28-01-2021 22:24:52 YCU 1.14 24.5 95.0 4.1 ok
28-01-2021 22:14:52 YCU 1.15 24.6 95.0 4.1 ok
28-01-2021 22:04:52 YCU 1.16 24.5 95.0 4.1 ok
28-01-2021 21:54:52 YCU 1.15 24.6 95.0 4.1 ok
28-01-2021 21:44:51 YCU 1.15 24.7 95.0 4.1 ok
28-01-2021 21:34:51 YCU 1.18 24.8 95.0 4.1 ok
28-01-2021 21:24:51 YCU 1.14 24.9 95.0 4.1 ok
28-01-2021 21:14:51 YCU 1.12 24.9 95.0 4.1 ok
28-01-2021 21:04:51 YCU 1.15 25.0 95.0 4.1 ok
28-01-2021 20:54:51 YCU 1.18 25.0 95.0 4.1 ok
28-01-2021 20:44:51 YCU 1.13 25.0 95.0 4.1 ok
28-01-2021 20:34:51 YCU 1.10 25.2 95.0 4.1 ok
28-01-2021 20:24:51 YCU 1.07 25.1 95.0 4.1 ok
28-01-2021 20:14:51 YCU 1.07 25.2 95.0 4.1 ok
28-01-2021 20:04:51 YCU 1.00 25.2 95.0 4.1 ok
28-01-2021 19:54:50 YCU 1.08 25.4 95.0 4.1 ok
28-01-2021 19:44:51 YCU 1.11 25.5 95.0 4.1 ok
28-01-2021 19:34:51 YCU 1.01 25.6 95.0 4.1 ok
28-01-2021 19:24:51 YCU 1.07 25.5 95.0 4.1 ok
28-01-2021 19:14:51 YCU 1.07 25.7 95.0 4.1 ok
28-01-2021 19:04:51 YCU 0.99 25.8 95.0 4.1 ok
28-01-2021 18:54:51 YCU 1.02 26.0 95.0 4.1 ok
28-01-2021 18:44:51 YCU 1.03 26.3 95.0 4.1 ok
28-01-2021 18:34:51 YCU 1.07 26.8 95.0 4.1 ok
28-01-2021 18:24:51 YCU 1.11 27.1 95.0 4.1 ok
28-01-2021 18:14:51 YCU 1.10 27.4 95.0 4.1 ok
28-01-2021 18:04:51 YCU 1.09 27.6 95.0 4.1 ok
28-01-2021 17:54:50 YCU 1.12 27.3 95.0 4.1 ok
28-01-2021 17:44:50 YCU 1.20 27.6 95.0 4.1 ok
28-01-2021 17:34:51 YCU 1.13 27.4 95.0 4.1 ok
28-01-2021 17:24:50 YCU 1.23 27.4 95.0 4.1 ok
28-01-2021 17:14:50 YCU 1.10 27.7 95.0 4.1 ok
28-01-2021 17:04:50 YCU 1.21 27.8 95.0 4.1 ok
28-01-2021 16:54:50 YCU 1.24 28.1 95.0 4.1 ok
28-01-2021 16:44:50 YCU 1.22 28.2 95.0 4.1 ok
28-01-2021 16:34:50 YCU 1.19 27.7 95.0 4.1 ok
28-01-2021 16:24:49 YCU 1.19 27.5 95.0 4.1 ok
28-01-2021 16:14:49 YCU 1.26 27.1 95.0 4.1 ok
28-01-2021 16:04:49 YCU 1.35 27.0 95.0 4.1 ok
28-01-2021 15:54:49 YCU 1.34 26.7 95.0 4.1 ok
28-01-2021 15:44:47 YCU 1.29 26.2 95.0 4.1 ok
28-01-2021 15:34:47 YCU 1.16 25.9 95.0 4.1 ok
28-01-2021 15:24:47 YCU 1.22 25.9 95.0 4.1 ok
28-01-2021 15:14:47 YCU 1.26 25.9 95.0 4.1 ok
28-01-2021 15:04:47 YCU 1.23 26.0 95.0 4.1 ok
28-01-2021 14:54:47 YCU 1.31 26.0 95.0 4.1 ok
28-01-2021 14:44:47 YCU 1.32 26.0 95.0 4.1 ok
28-01-2021 14:34:47 YCU 1.24 25.7 95.0 4.1 ok
28-01-2021 14:24:47 YCU 1.24 25.8 95.0 4.1 WF
28-01-2021 14:12:46 YCU 1.32 25.6 95.0 4.1 ok
28-01-2021 14:02:46 YCU 1.38 25.7 95.0 4.1 ok
28-01-2021 13:52:46 YCU 1.29 25.6 95.0 4.1 ok
28-01-2021 13:42:46 YCU 1.28 25.7 95.0 4.1 ok
28-01-2021 13:32:45 YCU 1.33 26.0 95.0 4.1 ok
28-01-2021 13:22:45 YCU 1.29 26.2 95.0 4.1 ok
28-01-2021 13:12:45 YCU 1.23 26.2 95.0 4.1 ok
28-01-2021 13:02:45 YCU 1.22 26.3 95.0 4.1 ok
28-01-2021 12:52:45 YCU 1.24 25.8 95.0 4.1 ok
28-01-2021 12:42:45 YCU 1.37 25.9 95.0 4.1 ok
28-01-2021 12:32:45 YCU 1.32 26.0 95.0 4.1 ok
28-01-2021 12:22:45 YCU 1.30 26.7 95.0 4.1 ok
28-01-2021 12:12:44 YCU 1.36 26.8 95.0 4.1 ok
28-01-2021 12:02:44 YCU 1.40 26.2 95.0 4.1 ok
28-01-2021 11:52:43 YCU 1.40 26.1 95.0 4.1 ok
28-01-2021 11:42:43 YCU 1.30 26.9 95.0 4.1 ok
28-01-2021 11:32:43 YCU 1.43 27.7 95.0 4.1 ok
28-01-2021 11:22:42 YCU 1.29 28.2 95.0 4.1 ok
28-01-2021 11:12:41 YCU 1.25 28.5 95.0 4.1 ok
28-01-2021 11:02:41 YCU 1.50 28.7 95.0 4.1 ok
28-01-2021 10:52:41 YCU 1.63 28.8 95.0 4.1 ok
28-01-2021 10:42:41 YCU 1.46 28.3 95.0 4.1 ok
28-01-2021 10:32:41 YCU 1.29 26.9 95.0 4.1 ok
28-01-2021 10:22:40 YCU 1.25 26.1 95.0 4.1 ok
28-01-2021 10:12:40 YCU 1.47 26.5 95.0 4.1 ok
28-01-2021 10:02:39 YCU 1.68 27.4 95.0 4.1 ok
28-01-2021 09:52:39 YCU 1.57 26.5 95.0 4.1 ok
28-01-2021 09:42:39 YCU 1.11 26.2 95.0 4.1 ok
28-01-2021 09:32:39 YCU 1.14 26.2 95.0 4.1 ok
28-01-2021 09:22:39 YCU 1.23 26.4 95.0 4.1 ok
28-01-2021 09:12:38 YCU 1.45 25.9 95.0 4.1 ok
28-01-2021 09:02:38 YCU 1.16 25.4 95.0 4.1 ok
28-01-2021 08:52:38 YCU 1.33 25.4 95.0 4.1 ok
28-01-2021 08:42:37 YCU 1.28 24.4 95.0 4.1 ok
28-01-2021 08:32:37 YCU 1.13 23.6 95.0 4.1 ok
28-01-2021 08:22:36 YCU 1.22 23.2 95.0 4.1 ok
28-01-2021 08:12:36 YCU 1.38 23.7 95.0 4.1 ok
28-01-2021 08:02:36 YCU 1.40 23.2 95.0 4.1 ok
28-01-2021 07:52:36 YCU 1.32 22.5 95.0 4.1 ok
28-01-2021 07:42:36 YCU 1.29 21.8 94.0 4.1 ok
28-01-2021 07:32:36 YCU 1.34 21.3 94.0 4.1 ok
28-01-2021 07:22:35 YCU 1.25 21.2 94.0 4.1 ok
28-01-2021 07:12:35 YCU 1.11 20.8 93.0 4.1 ok
28-01-2021 07:02:35 YCU 1.11 20.2 93.0 4.1 ok
28-01-2021 06:52:35 YCU 1.05 19.8 93.0 4.1 ok
28-01-2021 06:42:35 YCU 1.14 19.7 93.0 4.1 ok
28-01-2021 06:32:35 YCU 1.11 19.8 93.0 4.1 ok
28-01-2021 06:22:35 YCU 1.18 19.7 93.0 4.1 ok
28-01-2021 06:12:34 YCU 1.11 19.6 93.0 4.1 ok
28-01-2021 06:02:34 YCU 0.92 19.5 93.0 4.1 ok
28-01-2021 05:52:34 YCU 0.96 19.4 93.0 4.1 ok
28-01-2021 05:42:34 YCU 1.06 19.4 93.0 4.1 ok
28-01-2021 05:32:34 YCU 1.07 19.4 93.0 4.1 ok
28-01-2021 05:22:34 YCU 1.06 19.4 93.0 4.1 ok
28-01-2021 05:12:34 YCU 1.02 19.5 93.0 4.1 ok
28-01-2021 05:02:33 YCU 1.07 19.7 93.0 4.1 ok
28-01-2021 04:52:32 YCU 1.05 19.7 93.0 4.1 ok
28-01-2021 04:42:32 YCU 1.05 19.9 93.0 4.1 ok
28-01-2021 04:32:32 YCU 1.13 20.0 93.0 4.1 ok
28-01-2021 04:22:32 YCU 1.18 20.2 93.0 4.1 ok
28-01-2021 04:12:32 YCU 1.12 20.2 93.0 4.1 ok
28-01-2021 04:02:31 YCU 1.18 20.5 93.0 4.1 ok
28-01-2021 03:52:32 YCU 1.21 20.7 93.0 4.1 ok
28-01-2021 03:42:31 YCU 1.19 20.8 93.0 4.1 ok
28-01-2021 03:32:31 YCU 1.18 21.0 94.0 4.1 ok
28-01-2021 03:22:31 YCU 1.25 21.1 94.0 4.1 ok
28-01-2021 03:12:31 YCU 1.25 21.2 94.0 4.1 ok
28-01-2021 03:02:31 YCU 1.31 21.3 94.0 4.1 ok
28-01-2021 02:52:31 YCU 1.24 21.5 94.0 4.1 ok
28-01-2021 02:42:31 YCU 1.28 21.6 94.0 4.1 ok
28-01-2021 02:32:31 YCU 1.26 21.8 94.0 4.1 ok
28-01-2021 02:22:31 YCU 1.27 21.8 94.0 4.1 ok
28-01-2021 02:12:31 YCU 1.35 21.9 94.0 4.1 ok
28-01-2021 02:02:31 YCU 1.34 21.9 94.0 4.1 ok
28-01-2021 01:52:30 YCU 1.28 21.9 94.0 4.1 ok
28-01-2021 01:42:30 YCU 1.32 21.9 94.0 4.1 ok
28-01-2021 01:32:30 YCU 1.29 21.9 94.0 4.1 ok
28-01-2021 01:22:30 YCU 1.31 21.9 94.0 4.1 ok
28-01-2021 01:12:29 YCU 1.34 21.9 94.0 4.1 ok
28-01-2021 01:02:29 YCU 1.35 21.8 94.0 4.1 ok
28-01-2021 00:52:29 YCU 1.44 21.9 94.0 4.1 ok
28-01-2021 00:42:29 YCU 1.45 21.9 94.0 4.1 ok
28-01-2021 00:32:29 YCU 1.43 22.0 95.0 4.1 ok
28-01-2021 00:22:29 YCU 1.39 22.0 95.0 4.1 ok
28-01-2021 00:12:29 YCU 1.44 22.1 95.0 4.1 ok
28-01-2021 00:02:28 YCU 1.45 22.1 95.0 4.1 ok
27-01-2021 23:52:28 YCU 1.44 22.2 95.0 4.1 ok
27-01-2021 23:42:28 YCU 1.48 22.2 95.0 4.1 ok
27-01-2021 23:32:28 YCU 1.45 22.2 95.0 4.1 ok
27-01-2021 23:22:27 YCU 1.47 22.2 95.0 4.1 ok
27-01-2021 23:12:27 YCU 1.48 22.3 95.0 4.1 ok
27-01-2021 23:02:27 YCU 1.50 22.3 95.0 4.1 ok
27-01-2021 22:52:27 YCU 1.45 22.4 95.0 4.1 ok
27-01-2021 22:42:27 YCU 1.44 22.3 95.0 4.1 ok
27-01-2021 22:32:27 YCU 1.44 22.4 95.0 4.1 ok
27-01-2021 22:22:27 YCU 1.46 22.4 95.0 4.1 ok
27-01-2021 22:12:26 YCU 1.50 22.4 95.0 4.1 ok
27-01-2021 22:02:26 YCU 1.51 22.5 95.0 4.1 ok
27-01-2021 21:52:26 YCU 1.51 22.4 95.0 4.1 ok
27-01-2021 21:42:26 YCU 1.50 22.5 95.0 4.1 ok
27-01-2021 21:22:26 YCU 1.48 22.7 95.0 4.1 ok
27-01-2021 21:12:26 YCU 1.47 22.7 95.0 4.1 ok
27-01-2021 21:02:26 YCU 1.45 22.8 95.0 4.1 ok
27-01-2021 20:52:26 YCU 1.48 22.8 95.0 4.1 ok
27-01-2021 20:42:26 YCU 1.51 22.8 95.0 4.1 ok
27-01-2021 20:32:26 YCU 1.50 22.8 95.0 4.1 ok
27-01-2021 20:22:26 YCU 1.46 23.0 95.0 4.1 ok
27-01-2021 20:12:25 YCU 1.49 23.1 95.0 4.1 ok
27-01-2021 20:02:25 YCU 1.49 23.2 95.0 4.1 ok
27-01-2021 19:52:25 YCU 1.49 23.4 95.0 4.1 ok
27-01-2021 19:42:25 YCU 1.44 23.7 95.0 4.1 ok
27-01-2021 19:32:23 YCU 1.45 24.2 95.0 4.1 ok
27-01-2021 19:22:24 YCU 1.46 24.3 95.0 4.1 WF
27-01-2021 19:10:24 YCU 1.46 24.9 95.0 4.1 ok
27-01-2021 19:00:23 YCU 1.46 25.3 95.0 4.1 ok
27-01-2021 18:50:23 YCU 1.46 25.4 95.0 4.1 ok
27-01-2021 18:40:23 YCU 1.39 25.5 95.0 4.1 ok
27-01-2021 18:30:23 YCU 1.44 25.5 82.0 4.1 ok
27-01-2021 18:20:23 YCU 1.42 25.3 95.0 4.1 ok
27-01-2021 18:10:22 YCU 1.41 25.0 95.0 4.1 ok
27-01-2021 18:00:22 YCU 1.44 25.3 95.0 4.1 ok
27-01-2021 17:50:22 YCU 1.47 25.4 95.0 4.1 ok
27-01-2021 17:40:22 YCU 1.48 25.6 95.0 4.1 ok
27-01-2021 17:30:21 YCU 1.48 25.7 95.0 4.1 ok
27-01-2021 17:20:21 YCU 1.46 25.7 95.0 4.1 ok
27-01-2021 17:10:21 YCU 1.44 25.6 95.0 4.1 ok
27-01-2021 17:00:21 YCU 1.53 25.7 95.0 4.1 ok
27-01-2021 16:50:21 YCU 1.53 25.6 95.0 4.1 ok
27-01-2021 16:40:20 YCU 1.53 25.6 95.0 4.1 ok
27-01-2021 16:30:20 YCU 1.51 25.7 95.0 4.1 ok
27-01-2021 16:20:20 YCU 1.54 25.7 95.0 4.1 ok
27-01-2021 16:10:20 YCU 1.59 25.9 95.0 4.1 ok
27-01-2021 16:00:20 YCU 1.58 26.0 95.0 4.1 ok
27-01-2021 15:50:20 YCU 1.58 26.1 95.0 4.1 ok
27-01-2021 15:40:20 YCU 1.56 26.2 95.0 4.1 ok
27-01-2021 15:30:20 YCU 1.58 26.3 95.0 4.1 ok
27-01-2021 15:20:19 YCU 1.59 26.3 95.0 4.1 ok
27-01-2021 15:10:19 YCU 1.62 26.4 95.0 4.1 ok
27-01-2021 15:00:20 YCU 1.61 26.6 95.0 4.1 ok
27-01-2021 14:50:20 YCU 1.54 26.7 95.0 4.1 WF
27-01-2021 14:38:21 YCU 1.64 26.9 95.0 4.1 ok
27-01-2021 14:28:20 YCU 1.64 26.9 95.0 4.1 ok
27-01-2021 14:18:20 YCU 1.59 26.9 95.0 4.1 ok
27-01-2021 14:08:20 YCU 1.59 27.0 95.0 4.1 ok
27-01-2021 13:58:20 YCU 1.62 27.3 95.0 4.1 ok
27-01-2021 13:48:20 YCU 1.65 27.5 95.0 4.1 ok
27-01-2021 13:38:19 YCU 1.60 28.3 95.0 4.1 ok
27-01-2021 13:28:19 YCU 1.60 28.7 95.0 4.1 ok
27-01-2021 13:18:18 YCU 1.64 28.7 95.0 4.1 ok
27-01-2021 13:08:18 YCU 1.63 28.8 95.0 4.1 ok
27-01-2021 12:58:18 YCU 1.64 29.0 95.0 4.1 ok
27-01-2021 12:48:18 YCU 1.60 29.0 95.0 4.1 ok
27-01-2021 12:38:18 YCU 1.55 29.3 95.0 4.1 ok
27-01-2021 12:28:17 YCU 1.52 29.3 95.0 4.1 ok
27-01-2021 12:18:17 YCU 1.59 29.7 95.0 4.1 ok
27-01-2021 12:08:17 YCU 1.60 29.9 95.0 4.1 ok
27-01-2021 11:58:17 YCU 1.59 30.2 95.0 4.1 ok
27-01-2021 11:48:16 YCU 1.57 30.6 95.0 4.2 ok
27-01-2021 11:38:16 YCU 1.53 30.7 95.0 4.2 ok
27-01-2021 11:28:16 YCU 1.51 30.5 95.0 4.2 ok
27-01-2021 11:18:14 YCU 1.48 30.4 95.0 3.9 ok
27-01-2021 11:08:14 YCU 1.47 30.4 95.0 3.9 ok
27-01-2021 10:58:14 YCU 1.51 30.2 95.0 4.0 ok
27-01-2021 10:48:10 YCU 1.49 30.0 95.0 4.1 ok
27-01-2021 10:38:10 YCU 1.40 29.5 95.0 4.1 ok
27-01-2021 10:28:10 YCU 1.42 29.1 95.0 4.1 ok
27-01-2021 10:18:10 YCU 1.42 29.2 95.0 4.1 ok
27-01-2021 10:08:10 YCU 1.41 28.9 95.0 4.1 ok
27-01-2021 09:58:10 YCU 1.36 28.4 95.0 4.1 ok
27-01-2021 09:48:10 YCU 1.41 27.7 95.0 4.1 ok
27-01-2021 09:38:10 YCU 1.50 27.3 95.0 4.1 ok
27-01-2021 09:28:10 YCU 1.54 26.7 95.0 4.1 ok
27-01-2021 09:18:10 YCU 1.53 26.3 95.0 4.1 ok
27-01-2021 09:08:09 YCU 1.51 26.2 95.0 4.1 ok
27-01-2021 08:58:09 YCU 1.60 26.2 95.0 4.1 ok
27-01-2021 08:48:09 YCU 1.43 26.3 95.0 4.1 ok
27-01-2021 08:38:09 YCU 1.49 26.0 95.0 4.1 ok
27-01-2021 08:28:09 YCU 1.51 25.9 95.0 4.1 ok
27-01-2021 08:18:09 YCU 1.36 25.7 95.0 4.1 ok
27-01-2021 08:08:09 YCU 1.34 25.6 95.0 4.1 ok
27-01-2021 07:58:08 YCU 1.35 25.4 95.0 4.1 ok
27-01-2021 07:48:08 YCU 1.29 25.3 95.0 4.1 ok
27-01-2021 07:38:08 YCU 1.26 25.2 95.0 4.1 ok
27-01-2021 07:28:08 YCU 1.33 25.0 95.0 4.1 ok
27-01-2021 07:18:08 YCU 1.30 24.9 95.0 4.1 ok
27-01-2021 07:08:08 YCU 1.30 24.8 95.0 4.1 ok
27-01-2021 06:58:07 YCU 1.35 24.8 95.0 4.1 ok
27-01-2021 06:48:07 YCU 1.36 24.8 95.0 4.1 ok
27-01-2021 06:38:07 YCU 1.34 24.8 95.0 4.1 ok
27-01-2021 06:28:01 YCU 1.23 24.7 95.0 4.1 ok
27-01-2021 06:18:01 YCU 1.25 24.6 95.0 4.1 ok
27-01-2021 06:08:01 YCU 1.26 24.5 95.0 4.1 ok
27-01-2021 05:58:01 YCU 1.29 24.4 95.0 4.1 ok
27-01-2021 05:48:01 YCU 1.22 24.5 95.0 4.1 ok
27-01-2021 05:38:01 YCU 1.26 24.4 95.0 4.1 ok
27-01-2021 05:28:01 YCU 1.24 24.4 95.0 4.1 ok
27-01-2021 05:18:01 YCU 1.23 24.3 95.0 4.1 ok
27-01-2021 05:08:01 YCU 1.25 24.4 95.0 4.1 ok
27-01-2021 04:58:01 YCU 1.18 24.4 95.0 4.1 ok
27-01-2021 04:48:01 YCU 1.15 24.5 95.0 4.1 ok
27-01-2021 04:38:01 YCU 1.16 24.5 95.0 4.1 ok
27-01-2021 04:28:01 YCU 1.17 24.6 95.0 4.1 ok
27-01-2021 04:18:01 YCU 1.18 24.6 95.0 4.1 ok
27-01-2021 04:08:00 YCU 1.18 24.7 95.0 4.1 ok
27-01-2021 03:58:00 YCU 1.12 24.7 95.0 4.1 ok
27-01-2021 03:48:00 YCU 1.14 24.7 95.0 4.1 ok
27-01-2021 03:38:01 YCU 1.11 24.8 95.0 4.1 ok
27-01-2021 03:28:01 YCU 1.11 24.8 95.0 4.1 ok
27-01-2021 03:18:01 YCU 1.14 24.9 95.0 4.1 ok
27-01-2021 03:08:01 YCU 1.22 24.9 95.0 4.1 ok
27-01-2021 02:58:02 YCU 1.27 24.9 95.0 4.1 ok
27-01-2021 02:48:02 YCU 1.24 24.9 95.0 4.1 WF
27-01-2021 02:36:07 YCU 1.23 24.9 95.0 4.1 WF
27-01-2021 02:24:06 YCU 1.29 24.7 95.0 4.1 ok
27-01-2021 02:14:05 YCU 1.24 24.8 95.0 4.1 ok
27-01-2021 02:04:05 YCU 1.27 24.8 95.0 4.1 ok
27-01-2021 01:54:03 YCU 1.27 24.8 95.0 4.1 WF
27-01-2021 01:42:04 YCU 1.16 24.9 95.0 4.1 ok
27-01-2021 01:32:04 YCU 1.19 24.8 95.0 4.1 ok
27-01-2021 01:21:57 YCU 1.19 24.8 95.0 4.1 ok
27-01-2021 01:11:57 YCU 1.19 24.9 95.0 4.1 ok
27-01-2021 01:01:58 YCU 1.27 24.9 95.0 4.1 ok
27-01-2021 00:51:58 YCU 1.20 24.9 95.0 4.1 ok
27-01-2021 00:41:58 YCU 1.22 24.9 95.0 4.1 ok
27-01-2021 00:31:59 YCU 1.21 24.8 95.0 4.1 ok
27-01-2021 00:21:59 YCU 1.14 24.9 95.0 4.1 ok
27-01-2021 00:11:59 YCU 1.21 25.0 95.0 4.1 ok
27-01-2021 00:01:59 YCU 1.15 25.0 95.0 4.1 ok
26-01-2021 23:51:59 YCU 1.23 25.2 95.0 4.1 ok
26-01-2021 23:42:00 YCU 1.17 25.3 95.0 4.1 ok
26-01-2021 23:32:00 YCU 1.13 25.2 95.0 4.1 ok
26-01-2021 23:22:00 YCU 1.30 25.2 95.0 4.1 WF
26-01-2021 23:09:30 YCU 1.26 25.2 95.0 4.1 ok
26-01-2021 22:59:30 YCU 1.25 25.3 95.0 4.1 ok
26-01-2021 22:49:30 YCU 1.15 25.3 95.0 4.1 ok
26-01-2021 22:39:30 YCU 1.10 25.4 95.0 4.1 ok
26-01-2021 22:29:30 YCU 1.26 25.4 95.0 4.1 ok
26-01-2021 22:19:30 YCU 1.25 25.4 95.0 4.1 ok
26-01-2021 22:09:30 YCU 1.26 25.5 95.0 4.1 ok
26-01-2021 21:59:30 YCU 1.27 25.5 95.0 4.1 ok
26-01-2021 21:49:29 YCU 1.29 25.6 95.0 4.1 ok
26-01-2021 21:39:29 YCU 1.29 25.7 95.0 4.1 ok
26-01-2021 21:29:29 YCU 1.23 25.6 95.0 4.1 ok
26-01-2021 21:19:29 YCU 1.22 25.5 95.0 4.1 ok
26-01-2021 21:09:29 YCU 1.34 25.6 95.0 4.1 ok
26-01-2021 20:59:29 YCU 1.23 25.7 95.0 4.1 ok
26-01-2021 20:49:29 YCU 1.17 25.9 95.0 4.1 ok
26-01-2021 20:39:29 YCU 1.16 25.9 95.0 4.1 ok
26-01-2021 20:29:29 YCU 1.26 26.0 95.0 4.1 ok
26-01-2021 20:19:29 YCU 1.19 26.0 95.0 4.1 ok
26-01-2021 20:09:29 YCU 1.13 26.1 95.0 4.1 ok
26-01-2021 19:59:29 YCU 1.12 26.2 95.0 4.1 ok
26-01-2021 19:49:28 YCU 1.27 26.3 95.0 4.1 ok
26-01-2021 19:39:27 YCU 1.36 26.4 95.0 4.1 ok
26-01-2021 19:29:27 YCU 1.39 26.7 95.0 4.1 ok
26-01-2021 19:19:27 YCU 1.35 26.7 95.0 4.1 ok
26-01-2021 19:09:25 YCU 1.25 26.7 95.0 4.1 ok
26-01-2021 18:59:25 YCU 1.33 26.8 95.0 4.1 ok
26-01-2021 18:49:25 YCU 1.40 26.9 95.0 4.1 ok
26-01-2021 18:39:25 YCU 1.24 27.3 95.0 4.1 ok
26-01-2021 18:29:25 YCU 1.17 27.4 95.0 4.1 ok
26-01-2021 18:19:24 YCU 1.20 27.5 95.0 4.1 ok
26-01-2021 18:09:23 YCU 1.16 27.6 95.0 4.1 ok
26-01-2021 17:59:22 YCU 1.18 27.6 95.0 4.1 ok
26-01-2021 17:49:21 YCU 1.19 27.5 95.0 4.1 ok
26-01-2021 17:39:21 YCU 1.12 27.4 95.0 4.1 ok
26-01-2021 17:29:21 YCU 1.12 27.3 95.0 4.1 WF
26-01-2021 17:17:21 YCU 1.09 27.4 95.0 4.1 ok
26-01-2021 17:07:21 YCU 1.12 27.3 95.0 4.1 ok
26-01-2021 16:57:21 YCU 1.17 27.2 95.0 4.1 ok
26-01-2021 16:47:21 YCU 1.14 27.4 95.0 4.1 ok
26-01-2021 16:37:21 YCU 1.13 27.7 95.0 4.1 ok
26-01-2021 16:27:21 YCU 1.12 28.2 95.0 4.1 ok
26-01-2021 16:17:21 YCU 1.09 28.4 95.0 4.1 ok
26-01-2021 16:07:20 YCU 1.12 28.7 95.0 4.1 ok
26-01-2021 15:57:19 YCU 1.10 29.0 95.0 4.1 ok
26-01-2021 15:47:19 YCU 1.12 29.2 95.0 4.1 ok
26-01-2021 15:37:19 YCU 1.16 29.4 95.0 4.1 ok
26-01-2021 15:27:19 YCU 1.18 29.3 95.0 4.1 ok
26-01-2021 15:17:19 YCU 1.19 29.2 95.0 4.1 ok
26-01-2021 15:07:18 YCU 1.10 29.4 95.0 4.1 ok
26-01-2021 14:57:18 YCU 1.20 29.2 95.0 4.1 ok
26-01-2021 14:47:16 YCU 1.22 29.4 95.0 4.1 ok
26-01-2021 14:37:15 YCU 1.26 29.7 95.0 4.1 ok
26-01-2021 14:27:15 YCU 1.27 29.5 95.0 4.1 ok
26-01-2021 14:17:15 YCU 1.32 29.9 95.0 4.1 ok
26-01-2021 14:07:14 YCU 1.21 30.2 95.0 4.1 ok
26-01-2021 13:57:14 YCU 1.24 30.4 95.0 4.1 ok
26-01-2021 13:47:14 YCU 1.28 30.7 95.0 4.1 ok
26-01-2021 13:37:14 YCU 1.35 31.3 95.0 4.1 ok
26-01-2021 13:27:14 YCU 1.33 31.4 95.0 4.1 ok
26-01-2021 13:17:13 YCU 1.36 31.4 95.0 4.1 ok
26-01-2021 13:07:14 YCU 1.41 31.4 95.0 4.1 WF
26-01-2021 12:55:13 YCU 1.34 32.4 95.0 4.1 WF
26-01-2021 12:42:39 YCU 1.32 32.7 95.0 4.1 ok
26-01-2021 12:32:39 YCU 1.31 32.9 95.0 4.1 ok
26-01-2021 12:22:39 YCU 1.30 32.6 95.0 4.1 ok
26-01-2021 12:12:39 YCU 1.42 32.7 95.0 4.1 ok
26-01-2021 12:02:39 YCU 1.43 32.4 95.0 4.1 ok
26-01-2021 11:52:38 YCU 1.33 32.6 95.0 4.1 ok
26-01-2021 11:42:38 YCU 1.33 33.3 95.0 4.1 ok
26-01-2021 11:32:38 YCU 1.34 32.8 95.0 4.1 ok
26-01-2021 11:22:38 YCU 1.47 33.0 95.0 4.1 ok
26-01-2021 11:12:38 YCU 1.36 33.6 87.0 4.1 ok
26-01-2021 11:02:38 YCU 1.39 33.8 95.0 4.1 ok
26-01-2021 10:52:38 YCU 1.34 33.4 95.0 4.1 ok
26-01-2021 10:42:38 YCU 1.24 32.8 95.0 4.1 ok
26-01-2021 10:32:38 YCU 1.22 32.3 95.0 4.1 ok
26-01-2021 10:22:37 YCU 1.34 32.7 95.0 4.1 ok
26-01-2021 10:12:37 YCU 1.21 32.6 95.0 4.1 ok
26-01-2021 10:02:37 YCU 1.31 31.9 95.0 4.1 ok
26-01-2021 09:52:37 YCU 1.26 31.4 95.0 4.1 ok
26-01-2021 09:42:37 YCU 1.19 30.9 86.0 4.1 ok
26-01-2021 09:32:37 YCU 1.19 30.5 95.0 4.1 ok
26-01-2021 09:22:37 YCU 1.20 29.9 95.0 4.1 ok
26-01-2021 09:12:37 YCU 1.14 29.2 95.0 4.1 ok
26-01-2021 09:02:37 YCU 1.13 28.8 95.0 4.1 ok
26-01-2021 08:52:36 YCU 1.10 28.6 95.0 4.1 ok
26-01-2021 08:42:36 YCU 1.18 28.1 95.0 4.1 ok
26-01-2021 08:32:36 YCU 1.16 27.8 95.0 4.1 ok
26-01-2021 08:22:36 YCU 1.08 27.4 95.0 4.1 ok
26-01-2021 08:12:36 YCU 1.14 27.0 95.0 4.1 ok
26-01-2021 08:02:36 YCU 1.02 27.0 95.0 4.1 ok
26-01-2021 07:52:36 YCU 1.07 26.6 95.0 4.1 ok
26-01-2021 07:42:36 YCU 1.11 26.3 95.0 4.1 ok
26-01-2021 07:32:35 YCU 1.13 25.7 95.0 4.1 ok
26-01-2021 07:22:35 YCU 1.04 25.2 95.0 4.1 ok
26-01-2021 07:12:35 YCU 1.03 24.8 95.0 4.1 ok
26-01-2021 07:02:35 YCU 0.94 24.3 95.0 4.1 ok
26-01-2021 06:52:34 YCU 0.96 24.0 95.0 4.1 ok
26-01-2021 06:42:34 YCU 0.98 23.8 95.0 4.1 ok
26-01-2021 06:32:34 YCU 0.96 23.7 95.0 4.1 ok
26-01-2021 06:22:34 YCU 0.98 23.7 95.0 4.1 ok
26-01-2021 06:12:34 YCU 0.96 23.7 95.0 4.1 ok
26-01-2021 06:02:34 YCU 0.97 23.8 95.0 4.1 ok
26-01-2021 05:52:34 YCU 0.92 23.9 95.0 4.1 ok
26-01-2021 05:42:34 YCU 0.96 24.0 95.0 4.1 ok
26-01-2021 05:32:34 YCU 0.90 24.0 95.0 4.1 ok
26-01-2021 05:22:34 YCU 0.99 24.1 95.0 4.1 ok
26-01-2021 05:12:33 YCU 0.92 24.2 95.0 4.1 ok
26-01-2021 05:02:33 YCU 0.89 24.2 95.0 4.1 ok
26-01-2021 04:52:33 YCU 0.85 24.3 95.0 4.1 ok
26-01-2021 04:42:33 YCU 0.92 24.3 95.0 4.1 ok
26-01-2021 04:32:33 YCU 0.94 24.3 95.0 4.1 ok
26-01-2021 04:22:33 YCU 0.86 24.4 95.0 4.1 ok
26-01-2021 04:12:33 YCU 0.84 24.5 95.0 4.1 ok
26-01-2021 04:02:33 YCU 0.80 24.6 95.0 4.1 ok
26-01-2021 03:52:33 YCU 0.91 24.7 95.0 4.1 ok
26-01-2021 03:42:32 YCU 0.82 24.8 95.0 4.1 ok
26-01-2021 03:32:32 YCU 0.92 24.8 95.0 4.1 ok
26-01-2021 03:22:31 YCU 0.81 24.9 95.0 4.1 ok
26-01-2021 03:12:31 YCU 0.89 24.9 95.0 4.1 ok
26-01-2021 03:02:31 YCU 0.85 24.9 95.0 4.0 ON
26-01-2021 02:48:01 YCU 0.88 24.9 95.0 4.1 ok
26-01-2021 02:38:01 YCU 0.87 25.0 95.0 4.1 ok
26-01-2021 02:28:01 YCU 0.87 25.0 95.0 4.1 ok
26-01-2021 02:18:01 YCU 0.90 25.2 95.0 4.1 ok
26-01-2021 02:08:01 YCU 0.85 25.2 95.0 4.1 ok
26-01-2021 01:58:01 YCU 0.86 25.3 95.0 4.1 ok
26-01-2021 01:48:01 YCU 0.91 25.3 95.0 4.1 ok
26-01-2021 01:38:01 YCU 0.88 25.3 95.0 4.1 ok
26-01-2021 01:28:01 YCU 0.92 25.6 95.0 4.1 ok
26-01-2021 01:18:01 YCU 0.90 25.6 95.0 4.1 ok
26-01-2021 01:08:01 YCU 0.84 25.6 95.0 4.1 ok
26-01-2021 00:58:01 YCU 0.87 25.7 95.0 4.1 ok
26-01-2021 00:48:01 YCU 0.83 25.8 95.0 4.1 ok
26-01-2021 00:38:01 YCU 0.88 25.9 95.0 4.1 ok
26-01-2021 00:28:01 YCU 0.86 26.0 95.0 4.1 ok
26-01-2021 00:18:01 YCU 0.82 26.0 95.0 4.1 ok
26-01-2021 00:08:01 YCU 0.82 25.9 95.0 4.1 ok
25-01-2021 23:58:01 YCU 0.80 26.0 95.0 4.1 ok
25-01-2021 23:48:00 YCU 0.81 25.9 95.0 4.1 ok
25-01-2021 23:38:00 YCU 0.73 26.2 95.0 4.1 ok
25-01-2021 23:28:00 YCU 0.75 26.4 95.0 4.1 ok
25-01-2021 23:18:00 YCU 0.72 26.5 95.0 4.1 ok
25-01-2021 23:08:00 YCU 0.79 26.5 95.0 4.1 ok
25-01-2021 22:57:59 YCU 0.71 26.4 95.0 4.1 ok
25-01-2021 22:48:00 YCU 0.72 26.4 95.0 4.1 ok
25-01-2021 22:38:00 YCU 0.69 26.5 95.0 4.1 ok
25-01-2021 22:27:59 YCU 0.67 26.5 95.0 4.1 ok
25-01-2021 22:17:59 YCU 0.73 26.4 95.0 4.1 ok
25-01-2021 22:07:58 YCU 0.71 26.4 95.0 4.1 ok
25-01-2021 21:57:58 YCU 0.65 26.4 95.0 4.1 ok
25-01-2021 21:47:58 YCU 0.67 26.4 95.0 4.1 ok
25-01-2021 21:37:58 YCU 0.61 26.5 95.0 4.1 ok
25-01-2021 21:27:58 YCU 0.66 26.7 95.0 4.1 ok
25-01-2021 21:17:58 YCU 0.59 26.7 95.0 4.1 ok
25-01-2021 21:07:57 YCU 0.65 26.7 95.0 4.1 ok
25-01-2021 20:57:57 YCU 0.57 26.8 95.0 4.1 ok
25-01-2021 20:47:57 YCU 0.56 26.7 95.0 4.1 ok
25-01-2021 20:37:55 YCU 0.61 26.6 95.0 4.1 ok
25-01-2021 20:27:55 YCU 0.61 26.4 95.0 4.1 ok
25-01-2021 20:17:55 YCU 0.64 26.4 95.0 4.1 ok
25-01-2021 20:07:55 YCU 0.68 26.3 95.0 4.1 ok
25-01-2021 19:57:55 YCU 0.67 26.2 95.0 4.1 ok
25-01-2021 19:47:55 YCU 0.67 26.2 95.0 4.1 ok
25-01-2021 19:37:55 YCU 0.63 26.3 95.0 4.1 ok
25-01-2021 19:27:55 YCU 0.64 26.6 95.0 4.1 ok
25-01-2021 19:17:55 YCU 0.62 26.7 95.0 4.1 ok
25-01-2021 19:07:55 YCU 0.65 26.9 95.0 4.1 ok
25-01-2021 18:57:55 YCU 0.61 26.9 95.0 4.1 ok
25-01-2021 18:47:54 YCU 0.64 26.8 95.0 4.1 ok
25-01-2021 18:37:54 YCU 0.63 27.0 95.0 4.1 ok
25-01-2021 18:27:54 YCU 0.65 26.8 95.0 4.1 ok
25-01-2021 18:17:53 YCU 0.59 26.7 95.0 4.1 ok
25-01-2021 18:07:53 YCU 0.63 26.7 95.0 4.1 ok
25-01-2021 17:57:53 YCU 0.62 26.5 95.0 4.1 ok
25-01-2021 17:47:53 YCU 0.59 26.8 95.0 4.1 ok
25-01-2021 17:37:52 YCU 0.56 26.8 95.0 4.1 ok
25-01-2021 17:27:52 YCU 0.62 26.9 95.0 4.1 ok
25-01-2021 17:17:52 YCU 0.56 27.1 95.0 4.1 ok
25-01-2021 17:07:51 YCU 0.56 27.2 95.0 4.1 ok
25-01-2021 16:57:51 YCU 0.54 27.3 95.0 4.1 ok
25-01-2021 16:47:51 YCU 0.55 27.1 95.0 4.1 ok
25-01-2021 16:37:51 YCU 0.60 27.3 95.0 4.1 ok
25-01-2021 16:27:51 YCU 0.60 27.3 95.0 4.1 ok
25-01-2021 16:17:51 YCU 0.63 27.3 95.0 4.1 ok
25-01-2021 16:07:51 YCU 0.54 27.3 95.0 4.1 ok
25-01-2021 15:57:51 YCU 0.56 27.4 95.0 4.1 ok
25-01-2021 15:47:51 YCU 0.53 27.5 95.0 4.1 ok
25-01-2021 15:37:51 YCU 0.63 27.7 95.0 4.1 ok
25-01-2021 15:27:51 YCU 0.54 27.9 95.0 4.1 ok
25-01-2021 15:17:43 YCU 0.59 27.9 95.0 4.1 ok
25-01-2021 15:07:44 YCU 0.56 28.0 95.0 4.1 ok
25-01-2021 14:57:44 YCU 0.61 28.0 95.0 4.1 ok
25-01-2021 14:47:44 YCU 0.59 27.9 95.0 4.1 ok
25-01-2021 14:37:44 YCU 0.64 28.1 95.0 4.1 ok
25-01-2021 14:27:44 YCU 0.56 28.4 95.0 4.1 ok
25-01-2021 14:17:44 YCU 0.69 28.6 95.0 4.1 ok
25-01-2021 14:07:45 YCU 0.62 28.9 95.0 4.1 ok
25-01-2021 13:57:44 YCU 0.70 29.0 95.0 4.1 WF
25-01-2021 13:45:34 YCU 0.66 30.2 95.0 4.1 ok
25-01-2021 13:35:34 YCU 0.67 31.0 95.0 4.1 ok
25-01-2021 13:25:34 YCU 0.75 31.2 95.0 4.1 WF
25-01-2021 13:13:19 YCU 0.70 32.6 95.0 4.1 ok
25-01-2021 13:03:19 YCU 0.72 32.2 95.0 4.1 ok
25-01-2021 12:53:19 YCU 0.69 32.4 95.0 4.1 ok
25-01-2021 12:43:19 YCU 0.75 32.5 95.0 4.1 ok
25-01-2021 12:33:19 YCU 0.79 32.4 95.0 4.1 ok
25-01-2021 12:23:19 YCU 0.68 32.2 95.0 4.1 ok
25-01-2021 12:13:19 YCU 0.75 31.7 95.0 4.1 ok
25-01-2021 12:03:19 YCU 0.73 32.2 95.0 4.1 ok
25-01-2021 11:53:19 YCU 0.77 32.6 95.0 4.1 ok
25-01-2021 11:43:19 YCU 0.74 32.7 95.0 4.1 ok
25-01-2021 11:33:19 YCU 0.69 33.1 95.0 4.1 ok
25-01-2021 11:23:19 YCU 0.74 32.4 95.0 4.1 ok
25-01-2021 11:13:18 YCU 0.75 31.9 95.0 4.1 ok
25-01-2021 11:03:18 YCU 0.81 31.4 95.0 4.1 ok
25-01-2021 10:53:18 YCU 0.72 30.7 95.0 4.1 ok
25-01-2021 10:43:18 YCU 0.68 30.3 95.0 4.1 ok
25-01-2021 10:33:18 YCU 0.73 29.9 95.0 4.1 ok
25-01-2021 10:23:18 YCU 0.70 29.2 95.0 4.1 ok
25-01-2021 10:13:18 YCU 0.71 28.8 95.0 4.1 ok
25-01-2021 10:03:18 YCU 0.72 28.2 95.0 4.1 ok
25-01-2021 09:53:17 YCU 0.70 28.2 95.0 4.1 ok
25-01-2021 09:43:17 YCU 0.62 27.6 95.0 4.1 ok
25-01-2021 09:33:17 YCU 0.71 27.3 95.0 4.1 ok
25-01-2021 09:23:17 YCU 0.65 26.8 95.0 4.1 ok
25-01-2021 09:13:17 YCU 0.62 26.7 95.0 4.1 ok
25-01-2021 09:03:18 YCU 0.64 26.4 95.0 4.1 ok
25-01-2021 08:53:18 YCU 0.67 25.6 95.0 4.1 ok
25-01-2021 08:43:18 YCU 0.72 25.3 95.0 4.1 WF
25-01-2021 08:31:18 YCU 0.72 23.5 95.0 4.1 ok
25-01-2021 08:21:17 YCU 0.69 22.9 95.0 4.1 ok
25-01-2021 08:11:17 YCU 0.76 22.9 95.0 4.1 ok
25-01-2021 08:01:17 YCU 0.76 22.6 95.0 4.1 ok
25-01-2021 07:51:17 YCU 0.74 22.6 95.0 4.1 ok
25-01-2021 07:41:17 YCU 0.79 22.5 95.0 4.1 ok
25-01-2021 07:31:17 YCU 0.81 22.5 95.0 4.1 ok
25-01-2021 07:21:17 YCU 0.88 22.5 95.0 4.1 ok
25-01-2021 07:11:17 YCU 0.84 22.4 95.0 4.1 ok
25-01-2021 07:01:16 YCU 0.87 22.2 95.0 4.1 ok
25-01-2021 06:51:16 YCU 0.82 22.2 95.0 4.1 ok
25-01-2021 06:41:16 YCU 0.83 22.0 95.0 4.1 ok
25-01-2021 06:31:16 YCU 0.86 22.0 95.0 4.1 ok
25-01-2021 06:21:16 YCU 0.83 22.0 95.0 4.1 ok
25-01-2021 06:11:16 YCU 0.83 21.9 94.0 4.1 ok
25-01-2021 06:01:16 YCU 0.88 22.1 95.0 4.1 ok
25-01-2021 05:51:16 YCU 0.86 22.1 95.0 4.1 ok
25-01-2021 05:41:16 YCU 0.85 22.2 95.0 4.1 ok
25-01-2021 05:31:16 YCU 0.84 22.1 95.0 4.1 ok
25-01-2021 05:21:16 YCU 0.82 22.2 95.0 4.1 ok
25-01-2021 05:11:15 YCU 0.80 22.2 95.0 4.1 ok
25-01-2021 05:01:15 YCU 0.83 22.3 95.0 4.1 ok
25-01-2021 04:51:15 YCU 0.87 22.3 95.0 4.1 ok
25-01-2021 04:41:15 YCU 0.85 22.3 95.0 4.1 ok
25-01-2021 04:31:15 YCU 0.74 22.5 95.0 4.1 ok
25-01-2021 04:21:15 YCU 0.76 22.6 95.0 4.1 ok
25-01-2021 04:11:15 YCU 0.85 22.6 95.0 4.1 ok
25-01-2021 04:01:15 YCU 0.82 22.6 95.0 4.1 ok
25-01-2021 03:51:15 YCU 0.83 22.7 95.0 4.1 ok
25-01-2021 03:41:15 YCU 0.73 22.7 95.0 4.1 ok
25-01-2021 03:31:15 YCU 0.77 22.8 95.0 4.1 ok
25-01-2021 03:21:15 YCU 0.77 22.9 95.0 4.1 ok
25-01-2021 03:11:15 YCU 0.81 23.1 95.0 4.1 ok
25-01-2021 03:01:15 YCU 0.83 23.1 95.0 4.1 ok
25-01-2021 02:51:15 YCU 0.82 23.1 95.0 4.1 ok
25-01-2021 02:41:15 YCU 0.93 23.2 95.0 4.1 ok
25-01-2021 02:31:15 YCU 0.82 23.2 95.0 4.1 ok
25-01-2021 02:21:15 YCU 0.87 23.2 95.0 4.1 ok
25-01-2021 02:11:15 YCU 0.88 23.3 95.0 4.1 ok
25-01-2021 02:01:15 YCU 0.85 23.5 95.0 4.1 ok
25-01-2021 01:51:16 YCU 0.84 23.4 95.0 4.1 ok
25-01-2021 01:41:16 YCU 0.91 23.5 95.0 4.1 ok
25-01-2021 01:31:16 YCU 0.93 23.6 95.0 4.1 ok
25-01-2021 01:21:17 YCU 0.96 23.6 95.0 4.1 ok
25-01-2021 01:11:17 YCU 0.94 23.8 95.0 4.1 ok
25-01-2021 01:01:17 YCU 0.94 23.9 95.0 4.1 ok
25-01-2021 00:51:18 YCU 1.00 23.9 95.0 4.1 WF
25-01-2021 00:39:03 YCU 1.01 24.1 95.0 4.1 ok
25-01-2021 00:29:02 YCU 0.98 24.2 95.0 4.1 ok
25-01-2021 00:19:03 YCU 1.05 24.2 95.0 4.1 ok
25-01-2021 00:09:02 YCU 1.05 24.2 95.0 4.1 ok
24-01-2021 23:59:02 YCU 1.04 24.3 95.0 4.1 ok
24-01-2021 23:49:02 YCU 2.09 24.1 95.0 4.1 ok
24-01-2021 23:39:02 YCU 0.97 24.2 95.0 4.1 ok
24-01-2021 23:29:02 YCU 1.03 24.2 95.0 4.1 ok
24-01-2021 23:19:02 YCU 1.07 24.2 95.0 4.1 ok
24-01-2021 23:09:02 YCU 0.94 24.2 95.0 4.1 ok
24-01-2021 22:59:02 YCU 0.94 24.2 95.0 4.1 ok
24-01-2021 22:49:02 YCU 1.09 24.3 95.0 4.1 ok
24-01-2021 22:39:02 YCU 1.15 24.3 95.0 4.1 ok
24-01-2021 22:29:02 YCU 1.06 24.4 95.0 4.1 ok
24-01-2021 22:19:02 YCU 0.88 24.3 95.0 4.1 ok
24-01-2021 22:09:01 YCU 1.02 24.3 95.0 4.1 ok
24-01-2021 21:59:01 YCU 0.99 24.3 95.0 4.1 ok
24-01-2021 21:49:01 YCU 1.10 24.3 95.0 4.1 ok
24-01-2021 21:39:01 YCU 1.08 24.1 95.0 4.1 ok
24-01-2021 21:29:01 YCU 1.01 24.1 95.0 4.1 ok
24-01-2021 21:19:01 YCU 1.08 24.0 95.0 4.1 ok
24-01-2021 21:09:00 YCU 1.15 24.0 95.0 4.1 ok
24-01-2021 20:59:00 YCU 1.05 24.0 95.0 4.1 ok
24-01-2021 20:48:59 YCU 0.90 24.1 95.0 4.1 ok
24-01-2021 20:39:00 YCU 1.07 24.1 95.0 4.1 ok
24-01-2021 20:29:00 YCU 1.06 24.2 95.0 4.1 ok
24-01-2021 20:18:59 YCU 1.18 24.2 95.0 4.1 ok
24-01-2021 20:08:59 YCU 1.00 24.4 95.0 4.1 ok
24-01-2021 19:58:59 YCU 1.09 24.4 95.0 4.1 ok
24-01-2021 19:48:59 YCU 1.04 24.5 95.0 4.1 ok
24-01-2021 19:38:59 YCU 1.15 24.9 95.0 4.1 ok
24-01-2021 19:28:59 YCU 1.09 25.5 95.0 4.1 ok
24-01-2021 19:19:00 YCU 1.00 25.6 95.0 4.1 WF
24-01-2021 19:06:59 YCU 0.99 26.1 95.0 4.1 ok
24-01-2021 18:56:58 YCU 1.00 26.3 95.0 4.1 ok
24-01-2021 18:46:58 YCU 1.12 26.5 95.0 4.1 ok
24-01-2021 18:36:58 YCU 1.00 26.7 95.0 4.1 ok
24-01-2021 18:26:58 YCU 0.98 26.3 95.0 4.1 ok
24-01-2021 18:16:58 YCU 1.17 26.1 95.0 4.1 ok
24-01-2021 18:06:58 YCU 1.03 25.9 95.0 4.1 ok
24-01-2021 17:56:58 YCU 1.19 25.9 95.0 4.1 ok
24-01-2021 17:46:57 YCU 1.06 25.9 95.0 4.1 ok
24-01-2021 17:36:56 YCU 1.14 26.0 95.0 4.1 ok
24-01-2021 17:26:56 YCU 0.97 26.1 95.0 4.1 ok
24-01-2021 17:16:56 YCU 1.16 26.2 95.0 4.1 ok
24-01-2021 17:06:56 YCU 1.11 26.1 95.0 4.1 ok
24-01-2021 16:56:55 YCU 1.14 26.2 95.0 4.1 ok
24-01-2021 16:46:55 YCU 1.13 26.3 95.0 4.1 ok
24-01-2021 16:36:55 YCU 1.09 26.4 95.0 4.1 ok
24-01-2021 16:26:55 YCU 1.11 26.7 95.0 4.1 ok
24-01-2021 16:16:55 YCU 1.04 26.6 95.0 4.1 ok
24-01-2021 16:06:54 YCU 1.17 26.4 95.0 4.1 ok
24-01-2021 15:56:54 YCU 1.16 26.4 95.0 4.1 ok
24-01-2021 15:46:54 YCU 1.16 26.7 95.0 4.1 ok
24-01-2021 15:36:54 YCU 0.94 26.8 95.0 4.1 ok
24-01-2021 15:26:53 YCU 1.11 27.0 95.0 4.1 ok
24-01-2021 15:16:53 YCU 1.03 27.1 95.0 4.1 ok
24-01-2021 15:06:53 YCU 1.09 27.2 95.0 4.1 ok
24-01-2021 14:56:53 YCU 1.05 27.3 95.0 4.1 ok
24-01-2021 14:46:53 YCU 1.14 27.4 95.0 4.1 ok
24-01-2021 14:36:53 YCU 0.97 27.4 95.0 4.1 ok
24-01-2021 14:26:52 YCU 1.08 27.6 95.0 4.1 ok
24-01-2021 14:16:52 YCU 1.02 27.8 95.0 4.1 ok
24-01-2021 14:06:52 YCU 1.09 27.9 95.0 4.1 ok
24-01-2021 13:56:52 YCU 1.02 28.2 95.0 4.1 ok
24-01-2021 13:46:52 YCU 1.12 28.6 95.0 4.1 ok
24-01-2021 13:36:52 YCU 1.06 29.4 95.0 4.1 ok
24-01-2021 13:26:52 YCU 1.08 29.9 95.0 4.1 ok
24-01-2021 13:16:52 YCU 1.06 30.3 95.0 4.1 ok
24-01-2021 13:06:52 YCU 1.06 30.5 95.0 4.1 ok
24-01-2021 12:56:52 YCU 1.13 30.6 95.0 4.1 ok
24-01-2021 12:46:52 YCU 1.13 30.9 95.0 4.1 ok
24-01-2021 12:36:52 YCU 1.16 31.2 95.0 4.1 ok
24-01-2021 12:26:52 YCU 1.11 31.4 95.0 4.1 ok
24-01-2021 12:16:52 YCU 1.11 31.6 95.0 4.1 ok
24-01-2021 12:06:52 YCU 1.09 31.7 95.0 4.1 ok
24-01-2021 11:56:51 YCU 1.17 31.9 95.0 4.1 ok
24-01-2021 11:46:51 YCU 1.15 31.9 95.0 4.1 ok
24-01-2021 11:36:50 YCU 1.22 31.8 95.0 4.1 ok
24-01-2021 11:26:50 YCU 1.19 31.4 95.0 4.1 ok
24-01-2021 11:16:50 YCU 1.18 31.2 95.0 4.1 ok
24-01-2021 11:06:52 YCU 1.18 31.2 95.0 4.1 ok
24-01-2021 10:56:33 YCU 1.18 31.6 95.0 4.1 ok
24-01-2021 10:46:33 YCU 1.18 32.3 95.0 4.1 ok
24-01-2021 10:36:33 YCU 1.18 32.7 95.0 4.1 ok
24-01-2021 10:26:33 YCU 1.17 32.7 95.0 4.1 ok
24-01-2021 10:16:33 YCU 1.13 32.2 95.0 4.1 ok
24-01-2021 10:06:33 YCU 1.18 31.7 95.0 4.1 ok
24-01-2021 09:56:32 YCU 1.15 30.8 95.0 4.1 ok
24-01-2021 09:46:33 YCU 1.17 29.7 95.0 4.1 ok
24-01-2021 09:36:32 YCU 1.08 29.4 95.0 4.1 ok
24-01-2021 09:26:31 YCU 1.09 28.7 95.0 4.1 ok
24-01-2021 09:16:31 YCU 1.11 28.2 95.0 4.1 ok
24-01-2021 09:06:31 YCU 1.19 27.9 95.0 4.1 ok
24-01-2021 08:56:31 YCU 1.10 27.4 95.0 4.1 ok
24-01-2021 08:46:31 YCU 1.12 26.8 95.0 4.1 ok
24-01-2021 08:36:31 YCU 1.15 26.2 95.0 4.1 ok
24-01-2021 08:26:30 YCU 1.07 25.7 95.0 4.1 ok
24-01-2021 08:16:30 YCU 1.07 25.4 95.0 4.1 ok
24-01-2021 08:06:30 YCU 1.08 25.1 95.0 4.1 ok
24-01-2021 07:56:30 YCU 1.07 24.8 95.0 4.1 ok
24-01-2021 07:46:30 YCU 1.09 24.5 95.0 4.1 ok
24-01-2021 07:36:30 YCU 1.06 24.2 95.0 4.1 ok
24-01-2021 07:26:30 YCU 1.05 24.0 95.0 4.1 ok
24-01-2021 07:16:30 YCU 1.03 23.6 95.0 4.1 ok
24-01-2021 07:06:30 YCU 1.10 23.2 95.0 4.1 ok
24-01-2021 06:56:30 YCU 1.11 22.8 95.0 4.1 ok
24-01-2021 06:46:30 YCU 1.01 22.7 95.0 4.1 ok
24-01-2021 06:36:29 YCU 1.02 22.7 95.0 4.1 ok
24-01-2021 06:26:29 YCU 1.04 22.6 95.0 4.1 ok
24-01-2021 06:16:29 YCU 1.01 22.6 95.0 4.1 ok
24-01-2021 06:06:28 YCU 1.02 22.6 95.0 4.1 ok
24-01-2021 05:56:28 YCU 1.05 22.6 95.0 4.1 ok
24-01-2021 05:46:28 YCU 0.99 22.7 95.0 4.1 ok
24-01-2021 05:36:28 YCU 0.97 22.7 95.0 4.1 ok
24-01-2021 05:26:28 YCU 1.00 22.7 95.0 4.1 ok
24-01-2021 05:16:28 YCU 0.96 22.7 95.0 4.1 ok
24-01-2021 05:06:27 YCU 0.98 22.7 95.0 4.1 ok
24-01-2021 04:56:27 YCU 0.93 22.8 95.0 4.1 ok
24-01-2021 04:46:27 YCU 0.93 22.9 95.0 4.1 ok
24-01-2021 04:36:27 YCU 0.92 22.9 95.0 4.1 ok
24-01-2021 04:26:27 YCU 0.84 23.0 95.0 4.1 ok
24-01-2021 04:16:27 YCU 0.83 23.0 95.0 4.1 ok
24-01-2021 04:06:27 YCU 0.86 23.1 95.0 4.1 ok
24-01-2021 03:56:27 YCU 0.88 23.0 95.0 4.1 ok
24-01-2021 03:46:27 YCU 0.79 23.1 95.0 4.1 ok
24-01-2021 03:36:27 YCU 0.83 23.2 95.0 4.1 ok
24-01-2021 03:26:27 YCU 0.71 23.3 95.0 4.1 ok
24-01-2021 03:16:27 YCU 0.77 23.5 95.0 4.1 ok
24-01-2021 03:06:27 YCU 0.84 23.6 95.0 4.1 ok
24-01-2021 02:56:27 YCU 0.75 23.7 95.0 4.1 ok
24-01-2021 02:46:27 YCU 0.74 23.8 95.0 4.1 ok
24-01-2021 02:36:27 YCU 0.84 23.9 95.0 4.1 ok
24-01-2021 02:26:27 YCU 0.80 24.1 95.0 4.1 ok
24-01-2021 02:16:27 YCU 0.80 24.1 95.0 4.1 ok
24-01-2021 02:06:27 YCU 0.82 24.2 95.0 4.1 ok
24-01-2021 01:56:27 YCU 0.84 24.3 95.0 4.1 ok
24-01-2021 01:46:27 YCU 0.82 24.3 95.0 4.1 ok
24-01-2021 01:36:27 YCU 0.81 24.3 95.0 4.1 ok
24-01-2021 01:26:27 YCU 0.84 24.3 95.0 4.1 ok
24-01-2021 01:16:27 YCU 0.82 24.4 95.0 4.1 ok
24-01-2021 01:06:27 YCU 0.89 24.5 95.0 4.1 ok
24-01-2021 00:56:27 YCU 0.95 24.5 95.0 4.1 ok
24-01-2021 00:46:27 YCU 0.91 24.5 95.0 4.1 ok
24-01-2021 00:36:26 YCU 0.92 24.6 95.0 4.1 ok
24-01-2021 00:26:26 YCU 0.86 24.7 95.0 4.1 ok
24-01-2021 00:16:26 YCU 0.92 24.6 95.0 4.1 ok
24-01-2021 00:06:26 YCU 0.95 24.5 95.0 4.1 ok
23-01-2021 23:56:26 YCU 0.94 24.6 95.0 4.1 ok
23-01-2021 23:46:26 YCU 0.90 24.3 95.0 4.1 ok
23-01-2021 23:36:26 YCU 0.87 24.2 95.0 4.1 ok
23-01-2021 23:26:26 YCU 0.86 24.2 95.0 4.1 ok
23-01-2021 23:16:26 YCU 0.83 24.2 95.0 4.1 ok
23-01-2021 23:06:25 YCU 0.83 24.1 95.0 4.1 ok
23-01-2021 22:56:25 YCU 0.88 24.1 95.0 4.1 ok
23-01-2021 22:46:24 YCU 0.77 24.1 95.0 4.1 ok
23-01-2021 22:36:25 YCU 0.80 24.1 95.0 4.1 ok
23-01-2021 22:26:24 YCU 0.81 24.1 95.0 4.1 ok
23-01-2021 22:16:25 YCU 0.81 24.1 95.0 4.1 WF
23-01-2021 22:04:10 YCU 0.77 24.2 95.0 4.1 ok
23-01-2021 21:54:10 YCU 0.78 24.3 95.0 4.1 ok
23-01-2021 21:44:10 YCU 0.76 24.3 95.0 4.1 ok
23-01-2021 21:34:10 YCU 0.74 24.4 95.0 4.1 ok
23-01-2021 21:24:10 YCU 0.76 24.3 95.0 4.1 ok
23-01-2021 21:14:10 YCU 0.81 24.5 95.0 4.1 ok
23-01-2021 21:04:10 YCU 0.74 24.6 95.0 4.1 ok
23-01-2021 20:54:10 YCU 0.79 24.7 95.0 4.1 ok
23-01-2021 20:44:10 YCU 0.72 24.7 95.0 4.1 ok
23-01-2021 20:34:09 YCU 0.77 24.8 95.0 4.1 ok
23-01-2021 20:24:10 YCU 0.76 24.8 95.0 4.1 WF
23-01-2021 20:11:52 YCU 0.70 25.2 95.0 4.1 ok
23-01-2021 20:01:51 YCU 0.72 25.4 95.0 4.1 ok
23-01-2021 19:51:50 YCU 0.71 25.6 95.0 4.1 ok
23-01-2021 19:41:50 YCU 0.75 26.0 95.0 4.1 ok
23-01-2021 19:31:50 YCU 0.71 26.5 95.0 4.1 ok
23-01-2021 19:21:50 YCU 0.69 26.8 95.0 4.1 ok
23-01-2021 19:11:49 YCU 0.72 27.0 95.0 4.1 ok
23-01-2021 19:01:49 YCU 0.68 27.2 95.0 4.1 ok
23-01-2021 18:51:49 YCU 0.71 27.3 95.0 4.1 ok
23-01-2021 18:41:49 YCU 0.72 27.5 95.0 4.1 ok
23-01-2021 18:31:48 YCU 0.69 27.8 95.0 4.1 ok
23-01-2021 18:21:48 YCU 0.71 27.6 95.0 4.1 ok
23-01-2021 18:11:48 YCU 0.74 27.4 95.0 4.1 ok
23-01-2021 18:01:48 YCU 0.73 27.3 95.0 4.1 ok
23-01-2021 17:51:49 YCU 0.76 27.3 95.0 4.1 ok
23-01-2021 17:41:32 YCU 0.68 27.6 95.0 4.1 ok
23-01-2021 17:31:32 YCU 0.75 27.4 95.0 4.1 ok
23-01-2021 17:21:31 YCU 0.71 27.2 95.0 4.1 ok
23-01-2021 17:11:32 YCU 0.72 27.2 95.0 4.1 ok
23-01-2021 17:01:32 YCU 0.69 27.2 95.0 4.1 ok
23-01-2021 16:51:32 YCU 0.72 27.0 95.0 4.1 ok
23-01-2021 16:41:30 YCU 0.71 27.2 95.0 4.1 ok
23-01-2021 16:31:30 YCU 0.73 27.1 95.0 4.1 ok
23-01-2021 16:21:30 YCU 0.69 26.9 95.0 4.1 ok
23-01-2021 16:11:30 YCU 0.62 26.8 95.0 4.1 ok
23-01-2021 16:01:30 YCU 0.68 26.8 95.0 4.1 ok
23-01-2021 15:51:30 YCU 0.69 27.2 95.0 4.1 ok
23-01-2021 15:41:29 YCU 0.62 27.3 95.0 4.1 ok
23-01-2021 15:31:29 YCU 0.67 27.4 95.0 4.1 ok
23-01-2021 15:21:29 YCU 0.63 27.9 95.0 4.1 ok
23-01-2021 15:11:29 YCU 0.68 28.2 95.0 4.1 ok
23-01-2021 15:01:28 YCU 0.62 28.5 95.0 4.1 ok
23-01-2021 14:51:28 YCU 0.62 29.0 95.0 4.1 ok
23-01-2021 14:41:28 YCU 0.65 29.2 95.0 4.1 ok
23-01-2021 14:31:28 YCU 0.64 29.1 95.0 4.1 ok
23-01-2021 14:21:28 YCU 0.62 29.5 95.0 4.1 ok
23-01-2021 14:11:28 YCU 0.64 29.6 95.0 4.1 ok
23-01-2021 14:01:28 YCU 0.59 29.9 95.0 4.1 ok
23-01-2021 13:51:28 YCU 0.66 29.9 95.0 4.1 ok
23-01-2021 13:41:28 YCU 0.65 30.3 95.0 4.1 ok
23-01-2021 13:31:28 YCU 0.64 30.2 95.0 4.1 ok
23-01-2021 13:21:28 YCU 0.66 30.3 95.0 4.1 ok
23-01-2021 13:11:28 YCU 0.59 31.3 95.0 4.1 ok
23-01-2021 13:01:28 YCU 0.64 31.2 95.0 4.1 ok
23-01-2021 12:51:28 YCU 0.72 30.5 95.0 4.1 ok
23-01-2021 12:41:28 YCU 0.64 30.8 95.0 4.1 ok
23-01-2021 12:31:28 YCU 0.65 31.2 9.0 4.1 ok
23-01-2021 12:21:29 YCU 0.68 31.6 9.0 4.1 ok
23-01-2021 12:11:28 YCU 0.74 31.9 9.0 4.1 ok
23-01-2021 12:01:28 YCU 0.73 32.1 9.0 4.1 WF
23-01-2021 11:49:28 YCU 0.70 31.5 95.0 4.1 ok
23-01-2021 11:39:28 YCU 0.74 31.2 95.0 4.1 ok
23-01-2021 11:29:28 YCU 0.74 30.9 94.0 4.1 ok
23-01-2021 11:19:28 YCU 0.71 31.1 95.0 4.1 ok
23-01-2021 11:09:28 YCU 0.74 30.4 95.0 4.1 ok
23-01-2021 10:59:28 YCU 0.73 30.2 95.0 4.1 ok
23-01-2021 10:49:28 YCU 0.75 29.7 92.0 4.1 ok
23-01-2021 10:39:27 YCU 0.72 29.0 95.0 4.1 ok
23-01-2021 10:29:27 YCU 0.71 28.3 95.0 4.1 ok
23-01-2021 10:19:27 YCU 0.69 28.4 95.0 4.1 ok
23-01-2021 10:09:27 YCU 0.74 28.2 95.0 4.1 ok
23-01-2021 09:59:27 YCU 0.75 27.8 95.0 4.1 ok
23-01-2021 09:49:27 YCU 0.71 27.7 95.0 4.1 ok
23-01-2021 09:39:26 YCU 0.76 27.4 95.0 4.1 ok
23-01-2021 09:29:26 YCU 0.68 27.2 95.0 4.1 ok
23-01-2021 09:19:26 YCU 0.67 26.9 95.0 4.1 ok
23-01-2021 09:09:26 YCU 0.66 26.7 95.0 4.1 ok
23-01-2021 08:59:26 YCU 0.64 26.3 95.0 4.1 ok
23-01-2021 08:49:26 YCU 0.72 25.7 95.0 4.1 ok
23-01-2021 08:39:26 YCU 0.70 25.3 95.0 4.1 ok
23-01-2021 08:29:26 YCU 0.67 24.8 95.0 4.1 ok
23-01-2021 08:19:26 YCU 0.72 24.6 95.0 4.1 ok
23-01-2021 08:09:26 YCU 0.71 24.3 95.0 4.1 ok
23-01-2021 07:59:26 YCU 0.69 23.9 95.0 4.1 ok
23-01-2021 07:49:26 YCU 0.63 23.7 95.0 4.1 ok
23-01-2021 07:39:25 YCU 0.68 23.3 95.0 4.1 ok
23-01-2021 07:29:23 YCU 0.68 23.0 95.0 4.1 ok
23-01-2021 07:19:23 YCU 0.69 22.7 95.0 4.1 ok
23-01-2021 07:09:23 YCU 0.64 22.3 95.0 4.1 ok
23-01-2021 06:59:23 YCU 0.71 21.9 94.0 4.1 ok
23-01-2021 06:49:23 YCU 0.70 21.7 94.0 4.1 ok
23-01-2021 06:39:23 YCU 0.68 21.6 94.0 4.1 ok
23-01-2021 06:29:23 YCU 0.69 21.6 94.0 4.1 ok
23-01-2021 06:19:22 YCU 0.66 21.5 94.0 4.1 ok
23-01-2021 06:09:22 YCU 0.75 21.5 94.0 4.1 ok
23-01-2021 05:59:22 YCU 0.74 21.5 94.0 4.1 ok
23-01-2021 05:49:22 YCU 0.72 21.5 94.0 4.1 ok
23-01-2021 05:39:22 YCU 0.69 21.5 94.0 4.1 ok
23-01-2021 05:29:22 YCU 0.74 21.6 94.0 4.1 ok
23-01-2021 05:19:22 YCU 0.74 21.6 94.0 4.1 ok
23-01-2021 05:09:22 YCU 0.71 21.6 94.0 4.1 ok
23-01-2021 04:59:21 YCU 0.71 21.7 94.0 4.1 ok
23-01-2021 04:49:21 YCU 0.68 21.7 94.0 4.1 ok
23-01-2021 04:39:22 YCU 0.70 21.7 94.0 4.1 ok
23-01-2021 04:29:22 YCU 0.70 21.7 94.0 4.1 WF
23-01-2021 04:17:07 YCU 0.70 21.8 94.0 4.1 ok
23-01-2021 04:07:07 YCU 0.67 21.8 94.0 4.1 ok
23-01-2021 03:57:07 YCU 0.64 21.8 94.0 4.1 ok
23-01-2021 03:47:07 YCU 0.68 21.9 94.0 4.1 ok
23-01-2021 03:37:07 YCU 0.62 21.9 94.0 4.1 ok
23-01-2021 03:27:07 YCU 0.65 22.1 95.0 4.1 ok
23-01-2021 03:17:07 YCU 0.64 22.2 95.0 4.1 ok
23-01-2021 03:07:07 YCU 0.59 22.2 95.0 4.1 ok
23-01-2021 02:57:07 YCU 0.58 22.2 95.0 4.1 ok
23-01-2021 02:47:07 YCU 0.57 22.2 95.0 4.1 ok
23-01-2021 02:37:07 YCU 0.64 22.3 95.0 4.1 ok
23-01-2021 02:27:07 YCU 0.62 22.4 95.0 4.1 ok
23-01-2021 02:17:06 YCU 0.60 22.5 95.0 4.1 ok
23-01-2021 02:07:06 YCU 0.61 22.6 95.0 4.1 ok
23-01-2021 01:57:06 YCU 0.62 22.7 95.0 4.1 ok
23-01-2021 01:47:06 YCU 0.64 22.8 95.0 4.1 ok
23-01-2021 01:37:06 YCU 0.61 22.9 95.0 4.1 ok
23-01-2021 01:27:05 YCU 0.61 23.0 95.0 4.1 ok
23-01-2021 01:17:05 YCU 0.67 23.1 95.0 4.1 ok
23-01-2021 01:07:05 YCU 0.71 23.2 95.0 4.1 ok
23-01-2021 00:57:05 YCU 0.67 23.2 95.0 4.1 ok
23-01-2021 00:47:05 YCU 0.64 23.4 95.0 4.1 ok
23-01-2021 00:37:05 YCU 0.68 23.6 95.0 4.1 ok
23-01-2021 00:27:05 YCU 0.71 23.7 95.0 4.1 ok
23-01-2021 00:17:05 YCU 0.76 23.8 95.0 4.1 ok
23-01-2021 00:07:05 YCU 0.73 24.0 95.0 4.1 ok
22-01-2021 23:57:05 YCU 0.76 24.1 95.0 4.1 ok
22-01-2021 23:47:05 YCU 0.73 24.2 95.0 4.1 ok
22-01-2021 23:37:05 YCU 0.74 24.3 95.0 4.1 ok
22-01-2021 23:27:05 YCU 0.77 24.6 95.0 4.1 ok
22-01-2021 23:17:05 YCU 0.77 24.7 95.0 4.1 ok
22-01-2021 23:07:04 YCU 0.77 24.8 95.0 4.1 ok
22-01-2021 22:57:04 YCU 0.74 25.1 95.0 4.1 ok
22-01-2021 22:47:04 YCU 0.74 25.3 95.0 4.1 ok
22-01-2021 22:37:04 YCU 0.73 25.4 95.0 4.1 ok
22-01-2021 22:27:04 YCU 0.80 25.7 95.0 4.1 ok
22-01-2021 22:17:04 YCU 0.76 25.7 95.0 4.1 WF
22-01-2021 22:04:53 YCU 0.76 25.9 95.0 4.1 WF
22-01-2021 21:52:52 YCU 0.77 26.0 95.0 4.1 ok
22-01-2021 21:42:52 YCU 0.76 25.9 95.0 4.1 ok
22-01-2021 21:32:52 YCU 0.74 25.6 95.0 4.1 ok
22-01-2021 21:22:51 YCU 0.70 25.1 95.0 4.1 ok
22-01-2021 21:12:51 YCU 0.73 25.1 95.0 4.1 ok
22-01-2021 21:02:51 YCU 0.69 25.2 95.0 4.1 ok
22-01-2021 20:52:50 YCU 0.65 25.0 95.0 4.1 ok
22-01-2021 20:42:50 YCU 0.60 24.9 95.0 4.1 ok
22-01-2021 20:32:50 YCU 0.67 24.9 95.0 4.1 ok
22-01-2021 20:22:50 YCU 0.65 24.8 95.0 4.1 ok
22-01-2021 20:12:49 YCU 0.70 24.7 95.0 4.1 ok
22-01-2021 20:02:49 YCU 0.70 24.8 95.0 4.1 ok
22-01-2021 19:52:48 YCU 0.62 24.9 95.0 4.1 ok
22-01-2021 19:42:47 YCU 0.65 25.0 95.0 4.1 ok
22-01-2021 19:32:46 YCU 0.69 25.4 95.0 4.1 ok
22-01-2021 19:22:46 YCU 0.69 25.8 95.0 4.1 ok
22-01-2021 19:12:46 YCU 0.68 26.0 95.0 4.1 ok
22-01-2021 19:02:46 YCU 0.64 26.4 95.0 4.1 ok
22-01-2021 18:52:45 YCU 0.65 26.7 95.0 4.1 ok
22-01-2021 18:42:45 YCU 0.68 26.6 95.0 4.2 ok
22-01-2021 18:32:45 YCU 0.65 26.3 95.0 4.2 ok
22-01-2021 18:22:44 YCU 0.66 26.1 95.0 4.1 ok
22-01-2021 18:12:44 YCU 0.63 25.6 95.0 4.1 ok
22-01-2021 18:02:42 YCU 0.68 25.7 95.0 4.1 ok
22-01-2021 17:52:42 YCU 0.61 25.7 95.0 4.1 ok
22-01-2021 17:42:41 YCU 0.64 25.7 95.0 4.1 ok
22-01-2021 17:32:40 YCU 0.66 25.6 95.0 4.1 ok
22-01-2021 17:22:40 YCU 0.63 25.6 95.0 4.1 ok
22-01-2021 17:12:40 YCU 0.64 25.6 95.0 4.1 ok
22-01-2021 17:02:40 YCU 0.67 25.5 95.0 4.1 ok
22-01-2021 16:52:40 YCU 0.62 25.6 95.0 4.1 ok
22-01-2021 16:42:40 YCU 0.63 25.6 95.0 4.1 ok
22-01-2021 16:32:40 YCU 0.67 25.5 95.0 4.1 ok
22-01-2021 16:22:40 YCU 0.70 25.6 95.0 4.1 ok
22-01-2021 16:12:40 YCU 0.65 25.6 95.0 4.1 ok
22-01-2021 16:02:40 YCU 0.64 25.7 95.0 4.1 ok
22-01-2021 15:52:40 YCU 0.61 25.7 95.0 4.1 ok
22-01-2021 15:42:39 YCU 0.64 25.8 95.0 4.1 ok
22-01-2021 15:32:39 YCU 0.66 25.8 95.0 4.1 ok
22-01-2021 15:22:38 YCU 0.68 25.9 95.0 4.1 ok
22-01-2021 15:12:38 YCU 0.66 26.0 95.0 4.1 ok
22-01-2021 15:02:38 YCU 0.61 26.0 95.0 4.1 ok
22-01-2021 14:52:38 YCU 0.65 26.1 95.0 4.1 ok
22-01-2021 14:42:38 YCU 0.62 26.2 95.0 4.1 ok
22-01-2021 14:32:37 YCU 0.60 26.3 95.0 4.1 ok
22-01-2021 14:22:37 YCU 0.59 26.4 95.0 4.1 ok
22-01-2021 14:12:37 YCU 0.60 26.5 95.0 4.1 ok
22-01-2021 14:02:36 YCU 0.61 26.7 95.0 4.1 ok
22-01-2021 13:52:36 YCU 0.54 27.0 95.0 4.1 ok
22-01-2021 13:42:36 YCU 0.58 27.4 95.0 4.1 ok
22-01-2021 13:32:35 YCU 0.59 28.1 95.0 4.1 ok
22-01-2021 13:22:35 YCU 0.57 28.2 95.0 4.1 ok
22-01-2021 13:12:35 YCU 0.61 28.0 95.0 4.1 ok
22-01-2021 13:02:35 YCU 0.60 28.1 95.0 4.1 ok
22-01-2021 12:52:35 YCU 0.61 28.2 95.0 4.1 ok
22-01-2021 12:42:35 YCU 0.64 28.2 95.0 4.1 WF
22-01-2021 12:30:20 YCU 0.61 28.0 95.0 4.1 ok
22-01-2021 12:20:20 YCU 0.65 27.9 95.0 4.1 ok
22-01-2021 12:10:20 YCU 0.68 28.1 95.0 4.1 ok
22-01-2021 12:00:20 YCU 0.65 28.2 95.0 4.1 ok
22-01-2021 11:50:20 YCU 0.65 28.3 95.0 4.1 ok
22-01-2021 11:40:20 YCU 0.65 28.5 95.0 4.1 ok
22-01-2021 11:30:20 YCU 0.68 28.2 95.0 4.1 ok
22-01-2021 11:20:20 YCU 0.69 28.2 95.0 4.1 ok
22-01-2021 11:10:20 YCU 0.70 28.2 95.0 4.1 ok
22-01-2021 11:00:20 YCU 0.68 27.7 95.0 4.1 ok
22-01-2021 10:50:20 YCU 0.71 27.6 95.0 4.1 ok
22-01-2021 10:40:20 YCU 0.72 27.3 95.0 4.1 ok
22-01-2021 10:30:20 YCU 0.69 27.2 95.0 4.1 WF
22-01-2021 10:17:49 YCU 0.78 26.8 95.0 4.1 ok
22-01-2021 10:07:49 YCU 0.74 26.2 95.0 4.1 ok
22-01-2021 09:57:49 YCU 0.74 26.0 95.0 4.1 ok
22-01-2021 09:47:49 YCU 0.76 25.5 95.0 4.1 ok
22-01-2021 09:37:49 YCU 0.73 25.6 95.0 4.1 ok
22-01-2021 09:27:49 YCU 0.76 25.3 95.0 4.1 ok
22-01-2021 09:17:49 YCU 0.77 25.0 95.0 4.1 ok
22-01-2021 09:07:48 YCU 0.76 24.4 95.0 4.1 ok
22-01-2021 08:57:48 YCU 0.78 24.1 95.0 4.1 ok
22-01-2021 08:47:48 YCU 0.77 23.9 95.0 4.1 ok
22-01-2021 08:37:48 YCU 0.74 23.7 95.0 4.1 ok
22-01-2021 08:27:48 YCU 0.75 23.6 95.0 4.1 ok
22-01-2021 08:17:48 YCU 0.66 23.6 95.0 4.1 ok
22-01-2021 08:07:48 YCU 0.74 23.4 95.0 4.1 ok
22-01-2021 07:57:48 YCU 0.71 23.2 95.0 4.1 ok
22-01-2021 07:47:48 YCU 0.72 23.1 95.0 4.1 ok
22-01-2021 07:37:48 YCU 0.74 22.9 95.0 4.1 ok
22-01-2021 07:27:48 YCU 0.75 22.5 95.0 4.1 ok
22-01-2021 07:17:48 YCU 0.74 22.2 95.0 4.1 ok
22-01-2021 07:07:47 YCU 0.68 21.5 94.0 4.1 ok
22-01-2021 06:57:47 YCU 0.67 20.9 93.0 4.1 ok
22-01-2021 06:47:47 YCU 0.77 20.7 93.0 4.1 ok
22-01-2021 06:37:47 YCU 0.74 20.6 93.0 4.1 ok
22-01-2021 06:27:47 YCU 0.73 20.3 93.0 4.1 ok
22-01-2021 06:17:47 YCU 0.73 20.3 93.0 4.1 ok
22-01-2021 06:07:46 YCU 0.75 20.2 93.0 4.1 ok
22-01-2021 05:57:46 YCU 0.73 20.3 93.0 4.1 ok
22-01-2021 05:47:46 YCU 0.77 20.3 93.0 4.1 ok
22-01-2021 05:37:46 YCU 0.76 20.3 93.0 4.1 ok
22-01-2021 05:27:45 YCU 0.80 20.4 93.0 4.1 ok
22-01-2021 05:17:46 YCU 0.79 20.5 93.0 4.1 ok
22-01-2021 05:07:46 YCU 0.80 20.7 93.0 4.1 ok
22-01-2021 04:57:45 YCU 0.75 20.7 93.0 4.1 ok
22-01-2021 04:47:46 YCU 0.78 20.6 93.0 4.1 ok
22-01-2021 04:37:45 YCU 0.79 20.7 93.0 4.1 ok
22-01-2021 04:27:45 YCU 0.80 20.7 93.0 4.1 ok
22-01-2021 04:17:44 YCU 0.78 20.7 93.0 4.1 ok
22-01-2021 04:07:44 YCU 0.77 20.7 93.0 4.1 ok
22-01-2021 03:57:44 YCU 0.72 20.8 93.0 4.1 ok
22-01-2021 03:47:44 YCU 0.76 20.8 93.0 4.1 ok
22-01-2021 03:37:44 YCU 0.66 20.9 93.0 4.1 ok
22-01-2021 03:27:45 YCU 0.74 21.1 94.0 4.1 ok
22-01-2021 03:17:34 YCU 0.74 21.1 94.0 4.1 ok
22-01-2021 03:07:34 YCU 0.77 21.1 94.0 4.1 ok
22-01-2021 02:57:34 YCU 0.74 21.2 94.0 4.1 ok
22-01-2021 02:47:34 YCU 0.75 21.3 94.0 4.1 ok
22-01-2021 02:37:34 YCU 0.78 21.4 94.0 4.1 ok
22-01-2021 02:27:34 YCU 0.69 21.6 94.0 4.1 ok
22-01-2021 02:17:34 YCU 0.77 21.7 94.0 4.1 ok
22-01-2021 02:07:33 YCU 0.71 21.6 94.0 4.1 ok
22-01-2021 01:57:33 YCU 0.73 21.7 94.0 4.1 ok
22-01-2021 01:47:33 YCU 0.71 21.9 94.0 4.1 ok
22-01-2021 01:37:33 YCU 0.75 22.0 95.0 4.1 ok
22-01-2021 01:27:33 YCU 0.70 22.3 95.0 4.1 ok
22-01-2021 01:17:33 YCU 0.72 22.4 95.0 4.1 ok
22-01-2021 01:07:33 YCU 0.81 22.5 95.0 4.1 ok
22-01-2021 00:57:33 YCU 0.74 22.6 95.0 4.1 ok
22-01-2021 00:47:32 YCU 0.73 22.8 95.0 4.1 ok
22-01-2021 00:37:32 YCU 0.73 22.9 95.0 4.1 ok
22-01-2021 00:27:31 YCU 0.76 23.0 95.0 4.1 ok
22-01-2021 00:17:30 YCU 0.78 23.1 95.0 4.1 ok
22-01-2021 00:07:30 YCU 0.76 23.2 95.0 4.1 ok
21-01-2021 23:57:30 YCU 0.80 23.3 95.0 4.1 ok
21-01-2021 23:47:30 YCU 0.77 23.4 95.0 4.1 ok
21-01-2021 23:37:30 YCU 0.80 23.6 95.0 4.1 ok
21-01-2021 23:27:30 YCU 0.75 23.7 95.0 4.1 ok
21-01-2021 23:17:30 YCU 0.73 23.8 95.0 4.1 ok
21-01-2021 23:07:30 YCU 0.80 24.0 95.0 4.1 ok
21-01-2021 22:57:28 YCU 0.85 24.2 95.0 4.1 ok
21-01-2021 22:47:28 YCU 0.86 24.4 95.0 4.1 ok
21-01-2021 22:37:28 YCU 0.81 24.7 95.0 4.1 ok
21-01-2021 22:27:28 YCU 0.79 24.9 95.0 4.1 ok
21-01-2021 22:17:28 YCU 0.81 25.0 95.0 4.1 ok
21-01-2021 22:07:28 YCU 0.87 25.0 95.0 4.1 ok
21-01-2021 21:57:28 YCU 0.83 25.0 95.0 4.1 ok
21-01-2021 21:47:28 YCU 0.83 24.9 95.0 4.1 ok
21-01-2021 21:37:28 YCU 0.82 24.8 95.0 4.1 ok
21-01-2021 21:27:28 YCU 0.80 24.7 95.0 4.1 ok
21-01-2021 21:17:27 YCU 0.80 24.6 95.0 4.1 ok
21-01-2021 21:07:27 YCU 0.84 24.5 95.0 4.1 ok
21-01-2021 20:57:27 YCU 0.81 24.5 95.0 4.1 ok
21-01-2021 20:47:27 YCU 0.81 24.5 95.0 4.1 ok
21-01-2021 20:37:27 YCU 0.84 24.4 95.0 4.1 ok
21-01-2021 20:27:27 YCU 0.78 24.4 95.0 4.1 ok
21-01-2021 20:17:27 YCU 0.73 24.3 95.0 4.1 ok
21-01-2021 20:07:27 YCU 0.73 24.4 95.0 4.1 ok
21-01-2021 19:57:26 YCU 0.76 24.5 95.0 4.1 ok
21-01-2021 19:47:26 YCU 0.85 24.7 95.0 4.1 ok
21-01-2021 19:37:26 YCU 0.79 24.8 95.0 4.1 ok
21-01-2021 19:27:26 YCU 0.81 25.3 95.0 4.1 ok
21-01-2021 19:17:26 YCU 0.69 25.4 95.0 4.1 ok
21-01-2021 19:07:26 YCU 0.73 25.4 95.0 4.1 ok
21-01-2021 18:57:25 YCU 0.80 25.6 95.0 4.1 ok
21-01-2021 18:47:25 YCU 0.83 25.9 95.0 4.1 ok
21-01-2021 18:37:25 YCU 0.79 25.9 95.0 4.1 ok
21-01-2021 18:27:25 YCU 0.64 25.8 95.0 4.1 ok
21-01-2021 18:17:24 YCU 0.78 25.4 95.0 4.1 ok
21-01-2021 18:07:24 YCU 0.69 25.3 95.0 4.1 ok
21-01-2021 17:57:25 YCU 0.77 25.3 95.0 4.1 ok
21-01-2021 17:47:25 YCU 0.83 25.3 95.0 4.1 ok
21-01-2021 17:37:25 YCU 0.77 25.6 95.0 4.1 ok
21-01-2021 17:27:25 YCU 0.64 25.6 95.0 4.1 ok
21-01-2021 17:17:26 YCU 0.73 25.6 95.0 4.1 WF
21-01-2021 17:05:11 YCU 0.76 25.3 95.0 4.1 ok
21-01-2021 16:55:10 YCU 0.75 25.4 95.0 4.1 ok
21-01-2021 16:45:10 YCU 0.82 25.3 95.0 4.1 ok
21-01-2021 16:35:10 YCU 0.75 25.4 95.0 4.1 ok
21-01-2021 16:25:10 YCU 0.74 25.4 95.0 4.1 ok
21-01-2021 16:15:10 YCU 0.78 25.4 95.0 4.1 ok
21-01-2021 16:05:10 YCU 0.73 25.5 95.0 4.1 ok
21-01-2021 15:55:10 YCU 0.72 25.5 95.0 4.1 ok
21-01-2021 15:45:10 YCU 0.72 25.6 95.0 4.1 ok
21-01-2021 15:35:10 YCU 0.71 25.6 95.0 4.1 ok
21-01-2021 15:25:09 YCU 0.77 25.9 95.0 4.1 ok
21-01-2021 15:15:09 YCU 0.73 25.9 95.0 4.1 ok
21-01-2021 15:05:09 YCU 0.73 25.9 95.0 4.1 ok
21-01-2021 14:55:09 YCU 0.69 26.0 95.0 4.1 ok
21-01-2021 14:45:08 YCU 0.72 26.1 95.0 4.1 ok
21-01-2021 14:35:08 YCU 0.68 26.3 95.0 4.1 ok
21-01-2021 14:25:08 YCU 0.68 26.3 95.0 4.1 ok
21-01-2021 14:15:08 YCU 0.65 26.4 95.0 4.1 ok
21-01-2021 14:05:07 YCU 0.63 26.5 95.0 4.1 ok
21-01-2021 13:55:07 YCU 0.64 26.7 95.0 4.1 ok
21-01-2021 13:45:07 YCU 0.63 26.9 95.0 4.1 ok
21-01-2021 13:35:07 YCU 0.62 27.4 95.0 4.1 ok
21-01-2021 13:25:07 YCU 0.60 27.6 95.0 4.1 ok
21-01-2021 13:15:07 YCU 0.62 27.7 95.0 4.1 ok
21-01-2021 13:05:06 YCU 0.60 28.0 95.0 4.1 ok
21-01-2021 12:55:06 YCU 0.60 28.0 95.0 4.1 ok
21-01-2021 12:45:06 YCU 0.61 28.0 95.0 4.1 ok
21-01-2021 12:35:06 YCU 0.57 28.2 95.0 4.1 ok
21-01-2021 12:25:06 YCU 0.62 28.2 95.0 4.1 ok
21-01-2021 12:15:05 YCU 0.67 28.3 95.0 4.1 ok
21-01-2021 12:05:05 YCU 0.65 28.3 95.0 4.1 ok
21-01-2021 11:55:05 YCU 0.60 28.2 95.0 4.1 ok
21-01-2021 11:45:04 YCU 0.63 28.3 95.0 4.1 ok
21-01-2021 11:35:04 YCU 0.62 28.1 95.0 4.1 ok
21-01-2021 11:25:04 YCU 0.63 27.9 95.0 4.1 ok
21-01-2021 11:15:03 YCU 0.62 27.7 95.0 4.1 ok
21-01-2021 11:05:02 YCU 0.69 27.6 95.0 4.1 ok
21-01-2021 10:55:02 YCU 0.68 27.4 95.0 4.1 ok
21-01-2021 10:45:02 YCU 0.73 27.3 95.0 4.1 ok
21-01-2021 10:35:02 YCU 0.71 27.2 95.0 4.1 ok
21-01-2021 10:25:01 YCU 0.74 27.0 95.0 4.1 ok
21-01-2021 10:15:01 YCU 0.78 26.7 95.0 4.1 ok
21-01-2021 10:05:01 YCU 0.79 26.4 95.0 4.1 ok
21-01-2021 09:55:00 YCU 0.76 26.2 95.0 4.1 ok
21-01-2021 09:45:00 YCU 0.80 26.0 95.0 4.1 ok
21-01-2021 09:35:00 YCU 0.82 25.7 95.0 4.1 ok
21-01-2021 09:25:00 YCU 0.82 25.2 95.0 4.1 ok
21-01-2021 09:15:00 YCU 0.78 25.0 95.0 4.1 ok
21-01-2021 09:05:00 YCU 0.81 24.9 95.0 4.1 ok
21-01-2021 08:54:59 YCU 0.82 24.7 95.0 4.1 ok
21-01-2021 08:44:59 YCU 0.78 24.2 95.0 4.1 ok
21-01-2021 08:34:59 YCU 0.81 24.3 95.0 4.1 ok
21-01-2021 08:24:59 YCU 0.76 23.9 95.0 4.1 ok
21-01-2021 08:14:59 YCU 0.82 23.5 95.0 4.1 ok
21-01-2021 08:04:59 YCU 0.77 23.4 95.0 4.1 ok
21-01-2021 07:54:58 YCU 0.75 23.3 95.0 4.1 ok
21-01-2021 07:44:58 YCU 0.78 23.2 95.0 4.1 ok
21-01-2021 07:34:58 YCU 0.77 23.0 95.0 4.1 ok
21-01-2021 07:24:59 YCU 0.78 22.4 95.0 4.1 ok
21-01-2021 07:14:58 YCU 0.73 21.9 94.0 4.1 ok
21-01-2021 07:04:57 YCU 0.77 21.2 94.0 4.1 ok
21-01-2021 06:54:57 YCU 0.81 20.7 93.0 4.1 ok
21-01-2021 06:44:57 YCU 0.82 20.6 93.0 4.1 ok
21-01-2021 06:34:57 YCU 0.79 20.4 93.0 4.1 ok
21-01-2021 06:24:57 YCU 0.79 20.2 93.0 4.1 ok
21-01-2021 06:14:57 YCU 0.77 20.1 93.0 4.1 ok
21-01-2021 06:04:57 YCU 0.78 20.1 93.0 4.1 ok
21-01-2021 05:54:57 YCU 0.77 20.1 93.0 4.1 ok
21-01-2021 05:44:57 YCU 0.76 20.1 93.0 4.1 ok
21-01-2021 05:34:57 YCU 0.80 20.0 93.0 4.1 ok
21-01-2021 05:24:57 YCU 0.78 19.9 93.0 4.1 ok
21-01-2021 05:14:57 YCU 0.77 20.0 93.0 4.1 ok
21-01-2021 05:04:57 YCU 0.77 19.9 93.0 4.1 ok
21-01-2021 04:54:57 YCU 0.77 20.0 93.0 4.1 ok
21-01-2021 04:44:56 YCU 0.80 20.1 93.0 4.1 ok
21-01-2021 04:34:56 YCU 0.73 20.0 93.0 4.1 ok
21-01-2021 04:24:56 YCU 0.73 20.0 93.0 4.1 ok
21-01-2021 04:14:56 YCU 0.72 20.0 93.0 4.1 ok
21-01-2021 04:04:56 YCU 0.68 20.0 93.0 4.1 ok
21-01-2021 03:54:57 YCU 0.70 20.1 93.0 4.1 ok
21-01-2021 03:44:57 YCU 0.68 20.2 93.0 4.1 ok
21-01-2021 03:34:57 YCU 0.70 20.3 93.0 4.1 ok
21-01-2021 03:24:57 YCU 0.69 20.3 93.0 4.1 ok
21-01-2021 03:14:56 YCU 0.69 20.4 93.0 4.1 ok
21-01-2021 03:04:56 YCU 0.71 20.5 93.0 4.1 ok
21-01-2021 02:54:57 YCU 0.74 20.5 93.0 4.1 ok
21-01-2021 02:44:56 YCU 0.74 20.7 93.0 4.1 ok
21-01-2021 02:34:56 YCU 0.74 20.8 93.0 4.1 ok
21-01-2021 02:24:56 YCU 0.76 20.9 93.0 4.1 ok
21-01-2021 02:14:56 YCU 0.75 21.0 94.0 4.1 ok
21-01-2021 02:04:56 YCU 0.74 21.1 94.0 4.1 ok
21-01-2021 01:54:55 YCU 0.75 21.2 94.0 4.1 ok
21-01-2021 01:44:55 YCU 0.71 21.4 94.0 4.1 ok
21-01-2021 01:34:55 YCU 0.70 21.6 94.0 4.1 ok
21-01-2021 01:24:55 YCU 0.73 21.7 94.0 4.1 ok
21-01-2021 01:14:55 YCU 0.72 21.9 94.0 4.1 ok
21-01-2021 01:04:55 YCU 0.71 22.1 95.0 4.1 ok
21-01-2021 00:54:55 YCU 0.68 22.2 95.0 4.1 ok
21-01-2021 00:44:55 YCU 0.68 22.4 95.0 4.1 ok
21-01-2021 00:34:55 YCU 0.68 22.7 95.0 4.1 ok
21-01-2021 00:24:55 YCU 0.71 22.8 95.0 4.1 ok
21-01-2021 00:14:55 YCU 0.71 23.0 95.0 4.1 ok
21-01-2021 00:04:55 YCU 0.72 23.2 95.0 4.1 ok
20-01-2021 23:54:54 YCU 0.72 23.2 95.0 4.1 ok
20-01-2021 23:44:54 YCU 0.71 23.3 95.0 4.1 ok
20-01-2021 23:34:54 YCU 0.70 23.2 95.0 4.1 ok
20-01-2021 23:24:54 YCU 0.72 23.4 95.0 4.1 ok
20-01-2021 23:14:54 YCU 0.76 23.5 95.0 4.1 ok
20-01-2021 23:04:54 YCU 0.76 23.6 95.0 4.1 ok
20-01-2021 22:54:53 YCU 0.78 23.7 95.0 4.1 ok
20-01-2021 22:44:53 YCU 0.78 23.7 95.0 4.1 ok
20-01-2021 22:34:53 YCU 0.82 23.8 95.0 4.1 ok
20-01-2021 22:24:53 YCU 0.82 23.7 95.0 4.1 ok
20-01-2021 22:14:53 YCU 0.85 23.9 95.0 4.1 ok
20-01-2021 22:04:53 YCU 0.87 23.8 95.0 4.1 ok
20-01-2021 21:54:52 YCU 0.91 23.7 95.0 4.1 ok
20-01-2021 21:44:52 YCU 0.94 23.6 95.0 4.1 ok
20-01-2021 21:34:52 YCU 0.96 23.7 95.0 4.1 ok
20-01-2021 21:24:52 YCU 0.96 23.8 95.0 4.1 ok
20-01-2021 21:14:52 YCU 0.94 23.7 95.0 4.1 ok
20-01-2021 21:04:52 YCU 0.92 23.9 95.0 4.1 ok
20-01-2021 20:54:52 YCU 0.96 23.8 95.0 4.1 ok
20-01-2021 20:44:52 YCU 0.96 23.9 95.0 4.1 ok
20-01-2021 20:34:51 YCU 0.91 23.8 95.0 4.1 ok
20-01-2021 20:24:51 YCU 0.94 23.9 95.0 4.1 ok
20-01-2021 20:14:51 YCU 0.93 23.9 95.0 4.1 ok
20-01-2021 20:04:51 YCU 0.92 24.1 95.0 4.1 ok
20-01-2021 19:54:50 YCU 0.92 24.2 95.0 4.1 ok
20-01-2021 19:44:51 YCU 0.93 24.4 95.0 4.1 ok
20-01-2021 19:34:50 YCU 0.90 24.8 95.0 4.1 ok
20-01-2021 19:24:50 YCU 0.90 25.0 95.0 4.1 ok
20-01-2021 19:14:50 YCU 0.92 25.1 95.0 4.1 ok
20-01-2021 19:04:50 YCU 0.90 25.3 95.0 4.1 ok
20-01-2021 18:54:50 YCU 0.88 25.4 95.0 4.1 ok
20-01-2021 18:44:50 YCU 0.84 25.6 95.0 4.1 ok
20-01-2021 18:34:50 YCU 0.82 25.6 95.0 4.1 ok
20-01-2021 18:24:50 YCU 0.83 25.4 95.0 4.1 ok
20-01-2021 18:14:50 YCU 0.84 25.0 95.0 4.1 ok
20-01-2021 18:04:49 YCU 0.84 24.9 95.0 4.1 ok
20-01-2021 17:54:50 YCU 0.84 25.0 95.0 4.1 ok
20-01-2021 17:44:44 YCU 0.80 24.9 95.0 4.1 ok
20-01-2021 17:34:45 YCU 0.81 25.0 95.0 4.1 WF
20-01-2021 17:22:43 YCU 0.85 25.1 95.0 4.1 ok
20-01-2021 17:12:40 YCU 0.87 25.1 95.0 4.1 ok
20-01-2021 17:02:40 YCU 0.84 25.0 95.0 4.1 ok
20-01-2021 16:52:40 YCU 0.88 24.9 95.0 4.1 ok
20-01-2021 16:42:40 YCU 0.82 25.0 95.0 4.1 ok
20-01-2021 16:32:41 YCU 0.86 25.0 95.0 4.1 ok
20-01-2021 16:22:40 YCU 0.88 25.0 95.0 4.1 ok
20-01-2021 16:12:40 YCU 0.85 25.1 95.0 4.1 ok
20-01-2021 16:02:40 YCU 0.89 25.3 95.0 4.1 ok
20-01-2021 15:52:40 YCU 0.88 25.4 95.0 4.1 ok
20-01-2021 15:42:40 YCU 0.90 25.4 95.0 4.1 ok
20-01-2021 15:32:40 YCU 0.86 25.5 95.0 4.1 ok
20-01-2021 15:22:40 YCU 0.90 25.6 95.0 4.1 ok
20-01-2021 15:12:40 YCU 0.84 25.7 95.0 4.1 ok
20-01-2021 15:02:39 YCU 0.83 25.7 95.0 4.1 ok
20-01-2021 14:52:39 YCU 0.83 26.0 95.0 4.1 ok
20-01-2021 14:42:39 YCU 0.83 26.0 95.0 4.1 ok
20-01-2021 14:32:39 YCU 0.85 26.3 95.0 4.1 ok
20-01-2021 14:22:39 YCU 0.81 26.5 95.0 4.1 ok
20-01-2021 14:12:39 YCU 0.78 26.7 95.0 4.1 ok
20-01-2021 14:02:39 YCU 0.76 27.0 95.0 4.1 ok
20-01-2021 13:52:39 YCU 0.78 27.3 95.0 4.1 ok
20-01-2021 13:42:39 YCU 0.74 27.9 95.0 4.1 ok
20-01-2021 13:32:39 YCU 0.71 28.5 95.0 4.1 ok
20-01-2021 13:22:39 YCU 0.69 28.8 95.0 4.1 ok
20-01-2021 13:12:38 YCU 0.70 28.9 95.0 4.1 ok
20-01-2021 13:02:38 YCU 0.68 29.1 95.0 4.1 ok
20-01-2021 12:52:38 YCU 0.65 29.3 95.0 4.1 ok
20-01-2021 12:42:38 YCU 0.68 29.4 95.0 4.1 ok
20-01-2021 12:32:38 YCU 0.63 29.7 95.0 4.1 ok
20-01-2021 12:22:38 YCU 0.66 29.7 95.0 4.1 ok
20-01-2021 12:12:38 YCU 0.69 29.8 95.0 4.1 ok
20-01-2021 12:02:38 YCU 0.70 29.9 95.0 4.1 ok
20-01-2021 11:52:38 YCU 0.62 29.9 95.0 4.1 ok
20-01-2021 11:42:38 YCU 0.65 29.9 54.0 4.1 ok
20-01-2021 11:32:38 YCU 0.60 29.9 54.0 4.1 ok
20-01-2021 11:22:38 YCU 0.65 29.8 87.0 4.1 ok
20-01-2021 11:12:38 YCU 0.68 29.7 36.0 4.1 ok
20-01-2021 11:02:38 YCU 0.68 29.7 32.0 4.1 ok
20-01-2021 10:52:37 YCU 0.64 29.6 21.0 4.1 ok
20-01-2021 10:42:37 YCU 0.70 29.4 8.0 4.1 ok
20-01-2021 10:32:37 YCU 0.75 29.2 32.0 4.1 ok
20-01-2021 10:22:36 YCU 0.71 29.1 26.0 4.1 ok
20-01-2021 10:12:36 YCU 0.78 29.0 8.0 4.1 ok
20-01-2021 10:02:36 YCU 0.83 28.9 7.0 4.1 ok
20-01-2021 09:52:36 YCU 0.81 28.8 7.0 4.1 ok
20-01-2021 09:42:36 YCU 0.84 28.6 39.0 4.1 ok
20-01-2021 09:32:36 YCU 0.89 28.5 25.0 4.1 ok
20-01-2021 09:22:36 YCU 0.91 28.3 45.0 4.1 ok
20-01-2021 09:12:36 YCU 0.93 28.2 30.0 4.1 WF
20-01-2021 09:00:01 YCU 0.98 27.8 48.0 4.1 ok
20-01-2021 08:50:01 YCU 0.92 27.4 78.0 4.1 ok
20-01-2021 08:40:01 YCU 0.99 27.2 44.0 4.1 ok
20-01-2021 08:30:01 YCU 0.94 27.0 39.0 4.1 ok
20-01-2021 08:20:01 YCU 0.97 26.9 37.0 4.1 ok
20-01-2021 08:10:01 YCU 0.95 26.5 67.0 4.1 ok
20-01-2021 08:00:00 YCU 0.91 26.0 55.0 4.1 ok
20-01-2021 07:50:00 YCU 0.89 25.3 57.0 4.1 ok
20-01-2021 07:40:00 YCU 0.94 24.9 95.0 4.1 ok
20-01-2021 07:30:00 YCU 0.98 24.4 95.0 4.1 ok
20-01-2021 07:20:00 YCU 0.90 23.8 95.0 4.1 ok
20-01-2021 07:10:00 YCU 0.96 23.1 95.0 4.1 ok
20-01-2021 06:59:59 YCU 0.95 22.3 95.0 4.1 ok
20-01-2021 06:49:59 YCU 0.96 22.2 95.0 4.1 ok
20-01-2021 06:39:59 YCU 0.93 22.1 95.0 4.1 ok
20-01-2021 06:29:59 YCU 0.97 21.7 94.0 4.1 ok
20-01-2021 06:19:59 YCU 0.94 21.7 94.0 4.1 ok
20-01-2021 06:09:59 YCU 0.96 21.6 94.0 4.1 ok
20-01-2021 05:59:58 YCU 0.97 21.6 94.0 4.1 ok
20-01-2021 05:49:58 YCU 0.97 21.6 94.0 4.1 ok
20-01-2021 05:39:58 YCU 1.00 21.6 94.0 4.1 ok
20-01-2021 05:29:58 YCU 0.97 21.6 94.0 4.1 ok
20-01-2021 05:19:58 YCU 0.98 21.6 94.0 4.1 ok
20-01-2021 05:09:58 YCU 0.99 21.6 94.0 4.1 ok
20-01-2021 04:59:57 YCU 1.02 21.6 94.0 4.1 ok
20-01-2021 04:49:57 YCU 1.02 21.7 94.0 4.1 ok
20-01-2021 04:39:57 YCU 1.03 21.7 94.0 4.1 ok
20-01-2021 04:29:57 YCU 1.04 21.8 79.0 4.1 ok
20-01-2021 04:19:57 YCU 0.97 22.0 95.0 4.1 ok
20-01-2021 04:09:57 YCU 0.97 22.1 95.0 4.1 ok
20-01-2021 03:59:57 YCU 0.99 22.2 95.0 4.1 ok
20-01-2021 03:49:56 YCU 1.03 22.3 95.0 4.1 ok
20-01-2021 03:39:56 YCU 1.01 22.3 95.0 4.1 ok
20-01-2021 03:29:56 YCU 1.00 22.5 95.0 4.1 ok
20-01-2021 03:19:56 YCU 1.01 22.5 95.0 4.1 ok
20-01-2021 03:09:56 YCU 1.04 22.6 95.0 4.1 ok
20-01-2021 02:59:56 YCU 1.05 22.7 95.0 4.1 ok
20-01-2021 02:49:56 YCU 1.05 22.9 95.0 4.1 ok
20-01-2021 02:39:56 YCU 1.08 23.1 74.0 4.1 ok
20-01-2021 02:29:56 YCU 1.10 23.3 95.0 4.1 ok
20-01-2021 02:19:56 YCU 1.08 23.4 13.0 4.1 ok
20-01-2021 02:09:56 YCU 1.07 23.5 37.0 4.1 ok
20-01-2021 01:59:56 YCU 1.09 23.6 38.0 4.1 ok
20-01-2021 01:49:56 YCU 1.12 23.6 19.0 4.1 ok
20-01-2021 01:39:56 YCU 1.08 23.7 91.0 4.1 ok
20-01-2021 01:29:56 YCU 1.06 23.7 95.0 4.1 ok
20-01-2021 01:19:55 YCU 1.12 23.7 20.0 4.1 ok
20-01-2021 01:09:55 YCU 1.11 23.7 95.0 4.1 ok
20-01-2021 00:59:55 YCU 1.11 23.7 95.0 4.1 ok
20-01-2021 00:49:55 YCU 1.10 23.7 95.0 4.1 ok
20-01-2021 00:39:55 YCU 1.09 23.7 95.0 4.1 ok
20-01-2021 00:29:55 YCU 1.09 23.8 95.0 4.1 ok
20-01-2021 00:19:55 YCU 1.09 23.8 95.0 4.1 ok
20-01-2021 00:09:55 YCU 1.10 23.9 95.0 4.1 ok
19-01-2021 23:59:55 YCU 1.16 23.9 95.0 4.1 ok
19-01-2021 23:49:55 YCU 1.06 23.9 95.0 4.1 ok
19-01-2021 23:39:55 YCU 1.09 24.0 95.0 4.1 ok
19-01-2021 23:29:55 YCU 1.11 24.1 95.0 4.1 ok
19-01-2021 23:19:55 YCU 1.10 24.1 95.0 4.1 ok
19-01-2021 23:09:55 YCU 1.09 24.2 95.0 4.1 ok
19-01-2021 22:59:55 YCU 1.15 24.3 95.0 4.1 ok
19-01-2021 22:49:55 YCU 1.12 24.2 95.0 4.1 ok
19-01-2021 22:39:55 YCU 1.21 24.2 95.0 4.1 ok
19-01-2021 22:29:53 YCU 1.17 24.4 95.0 4.1 ok
19-01-2021 22:19:53 YCU 1.22 24.6 95.0 4.1 ok
19-01-2021 22:09:53 YCU 1.26 24.8 95.0 4.1 ok
19-01-2021 21:59:53 YCU 1.24 24.9 95.0 4.1 ok
19-01-2021 21:49:53 YCU 1.27 24.9 95.0 4.1 ok
19-01-2021 21:39:53 YCU 1.29 24.8 95.0 4.1 ok
19-01-2021 21:29:53 YCU 1.34 24.8 95.0 4.1 ok
19-01-2021 21:19:53 YCU 1.37 24.8 95.0 4.1 ok
19-01-2021 21:09:53 YCU 1.38 24.7 95.0 4.1 ok
19-01-2021 20:59:53 YCU 1.40 24.8 95.0 4.1 ok
19-01-2021 20:49:53 YCU 1.40 24.8 95.0 4.1 ok
19-01-2021 20:39:53 YCU 1.45 24.9 95.0 4.1 ok
19-01-2021 20:29:53 YCU 1.41 24.9 95.0 4.1 ok
19-01-2021 20:19:53 YCU 1.48 25.2 95.0 4.1 ok
19-01-2021 20:09:53 YCU 1.38 25.4 95.0 4.1 ok
19-01-2021 19:59:53 YCU 1.48 25.7 95.0 4.1 ok
19-01-2021 19:49:53 YCU 1.41 26.4 95.0 4.1 ok
19-01-2021 19:39:52 YCU 1.41 27.2 95.0 4.1 ok
19-01-2021 19:29:52 YCU 1.47 28.0 95.0 4.1 ok
19-01-2021 19:19:52 YCU 1.41 28.2 95.0 4.1 ok
19-01-2021 19:09:52 YCU 1.40 28.4 95.0 4.1 ok
19-01-2021 18:59:52 YCU 1.38 28.6 95.0 4.1 ok
19-01-2021 18:49:52 YCU 1.35 28.8 95.0 4.1 ok
19-01-2021 18:39:51 YCU 1.35 28.9 95.0 4.1 ok
19-01-2021 18:29:51 YCU 1.32 28.5 94.0 4.1 ok
19-01-2021 18:19:51 YCU 1.34 28.0 95.0 4.1 ok
19-01-2021 18:09:51 YCU 1.36 27.6 93.0 4.1 ok
19-01-2021 17:59:51 YCU 1.35 27.6 95.0 4.1 ok
19-01-2021 17:49:51 YCU 1.31 27.7 95.0 4.1 ok
19-01-2021 17:39:51 YCU 1.30 27.7 95.0 4.1 ok
19-01-2021 17:29:51 YCU 1.28 27.6 95.0 4.1 ok
19-01-2021 17:19:51 YCU 1.32 27.6 95.0 4.1 ok
19-01-2021 17:09:51 YCU 1.31 27.4 95.0 4.1 ok
19-01-2021 16:59:51 YCU 1.27 27.3 95.0 4.1 ok
19-01-2021 16:49:50 YCU 1.24 27.3 95.0 4.1 ok
19-01-2021 16:39:50 YCU 1.24 27.3 95.0 4.1 ok
19-01-2021 16:29:50 YCU 1.18 27.4 95.0 4.1 ok
19-01-2021 16:19:48 YCU 1.15 27.3 95.0 4.1 ok
19-01-2021 16:09:48 YCU 1.22 27.3 95.0 4.1 ok
19-01-2021 15:59:48 YCU 1.17 27.2 95.0 4.1 ok
19-01-2021 15:49:47 YCU 1.15 27.2 95.0 4.1 ok
19-01-2021 15:39:47 YCU 1.20 27.3 95.0 4.1 ok
19-01-2021 15:29:47 YCU 1.19 27.2 95.0 4.1 WF
19-01-2021 15:17:47 YCU 1.18 27.2 95.0 4.1 ok
19-01-2021 15:07:47 YCU 1.21 27.2 95.0 4.1 ok
19-01-2021 14:57:46 YCU 1.17 27.3 95.0 4.1 ok
19-01-2021 14:47:45 YCU 1.19 27.4 95.0 4.1 ok
19-01-2021 14:37:45 YCU 1.18 27.6 95.0 4.1 ok
19-01-2021 14:27:45 YCU 1.17 27.7 95.0 4.1 ok
19-01-2021 14:17:46 YCU 1.11 27.7 95.0 4.1 WF
19-01-2021 14:05:45 YCU 1.13 28.0 33.0 4.1 ok
19-01-2021 13:55:45 YCU 1.15 28.4 95.0 4.1 ok
19-01-2021 13:45:45 YCU 1.08 28.5 95.0 4.1 WF
19-01-2021 13:33:45 YCU 1.09 29.6 58.0 4.1 ok
19-01-2021 13:23:45 YCU 1.08 30.2 32.0 4.1 ok
19-01-2021 13:13:45 YCU 1.08 30.9 8.0 4.1 ok
19-01-2021 13:03:45 YCU 1.03 31.3 23.0 4.1 ok
19-01-2021 12:53:45 YCU 0.96 31.3 9.0 4.1 ok
19-01-2021 12:43:44 YCU 0.91 31.2 9.0 4.1 ok
19-01-2021 12:33:44 YCU 0.87 31.9 9.0 4.1 ok
19-01-2021 12:23:44 YCU 0.88 32.5 9.0 4.1 ok
19-01-2021 12:13:44 YCU 0.87 31.9 9.0 4.1 ok
19-01-2021 12:03:44 YCU 0.89 31.7 19.0 4.1 ok
19-01-2021 11:53:44 YCU 0.81 31.3 9.0 4.1 ok
19-01-2021 11:43:44 YCU 0.84 31.1 9.0 4.1 ok
19-01-2021 11:33:44 YCU 0.81 30.6 8.0 4.1 ok
19-01-2021 11:23:44 YCU 0.80 30.0 8.0 4.1 ok
19-01-2021 11:13:44 YCU 0.78 29.3 8.0 4.1 ok
19-01-2021 11:03:44 YCU 0.71 28.9 7.0 4.1 ok
19-01-2021 10:53:44 YCU 0.75 28.4 7.0 4.1 ok
19-01-2021 10:43:44 YCU 0.69 28.2 7.0 4.1 ok
19-01-2021 10:33:43 YCU 0.77 27.8 6.0 4.1 ok
19-01-2021 10:23:43 YCU 0.70 27.4 6.0 4.1 ok
19-01-2021 10:13:43 YCU 0.73 27.1 95.0 4.1 ok
19-01-2021 10:03:43 YCU 0.72 26.7 94.0 4.1 ok
19-01-2021 09:53:43 YCU 0.77 26.6 95.0 4.1 ok
19-01-2021 09:43:42 YCU 0.79 26.2 95.0 4.1 ok
19-01-2021 09:33:42 YCU 0.83 26.0 95.0 4.1 ok
19-01-2021 09:23:42 YCU 0.82 25.3 95.0 4.1 ok
19-01-2021 09:13:42 YCU 0.81 25.0 95.0 4.1 ok
19-01-2021 09:03:42 YCU 0.87 24.5 95.0 4.1 ok
19-01-2021 08:53:42 YCU 0.88 24.0 95.0 4.1 ok
19-01-2021 08:43:42 YCU 0.88 23.7 95.0 4.1 ok
19-01-2021 08:33:42 YCU 0.94 23.7 95.0 4.1 ok
19-01-2021 08:23:42 YCU 0.96 23.3 95.0 4.1 ok
19-01-2021 08:13:42 YCU 0.97 23.1 95.0 4.1 ok
19-01-2021 08:03:42 YCU 0.94 22.9 95.0 4.1 ok
19-01-2021 07:53:43 YCU 0.91 22.5 95.0 4.1 ok
19-01-2021 07:43:43 YCU 0.94 22.5 95.0 4.1 WF
19-01-2021 07:31:42 YCU 0.87 21.6 94.0 4.1 ok
19-01-2021 07:21:42 YCU 0.88 21.2 94.0 4.1 ok
19-01-2021 07:11:42 YCU 0.91 20.8 93.0 4.1 ok
19-01-2021 07:01:42 YCU 0.84 20.2 93.0 4.1 ok
19-01-2021 06:51:42 YCU 0.83 20.0 93.0 4.1 ok
19-01-2021 06:41:42 YCU 0.79 19.8 93.0 4.1 ok
19-01-2021 06:31:42 YCU 0.82 19.5 93.0 4.1 ok
19-01-2021 06:21:41 YCU 0.85 19.5 93.0 4.1 ok
19-01-2021 06:11:41 YCU 0.86 19.4 93.0 4.1 ok
19-01-2021 06:01:41 YCU 0.84 19.3 93.0 4.1 ok
19-01-2021 05:51:41 YCU 0.81 19.3 93.0 4.1 ok
19-01-2021 05:41:41 YCU 0.84 19.2 93.0 4.1 ok
19-01-2021 05:31:41 YCU 0.82 19.3 93.0 4.1 ok
19-01-2021 05:21:41 YCU 0.85 19.4 93.0 4.1 ok
19-01-2021 05:11:41 YCU 0.89 19.5 93.0 4.1 ok
19-01-2021 05:01:40 YCU 0.86 19.6 93.0 4.1 ok
19-01-2021 04:51:40 YCU 0.85 19.6 93.0 4.1 ok
19-01-2021 04:41:40 YCU 0.82 19.6 93.0 4.1 ok
19-01-2021 04:31:41 YCU 0.90 19.7 93.0 4.1 ok
19-01-2021 04:21:40 YCU 0.84 19.8 93.0 4.1 ok
19-01-2021 04:11:40 YCU 0.81 19.8 93.0 4.1 ok
19-01-2021 04:01:40 YCU 0.80 19.9 93.0 4.1 ok
19-01-2021 03:51:40 YCU 0.87 20.0 93.0 4.1 ok
19-01-2021 03:41:40 YCU 0.86 20.1 93.0 4.1 ok
19-01-2021 03:31:40 YCU 0.81 20.2 93.0 4.1 ok
19-01-2021 03:21:40 YCU 0.81 20.2 93.0 4.1 ok
19-01-2021 03:11:40 YCU 0.86 20.3 93.0 4.1 ok
19-01-2021 03:01:40 YCU 0.85 20.5 93.0 4.1 ok
19-01-2021 02:51:39 YCU 0.88 20.5 93.0 4.1 ok
19-01-2021 02:41:39 YCU 0.87 20.8 93.0 4.1 ok
19-01-2021 02:31:39 YCU 0.90 21.1 94.0 4.1 ok
19-01-2021 02:21:39 YCU 0.92 21.3 94.0 4.1 ok
19-01-2021 02:11:39 YCU 0.96 21.5 5.0 4.1 ok
19-01-2021 02:01:39 YCU 0.97 21.7 5.0 4.1 ok
19-01-2021 01:51:39 YCU 0.93 21.7 5.0 4.1 ok
19-01-2021 01:41:34 YCU 0.98 21.7 5.0 4.1 ok
19-01-2021 01:31:35 YCU 0.97 21.8 5.0 4.1 ok
19-01-2021 01:21:34 YCU 0.99 22.0 5.0 4.1 ok
19-01-2021 01:11:34 YCU 0.99 22.1 5.0 4.1 ok
19-01-2021 01:01:34 YCU 0.95 22.1 5.0 4.1 ok
19-01-2021 00:51:34 YCU 0.99 22.2 5.0 4.1 ok
19-01-2021 00:41:34 YCU 0.97 22.2 5.0 4.1 ok
19-01-2021 00:31:34 YCU 0.93 22.2 5.0 4.1 ok
19-01-2021 00:21:34 YCU 0.92 22.3 5.0 4.1 ok
19-01-2021 00:11:34 YCU 0.88 22.4 5.0 4.1 ok
19-01-2021 00:01:34 YCU 0.85 22.6 5.0 4.1 ok
18-01-2021 23:51:33 YCU 0.79 22.6 5.0 4.1 ok
18-01-2021 23:41:33 YCU 0.77 22.6 5.0 4.1 ok
18-01-2021 23:21:33 YCU 0.79 22.7 5.0 4.1 ok
18-01-2021 23:11:33 YCU 0.82 22.7 5.0 4.1 ok
18-01-2021 23:01:31 YCU 0.82 22.6 5.0 4.1 ok
18-01-2021 22:51:31 YCU 0.81 22.5 5.0 4.1 ok
18-01-2021 22:41:31 YCU 0.82 22.5 34.0 4.1 ok
18-01-2021 22:31:31 YCU 0.87 22.5 5.0 4.1 ok
18-01-2021 22:21:31 YCU 0.90 22.5 5.0 4.1 ok
18-01-2021 22:11:31 YCU 0.88 22.4 5.0 4.1 ok
18-01-2021 22:01:30 YCU 0.94 22.4 5.0 4.1 ok
18-01-2021 21:51:29 YCU 0.96 22.5 5.0 4.1 ok
18-01-2021 21:41:28 YCU 0.98 22.6 42.0 4.1 ok
18-01-2021 21:31:28 YCU 0.99 22.7 5.0 4.1 ok
18-01-2021 21:21:28 YCU 1.04 22.8 95.0 4.1 ok
18-01-2021 21:11:27 YCU 1.03 22.9 95.0 4.1 ok
18-01-2021 20:41:27 YCU 2.18 23.2 5.0 4.1 ok
18-01-2021 20:31:27 YCU 1.15 23.3 5.0 4.1 ok
18-01-2021 20:21:27 YCU 1.24 23.5 5.0 4.1 ok
18-01-2021 20:11:26 YCU 1.25 23.6 6.0 4.1 ok
18-01-2021 20:01:26 YCU 1.27 23.7 28.0 4.1 ok
18-01-2021 19:51:26 YCU 1.32 23.9 5.0 4.1 ok
18-01-2021 19:41:26 YCU 1.33 24.3 5.0 4.1 ok
18-01-2021 19:31:26 YCU 1.37 25.0 5.0 4.1 ok
18-01-2021 19:21:26 YCU 1.39 25.6 5.0 4.1 ok
18-01-2021 19:11:25 YCU 1.33 26.1 6.0 4.1 ok
18-01-2021 19:01:25 YCU 1.36 26.4 6.0 4.1 ok
18-01-2021 18:51:25 YCU 1.35 26.5 6.0 4.1 ok
18-01-2021 18:41:25 YCU 1.39 26.5 6.0 4.1 ok
18-01-2021 18:31:24 YCU 1.38 26.2 6.0 4.1 ok
18-01-2021 18:21:24 YCU 1.35 25.7 5.0 4.1 ok
18-01-2021 18:11:24 YCU 1.32 25.2 5.0 4.1 ok
18-01-2021 18:01:23 YCU 1.37 25.2 5.0 4.1 ok
18-01-2021 17:51:23 YCU 1.36 25.3 5.0 4.1 ok
18-01-2021 17:41:23 YCU 1.36 25.3 5.0 4.1 ok
18-01-2021 17:31:23 YCU 1.33 25.3 5.0 4.1 ok
18-01-2021 17:21:23 YCU 1.26 24.9 5.0 4.1 ok
18-01-2021 17:11:23 YCU 1.32 25.0 5.0 4.1 ok
18-01-2021 17:01:22 YCU 1.28 24.8 5.0 4.1 ok
18-01-2021 16:51:22 YCU 1.28 24.6 5.0 4.1 ok
18-01-2021 16:41:21 YCU 1.31 24.5 5.0 4.1 ok
18-01-2021 16:31:21 YCU 1.21 24.4 89.0 4.1 ok
18-01-2021 16:21:21 YCU 1.26 24.3 5.0 4.1 ok
18-01-2021 16:11:21 YCU 1.29 24.2 5.0 4.1 ok
18-01-2021 16:01:21 YCU 1.34 24.3 5.0 4.1 ok
18-01-2021 15:51:21 YCU 1.25 24.2 11.0 4.1 ok
18-01-2021 15:41:20 YCU 1.24 24.2 15.0 4.1 ok
18-01-2021 15:31:20 YCU 1.23 24.1 95.0 4.1 ok
18-01-2021 15:21:20 YCU 1.28 24.2 20.0 4.1 ok
18-01-2021 15:11:20 YCU 1.23 24.2 95.0 4.1 ok
18-01-2021 15:01:19 YCU 1.36 24.3 49.0 4.1 ok
18-01-2021 14:51:19 YCU 1.29 24.4 16.0 4.1 ok
18-01-2021 14:41:18 YCU 1.32 24.5 95.0 4.1 ok
18-01-2021 14:31:19 YCU 1.34 24.4 95.0 4.1 ok
18-01-2021 14:21:18 YCU 1.31 24.5 81.0 4.1 ok
18-01-2021 14:11:18 YCU 1.31 24.5 95.0 4.1 ok
18-01-2021 14:01:18 YCU 1.33 24.6 64.0 4.1 ok
18-01-2021 13:51:18 YCU 1.33 24.9 95.0 4.1 ok
18-01-2021 13:41:18 YCU 1.29 25.8 24.0 4.1 ok
18-01-2021 13:31:18 YCU 1.32 26.5 66.0 4.1 ok
18-01-2021 13:21:17 YCU 1.35 26.8 12.0 4.1 ok
18-01-2021 13:11:16 YCU 1.39 26.3 26.0 4.1 ok
18-01-2021 13:01:17 YCU 1.32 26.1 6.0 4.1 ok
18-01-2021 12:51:16 YCU 1.32 26.9 7.0 4.1 ok
18-01-2021 12:41:16 YCU 1.34 26.7 73.0 4.1 ok
18-01-2021 12:31:17 YCU 1.35 27.0 6.0 4.1 ok
18-01-2021 12:21:17 YCU 1.30 26.8 6.0 4.1 WF
18-01-2021 12:09:17 YCU 1.30 27.4 32.0 4.1 ok
18-01-2021 11:59:17 YCU 1.23 27.0 23.0 4.1 ok
18-01-2021 11:49:17 YCU 1.22 26.9 45.0 4.1 ok
18-01-2021 11:39:16 YCU 1.22 27.2 6.0 4.1 ok
18-01-2021 11:29:16 YCU 1.20 27.4 78.0 4.1 ok
18-01-2021 11:19:16 YCU 1.19 27.0 92.0 4.1 ok
18-01-2021 11:09:16 YCU 1.10 26.8 95.0 4.1 ok
18-01-2021 10:59:15 YCU 1.16 26.7 95.0 4.1 ok
18-01-2021 10:49:15 YCU 1.15 26.3 95.0 4.1 ok
18-01-2021 10:39:15 YCU 1.15 26.5 95.0 4.1 ok
18-01-2021 10:29:15 YCU 1.11 26.2 95.0 4.1 ok
18-01-2021 10:19:15 YCU 1.14 26.2 95.0 4.1 ok
18-01-2021 10:09:14 YCU 1.14 25.8 95.0 4.1 ok
18-01-2021 09:59:14 YCU 1.15 25.7 95.0 4.1 ok
18-01-2021 09:49:14 YCU 1.16 25.2 95.0 4.1 ok
18-01-2021 09:39:13 YCU 1.21 25.6 95.0 4.1 ok
18-01-2021 09:29:13 YCU 1.19 25.6 95.0 4.1 ok
18-01-2021 09:19:13 YCU 1.19 25.4 87.0 4.1 ok
18-01-2021 09:09:13 YCU 1.22 24.9 89.0 4.1 ok
18-01-2021 08:59:12 YCU 1.24 24.7 95.0 4.1 ok
18-01-2021 08:49:12 YCU 1.25 24.1 95.0 4.1 ok
18-01-2021 08:39:12 YCU 1.29 23.7 95.0 4.1 ok
18-01-2021 08:29:12 YCU 1.35 23.7 95.0 4.1 ok
18-01-2021 08:19:12 YCU 1.37 23.5 95.0 4.1 ok
18-01-2021 08:09:12 YCU 1.41 23.1 95.0 4.1 ok
18-01-2021 07:59:12 YCU 1.43 22.8 95.0 4.1 ok
18-01-2021 07:49:11 YCU 1.48 22.7 95.0 4.1 ok
18-01-2021 07:39:10 YCU 1.51 22.2 95.0 4.1 ok
18-01-2021 07:29:10 YCU 1.53 21.8 94.0 4.1 ok
18-01-2021 07:19:10 YCU 1.55 21.1 94.0 4.1 ok
18-01-2021 07:09:10 YCU 1.52 20.2 93.0 4.1 ok
18-01-2021 06:59:09 YCU 1.55 19.6 93.0 4.1 ok
18-01-2021 06:49:09 YCU 1.51 19.5 93.0 4.1 ok
18-01-2021 06:39:09 YCU 1.55 19.2 93.0 4.1 ok
18-01-2021 06:29:09 YCU 1.55 18.8 93.0 4.1 ok
18-01-2021 06:19:09 YCU 1.53 18.7 93.0 4.1 ok
18-01-2021 06:09:09 YCU 1.61 18.6 93.0 4.1 ok
18-01-2021 05:59:09 YCU 1.61 18.7 93.0 4.1 ok
18-01-2021 05:49:10 YCU 1.57 18.7 93.0 4.1 WF
18-01-2021 05:37:09 YCU 1.64 18.7 93.0 4.1 ok
18-01-2021 05:17:09 YCU 1.64 18.7 93.0 4.1 ok
18-01-2021 05:07:09 YCU 1.65 18.7 93.0 4.1 ok
18-01-2021 04:57:09 YCU 1.66 18.8 93.0 4.1 ok
18-01-2021 04:47:09 YCU 1.67 18.8 93.0 4.1 ok
18-01-2021 04:37:09 YCU 1.72 18.9 93.0 4.1 ok
18-01-2021 04:27:09 YCU 1.77 18.9 93.0 4.1 ok
18-01-2021 04:17:09 YCU 1.74 18.9 93.0 4.1 ok
18-01-2021 04:07:09 YCU 1.69 18.9 93.0 4.1 ok
18-01-2021 03:57:09 YCU 1.76 19.0 93.0 4.1 ok
18-01-2021 03:47:09 YCU 1.75 19.0 93.0 4.1 ok
18-01-2021 03:37:09 YCU 1.82 19.0 93.0 4.1 ok
18-01-2021 03:27:09 YCU 1.69 19.1 93.0 4.1 ok
18-01-2021 03:17:09 YCU 1.71 19.1 93.0 4.1 ok
18-01-2021 03:07:09 YCU 1.73 19.2 93.0 4.1 ok
18-01-2021 02:57:09 YCU 1.78 19.2 93.0 4.1 ok
18-01-2021 02:47:09 YCU 1.73 19.3 93.0 4.1 ok
18-01-2021 02:37:09 YCU 1.78 19.4 93.0 4.1 ok
18-01-2021 02:27:09 YCU 1.68 19.4 93.0 4.1 ok
18-01-2021 02:17:09 YCU 1.77 19.5 93.0 4.1 ok
18-01-2021 02:07:08 YCU 1.66 19.6 93.0 4.1 ok
18-01-2021 01:47:08 YCU 1.75 19.7 93.0 4.1 ok
18-01-2021 01:37:08 YCU 1.81 19.8 93.0 4.1 ok
18-01-2021 01:27:08 YCU 1.82 19.8 93.0 4.1 ok
18-01-2021 01:17:08 YCU 1.83 19.9 93.0 4.1 ok
18-01-2021 01:07:08 YCU 1.79 19.9 93.0 4.1 ok
18-01-2021 00:57:08 YCU 1.84 20.0 93.0 4.1 ok
18-01-2021 00:47:07 YCU 1.87 20.1 93.0 4.1 ok
18-01-2021 00:37:07 YCU 1.84 20.1 93.0 4.1 ok
18-01-2021 00:27:07 YCU 1.84 20.2 93.0 4.1 ok
18-01-2021 00:17:07 YCU 1.79 20.2 93.0 4.1 ok
18-01-2021 00:07:07 YCU 1.76 20.1 93.0 4.1 ok
17-01-2021 23:57:07 YCU 1.78 20.0 93.0 4.1 ok
17-01-2021 23:47:07 YCU 1.80 19.9 93.0 4.1 ok
17-01-2021 23:37:06 YCU 1.82 19.8 93.0 4.1 ok
17-01-2021 23:27:06 YCU 1.77 19.9 93.0 4.1 ok
17-01-2021 23:17:06 YCU 1.69 20.1 93.0 4.1 ok
17-01-2021 23:07:06 YCU 1.69 20.4 93.0 4.1 ok
17-01-2021 22:57:05 YCU 1.67 21.1 94.0 4.1 ok
17-01-2021 22:47:05 YCU 1.74 21.2 94.0 4.1 ok
17-01-2021 22:37:05 YCU 1.67 21.2 94.0 4.1 ok
17-01-2021 22:27:05 YCU 1.65 21.2 94.0 4.1 ok
17-01-2021 22:17:05 YCU 1.60 21.3 94.0 4.1 ok
17-01-2021 22:07:05 YCU 1.58 21.4 94.0 4.1 ok
17-01-2021 21:57:05 YCU 1.56 21.4 94.0 4.1 ok
17-01-2021 21:47:05 YCU 1.58 21.4 94.0 4.1 ok
17-01-2021 21:37:05 YCU 1.57 21.4 94.0 4.1 ok
17-01-2021 21:27:05 YCU 1.63 21.4 94.0 4.1 ok
17-01-2021 21:17:05 YCU 1.63 21.4 94.0 4.1 ok
17-01-2021 21:07:05 YCU 1.71 21.4 94.0 4.1 ok
17-01-2021 20:57:05 YCU 1.68 21.3 94.0 4.1 ok
17-01-2021 20:47:05 YCU 1.63 21.2 94.0 4.1 ok
17-01-2021 20:37:05 YCU 1.64 21.1 94.0 4.1 ok
17-01-2021 20:27:05 YCU 1.68 20.9 93.0 4.1 ok
17-01-2021 20:17:05 YCU 1.72 20.7 93.0 4.1 ok
17-01-2021 20:07:04 YCU 1.68 20.4 93.0 4.1 ok
17-01-2021 19:57:04 YCU 1.77 21.5 94.0 4.1 ok
17-01-2021 19:47:04 YCU 1.75 21.7 94.0 4.1 ok
17-01-2021 19:37:04 YCU 1.88 21.9 94.0 4.1 ok
17-01-2021 19:27:04 YCU 1.83 22.1 95.0 4.1 ok
17-01-2021 19:17:04 YCU 1.90 22.0 95.0 4.1 ok
17-01-2021 19:07:04 YCU 1.85 21.7 94.0 4.1 ok
17-01-2021 18:57:04 YCU 1.96 21.7 94.0 4.1 ok
17-01-2021 18:47:04 YCU 1.95 22.0 95.0 4.1 ok
17-01-2021 18:37:04 YCU 1.93 22.1 95.0 4.1 ok
17-01-2021 18:27:04 YCU 1.94 22.1 95.0 4.0 ON
17-01-2021 18:12:36 YCU 1.87 22.2 95.0 4.1 ok
17-01-2021 18:02:36 YCU 1.87 22.6 95.0 4.1 ok
17-01-2021 17:52:36 YCU 1.87 22.7 95.0 4.1 ok
17-01-2021 17:42:36 YCU 1.88 22.7 95.0 4.1 ok
17-01-2021 17:32:36 YCU 1.85 22.5 95.0 4.1 ok
17-01-2021 17:22:36 YCU 1.87 22.4 95.0 4.1 ok
17-01-2021 17:12:36 YCU 1.84 22.3 95.0 4.1 ok
17-01-2021 17:02:35 YCU 1.86 22.2 95.0 4.1 ok
17-01-2021 16:52:35 YCU 1.85 21.9 94.0 4.1 ok
17-01-2021 16:42:34 YCU 1.91 22.1 95.0 4.1 ok
17-01-2021 16:32:34 YCU 1.94 22.3 95.0 4.1 ok
17-01-2021 16:22:33 YCU 1.96 22.0 95.0 4.1 ok
17-01-2021 16:12:33 YCU 1.96 22.2 95.0 4.1 ok
17-01-2021 16:02:33 YCU 1.96 22.1 95.0 4.1 ok
17-01-2021 15:52:32 YCU 1.96 22.2 95.0 4.1 ok
17-01-2021 15:42:32 YCU 2.00 22.4 95.0 4.1 ok
17-01-2021 15:32:32 YCU 1.92 22.2 95.0 4.1 ok
17-01-2021 15:22:28 YCU 1.94 21.7 94.0 4.1 ok
17-01-2021 15:12:28 YCU 1.88 21.8 94.0 4.1 ok
17-01-2021 15:02:28 YCU 1.91 21.8 94.0 4.1 ok
17-01-2021 14:52:28 YCU 1.89 21.7 94.0 4.1 ok
17-01-2021 14:42:27 YCU 1.85 21.5 94.0 4.1 ok
17-01-2021 14:32:27 YCU 1.84 21.8 94.0 4.1 ok
17-01-2021 14:22:28 YCU 1.92 22.0 95.0 4.1 ok
17-01-2021 14:12:28 YCU 1.90 21.4 94.0 4.1 ok
17-01-2021 14:02:27 YCU 1.97 21.5 94.0 4.1 ok
17-01-2021 13:52:27 YCU 1.91 21.5 94.0 4.1 ok
17-01-2021 13:42:26 YCU 2.00 21.6 94.0 4.1 ok
17-01-2021 13:32:26 YCU 1.98 22.2 95.0 4.1 ok
17-01-2021 13:22:26 YCU 1.95 22.1 95.0 4.1 ok
17-01-2021 13:12:26 YCU 1.93 22.1 95.0 4.1 ok
17-01-2021 13:02:25 YCU 1.96 21.7 94.0 4.1 ok
17-01-2021 12:52:25 YCU 2.00 21.8 94.0 4.1 ok
17-01-2021 12:42:25 YCU 1.99 19.9 93.0 4.1 ok
17-01-2021 12:32:25 YCU 1.96 20.2 93.0 4.1 ok
17-01-2021 12:22:25 YCU 1.91 22.9 95.0 4.1 ok
17-01-2021 12:12:24 YCU 1.96 22.6 95.0 4.1 ok
17-01-2021 12:02:24 YCU 1.94 22.3 95.0 4.1 ok
17-01-2021 11:52:24 YCU 1.91 22.5 95.0 4.1 ok
17-01-2021 11:42:23 YCU 1.82 21.7 94.0 4.1 ok
17-01-2021 11:32:23 YCU 1.80 22.0 95.0 4.1 ok
17-01-2021 11:22:23 YCU 1.74 22.1 95.0 4.1 ok
17-01-2021 11:12:22 YCU 1.70 22.6 95.0 4.1 ok
17-01-2021 11:02:22 YCU 1.66 22.0 95.0 4.1 ok
17-01-2021 10:52:22 YCU 1.69 22.1 95.0 4.1 ok
17-01-2021 10:42:21 YCU 1.66 21.5 94.0 4.1 ok
17-01-2021 10:32:21 YCU 1.57 21.7 94.0 4.1 ok
17-01-2021 10:22:20 YCU 1.52 21.4 94.0 4.1 ok
17-01-2021 10:12:20 YCU 1.49 21.4 94.0 4.1 ok
17-01-2021 10:02:20 YCU 1.48 21.8 94.0 4.1 ok
17-01-2021 09:52:20 YCU 1.54 21.9 94.0 4.1 ok
17-01-2021 09:42:20 YCU 1.48 21.2 94.0 4.1 ok
17-01-2021 09:32:20 YCU 1.48 21.5 94.0 4.1 ok
17-01-2021 09:22:20 YCU 1.48 21.1 94.0 4.1 ok
17-01-2021 09:12:19 YCU 1.46 21.2 94.0 4.1 ok
17-01-2021 09:02:19 YCU 1.46 21.0 94.0 4.1 ok
17-01-2021 08:52:19 YCU 1.46 20.6 93.0 4.1 ok
17-01-2021 08:42:19 YCU 1.51 21.0 94.0 4.1 ok
17-01-2021 08:32:19 YCU 1.51 21.0 94.0 4.1 ok
17-01-2021 08:22:19 YCU 1.61 20.2 93.0 4.1 ok
17-01-2021 08:12:19 YCU 1.63 20.3 93.0 4.1 ok
17-01-2021 08:02:19 YCU 1.65 19.7 93.0 4.1 ok
17-01-2021 07:52:18 YCU 1.73 19.4 93.0 4.1 ok
17-01-2021 07:42:18 YCU 1.79 19.6 93.0 4.1 ok
17-01-2021 07:32:18 YCU 1.82 19.4 93.0 4.1 ok
17-01-2021 07:22:18 YCU 1.84 19.3 93.0 4.1 ok
17-01-2021 07:12:18 YCU 1.88 19.3 93.0 4.1 ok
17-01-2021 07:02:18 YCU 1.89 19.4 93.0 4.1 ok
17-01-2021 06:52:18 YCU 1.88 19.5 93.0 4.1 ok
17-01-2021 06:42:18 YCU 1.89 19.3 93.0 4.1 ok
17-01-2021 06:32:18 YCU 1.85 19.2 93.0 4.1 ok
17-01-2021 06:22:16 YCU 1.92 19.2 93.0 4.1 ok
17-01-2021 06:12:17 YCU 1.95 19.4 93.0 4.1 ok
17-01-2021 06:02:16 YCU 1.99 19.5 93.0 4.1 ok
17-01-2021 05:52:16 YCU 1.95 19.5 93.0 4.1 ok
17-01-2021 05:42:15 YCU 2.00 19.2 93.0 4.1 ok
17-01-2021 05:32:16 YCU 1.98 19.1 93.0 4.1 ok
17-01-2021 05:22:15 YCU 2.02 19.1 93.0 4.1 ok
17-01-2021 05:12:15 YCU 1.99 19.1 93.0 4.1 ok
17-01-2021 05:02:15 YCU 2.00 19.1 93.0 4.1 ok
17-01-2021 04:52:15 YCU 1.89 18.9 93.0 4.1 ok
17-01-2021 04:42:14 YCU 1.85 18.7 93.0 4.1 ok
17-01-2021 04:32:14 YCU 1.93 18.4 93.0 4.1 ok
17-01-2021 04:22:14 YCU 1.92 18.5 93.0 4.1 ok
17-01-2021 04:12:14 YCU 1.93 18.6 93.0 4.1 ok
17-01-2021 04:02:15 YCU 1.91 19.0 93.0 4.1 ok
17-01-2021 03:52:12 YCU 1.81 19.3 93.0 4.1 ok
17-01-2021 03:42:12 YCU 1.82 19.9 93.0 4.1 ok
17-01-2021 03:32:13 YCU 1.80 19.9 93.0 4.1 ok
17-01-2021 03:22:12 YCU 1.77 20.0 93.0 4.1 WF
17-01-2021 03:10:18 YCU 1.78 20.5 93.0 4.1 ok
17-01-2021 03:00:11 YCU 1.75 20.6 93.0 4.1 ok
17-01-2021 02:50:11 YCU 1.72 20.7 93.0 4.1 ok
17-01-2021 02:40:12 YCU 1.78 20.7 93.0 4.1 ok
17-01-2021 02:30:11 YCU 1.74 20.7 93.0 4.1 WF
17-01-2021 02:18:12 YCU 1.81 21.0 94.0 4.1 ok
17-01-2021 02:08:12 YCU 1.69 21.1 94.0 4.1 ok
17-01-2021 01:58:12 YCU 1.65 21.0 94.0 4.1 ok
17-01-2021 01:48:13 YCU 1.70 21.0 94.0 4.1 ok
17-01-2021 01:38:13 YCU 1.73 21.1 94.0 4.1 ok
17-01-2021 01:28:13 YCU 1.73 21.2 94.0 4.1 ok
17-01-2021 01:18:13 YCU 1.70 21.2 94.0 4.1 WF
17-01-2021 01:05:58 YCU 1.66 21.4 94.0 4.1 ok
17-01-2021 00:55:58 YCU 1.61 21.5 94.0 4.1 ok
17-01-2021 00:45:58 YCU 1.58 21.4 94.0 4.1 ok
17-01-2021 00:35:58 YCU 1.65 21.6 94.0 4.1 ok
17-01-2021 00:25:58 YCU 1.61 21.7 94.0 4.1 ok
17-01-2021 00:15:58 YCU 1.57 22.0 95.0 4.1 ok
17-01-2021 00:05:58 YCU 1.59 22.3 95.0 4.1 ok
16-01-2021 23:55:58 YCU 1.57 22.4 95.0 4.1 ok
16-01-2021 23:45:58 YCU 1.51 22.3 95.0 4.1 ok
16-01-2021 23:35:58 YCU 1.44 22.4 95.0 4.1 ok
16-01-2021 23:25:58 YCU 1.41 22.6 95.0 4.1 ok
16-01-2021 23:15:58 YCU 1.42 22.6 95.0 4.1 ok
16-01-2021 23:05:58 YCU 1.37 22.7 95.0 4.1 ok
16-01-2021 22:55:58 YCU 1.30 22.8 95.0 4.1 ok
16-01-2021 22:45:58 YCU 1.31 22.8 95.0 4.1 ok
16-01-2021 22:35:58 YCU 1.32 22.7 95.0 4.1 ok
16-01-2021 22:25:58 YCU 1.26 22.6 95.0 4.1 ok
16-01-2021 22:15:57 YCU 1.34 22.6 95.0 4.1 ok
16-01-2021 22:05:57 YCU 1.47 22.6 95.0 4.1 ok
16-01-2021 21:55:57 YCU 1.44 22.7 95.0 4.1 ok
16-01-2021 21:45:57 YCU 1.51 22.8 95.0 4.1 ok
16-01-2021 21:35:57 YCU 1.48 22.9 95.0 4.1 ok
16-01-2021 21:25:57 YCU 1.35 23.3 95.0 4.1 ok
16-01-2021 21:15:57 YCU 1.26 23.6 95.0 4.1 ok
16-01-2021 21:05:58 YCU 1.33 23.6 95.0 4.1 ok
16-01-2021 20:55:57 YCU 1.28 23.6 95.0 4.1 ok
16-01-2021 20:45:57 YCU 1.27 23.5 95.0 4.1 ok
16-01-2021 20:35:57 YCU 1.26 23.4 95.0 4.1 ok
16-01-2021 20:25:57 YCU 1.31 23.5 95.0 4.1 ok
16-01-2021 20:15:57 YCU 1.43 23.7 95.0 4.1 ok
16-01-2021 20:05:57 YCU 1.39 23.7 95.0 4.1 ok
16-01-2021 19:55:57 YCU 1.35 23.9 95.0 4.1 ok
16-01-2021 19:45:57 YCU 1.38 24.1 95.0 4.1 ok
16-01-2021 19:35:57 YCU 1.37 24.4 95.0 4.1 ok
16-01-2021 19:25:57 YCU 1.37 24.7 95.0 4.1 ok
16-01-2021 19:15:56 YCU 1.41 25.0 95.0 4.1 ok
16-01-2021 19:05:57 YCU 1.41 25.1 95.0 4.1 WF
16-01-2021 18:53:57 YCU 1.47 25.7 95.0 4.1 ok
16-01-2021 18:43:57 YCU 1.50 26.0 95.0 4.1 ok
16-01-2021 18:33:57 YCU 1.49 25.9 95.0 4.1 ok
16-01-2021 18:23:56 YCU 1.48 25.3 95.0 4.1 ok
16-01-2021 18:13:56 YCU 1.48 25.2 95.0 4.1 ok
16-01-2021 18:03:56 YCU 1.46 25.3 95.0 4.1 ok
16-01-2021 17:53:56 YCU 1.50 25.4 95.0 4.1 ok
16-01-2021 17:43:55 YCU 1.50 25.8 95.0 4.1 ok
16-01-2021 17:33:46 YCU 1.52 26.1 95.0 4.1 ok
16-01-2021 17:23:42 YCU 1.49 26.1 95.0 4.0 ON
16-01-2021 17:09:29 YCU 1.55 26.2 95.0 4.1 WF
16-01-2021 16:57:30 YCU 1.55 26.3 95.0 4.1 ok
16-01-2021 16:47:29 YCU 1.50 26.2 95.0 4.1 ok
16-01-2021 16:37:29 YCU 1.39 26.1 95.0 4.1 ok
16-01-2021 16:27:28 YCU 1.45 26.2 95.0 4.1 ok
16-01-2021 16:17:28 YCU 1.42 26.3 95.0 4.1 ok
16-01-2021 16:07:28 YCU 1.47 26.6 95.0 4.1 ok
16-01-2021 15:57:28 YCU 1.46 26.7 95.0 4.1 ok
16-01-2021 15:47:28 YCU 1.36 26.8 95.0 4.1 ok
16-01-2021 15:37:28 YCU 1.35 27.0 95.0 4.1 ok
16-01-2021 15:27:27 YCU 1.45 26.8 95.0 4.1 ok
16-01-2021 15:17:27 YCU 1.42 26.9 95.0 4.1 ok
16-01-2021 15:07:27 YCU 1.44 26.9 95.0 4.1 ok
16-01-2021 14:57:27 YCU 1.30 26.7 95.0 4.1 ok
16-01-2021 14:47:26 YCU 1.30 26.8 95.0 4.1 ok
16-01-2021 14:37:26 YCU 1.34 26.9 95.0 4.1 ok
16-01-2021 14:27:26 YCU 1.37 26.9 95.0 4.1 ok
16-01-2021 14:17:27 YCU 1.40 27.0 95.0 4.1 ok
16-01-2021 14:07:18 YCU 1.33 27.3 95.0 4.1 ok
16-01-2021 13:57:15 YCU 1.36 27.7 95.0 4.1 ok
16-01-2021 13:47:16 YCU 1.31 27.7 95.0 4.1 WF
16-01-2021 13:34:47 YCU 1.23 28.7 95.0 4.1 ok
16-01-2021 13:24:47 YCU 1.24 28.9 95.0 4.1 ok
16-01-2021 13:14:47 YCU 1.27 29.2 95.0 4.1 ok
16-01-2021 13:04:47 YCU 1.30 29.1 95.0 4.1 WF
16-01-2021 12:52:48 YCU 1.38 29.1 95.0 4.1 ok
16-01-2021 12:42:48 YCU 1.36 28.7 95.0 4.1 ok
16-01-2021 12:32:47 YCU 1.35 28.7 95.0 4.1 ok
16-01-2021 12:22:47 YCU 1.38 28.5 95.0 4.1 ok
16-01-2021 12:12:47 YCU 1.35 28.0 95.0 4.1 ok
16-01-2021 12:02:46 YCU 1.37 28.8 95.0 4.1 ok
16-01-2021 11:52:46 YCU 1.35 29.5 95.0 4.1 ok
16-01-2021 11:42:46 YCU 1.27 29.5 95.0 4.1 ok
16-01-2021 11:32:47 YCU 1.33 29.2 95.0 4.1 ok
16-01-2021 11:22:47 YCU 1.26 29.1 95.0 4.1 ok
16-01-2021 11:12:46 YCU 1.17 29.0 95.0 4.1 ok
16-01-2021 11:02:47 YCU 1.16 28.4 95.0 4.1 ok
16-01-2021 10:52:46 YCU 1.16 27.7 95.0 4.1 ok
16-01-2021 10:42:45 YCU 1.17 26.6 95.0 4.1 ok
16-01-2021 10:32:45 YCU 1.13 26.2 95.0 4.1 ok
16-01-2021 10:22:45 YCU 1.16 25.6 95.0 4.1 ok
16-01-2021 10:12:44 YCU 1.03 25.6 95.0 4.1 ok
16-01-2021 10:02:44 YCU 1.05 26.2 95.0 4.1 ok
16-01-2021 09:52:43 YCU 1.00 27.2 95.0 4.1 ok
16-01-2021 09:42:42 YCU 0.97 28.2 95.0 4.1 ok
16-01-2021 09:32:42 YCU 0.94 27.3 95.0 4.1 ok
16-01-2021 09:22:42 YCU 0.91 27.0 95.0 4.1 ok
16-01-2021 09:12:42 YCU 0.88 27.0 95.0 4.1 ok
16-01-2021 09:02:42 YCU 0.77 26.8 95.0 4.1 ok
16-01-2021 08:52:42 YCU 0.92 26.5 95.0 4.1 ok
16-01-2021 08:42:42 YCU 0.77 25.7 95.0 4.1 ok
16-01-2021 08:32:42 YCU 0.71 25.2 95.0 4.1 ok
16-01-2021 08:22:42 YCU 0.77 24.5 95.0 4.1 ok
16-01-2021 08:12:43 YCU 0.73 23.4 95.0 4.1 ok
16-01-2021 08:02:43 YCU 0.76 23.0 95.0 4.1 ok
16-01-2021 07:52:43 YCU 0.80 23.0 95.0 4.1 WF
16-01-2021 07:40:43 YCU 0.79 21.7 94.0 4.1 ok
16-01-2021 07:30:43 YCU 0.75 21.3 94.0 4.1 ok
16-01-2021 07:20:43 YCU 0.75 21.1 94.0 4.1 ok
16-01-2021 07:10:43 YCU 0.73 20.9 93.0 4.1 ok
16-01-2021 07:00:43 YCU 0.83 20.8 93.0 4.1 ok
16-01-2021 06:50:43 YCU 0.86 20.7 93.0 4.1 ok
16-01-2021 06:40:43 YCU 0.88 20.7 93.0 4.1 ok
16-01-2021 06:30:43 YCU 0.84 20.7 93.0 4.1 ok
16-01-2021 06:20:43 YCU 0.89 20.8 93.0 4.1 ok
16-01-2021 06:10:43 YCU 0.87 21.0 94.0 4.1 ok
16-01-2021 06:00:42 YCU 0.90 21.2 94.0 4.1 ok
16-01-2021 05:50:42 YCU 0.92 21.1 94.0 4.1 ok
16-01-2021 05:40:42 YCU 0.94 21.0 94.0 4.1 ok
16-01-2021 05:20:42 YCU 0.87 21.0 94.0 4.1 ok
16-01-2021 05:10:42 YCU 0.85 21.1 94.0 4.1 ok
16-01-2021 05:00:41 YCU 0.84 21.1 94.0 4.1 ok
16-01-2021 04:50:41 YCU 0.83 21.2 94.0 4.1 ok
16-01-2021 04:40:41 YCU 0.78 21.2 94.0 4.1 ok
16-01-2021 04:30:41 YCU 0.77 21.3 94.0 4.1 ok
16-01-2021 04:10:41 YCU 0.78 21.3 94.0 4.1 ok
16-01-2021 04:00:41 YCU 0.80 21.2 94.0 4.1 ok
16-01-2021 03:50:41 YCU 0.83 21.2 94.0 4.1 ok
16-01-2021 03:40:42 YCU 0.70 21.2 94.0 4.1 ok
16-01-2021 03:30:41 YCU 0.68 21.2 94.0 4.1 ok
16-01-2021 03:20:41 YCU 0.76 21.3 94.0 4.1 ok
16-01-2021 03:10:41 YCU 0.75 21.3 94.0 4.1 ok
16-01-2021 03:00:41 YCU 0.76 21.3 94.0 4.1 ok
16-01-2021 02:50:41 YCU 0.82 21.1 94.0 4.1 ok
16-01-2021 02:40:41 YCU 0.82 21.2 94.0 4.1 ok
16-01-2021 02:30:41 YCU 0.79 21.3 94.0 4.1 ok
16-01-2021 02:20:41 YCU 0.68 21.4 94.0 4.1 ok
16-01-2021 02:10:41 YCU 0.75 21.4 94.0 4.1 ok
16-01-2021 02:00:41 YCU 0.74 21.4 94.0 4.1 ok
16-01-2021 01:50:41 YCU 0.78 21.5 94.0 4.1 ok
16-01-2021 01:40:41 YCU 0.75 21.4 94.0 4.1 ok
16-01-2021 01:30:41 YCU 0.74 21.4 94.0 4.1 ok
16-01-2021 01:20:41 YCU 0.70 21.3 94.0 4.1 ok
16-01-2021 01:10:41 YCU 0.66 21.3 94.0 4.1 ok
16-01-2021 01:00:41 YCU 0.70 21.2 94.0 4.1 ok
16-01-2021 00:50:41 YCU 0.68 20.8 93.0 4.1 ok
16-01-2021 00:40:40 YCU 0.77 20.7 93.0 4.1 ok
16-01-2021 00:30:41 YCU 0.67 20.7 93.0 4.1 ok
16-01-2021 00:20:40 YCU 0.63 20.7 93.0 4.1 ok
16-01-2021 00:10:40 YCU 0.60 20.7 93.0 4.1 ok
16-01-2021 00:00:40 YCU 0.67 20.9 93.0 4.1 ok
15-01-2021 23:50:39 YCU 0.60 21.1 94.0 4.1 ok
15-01-2021 23:40:39 YCU 0.72 21.2 94.0 4.1 ok
15-01-2021 23:30:39 YCU 0.74 21.4 94.0 4.1 ok
15-01-2021 23:20:39 YCU 0.61 21.6 94.0 4.1 ok
15-01-2021 23:10:39 YCU 0.64 21.7 94.0 4.1 ok
15-01-2021 23:00:39 YCU 0.73 21.7 94.0 4.1 ok
15-01-2021 22:50:39 YCU 0.73 21.9 94.0 4.1 ok
15-01-2021 22:40:39 YCU 0.60 22.3 95.0 4.1 ok
15-01-2021 22:30:39 YCU 0.70 22.5 95.0 4.1 ok
15-01-2021 22:20:39 YCU 0.76 22.6 95.0 4.1 ok
15-01-2021 22:10:39 YCU 0.67 22.5 95.0 4.1 ok
15-01-2021 22:00:38 YCU 0.61 22.8 95.0 4.1 ok
15-01-2021 21:50:38 YCU 0.58 22.8 95.0 4.1 ok
15-01-2021 21:40:38 YCU 0.43 22.9 95.0 4.1 ok
15-01-2021 21:30:38 YCU 0.50 23.1 95.0 4.1 ok
15-01-2021 21:20:38 YCU 0.44 23.2 95.0 4.1 ok
15-01-2021 21:10:38 YCU 0.54 23.4 95.0 4.1 ok
15-01-2021 21:00:37 YCU 0.51 23.7 95.0 4.1 ok
15-01-2021 20:50:37 YCU 0.47 23.8 95.0 4.1 ok
15-01-2021 20:40:37 YCU 0.46 23.9 95.0 4.1 ok
15-01-2021 20:30:37 YCU 0.47 24.0 95.0 4.1 ok
15-01-2021 20:20:37 YCU 0.47 23.9 95.0 4.1 ok
15-01-2021 20:10:36 YCU 0.38 24.0 95.0 4.1 ok
15-01-2021 20:00:36 YCU 0.51 24.2 95.0 4.1 ok
15-01-2021 19:50:36 YCU 0.51 24.3 95.0 4.1 ok
15-01-2021 19:40:36 YCU 0.60 24.4 95.0 4.1 ok
15-01-2021 19:30:36 YCU 0.74 24.5 95.0 4.1 ok
15-01-2021 19:20:36 YCU 0.65 24.6 95.0 4.1 ok
15-01-2021 19:10:35 YCU 0.62 24.8 95.0 4.1 ok
15-01-2021 19:00:35 YCU 0.77 24.9 95.0 4.1 ok
15-01-2021 18:50:35 YCU 0.72 25.0 95.0 4.1 ok
15-01-2021 18:40:35 YCU 0.82 25.0 95.0 4.1 ok
15-01-2021 18:30:35 YCU 0.90 25.2 95.0 4.1 ok
15-01-2021 18:20:35 YCU 0.80 25.3 95.0 4.1 ok
15-01-2021 18:10:35 YCU 0.90 25.2 95.0 4.1 ok
15-01-2021 18:00:35 YCU 0.91 25.2 95.0 4.1 ok
15-01-2021 17:50:35 YCU 0.94 25.1 95.0 4.1 ok
15-01-2021 17:40:34 YCU 1.02 25.2 95.0 4.1 ok
15-01-2021 17:30:34 YCU 0.94 25.0 95.0 4.1 ok
15-01-2021 17:20:34 YCU 0.98 25.0 95.0 4.1 ok
15-01-2021 17:10:33 YCU 0.85 25.0 95.0 4.1 ok
15-01-2021 17:00:33 YCU 0.84 25.4 95.0 4.1 ok
15-01-2021 16:50:33 YCU 0.88 25.4 95.0 4.1 ok
15-01-2021 16:40:32 YCU 0.78 25.3 95.0 4.1 ok
15-01-2021 16:30:32 YCU 0.75 25.4 95.0 4.1 ok
15-01-2021 16:20:32 YCU 0.78 25.9 95.0 4.1 ok
15-01-2021 16:10:32 YCU 0.72 25.9 95.0 4.1 ok
15-01-2021 16:00:31 YCU 0.79 25.9 95.0 4.1 ok
15-01-2021 15:50:31 YCU 0.64 25.9 95.0 4.1 ok
15-01-2021 15:40:31 YCU 0.63 26.0 95.0 4.1 ok
15-01-2021 15:30:31 YCU 0.58 26.0 95.0 4.1 ok
15-01-2021 15:20:30 YCU 0.61 26.0 95.0 4.1 ok
15-01-2021 15:10:30 YCU 0.64 26.1 95.0 4.1 ok
15-01-2021 15:00:30 YCU 0.64 26.4 95.0 4.1 ok
15-01-2021 14:50:30 YCU 0.57 26.8 95.0 4.1 ok
15-01-2021 14:40:30 YCU 0.54 27.0 95.0 4.1 ok
15-01-2021 14:30:30 YCU 0.63 27.0 95.0 4.1 ok
15-01-2021 14:20:30 YCU 0.65 27.0 95.0 4.1 ok
15-01-2021 14:10:30 YCU 0.69 26.9 95.0 4.1 ok
15-01-2021 14:00:30 YCU 0.70 26.9 95.0 4.1 ok
15-01-2021 13:50:30 YCU 0.64 26.9 95.0 4.1 ok
15-01-2021 13:40:30 YCU 0.71 27.2 95.0 4.1 ok
15-01-2021 13:30:29 YCU 0.70 27.4 95.0 4.1 ok
15-01-2021 13:20:29 YCU 0.73 27.5 95.0 4.1 ok
15-01-2021 13:10:29 YCU 0.71 27.6 95.0 4.1 ok
15-01-2021 13:00:29 YCU 0.76 27.7 95.0 4.1 ok
15-01-2021 12:50:29 YCU 0.74 28.1 95.0 4.1 ok
15-01-2021 12:40:29 YCU 0.74 28.6 95.0 4.1 ok
15-01-2021 12:30:29 YCU 0.76 29.0 95.0 4.1 ok
15-01-2021 12:20:29 YCU 0.79 29.1 95.0 4.1 ok
15-01-2021 12:10:29 YCU 0.77 29.2 95.0 4.1 ok
15-01-2021 12:00:29 YCU 0.75 30.2 95.0 4.1 ok
15-01-2021 11:50:29 YCU 0.80 29.9 8.0 4.2 ok
15-01-2021 11:40:29 YCU 0.84 29.7 8.0 4.2 ok
15-01-2021 11:30:28 YCU 0.79 28.9 26.0 4.2 ok
15-01-2021 11:20:28 YCU 0.76 28.5 27.0 4.1 ok
15-01-2021 11:10:28 YCU 0.76 28.3 53.0 4.1 ok
15-01-2021 11:00:28 YCU 0.73 28.2 78.0 4.1 ok
15-01-2021 10:50:28 YCU 0.71 27.9 81.0 4.1 ok
15-01-2021 10:40:27 YCU 0.72 27.7 95.0 4.1 ok
15-01-2021 10:30:27 YCU 0.66 26.9 95.0 4.1 ok
15-01-2021 10:20:27 YCU 0.66 26.7 95.0 4.1 ok
15-01-2021 10:10:26 YCU 0.58 26.1 95.0 4.1 ok
15-01-2021 10:00:26 YCU 0.52 25.9 95.0 4.1 ok
15-01-2021 09:50:26 YCU 0.54 25.3 95.0 4.1 ok
15-01-2021 09:40:25 YCU 0.42 24.9 89.0 4.1 ok
15-01-2021 09:30:25 YCU 0.42 24.7 95.0 4.1 ok
15-01-2021 09:20:24 YCU 0.36 23.8 95.0 4.1 ok
15-01-2021 09:10:23 YCU 0.30 24.0 95.0 4.1 ok
15-01-2021 09:00:23 YCU 0.27 23.5 95.0 4.1 ok
15-01-2021 08:50:23 YCU 0.20 23.3 95.0 4.1 ok
15-01-2021 08:40:23 YCU 0.21 23.1 95.0 4.1 ok
15-01-2021 08:30:23 YCU 0.24 22.2 95.0 4.1 ok
15-01-2021 08:20:23 YCU 0.20 22.1 95.0 4.1 ok
15-01-2021 08:10:23 YCU 0.20 21.6 94.0 4.1 ok
15-01-2021 08:00:23 YCU 0.21 21.3 94.0 4.1 ok
15-01-2021 07:50:23 YCU 0.25 21.1 94.0 4.1 ok
15-01-2021 07:40:23 YCU 0.21 20.2 93.0 4.1 ok
15-01-2021 07:30:22 YCU 0.26 19.9 93.0 4.1 ok
15-01-2021 07:20:22 YCU 0.26 19.6 93.0 4.1 ok
15-01-2021 07:10:22 YCU 0.27 19.3 93.0 4.1 ok
15-01-2021 07:00:22 YCU 0.26 19.1 93.0 4.1 ok
15-01-2021 06:50:22 YCU 0.28 18.8 93.0 4.1 ok
15-01-2021 06:40:22 YCU 0.31 18.6 93.0 4.1 ok
15-01-2021 06:30:22 YCU 0.30 18.6 93.0 4.1 ok
15-01-2021 06:20:24 YCU 0.44 18.6 93.0 4.1 ok
15-01-2021 06:10:07 YCU 0.38 18.5 93.0 4.1 ok
15-01-2021 06:00:07 YCU 0.42 18.6 93.0 4.1 ok
15-01-2021 05:50:07 YCU 0.45 18.7 93.0 4.1 ok
15-01-2021 05:40:06 YCU 0.47 18.7 93.0 4.1 ok
15-01-2021 05:30:06 YCU 0.47 18.8 93.0 4.1 WF
15-01-2021 05:18:04 YCU 0.48 18.7 93.0 4.1 ok
15-01-2021 05:08:04 YCU 0.51 18.8 93.0 4.1 ok
15-01-2021 04:58:04 YCU 0.56 18.9 93.0 4.1 ok
15-01-2021 04:48:04 YCU 0.52 18.9 93.0 4.1 ok
15-01-2021 04:38:04 YCU 0.50 19.0 93.0 4.1 ok
15-01-2021 04:28:04 YCU 0.52 19.1 93.0 4.1 ok
15-01-2021 04:18:04 YCU 0.49 19.1 93.0 4.1 ok
15-01-2021 04:08:04 YCU 0.48 19.1 93.0 4.1 ok
15-01-2021 03:58:04 YCU 0.52 19.2 93.0 4.1 ok
15-01-2021 03:48:04 YCU 0.51 19.3 93.0 4.1 ok
15-01-2021 03:38:04 YCU 0.54 19.2 93.0 4.1 ok
15-01-2021 03:28:04 YCU 0.51 19.3 93.0 4.1 ok
15-01-2021 03:18:04 YCU 0.51 19.4 93.0 4.1 ok
15-01-2021 03:08:03 YCU 0.54 19.5 93.0 4.1 ok
15-01-2021 02:58:04 YCU 0.51 19.5 93.0 4.1 ok
15-01-2021 02:48:03 YCU 0.56 19.6 93.0 4.1 ok
15-01-2021 02:38:03 YCU 0.58 19.5 93.0 4.1 ok
15-01-2021 02:28:03 YCU 0.59 19.6 93.0 4.1 ok
15-01-2021 02:18:03 YCU 0.58 19.7 93.0 4.1 ok
15-01-2021 02:08:03 YCU 0.56 19.8 93.0 4.1 ok
15-01-2021 01:58:02 YCU 0.57 19.9 93.0 4.1 ok
15-01-2021 01:48:02 YCU 0.54 19.9 93.0 4.1 ok
15-01-2021 01:38:02 YCU 0.56 20.0 93.0 4.1 ok
15-01-2021 01:28:02 YCU 0.54 20.1 93.0 4.1 ok
15-01-2021 01:18:02 YCU 0.55 20.1 93.0 4.1 ok
15-01-2021 01:08:02 YCU 0.49 20.2 93.0 4.1 ok
15-01-2021 00:58:02 YCU 0.53 20.3 93.0 4.1 ok
15-01-2021 00:48:02 YCU 0.49 20.4 93.0 4.1 ok
15-01-2021 00:38:01 YCU 0.47 20.6 93.0 4.1 ok
15-01-2021 00:28:01 YCU 0.48 20.7 93.0 4.1 ok
15-01-2021 00:18:01 YCU 0.47 20.9 93.0 4.1 ok
15-01-2021 00:08:01 YCU 0.46 21.1 94.0 4.1 ok
14-01-2021 23:58:01 YCU 0.48 21.2 94.0 4.1 ok
14-01-2021 23:48:01 YCU 0.40 21.4 94.0 4.1 ok
14-01-2021 23:38:01 YCU 0.42 21.5 94.0 4.1 ok
14-01-2021 23:28:00 YCU 0.43 21.7 94.0 4.1 ok
14-01-2021 23:18:00 YCU 0.39 21.7 82.0 4.1 ok
14-01-2021 23:08:00 YCU 0.39 22.0 95.0 4.1 ok
14-01-2021 22:58:01 YCU 0.41 22.2 95.0 4.1 ok
14-01-2021 22:48:00 YCU 0.36 22.4 95.0 4.1 ok
14-01-2021 22:38:00 YCU 0.40 22.5 95.0 4.1 ok
14-01-2021 22:28:00 YCU 0.44 22.7 95.0 4.1 ok
14-01-2021 22:18:00 YCU 0.42 22.8 95.0 4.1 ok
14-01-2021 22:08:00 YCU 0.40 22.9 95.0 4.1 ok
14-01-2021 21:58:00 YCU 0.40 22.9 95.0 4.1 ok
14-01-2021 21:48:00 YCU 0.43 23.0 95.0 4.1 ok
14-01-2021 21:38:00 YCU 0.44 23.0 95.0 4.1 ok
14-01-2021 21:28:00 YCU 0.40 23.0 95.0 4.1 ok
14-01-2021 21:18:00 YCU 0.37 22.8 95.0 4.1 ok
14-01-2021 21:08:00 YCU 0.39 22.6 95.0 4.1 ok
14-01-2021 20:58:00 YCU 0.38 22.5 95.0 4.1 ok
14-01-2021 20:48:00 YCU 0.35 22.5 95.0 4.1 ok
14-01-2021 20:38:00 YCU 0.33 22.5 95.0 4.1 ok
14-01-2021 20:28:00 YCU 0.34 22.5 95.0 4.1 ok
14-01-2021 20:18:00 YCU 0.31 22.7 95.0 4.1 ok
14-01-2021 20:08:00 YCU 0.31 22.7 95.0 4.1 ok
14-01-2021 19:58:00 YCU 0.31 22.8 95.0 4.1 ok
14-01-2021 19:47:59 YCU 0.35 23.0 95.0 4.1 ok
14-01-2021 19:37:57 YCU 0.35 23.0 95.0 4.1 WF
14-01-2021 19:26:01 YCU 0.41 23.6 95.0 4.1 ok
14-01-2021 19:16:01 YCU 0.37 23.7 95.0 4.1 WF
14-01-2021 19:04:01 YCU 0.44 23.9 95.0 4.1 ok
14-01-2021 18:54:01 YCU 0.51 24.0 95.0 4.1 ok
14-01-2021 18:44:01 YCU 0.50 24.1 95.0 4.1 ok
14-01-2021 18:34:00 YCU 0.57 24.1 95.0 4.1 ok
14-01-2021 18:24:00 YCU 0.63 24.0 95.0 4.1 ok
14-01-2021 18:14:00 YCU 0.67 23.6 95.0 4.1 ok
14-01-2021 18:03:59 YCU 0.71 23.6 95.0 4.1 ok
14-01-2021 17:53:59 YCU 0.77 23.6 95.0 4.1 ok
14-01-2021 17:43:59 YCU 0.83 23.7 95.0 4.1 ok
14-01-2021 17:33:59 YCU 0.85 23.7 95.0 4.1 ok
14-01-2021 17:23:57 YCU 0.85 23.6 95.0 4.1 ok
14-01-2021 17:13:57 YCU 0.95 23.5 95.0 4.1 ok
14-01-2021 17:03:57 YCU 0.97 23.5 95.0 4.1 ok
14-01-2021 16:53:57 YCU 0.98 23.4 95.0 4.1 ok
14-01-2021 16:43:57 YCU 1.01 23.4 95.0 4.1 ok
14-01-2021 16:33:56 YCU 1.02 23.4 95.0 4.1 ok
14-01-2021 16:23:56 YCU 1.04 23.3 95.0 4.1 ok
14-01-2021 16:13:56 YCU 1.10 23.4 95.0 4.1 ok
14-01-2021 16:03:56 YCU 1.07 23.4 95.0 4.1 ok
14-01-2021 15:53:56 YCU 1.03 23.4 95.0 4.1 ok
14-01-2021 15:43:59 YCU 1.05 23.4 95.0 4.1 ok
14-01-2021 15:33:50 YCU 1.05 23.4 95.0 4.1 ok
14-01-2021 15:23:50 YCU 1.04 23.4 95.0 4.1 ok
14-01-2021 15:13:49 YCU 1.05 23.5 95.0 4.0 ON
14-01-2021 14:59:21 YCU 1.02 23.5 95.0 4.1 ok
14-01-2021 14:49:21 YCU 1.03 23.6 95.0 4.1 ok
14-01-2021 14:39:21 YCU 1.01 23.5 95.0 4.1 WF
14-01-2021 14:27:21 YCU 1.03 23.7 95.0 4.1 ok
14-01-2021 14:17:21 YCU 1.07 23.8 95.0 4.1 ok
14-01-2021 14:07:21 YCU 1.06 24.0 95.0 4.1 ok
14-01-2021 13:57:21 YCU 1.02 24.1 95.0 4.1 ok
14-01-2021 13:47:21 YCU 1.03 24.3 95.0 4.1 ok
14-01-2021 13:37:21 YCU 1.05 24.8 95.0 4.1 ok
14-01-2021 13:27:21 YCU 1.09 25.4 95.0 4.1 ok
14-01-2021 13:17:20 YCU 1.04 25.5 95.0 4.1 ok
14-01-2021 13:07:20 YCU 1.05 25.6 95.0 4.1 ok
14-01-2021 12:57:20 YCU 1.04 25.7 95.0 4.1 ok
14-01-2021 12:47:20 YCU 0.99 25.7 95.0 4.1 ok
14-01-2021 12:37:20 YCU 1.04 25.9 95.0 4.1 ok
14-01-2021 12:27:19 YCU 1.09 26.1 95.0 4.1 ok
14-01-2021 12:17:19 YCU 1.10 26.4 95.0 4.1 ok
14-01-2021 12:07:19 YCU 1.08 26.3 50.0 4.1 ok
14-01-2021 11:57:19 YCU 1.08 26.4 40.0 4.1 ok
14-01-2021 11:47:19 YCU 1.13 26.3 40.0 4.1 ok
14-01-2021 11:37:18 YCU 1.12 26.0 33.0 4.1 ok
14-01-2021 11:27:18 YCU 1.19 26.0 57.0 4.1 ok
14-01-2021 11:17:18 YCU 1.19 25.8 81.0 4.1 ok
14-01-2021 11:07:17 YCU 1.17 25.4 95.0 4.1 ok
14-01-2021 10:57:16 YCU 1.16 25.3 80.0 4.1 ok
14-01-2021 10:47:16 YCU 1.21 25.1 95.0 4.1 ok
14-01-2021 10:37:16 YCU 1.23 24.7 95.0 4.1 ok
14-01-2021 10:27:15 YCU 1.22 24.3 93.0 4.1 ok
14-01-2021 10:17:15 YCU 1.20 24.5 84.0 4.1 ok
14-01-2021 10:07:15 YCU 1.24 24.4 95.0 4.1 ok
14-01-2021 09:57:15 YCU 1.21 24.2 95.0 4.1 ok
14-01-2021 09:47:14 YCU 1.16 23.8 5.0 4.1 ok
14-01-2021 09:37:14 YCU 1.14 23.8 95.0 4.1 ok
14-01-2021 09:27:14 YCU 1.17 23.7 5.0 4.1 ok
14-01-2021 09:17:14 YCU 1.15 23.2 95.0 4.1 ok
14-01-2021 09:07:14 YCU 1.11 22.9 95.0 4.1 ok
14-01-2021 08:57:14 YCU 1.10 22.8 95.0 4.1 ok
14-01-2021 08:47:14 YCU 1.09 22.5 95.0 4.1 ok
14-01-2021 08:37:14 YCU 1.02 22.3 95.0 4.1 ok
14-01-2021 08:27:13 YCU 0.98 22.0 95.0 4.1 ok
14-01-2021 08:17:14 YCU 0.97 21.7 94.0 4.1 ok
14-01-2021 08:07:11 YCU 0.96 21.4 94.0 4.1 ok
14-01-2021 07:57:11 YCU 0.93 21.2 94.0 4.1 ok
14-01-2021 07:47:11 YCU 0.88 20.9 93.0 4.1 ok
14-01-2021 07:37:11 YCU 0.91 20.4 93.0 4.1 ok
14-01-2021 07:27:11 YCU 0.87 20.1 93.0 4.1 ok
14-01-2021 07:17:11 YCU 0.91 19.4 93.0 4.1 ok
14-01-2021 07:07:11 YCU 0.92 18.7 93.0 4.1 ok
14-01-2021 06:57:11 YCU 0.93 18.3 93.0 4.1 ok
14-01-2021 06:47:11 YCU 0.90 18.2 93.0 4.1 ok
14-01-2021 06:37:11 YCU 0.92 17.9 92.0 4.1 ok
14-01-2021 06:27:11 YCU 0.95 17.6 92.0 4.1 ok
14-01-2021 06:17:10 YCU 0.92 17.5 92.0 4.1 ok
14-01-2021 06:07:10 YCU 0.96 17.4 92.0 4.1 ok
14-01-2021 05:57:10 YCU 1.01 17.4 92.0 4.1 ok
14-01-2021 05:47:11 YCU 1.02 17.4 92.0 4.1 ok
14-01-2021 05:37:11 YCU 1.05 17.4 92.0 4.1 ok
14-01-2021 05:27:11 YCU 1.10 17.5 92.0 4.1 ok
14-01-2021 05:17:11 YCU 1.11 17.5 92.0 4.1 ok
14-01-2021 05:07:12 YCU 1.11 17.4 92.0 4.1 ok
14-01-2021 04:57:12 YCU 1.16 17.3 92.0 4.1 ok
14-01-2021 04:47:12 YCU 1.21 17.3 92.0 4.1 ok
14-01-2021 04:37:12 YCU 1.21 17.3 92.0 4.1 ok
14-01-2021 04:27:13 YCU 1.21 17.3 92.0 4.1 ok
14-01-2021 04:17:13 YCU 1.20 17.4 92.0 4.1 ok
14-01-2021 04:07:14 YCU 1.21 17.4 92.0 4.1 ok
14-01-2021 03:57:14 YCU 1.24 17.4 92.0 4.1 WF
14-01-2021 03:45:14 YCU 1.27 17.6 92.0 4.1 ok
14-01-2021 03:35:14 YCU 1.27 17.6 92.0 4.1 ok
14-01-2021 03:25:14 YCU 1.26 17.6 92.0 4.1 ok
14-01-2021 03:15:14 YCU 1.23 17.6 92.0 4.1 ok
14-01-2021 03:05:14 YCU 1.26 17.6 92.0 4.1 ok
14-01-2021 02:55:14 YCU 1.25 17.6 92.0 4.1 ok
14-01-2021 02:45:13 YCU 1.26 17.7 92.0 4.1 ok
14-01-2021 02:35:13 YCU 1.24 17.8 92.0 4.1 ok
14-01-2021 02:25:11 YCU 1.29 17.9 92.0 4.1 ok
14-01-2021 02:15:11 YCU 1.30 18.0 93.0 4.1 ok
14-01-2021 02:05:11 YCU 1.28 18.2 93.0 4.1 ok
14-01-2021 01:55:11 YCU 1.31 18.2 93.0 4.1 ok
14-01-2021 01:45:11 YCU 1.31 18.3 93.0 4.1 ok
14-01-2021 01:35:11 YCU 1.32 18.8 93.0 4.1 ok
14-01-2021 01:25:10 YCU 1.31 19.2 93.0 4.1 ok
14-01-2021 01:15:11 YCU 1.29 19.4 93.0 4.1 ok
14-01-2021 01:05:11 YCU 1.31 19.5 93.0 4.1 ok
14-01-2021 00:55:11 YCU 1.28 19.8 93.0 4.1 ok
14-01-2021 00:45:11 YCU 1.28 20.0 93.0 4.1 ok
14-01-2021 00:35:11 YCU 1.29 20.0 93.0 4.1 ok
14-01-2021 00:25:11 YCU 1.26 20.2 93.0 4.1 ok
14-01-2021 00:15:11 YCU 1.20 20.3 93.0 4.1 ok
14-01-2021 00:05:11 YCU 1.24 20.3 93.0 4.1 ok
13-01-2021 23:55:10 YCU 1.20 20.3 93.0 4.1 ok
13-01-2021 23:45:10 YCU 1.17 20.4 93.0 4.1 ok
13-01-2021 23:35:10 YCU 1.13 20.3 93.0 4.1 ok
13-01-2021 23:25:09 YCU 1.11 20.4 93.0 4.1 ok
13-01-2021 23:15:10 YCU 1.12 20.5 93.0 4.1 ok
13-01-2021 23:05:09 YCU 1.15 20.6 93.0 4.1 ok
13-01-2021 22:55:09 YCU 1.14 20.5 93.0 4.1 ok
13-01-2021 22:45:10 YCU 1.11 20.6 93.0 4.1 ok
13-01-2021 22:35:10 YCU 1.13 20.7 93.0 4.1 ok
13-01-2021 22:25:09 YCU 1.11 20.7 93.0 4.1 ok
13-01-2021 22:15:09 YCU 1.09 20.7 93.0 4.1 ok
13-01-2021 22:05:09 YCU 1.10 20.7 93.0 4.1 ok
13-01-2021 21:55:09 YCU 1.13 20.7 93.0 4.1 ok
13-01-2021 21:45:09 YCU 1.15 20.7 93.0 4.1 ok
13-01-2021 21:35:09 YCU 1.15 20.7 93.0 4.1 ok
13-01-2021 21:25:09 YCU 1.14 20.8 93.0 4.1 ok
13-01-2021 21:15:09 YCU 1.13 20.8 93.0 4.1 ok
13-01-2021 21:05:09 YCU 1.14 20.8 93.0 4.1 ok
13-01-2021 20:55:09 YCU 1.12 20.9 93.0 4.1 ok
13-01-2021 20:45:09 YCU 1.12 20.8 93.0 4.1 ok
13-01-2021 20:35:08 YCU 1.10 20.9 93.0 4.1 ok
13-01-2021 20:25:08 YCU 1.10 21.0 94.0 4.1 ok
13-01-2021 20:15:08 YCU 1.05 21.0 94.0 4.1 ok
13-01-2021 20:05:08 YCU 1.04 21.1 94.0 4.1 ok
13-01-2021 19:55:08 YCU 1.03 21.2 94.0 4.1 ok
13-01-2021 19:45:08 YCU 1.04 21.4 94.0 4.1 ok
13-01-2021 19:35:08 YCU 0.98 21.8 94.0 4.1 ok
13-01-2021 19:25:07 YCU 0.94 22.2 95.0 4.1 ok
13-01-2021 19:15:07 YCU 0.97 22.4 95.0 4.1 ok
13-01-2021 19:05:06 YCU 0.94 22.5 95.0 4.1 ok
13-01-2021 18:55:06 YCU 0.91 22.6 95.0 4.1 ok
13-01-2021 18:45:06 YCU 0.90 22.8 92.0 4.1 ok
13-01-2021 18:35:05 YCU 0.94 22.8 95.0 4.1 ok
13-01-2021 18:25:05 YCU 0.97 22.8 95.0 4.1 ok
13-01-2021 18:15:05 YCU 0.99 22.4 81.0 4.1 ok
13-01-2021 18:05:05 YCU 1.04 22.3 95.0 4.1 ok
13-01-2021 17:55:04 YCU 1.01 22.5 95.0 4.1 ok
13-01-2021 17:45:04 YCU 1.07 22.7 5.0 4.1 ok
13-01-2021 17:35:04 YCU 1.06 22.8 95.0 4.1 ok
13-01-2021 17:25:04 YCU 1.10 22.9 5.0 4.1 ok
13-01-2021 17:15:03 YCU 1.10 22.9 5.0 4.1 ok
13-01-2021 17:05:03 YCU 1.15 22.8 5.0 4.1 ok
13-01-2021 16:55:02 YCU 1.11 22.8 51.0 4.1 ok
13-01-2021 16:45:02 YCU 1.18 22.9 35.0 4.1 ok
13-01-2021 16:35:01 YCU 1.14 22.9 20.0 4.1 ok
13-01-2021 16:25:00 YCU 1.18 23.0 65.0 4.1 ok
13-01-2021 16:14:59 YCU 1.21 23.0 95.0 4.1 ok
13-01-2021 16:04:59 YCU 1.26 22.9 95.0 4.1 ok
13-01-2021 15:54:58 YCU 1.20 23.1 95.0 4.1 ok
13-01-2021 15:44:58 YCU 1.20 23.2 63.0 4.1 ok
13-01-2021 15:34:58 YCU 1.25 23.3 89.0 4.1 ok
13-01-2021 15:24:58 YCU 1.30 23.4 54.0 4.1 ok
13-01-2021 15:14:57 YCU 1.29 23.5 5.0 4.1 ok
13-01-2021 15:04:57 YCU 1.29 23.6 5.0 4.1 ok
13-01-2021 14:54:56 YCU 1.32 23.7 5.0 4.1 ok
13-01-2021 14:44:56 YCU 1.27 23.7 5.0 4.1 ok
13-01-2021 14:34:56 YCU 1.27 23.8 5.0 4.1 ok
13-01-2021 14:24:56 YCU 1.26 24.0 5.0 4.1 ok
13-01-2021 14:14:56 YCU 1.26 24.1 5.0 4.1 ok
13-01-2021 14:04:55 YCU 1.29 24.2 5.0 4.1 ok
13-01-2021 13:54:55 YCU 1.22 24.5 5.0 4.1 ok
13-01-2021 13:44:55 YCU 1.24 24.9 5.0 4.1 ok
13-01-2021 13:34:53 YCU 1.23 25.5 5.0 4.1 ok
13-01-2021 13:24:53 YCU 1.27 26.0 6.0 4.1 ok
13-01-2021 13:14:53 YCU 1.28 26.2 6.0 4.1 ok
13-01-2021 13:04:53 YCU 1.27 26.2 6.0 4.1 ok
13-01-2021 12:54:53 YCU 1.29 26.2 6.0 4.1 ok
13-01-2021 12:44:53 YCU 1.26 26.3 6.0 4.1 ok
13-01-2021 12:34:53 YCU 1.27 26.5 6.0 4.1 ok
13-01-2021 12:24:49 YCU 1.21 26.5 6.0 4.1 ok
13-01-2021 12:14:49 YCU 1.27 26.7 6.0 4.1 ok
13-01-2021 12:04:49 YCU 1.23 26.6 6.0 4.1 ok
13-01-2021 11:54:49 YCU 1.24 26.5 6.0 4.1 ok
13-01-2021 11:44:49 YCU 1.21 26.5 6.0 4.1 ok
13-01-2021 11:34:49 YCU 1.20 26.3 6.0 4.1 ok
13-01-2021 11:24:48 YCU 1.19 25.9 5.0 4.1 ok
13-01-2021 11:14:48 YCU 1.20 25.7 5.0 4.1 ok
13-01-2021 11:04:48 YCU 1.16 25.9 5.0 4.1 ok
13-01-2021 10:54:48 YCU 1.17 26.0 6.0 4.1 ok
13-01-2021 10:44:48 YCU 1.15 26.2 6.0 4.1 ok
13-01-2021 10:34:48 YCU 1.16 26.5 6.0 4.1 ok
13-01-2021 10:24:48 YCU 1.18 26.1 6.0 4.1 ok
13-01-2021 10:14:48 YCU 1.17 25.6 5.0 4.1 ok
13-01-2021 10:04:47 YCU 1.19 25.3 5.0 4.1 ok
13-01-2021 09:54:47 YCU 1.17 24.8 5.0 4.1 ok
13-01-2021 09:44:47 YCU 1.17 24.5 5.0 4.1 ok
13-01-2021 09:34:47 YCU 1.15 23.8 5.0 4.1 ok
13-01-2021 09:24:47 YCU 1.17 23.3 5.0 4.1 ok
13-01-2021 09:14:47 YCU 1.18 22.8 5.0 4.1 ok
13-01-2021 09:04:47 YCU 1.15 22.3 58.0 4.1 ok
13-01-2021 08:54:47 YCU 1.12 21.9 48.0 4.1 ok
13-01-2021 08:44:47 YCU 1.09 21.4 61.0 4.1 ok
13-01-2021 08:34:47 YCU 1.13 21.2 94.0 4.1 ok
13-01-2021 08:24:47 YCU 1.11 20.8 57.0 4.1 ok
13-01-2021 08:14:46 YCU 1.11 20.4 93.0 4.1 ok
13-01-2021 08:04:46 YCU 1.03 20.2 93.0 4.1 ok
13-01-2021 07:54:46 YCU 1.07 20.0 93.0 4.1 ok
13-01-2021 07:44:46 YCU 1.03 19.8 93.0 4.1 ok
13-01-2021 07:34:46 YCU 0.97 19.5 93.0 4.1 ok
13-01-2021 07:24:46 YCU 0.94 19.0 93.0 4.1 ok
13-01-2021 07:14:45 YCU 0.90 18.4 93.0 4.1 ok
13-01-2021 07:04:45 YCU 0.89 17.7 92.0 4.1 ok
13-01-2021 06:54:45 YCU 0.88 17.3 92.0 4.1 ok
13-01-2021 06:44:44 YCU 0.88 17.0 86.0 4.1 ok
13-01-2021 06:34:43 YCU 0.82 16.5 92.0 4.1 ok
13-01-2021 06:24:43 YCU 0.83 16.3 92.0 4.1 ok
13-01-2021 06:14:42 YCU 0.83 16.0 92.0 4.1 ok
13-01-2021 06:04:43 YCU 0.89 15.9 91.0 4.1 ok
13-01-2021 05:54:42 YCU 0.85 15.8 91.0 4.1 ok
13-01-2021 05:44:42 YCU 0.87 15.8 91.0 4.1 ok
13-01-2021 05:34:42 YCU 0.86 15.9 91.0 4.1 ok
13-01-2021 05:24:41 YCU 0.88 15.9 91.0 4.1 ok
13-01-2021 05:14:42 YCU 0.92 16.0 92.0 4.1 ok
13-01-2021 05:04:41 YCU 0.93 15.9 91.0 4.1 ok
13-01-2021 04:54:41 YCU 0.97 15.9 91.0 4.1 ok
13-01-2021 04:44:42 YCU 1.03 16.1 92.0 4.1 ok
13-01-2021 04:34:41 YCU 1.04 16.1 92.0 4.1 ok
13-01-2021 04:24:41 YCU 1.11 16.2 92.0 4.1 ok
13-01-2021 04:14:41 YCU 1.10 16.3 92.0 4.1 ok
13-01-2021 04:04:42 YCU 1.11 16.5 92.0 4.1 ok
13-01-2021 03:54:42 YCU 1.12 16.6 92.0 4.1 ok
13-01-2021 03:44:42 YCU 1.11 16.7 92.0 4.1 ok
13-01-2021 03:34:41 YCU 1.18 16.8 92.0 4.1 ok
13-01-2021 03:24:41 YCU 1.20 16.7 92.0 4.1 ok
13-01-2021 03:14:41 YCU 1.18 16.7 92.0 4.1 ok
13-01-2021 03:04:41 YCU 1.20 16.8 92.0 4.1 ok
13-01-2021 02:54:41 YCU 1.23 17.0 92.0 4.1 ok
13-01-2021 02:44:39 YCU 1.19 17.0 92.0 4.1 ok
13-01-2021 02:34:39 YCU 1.26 17.2 92.0 4.1 ok
13-01-2021 02:24:39 YCU 1.25 17.3 92.0 4.1 ok
13-01-2021 02:14:38 YCU 1.25 17.3 92.0 4.1 ok
13-01-2021 02:04:38 YCU 1.24 17.3 92.0 4.1 ok
13-01-2021 01:54:37 YCU 1.25 17.5 92.0 4.1 ok
13-01-2021 01:44:37 YCU 1.21 17.6 92.0 4.1 ok
13-01-2021 01:34:37 YCU 1.17 17.8 92.0 4.1 ok
13-01-2021 01:24:37 YCU 1.21 18.0 93.0 4.1 ok
13-01-2021 01:14:37 YCU 1.22 18.4 93.0 4.1 ok
13-01-2021 01:04:37 YCU 1.23 18.7 93.0 4.1 ok
13-01-2021 00:54:37 YCU 1.25 18.9 93.0 4.1 ok
13-01-2021 00:44:37 YCU 1.23 19.1 93.0 4.1 ok
13-01-2021 00:34:37 YCU 1.22 19.0 93.0 4.1 ok
13-01-2021 00:24:37 YCU 1.26 19.0 93.0 4.1 ok
13-01-2021 00:14:37 YCU 1.24 18.9 93.0 4.1 ok
13-01-2021 00:04:37 YCU 1.24 19.1 93.0 4.1 ok
12-01-2021 23:54:36 YCU 1.21 19.1 93.0 4.1 ok
12-01-2021 23:44:36 YCU 1.23 19.2 93.0 4.1 ok
12-01-2021 23:34:36 YCU 1.19 19.2 93.0 4.1 ok
12-01-2021 23:24:36 YCU 1.25 19.2 93.0 4.1 ok
12-01-2021 23:14:36 YCU 1.22 19.2 93.0 4.1 ok
12-01-2021 23:04:36 YCU 1.20 19.2 93.0 4.1 ok
12-01-2021 22:54:36 YCU 1.25 19.2 93.0 4.1 ok
12-01-2021 22:44:36 YCU 1.21 19.2 93.0 4.1 ok
12-01-2021 22:34:36 YCU 1.21 19.2 93.0 4.1 ok
12-01-2021 22:24:36 YCU 1.16 19.2 93.0 4.1 ok
12-01-2021 22:14:36 YCU 1.20 19.2 93.0 4.1 ok
12-01-2021 22:04:36 YCU 1.22 19.2 93.0 4.1 ok
12-01-2021 21:54:35 YCU 1.20 19.2 79.0 4.1 ok
12-01-2021 21:44:36 YCU 1.23 19.2 93.0 4.1 ok
12-01-2021 21:34:35 YCU 1.25 19.1 26.0 4.1 ok
12-01-2021 21:24:35 YCU 1.23 19.2 93.0 4.1 ok
12-01-2021 21:14:35 YCU 1.27 19.2 93.0 4.1 ok
12-01-2021 21:04:35 YCU 1.28 19.2 93.0 4.1 ok
12-01-2021 20:54:35 YCU 1.28 19.3 5.0 4.1 ok
12-01-2021 20:44:35 YCU 1.25 19.3 93.0 4.1 ok
12-01-2021 20:34:35 YCU 1.31 19.4 93.0 4.1 ok
12-01-2021 20:24:34 YCU 1.34 19.5 93.0 4.1 ok
12-01-2021 20:14:34 YCU 1.33 19.6 60.0 4.1 ok
12-01-2021 20:04:34 YCU 1.28 19.8 91.0 4.1 ok
12-01-2021 19:54:34 YCU 1.32 20.0 22.0 4.1 ok
12-01-2021 19:44:30 YCU 1.35 20.4 5.0 4.1 ok
12-01-2021 19:34:29 YCU 1.35 20.9 5.0 4.1 ok
12-01-2021 19:24:29 YCU 1.33 21.6 5.0 4.1 ok
12-01-2021 19:14:29 YCU 1.34 21.7 5.0 4.1 ok
12-01-2021 19:04:23 YCU 1.30 22.0 5.0 4.1 ok
12-01-2021 18:54:24 YCU 1.28 22.0 5.0 4.1 WF
12-01-2021 18:42:27 YCU 1.21 22.2 5.0 4.1 ok
12-01-2021 18:32:27 YCU 1.20 22.1 5.0 4.1 ok
12-01-2021 18:22:27 YCU 1.16 21.9 5.0 4.1 ok
12-01-2021 18:12:28 YCU 1.16 21.8 5.0 4.1 WF
12-01-2021 18:00:12 YCU 1.14 21.7 5.0 4.1 ok
12-01-2021 17:50:12 YCU 1.21 21.7 5.0 4.1 ok
12-01-2021 17:40:12 YCU 1.20 21.8 5.0 4.1 ok
12-01-2021 17:30:12 YCU 1.20 22.0 5.0 4.1 ok
12-01-2021 17:20:12 YCU 1.26 21.9 5.0 4.1 ok
12-01-2021 17:10:12 YCU 1.26 22.2 5.0 4.1 ok
12-01-2021 17:00:12 YCU 1.25 22.0 5.0 4.1 ok
12-01-2021 16:50:12 YCU 1.31 22.0 5.0 4.1 ok
12-01-2021 16:40:12 YCU 1.33 22.1 5.0 4.1 ok
12-01-2021 16:30:11 YCU 1.37 22.1 5.0 4.1 ok
12-01-2021 16:20:11 YCU 1.38 22.2 5.0 4.1 ok
12-01-2021 16:10:11 YCU 1.43 22.1 5.0 4.1 ok
12-01-2021 16:00:11 YCU 1.48 22.1 5.0 4.1 ok
12-01-2021 15:50:12 YCU 1.50 22.2 5.0 4.1 ok
12-01-2021 15:39:57 YCU 1.52 22.3 5.0 4.1 ok
12-01-2021 15:29:57 YCU 1.56 22.5 5.0 4.1 ok
12-01-2021 15:19:57 YCU 1.61 22.5 5.0 4.1 ok
12-01-2021 15:09:57 YCU 1.69 22.6 7.0 4.1 ok
12-01-2021 14:59:57 YCU 1.77 22.8 42.0 4.1 ok
12-01-2021 14:49:57 YCU 1.77 23.1 5.0 4.1 ok
12-01-2021 14:39:57 YCU 1.76 23.2 5.0 4.1 ok
12-01-2021 14:29:56 YCU 1.82 23.2 5.0 4.1 ok
12-01-2021 14:19:56 YCU 1.81 23.3 5.0 4.1 ok
12-01-2021 14:09:56 YCU 1.82 23.4 5.0 4.1 ok
12-01-2021 13:59:56 YCU 1.86 23.7 5.0 4.1 ok
12-01-2021 13:49:56 YCU 1.88 23.5 5.0 4.1 ok
12-01-2021 13:39:56 YCU 1.89 23.5 5.0 4.1 ok
12-01-2021 13:29:55 YCU 1.86 24.2 5.0 4.1 ok
12-01-2021 13:19:55 YCU 1.90 24.8 5.0 4.1 ok
12-01-2021 13:09:55 YCU 1.85 24.9 5.0 4.1 ok
12-01-2021 12:59:54 YCU 1.85 25.1 5.0 4.1 ok
12-01-2021 12:49:53 YCU 1.90 25.3 5.0 4.1 ok
12-01-2021 12:39:53 YCU 1.99 25.3 5.0 4.1 WI
12-01-2021 12:29:42 YCU 1.95 25.2 5.0 4.1 ok
12-01-2021 12:19:41 YCU 1.97 25.2 5.0 4.1 ok
12-01-2021 12:09:41 YCU 1.88 25.3 5.0 4.1 ok
12-01-2021 11:59:40 YCU 1.92 25.3 5.0 4.1 ok
12-01-2021 11:49:40 YCU 1.97 25.3 5.0 4.1 ok
12-01-2021 11:39:40 YCU 2.01 25.6 5.0 4.1 ok
12-01-2021 11:29:40 YCU 2.05 25.0 5.0 4.1 ok
12-01-2021 11:19:40 YCU 2.08 25.0 5.0 4.1 ok
12-01-2021 11:09:40 YCU 2.06 24.5 5.0 4.1 ok
12-01-2021 10:59:40 YCU 2.11 23.9 5.0 4.1 ok
12-01-2021 10:49:40 YCU 2.07 24.5 5.0 4.1 ok
12-01-2021 10:39:39 YCU 2.03 24.6 5.0 4.1 ok
12-01-2021 10:29:39 YCU 2.05 24.3 5.0 4.1 ok
12-01-2021 10:19:39 YCU 2.06 24.3 5.0 4.1 ok
12-01-2021 10:09:39 YCU 2.06 23.9 5.0 4.1 ok
12-01-2021 09:59:39 YCU 1.95 23.5 22.0 4.1 ok
12-01-2021 09:49:39 YCU 1.92 23.7 5.0 4.1 ok
12-01-2021 09:39:39 YCU 1.90 23.5 17.0 4.1 ok
12-01-2021 09:29:39 YCU 2.00 23.1 90.0 4.1 ok
12-01-2021 09:19:39 YCU 2.02 23.7 54.0 4.1 ok
12-01-2021 09:09:39 YCU 1.98 23.7 40.0 4.1 ok
12-01-2021 08:59:39 YCU 1.98 23.3 95.0 4.1 ok
12-01-2021 08:49:39 YCU 1.92 23.1 95.0 4.1 ok
12-01-2021 08:39:38 YCU 1.91 23.1 95.0 4.1 ok
12-01-2021 08:29:38 YCU 1.90 22.7 95.0 4.1 ok
12-01-2021 08:19:38 YCU 1.98 22.7 95.0 4.1 ok
12-01-2021 08:09:38 YCU 1.93 22.8 95.0 4.1 ok
12-01-2021 07:59:38 YCU 2.00 22.0 95.0 4.1 ok
12-01-2021 07:49:38 YCU 1.98 21.2 94.0 4.1 ok
12-01-2021 07:39:37 YCU 1.84 21.5 94.0 4.1 ok
12-01-2021 07:29:37 YCU 1.82 21.0 94.0 4.1 ok
12-01-2021 07:19:37 YCU 1.87 21.2 94.0 4.1 ok
12-01-2021 07:09:37 YCU 1.88 20.8 93.0 4.1 ok
12-01-2021 06:59:37 YCU 1.82 20.4 93.0 4.1 ok
12-01-2021 06:49:37 YCU 1.80 20.1 93.0 4.1 ok
12-01-2021 06:39:37 YCU 1.68 19.8 89.0 4.1 ok
12-01-2021 06:29:37 YCU 1.68 19.6 93.0 4.1 ok
12-01-2021 06:19:37 YCU 1.66 19.4 93.0 4.1 ok
12-01-2021 06:09:37 YCU 1.66 19.4 93.0 4.1 ok
12-01-2021 05:59:37 YCU 1.69 19.3 93.0 4.1 ok
12-01-2021 05:49:37 YCU 1.73 19.3 93.0 4.1 ok
12-01-2021 05:39:37 YCU 1.64 19.4 93.0 4.1 ok
12-01-2021 05:29:37 YCU 1.60 19.4 93.0 4.1 ok
12-01-2021 05:19:37 YCU 1.58 19.6 93.0 4.1 ok
12-01-2021 05:09:37 YCU 1.60 19.7 93.0 4.1 ok
12-01-2021 04:59:37 YCU 1.53 19.8 93.0 4.1 ok
12-01-2021 04:49:37 YCU 1.65 19.8 93.0 4.1 ok
12-01-2021 04:39:36 YCU 1.62 19.9 93.0 4.1 ok
12-01-2021 04:29:36 YCU 1.68 19.8 93.0 4.1 ok
12-01-2021 04:19:36 YCU 1.63 19.8 93.0 4.1 ok
12-01-2021 04:09:36 YCU 1.69 19.8 93.0 4.1 ok
12-01-2021 03:59:37 YCU 1.74 19.8 93.0 4.1 ok
12-01-2021 03:49:37 YCU 1.71 19.8 93.0 4.1 WF
12-01-2021 03:37:37 YCU 1.66 19.8 93.0 4.1 ok
12-01-2021 03:27:36 YCU 1.70 20.0 93.0 4.1 ok
12-01-2021 03:17:36 YCU 1.78 20.1 93.0 4.1 ok
12-01-2021 03:07:36 YCU 1.77 20.1 93.0 4.1 ok
12-01-2021 02:57:36 YCU 1.87 20.2 93.0 4.1 ok
12-01-2021 02:47:36 YCU 1.76 20.5 93.0 4.1 ok
12-01-2021 02:37:36 YCU 1.74 20.6 93.0 4.1 ok
12-01-2021 02:27:36 YCU 1.73 20.5 93.0 4.1 ok
12-01-2021 02:17:36 YCU 1.81 20.7 93.0 4.1 ok
12-01-2021 02:07:35 YCU 1.73 20.7 93.0 4.1 ok
12-01-2021 01:57:35 YCU 1.85 20.8 93.0 4.1 ok
12-01-2021 01:47:35 YCU 1.66 20.9 93.0 4.1 ok
12-01-2021 01:37:35 YCU 1.66 21.1 94.0 4.1 ok
12-01-2021 01:27:35 YCU 1.57 21.2 94.0 4.1 ok
12-01-2021 01:17:34 YCU 1.60 21.2 94.0 4.1 ok
12-01-2021 01:07:35 YCU 1.64 21.3 94.0 4.1 ok
12-01-2021 00:57:34 YCU 1.71 21.3 94.0 4.1 ok
12-01-2021 00:47:34 YCU 1.64 21.4 94.0 4.1 ok
12-01-2021 00:37:33 YCU 1.71 21.4 94.0 4.1 ok
12-01-2021 00:27:34 YCU 1.78 21.4 94.0 4.1 WF
08-01-2021 04:00:30 YCU 1.32 22.0 95.0 4.1 ok
08-01-2021 03:50:30 YCU 1.32 22.1 95.0 4.1 ok
08-01-2021 03:40:30 YCU 1.28 22.2 95.0 4.1 ok
08-01-2021 03:30:30 YCU 1.26 22.5 95.0 4.1 ok
08-01-2021 03:20:30 YCU 1.30 22.7 95.0 4.1 ok
08-01-2021 03:10:30 YCU 1.33 23.0 95.0 4.1 ok
08-01-2021 03:00:30 YCU 1.27 23.6 95.0 4.1 ok
08-01-2021 02:50:30 YCU 1.25 23.9 95.0 4.1 ok
08-01-2021 02:40:30 YCU 1.24 23.6 95.0 4.1 ok
08-01-2021 02:30:30 YCU 1.21 23.2 95.0 4.1 ok
08-01-2021 02:20:30 YCU 1.24 23.2 95.0 4.1 ok
08-01-2021 02:10:29 YCU 1.18 23.4 95.0 4.1 ok
08-01-2021 02:00:29 YCU 1.21 23.6 95.0 4.1 ok
08-01-2021 01:50:29 YCU 1.15 23.6 95.0 4.1 ok
08-01-2021 01:40:28 YCU 1.10 23.6 95.0 4.1 ok
08-01-2021 01:30:28 YCU 1.07 23.5 95.0 4.1 ok
08-01-2021 01:20:28 YCU 1.13 23.6 95.0 4.1 ok
08-01-2021 01:10:28 YCU 1.15 23.9 95.0 4.1 ok
08-01-2021 01:00:27 YCU 1.12 24.1 95.0 4.1 ok
08-01-2021 00:50:27 YCU 1.14 24.2 95.0 4.1 ok
08-01-2021 00:40:27 YCU 1.10 24.4 95.0 4.1 ok
08-01-2021 00:30:27 YCU 1.07 24.4 95.0 4.1 ok
08-01-2021 00:20:27 YCU 1.11 24.6 95.0 4.1 ok
08-01-2021 00:10:27 YCU 1.09 24.9 95.0 4.1 ok
08-01-2021 00:00:27 YCU 1.12 25.3 49.0 4.1 ok
07-01-2021 23:50:27 YCU 1.08 25.4 5.0 4.1 ok
07-01-2021 23:40:27 YCU 1.05 25.6 5.0 4.1 ok
07-01-2021 23:30:27 YCU 1.09 25.7 5.0 4.1 ok
07-01-2021 23:20:27 YCU 1.12 25.9 5.0 4.1 ok
07-01-2021 23:10:27 YCU 1.09 25.9 5.0 4.1 ok
07-01-2021 23:00:25 YCU 1.14 26.0 6.0 4.1 ok
07-01-2021 22:50:25 YCU 1.19 25.9 5.0 4.1 ok
07-01-2021 22:40:25 YCU 1.13 25.9 5.0 4.1 ok
07-01-2021 22:30:25 YCU 1.16 25.7 5.0 4.1 ok
07-01-2021 22:20:25 YCU 1.16 25.9 5.0 4.1 ok
07-01-2021 22:10:25 YCU 1.18 25.9 5.0 4.1 ok
07-01-2021 22:00:25 YCU 1.21 26.1 6.0 4.1 ok
07-01-2021 21:50:24 YCU 1.22 26.1 6.0 4.1 ok
07-01-2021 21:40:24 YCU 1.20 26.2 6.0 4.1 ok
07-01-2021 21:30:24 YCU 1.21 26.2 6.0 4.1 ok
07-01-2021 21:20:24 YCU 1.18 26.2 6.0 4.1 ok
07-01-2021 21:10:24 YCU 1.19 26.3 6.0 4.1 ok
07-01-2021 21:00:23 YCU 1.25 26.4 6.0 4.1 ok
07-01-2021 20:50:23 YCU 1.14 26.7 6.0 4.1 ok
07-01-2021 20:40:23 YCU 1.21 26.8 6.0 4.1 ok
07-01-2021 20:30:23 YCU 1.23 26.8 6.0 4.1 ok
07-01-2021 20:20:23 YCU 1.19 26.9 6.0 4.1 ok
07-01-2021 20:10:23 YCU 1.17 27.0 6.0 4.1 ok
07-01-2021 20:00:23 YCU 1.12 27.2 6.0 4.1 ok
07-01-2021 19:50:23 YCU 1.06 27.4 6.0 4.1 ok
07-01-2021 19:40:22 YCU 1.12 27.7 6.0 4.1 ok
07-01-2021 19:30:22 YCU 1.04 28.3 7.0 4.1 ok
07-01-2021 19:20:22 YCU 1.02 28.9 7.0 4.1 ok
07-01-2021 19:10:22 YCU 1.07 29.2 8.0 4.1 ok
07-01-2021 19:00:22 YCU 1.02 29.2 8.0 4.1 ok
07-01-2021 18:50:22 YCU 1.00 29.0 29.0 4.1 ok
07-01-2021 18:40:22 YCU 0.98 28.9 7.0 4.1 ok
07-01-2021 18:30:22 YCU 0.94 28.9 7.0 4.1 ok
07-01-2021 18:20:22 YCU 0.95 28.4 7.0 4.1 ok
07-01-2021 18:10:22 YCU 0.96 28.0 7.0 4.1 ok
07-01-2021 18:00:21 YCU 0.99 27.9 6.0 4.1 ok
07-01-2021 17:50:21 YCU 0.96 28.0 7.0 4.1 ok
07-01-2021 17:40:21 YCU 0.92 27.7 6.0 4.1 ok
07-01-2021 17:30:21 YCU 0.86 27.5 6.0 4.1 ok
07-01-2021 17:20:20 YCU 0.86 27.3 6.0 4.1 ok
07-01-2021 17:10:20 YCU 0.88 27.2 6.0 4.1 ok
07-01-2021 17:00:20 YCU 0.88 26.8 6.0 4.1 ok
07-01-2021 16:50:20 YCU 0.89 26.8 6.0 4.1 ok
07-01-2021 16:40:20 YCU 0.87 26.7 6.0 4.1 ok
07-01-2021 16:30:20 YCU 0.91 26.5 43.0 4.1 ok
07-01-2021 16:20:19 YCU 0.92 26.3 43.0 4.1 ok
07-01-2021 16:10:18 YCU 0.92 25.9 95.0 4.1 ok
07-01-2021 16:00:19 YCU 0.94 25.6 95.0 4.1 ok
07-01-2021 15:50:18 YCU 0.94 25.6 95.0 4.1 ok
07-01-2021 15:40:18 YCU 0.94 25.6 95.0 4.1 ok
07-01-2021 15:30:18 YCU 0.94 25.4 95.0 4.1 ok
07-01-2021 15:20:17 YCU 0.94 25.6 95.0 4.1 ok
07-01-2021 15:10:16 YCU 0.93 25.3 95.0 4.1 ok
07-01-2021 15:00:16 YCU 0.98 25.3 95.0 4.1 ok
07-01-2021 14:50:14 YCU 0.91 24.9 95.0 4.1 ok
07-01-2021 14:40:14 YCU 0.84 25.1 95.0 4.1 ok
07-01-2021 14:30:14 YCU 0.79 24.9 95.0 4.1 ok
07-01-2021 14:20:14 YCU 0.79 25.0 95.0 4.1 ok
07-01-2021 14:10:14 YCU 0.80 24.7 95.0 4.1 ok
07-01-2021 14:00:14 YCU 0.75 24.7 84.0 4.1 ok
07-01-2021 13:50:14 YCU 0.73 24.7 95.0 4.1 ok
07-01-2021 13:40:14 YCU 0.71 24.8 95.0 4.1 ok
07-01-2021 13:30:14 YCU 0.65 25.3 95.0 4.1 ok
07-01-2021 13:20:14 YCU 0.63 25.1 95.0 4.1 ok
07-01-2021 13:10:14 YCU 0.60 25.7 95.0 4.1 ok
07-01-2021 13:00:14 YCU 0.60 25.3 95.0 4.1 ok
07-01-2021 12:50:14 YCU 0.56 26.2 95.0 4.1 ok
07-01-2021 12:40:14 YCU 0.53 26.5 95.0 4.1 ok
07-01-2021 12:30:14 YCU 0.55 26.3 95.0 4.1 ok
07-01-2021 12:20:14 YCU 0.52 26.4 95.0 4.1 ok
07-01-2021 12:10:14 YCU 0.59 25.9 95.0 4.1 ok
07-01-2021 12:00:14 YCU 0.55 26.1 95.0 4.1 ok
07-01-2021 11:50:14 YCU 0.61 25.4 95.0 4.1 ok
07-01-2021 11:40:14 YCU 0.60 24.8 95.0 4.1 ok
07-01-2021 11:30:14 YCU 0.64 25.4 95.0 4.1 ok
07-01-2021 11:20:13 YCU 0.67 25.4 95.0 4.1 ok
07-01-2021 11:10:13 YCU 0.73 25.0 95.0 4.1 ok
07-01-2021 11:00:13 YCU 0.73 24.5 95.0 4.1 ok
07-01-2021 10:50:13 YCU 0.74 25.4 95.0 4.1 ok
07-01-2021 10:40:13 YCU 0.76 25.2 95.0 4.1 ok
07-01-2021 10:30:13 YCU 0.75 25.3 95.0 4.1 ok
07-01-2021 10:20:13 YCU 0.75 24.9 95.0 4.1 ok
07-01-2021 10:10:12 YCU 0.76 24.7 95.0 4.1 ok
07-01-2021 10:00:12 YCU 0.76 25.1 95.0 4.1 ok
07-01-2021 09:50:12 YCU 0.76 24.7 95.0 4.1 ok
07-01-2021 09:40:12 YCU 0.76 24.8 95.0 4.1 ok
07-01-2021 09:30:12 YCU 0.78 24.9 95.0 4.1 ok
07-01-2021 09:20:12 YCU 0.80 24.5 95.0 4.1 ok
07-01-2021 09:10:12 YCU 0.81 24.4 95.0 4.1 ok
07-01-2021 09:00:12 YCU 0.82 24.1 95.0 4.1 ok
07-01-2021 08:50:12 YCU 0.77 23.8 95.0 4.1 ok
07-01-2021 08:40:12 YCU 0.77 24.0 95.0 4.1 ok
07-01-2021 08:30:11 YCU 0.79 24.3 95.0 4.1 ok
07-01-2021 08:20:16 YCU 0.79 24.0 95.0 4.1 ok
07-01-2021 08:10:07 YCU 0.78 23.6 95.0 4.1 ok
07-01-2021 08:00:04 YCU 0.81 23.3 95.0 4.1 ok
07-01-2021 07:50:05 YCU 0.79 22.8 95.0 4.1 ok
07-01-2021 07:40:05 YCU 0.84 22.6 95.0 4.1 WF
07-01-2021 07:28:05 YCU 0.82 21.4 94.0 4.1 ok
07-01-2021 07:18:05 YCU 0.87 21.2 94.0 4.1 ok
07-01-2021 07:08:05 YCU 0.90 21.1 94.0 4.1 ok
07-01-2021 06:58:05 YCU 0.85 21.2 94.0 4.1 WF
07-01-2021 06:46:06 YCU 0.83 20.5 93.0 4.1 ok
07-01-2021 06:36:06 YCU 0.81 20.3 93.0 4.1 ok
07-01-2021 06:26:06 YCU 0.80 20.1 93.0 4.1 ok
07-01-2021 06:16:06 YCU 0.80 20.1 93.0 4.1 ok
07-01-2021 06:06:06 YCU 0.76 20.0 93.0 4.1 ok
07-01-2021 05:56:05 YCU 0.83 20.0 93.0 4.1 ok
07-01-2021 05:46:05 YCU 0.85 20.0 93.0 4.1 ok
07-01-2021 05:36:05 YCU 0.84 20.1 93.0 4.1 ok
07-01-2021 05:26:05 YCU 0.79 20.2 93.0 4.1 ok
07-01-2021 05:16:05 YCU 0.77 20.2 93.0 4.1 ok
07-01-2021 05:06:05 YCU 0.78 20.3 93.0 4.1 ok
07-01-2021 04:56:05 YCU 0.75 20.5 93.0 4.1 ok
07-01-2021 04:46:05 YCU 0.77 20.6 93.0 4.1 ok
07-01-2021 04:36:05 YCU 0.80 20.7 93.0 4.1 ok
07-01-2021 04:26:04 YCU 0.84 20.8 93.0 4.1 ok
07-01-2021 04:16:05 YCU 0.83 21.0 94.0 4.1 ok
07-01-2021 04:06:04 YCU 0.80 21.0 94.0 4.1 ok
07-01-2021 03:56:04 YCU 0.81 21.1 94.0 4.1 ok
07-01-2021 03:46:04 YCU 0.76 20.9 93.0 4.1 ok
07-01-2021 03:36:04 YCU 0.77 20.9 93.0 4.1 ok
07-01-2021 03:26:04 YCU 0.77 21.0 94.0 4.1 ok
07-01-2021 03:16:04 YCU 0.80 21.0 94.0 4.1 ok
07-01-2021 03:06:04 YCU 0.76 21.2 94.0 4.1 ok
07-01-2021 02:56:04 YCU 0.73 21.2 94.0 4.1 ok
07-01-2021 02:46:04 YCU 0.72 21.2 94.0 4.1 ok
07-01-2021 02:36:03 YCU 0.69 21.2 94.0 4.1 ok
07-01-2021 02:26:04 YCU 0.77 21.2 94.0 4.1 ok
07-01-2021 02:16:04 YCU 0.71 21.0 94.0 4.1 ok
07-01-2021 02:06:04 YCU 0.73 21.1 94.0 4.1 ok
07-01-2021 01:56:04 YCU 0.68 21.2 94.0 4.1 ok
07-01-2021 01:46:04 YCU 0.61 21.2 94.0 4.1 ok
07-01-2021 01:36:05 YCU 0.57 21.2 94.0 4.1 ok
07-01-2021 01:26:05 YCU 0.56 21.2 94.0 4.1 ok
07-01-2021 01:16:05 YCU 0.58 21.2 94.0 4.1 ok
07-01-2021 01:06:05 YCU 0.55 21.2 94.0 4.1 ok
07-01-2021 00:56:06 YCU 0.54 21.3 94.0 4.1 ok
07-01-2021 00:46:06 YCU 0.54 21.4 94.0 4.1 ok
07-01-2021 00:36:06 YCU 0.52 21.6 94.0 4.1 ok
07-01-2021 00:26:06 YCU 0.55 21.6 94.0 4.1 WF
07-01-2021 00:13:50 YCU 0.53 21.7 94.0 4.1 ok
07-01-2021 00:03:50 YCU 0.53 21.8 94.0 4.1 ok
06-01-2021 23:53:51 YCU 0.57 21.9 94.0 4.1 ok
06-01-2021 23:43:46 YCU 0.54 22.2 95.0 4.1 ok
06-01-2021 23:33:46 YCU 0.58 22.4 95.0 4.1 ok
06-01-2021 23:23:46 YCU 0.63 22.7 95.0 4.1 ok
06-01-2021 23:13:46 YCU 0.63 22.9 95.0 4.1 ok
06-01-2021 23:03:46 YCU 0.70 23.0 95.0 4.1 ok
06-01-2021 22:53:46 YCU 0.64 23.1 95.0 4.1 ok
06-01-2021 22:43:46 YCU 0.73 23.1 95.0 4.1 ok
06-01-2021 22:33:46 YCU 0.76 23.1 95.0 4.1 ok
06-01-2021 22:23:45 YCU 0.77 23.1 95.0 4.1 ok
06-01-2021 22:13:45 YCU 0.83 23.1 95.0 4.1 ok
06-01-2021 22:03:45 YCU 0.84 23.1 95.0 4.1 ok
06-01-2021 21:53:45 YCU 0.89 23.1 95.0 4.1 ok
06-01-2021 21:43:44 YCU 0.93 23.1 95.0 4.1 ok
06-01-2021 21:33:43 YCU 0.95 23.1 95.0 4.1 ok
06-01-2021 21:23:43 YCU 0.95 23.1 95.0 4.1 ok
06-01-2021 21:13:42 YCU 0.96 23.1 95.0 4.1 ok
06-01-2021 21:03:42 YCU 1.02 23.1 95.0 4.1 ok
06-01-2021 20:53:42 YCU 1.08 23.2 95.0 4.1 ok
06-01-2021 20:43:42 YCU 1.09 23.2 95.0 4.1 ok
06-01-2021 20:33:42 YCU 1.05 23.3 95.0 4.1 ok
06-01-2021 20:23:42 YCU 1.02 23.2 95.0 4.1 ok
06-01-2021 20:13:42 YCU 1.05 23.4 95.0 4.1 ok
06-01-2021 20:03:41 YCU 1.04 23.6 95.0 4.1 ok
06-01-2021 19:53:41 YCU 1.07 23.6 95.0 4.1 ok
06-01-2021 19:43:41 YCU 1.06 23.9 95.0 4.1 ok
06-01-2021 19:33:40 YCU 1.04 24.2 95.0 4.1 ok
06-01-2021 19:23:40 YCU 1.12 24.4 95.0 4.1 ok
06-01-2021 19:13:40 YCU 1.03 24.6 95.0 4.1 ok
06-01-2021 19:03:40 YCU 1.01 24.5 95.0 4.1 ok
06-01-2021 18:53:39 YCU 1.08 25.0 95.0 4.1 ok
06-01-2021 18:43:39 YCU 1.01 25.2 95.0 4.1 ok
06-01-2021 18:33:39 YCU 0.99 25.4 95.0 4.1 ok
06-01-2021 18:23:39 YCU 0.95 25.6 95.0 4.1 ok
06-01-2021 18:13:38 YCU 0.94 25.1 95.0 4.1 ok
06-01-2021 18:03:38 YCU 1.04 24.7 95.0 4.1 ok
06-01-2021 17:53:38 YCU 0.86 24.7 95.0 4.1 ok
06-01-2021 17:43:37 YCU 0.93 24.9 95.0 4.1 ok
06-01-2021 17:33:37 YCU 0.88 24.7 95.0 4.1 ok
06-01-2021 17:23:37 YCU 0.82 24.7 95.0 4.1 ok
06-01-2021 17:13:37 YCU 0.88 24.9 95.0 4.1 ok
06-01-2021 17:03:36 YCU 0.84 24.9 95.0 4.1 ok
06-01-2021 16:53:36 YCU 0.90 25.2 95.0 4.1 ok
06-01-2021 16:43:36 YCU 0.84 25.4 95.0 4.1 ok
06-01-2021 16:33:36 YCU 0.89 25.6 95.0 4.1 ok
06-01-2021 16:23:35 YCU 0.96 25.9 95.0 4.1 ok
06-01-2021 16:13:34 YCU 0.83 25.8 95.0 4.1 ok
06-01-2021 16:03:34 YCU 0.85 26.0 95.0 4.1 ok
06-01-2021 15:53:34 YCU 0.90 26.2 95.0 4.1 ok
06-01-2021 15:43:12 YCU 0.93 26.2 95.0 4.1 ok
06-01-2021 15:33:12 YCU 0.93 26.1 95.0 4.1 ok
06-01-2021 15:23:12 YCU 0.92 26.0 95.0 4.1 ok
06-01-2021 15:13:12 YCU 0.89 26.1 95.0 4.1 ok
06-01-2021 15:03:12 YCU 0.88 26.1 95.0 4.1 ok
06-01-2021 14:53:11 YCU 0.88 26.0 95.0 4.1 ok
06-01-2021 14:43:11 YCU 0.88 26.1 95.0 4.1 ok
06-01-2021 14:33:11 YCU 0.94 26.3 95.0 4.1 ok
06-01-2021 14:23:11 YCU 0.94 26.5 95.0 4.1 ok
06-01-2021 14:13:11 YCU 0.87 26.6 95.0 4.1 ok
06-01-2021 14:03:10 YCU 0.82 26.7 95.0 4.1 ok
06-01-2021 13:53:10 YCU 0.82 26.5 95.0 4.1 ok
06-01-2021 13:43:10 YCU 0.79 26.9 95.0 4.1 ok
06-01-2021 13:33:09 YCU 0.78 26.9 95.0 4.1 ok
06-01-2021 13:23:09 YCU 0.85 27.3 95.0 4.1 ok
06-01-2021 13:13:09 YCU 0.82 28.3 95.0 4.1 ok
06-01-2021 13:03:09 YCU 0.82 27.7 95.0 4.1 ok
06-01-2021 12:53:08 YCU 0.79 27.0 95.0 4.1 ok
06-01-2021 12:43:08 YCU 0.78 27.4 95.0 4.1 ok
06-01-2021 12:33:08 YCU 0.75 27.4 95.0 4.1 ok
06-01-2021 12:23:08 YCU 0.72 26.8 95.0 4.1 ok
06-01-2021 12:13:08 YCU 0.73 27.7 95.0 4.1 ok
06-01-2021 12:03:08 YCU 0.72 28.7 95.0 4.1 ok
06-01-2021 11:53:08 YCU 0.71 27.7 95.0 4.1 ok
06-01-2021 11:43:08 YCU 0.73 28.3 95.0 4.1 ok
06-01-2021 11:33:08 YCU 0.68 28.6 95.0 4.1 ok
06-01-2021 11:23:07 YCU 0.71 28.8 95.0 4.1 ok
06-01-2021 11:13:07 YCU 0.70 28.7 95.0 4.1 ok
06-01-2021 11:03:07 YCU 0.73 28.2 95.0 4.1 ok
06-01-2021 10:53:07 YCU 0.76 27.2 95.0 4.1 ok
06-01-2021 10:43:07 YCU 0.72 27.7 95.0 4.1 ok
06-01-2021 10:33:06 YCU 0.71 26.9 95.0 4.1 ok
06-01-2021 10:23:06 YCU 0.76 26.5 95.0 4.1 ok
06-01-2021 10:13:06 YCU 0.76 26.0 95.0 4.1 ok
06-01-2021 10:03:06 YCU 0.80 25.7 95.0 4.1 ok
06-01-2021 09:53:05 YCU 0.83 26.4 95.0 4.1 ok
06-01-2021 09:43:05 YCU 0.84 25.4 95.0 4.1 ok
06-01-2021 09:33:05 YCU 0.88 25.6 95.0 4.1 ok
06-01-2021 09:23:05 YCU 0.89 25.0 95.0 4.1 ok
06-01-2021 09:13:05 YCU 0.91 24.5 95.0 4.1 ok
06-01-2021 09:03:06 YCU 0.91 24.3 95.0 4.1 WF
06-01-2021 08:51:06 YCU 0.87 24.1 95.0 4.1 ok
06-01-2021 08:41:06 YCU 0.90 23.6 95.0 4.1 ok
06-01-2021 08:31:06 YCU 0.96 23.2 95.0 4.1 ok
06-01-2021 08:21:05 YCU 0.91 23.0 95.0 4.1 ok
06-01-2021 08:11:05 YCU 0.95 22.9 95.0 4.1 ok
06-01-2021 08:01:04 YCU 0.94 22.8 95.0 4.1 ok
06-01-2021 07:51:04 YCU 0.97 22.7 95.0 4.1 ok
06-01-2021 07:41:04 YCU 0.95 22.6 95.0 4.1 ok
06-01-2021 07:31:04 YCU 0.93 22.3 95.0 4.1 ok
06-01-2021 07:21:04 YCU 0.94 22.2 95.0 4.1 ok
06-01-2021 07:11:03 YCU 0.91 22.1 95.0 4.1 ok
06-01-2021 07:01:03 YCU 0.92 21.9 94.0 4.1 ok
06-01-2021 06:51:02 YCU 0.88 21.7 94.0 4.1 ok
06-01-2021 06:41:02 YCU 0.88 21.7 94.0 4.1 ok
06-01-2021 06:31:02 YCU 0.90 21.7 94.0 4.1 ok
06-01-2021 06:21:02 YCU 0.90 21.7 94.0 4.1 ok
06-01-2021 06:11:02 YCU 0.91 21.7 94.0 4.1 ok
06-01-2021 06:01:02 YCU 0.89 21.7 94.0 4.1 ok
06-01-2021 05:51:01 YCU 0.96 21.7 94.0 4.1 ok
06-01-2021 05:41:01 YCU 0.95 21.8 94.0 4.1 ok
06-01-2021 05:31:01 YCU 0.95 21.7 94.0 4.1 ok
06-01-2021 05:21:01 YCU 0.97 21.7 94.0 4.1 ok
06-01-2021 05:11:01 YCU 0.97 21.7 94.0 4.1 ok
06-01-2021 05:01:01 YCU 0.98 21.7 94.0 4.1 ok
06-01-2021 04:51:00 YCU 1.02 21.8 94.0 4.1 ok
06-01-2021 04:40:50 YCU 1.02 21.7 94.0 4.1 ok
06-01-2021 04:30:50 YCU 0.99 21.7 94.0 4.1 ok
06-01-2021 04:20:50 YCU 0.96 21.7 94.0 4.1 ok
06-01-2021 04:10:50 YCU 0.99 21.7 94.0 4.1 ok
06-01-2021 04:00:50 YCU 1.00 21.7 94.0 4.1 ok
06-01-2021 03:50:50 YCU 0.98 21.6 94.0 4.1 ok
06-01-2021 03:40:50 YCU 0.99 21.6 94.0 4.1 ok
06-01-2021 03:30:50 YCU 1.01 21.6 94.0 4.1 ok
06-01-2021 03:20:49 YCU 1.00 21.7 94.0 4.1 ok
06-01-2021 03:10:49 YCU 0.99 21.6 94.0 4.1 ok
06-01-2021 03:00:49 YCU 1.00 21.6 94.0 4.1 ok
06-01-2021 02:50:49 YCU 0.98 21.7 94.0 4.1 ok
06-01-2021 02:40:49 YCU 1.00 21.7 94.0 4.1 ok
06-01-2021 02:30:49 YCU 1.02 21.6 94.0 4.1 ok
06-01-2021 02:20:49 YCU 1.03 21.5 94.0 4.1 ok
06-01-2021 02:10:49 YCU 1.06 21.4 94.0 4.1 ok
06-01-2021 02:00:47 YCU 1.02 21.5 94.0 4.1 ok
06-01-2021 01:50:47 YCU 1.01 21.7 94.0 4.1 ok
06-01-2021 01:40:48 YCU 1.01 21.6 94.0 4.1 ok
06-01-2021 01:30:48 YCU 1.06 21.6 94.0 4.1 ok
06-01-2021 01:20:48 YCU 1.05 21.5 94.0 4.1 ok
06-01-2021 01:10:48 YCU 1.02 21.6 94.0 4.1 ok
06-01-2021 01:00:49 YCU 0.99 21.5 94.0 4.1 ok
06-01-2021 00:50:36 YCU 0.94 21.6 94.0 4.1 ok
06-01-2021 00:40:36 YCU 0.93 21.6 94.0 4.1 ok
06-01-2021 00:30:36 YCU 0.92 21.5 94.0 4.1 ok
06-01-2021 00:20:36 YCU 0.88 21.6 94.0 4.1 ok
06-01-2021 00:10:35 YCU 0.93 21.6 94.0 4.1 ok
06-01-2021 00:00:35 YCU 0.95 21.7 94.0 4.1 ok
05-01-2021 23:50:35 YCU 0.87 21.6 94.0 4.1 ok
05-01-2021 23:40:35 YCU 0.88 21.6 94.0 4.1 ok
05-01-2021 23:30:35 YCU 0.90 21.7 94.0 4.1 ok
05-01-2021 23:20:34 YCU 0.99 21.7 94.0 4.1 ok
05-01-2021 23:10:34 YCU 0.94 21.7 94.0 4.1 ok
05-01-2021 23:00:34 YCU 0.96 21.7 94.0 4.1 ok
05-01-2021 22:50:34 YCU 0.96 21.7 94.0 4.1 ok
05-01-2021 22:40:34 YCU 0.97 21.7 94.0 4.1 ok
05-01-2021 22:30:34 YCU 1.04 21.7 94.0 4.1 ok
05-01-2021 22:20:34 YCU 1.00 21.8 94.0 4.1 ok
05-01-2021 22:10:34 YCU 1.01 21.8 94.0 4.1 ok
05-01-2021 22:00:34 YCU 1.03 21.9 94.0 4.1 ok
05-01-2021 21:50:34 YCU 1.07 22.1 95.0 4.1 ok
05-01-2021 21:40:34 YCU 1.12 22.1 95.0 4.1 ok
05-01-2021 21:30:33 YCU 1.12 22.0 95.0 4.1 ok
05-01-2021 21:20:33 YCU 1.25 21.9 94.0 4.1 ok
05-01-2021 21:10:33 YCU 1.25 21.8 94.0 4.1 ok
05-01-2021 21:00:33 YCU 1.23 21.8 94.0 4.1 ok
05-01-2021 20:50:34 YCU 1.29 21.9 94.0 4.1 ok
05-01-2021 20:40:33 YCU 1.36 21.9 94.0 4.1 ok
05-01-2021 20:30:33 YCU 1.40 21.9 94.0 4.1 ok
05-01-2021 20:20:33 YCU 1.39 21.9 94.0 4.1 ok
05-01-2021 20:10:33 YCU 1.39 22.0 95.0 4.1 ok
05-01-2021 20:00:33 YCU 1.42 21.9 94.0 4.1 ok
05-01-2021 19:50:34 YCU 1.40 21.9 94.0 4.1 ok
05-01-2021 19:40:33 YCU 1.37 21.8 94.0 4.1 ok
05-01-2021 19:30:33 YCU 1.40 21.9 94.0 4.1 ok
05-01-2021 19:20:33 YCU 1.40 21.8 94.0 4.1 ok
05-01-2021 19:10:34 YCU 1.44 21.9 94.0 4.1 ok
05-01-2021 19:00:33 YCU 1.40 22.0 95.0 4.1 ok
05-01-2021 18:50:33 YCU 1.40 22.1 95.0 4.1 ok
05-01-2021 18:40:33 YCU 1.35 22.2 95.0 4.1 ok
05-01-2021 18:30:33 YCU 1.39 22.4 95.0 4.1 ok
05-01-2021 18:20:32 YCU 1.33 22.4 95.0 4.1 ok
05-01-2021 18:10:32 YCU 1.32 22.7 95.0 4.1 ok
05-01-2021 18:00:32 YCU 1.29 23.0 95.0 4.1 ok
05-01-2021 17:50:32 YCU 1.32 23.1 95.0 4.1 ok
05-01-2021 17:40:32 YCU 1.33 23.3 95.0 4.1 ok
05-01-2021 17:30:32 YCU 1.29 23.3 95.0 4.1 ok
05-01-2021 17:20:32 YCU 1.26 23.2 95.0 4.1 ok
05-01-2021 17:10:32 YCU 1.25 23.2 95.0 4.1 ok
05-01-2021 17:00:32 YCU 1.22 23.3 95.0 4.1 ok
05-01-2021 16:50:32 YCU 1.23 23.4 95.0 4.1 ok
05-01-2021 16:40:31 YCU 1.23 23.5 95.0 4.1 ok
05-01-2021 16:30:31 YCU 1.18 23.5 95.0 4.1 ok
05-01-2021 16:20:31 YCU 1.22 23.5 95.0 4.1 ok
05-01-2021 16:10:31 YCU 1.21 23.7 95.0 4.1 ok
05-01-2021 16:00:30 YCU 1.19 23.9 95.0 4.1 ok
05-01-2021 15:50:29 YCU 1.20 24.0 95.0 4.1 ok
05-01-2021 15:40:29 YCU 1.20 24.3 95.0 4.1 ok
05-01-2021 15:30:29 YCU 1.23 24.7 95.0 4.1 ok
05-01-2021 15:20:29 YCU 1.19 24.9 95.0 4.1 ok
05-01-2021 15:10:29 YCU 1.19 24.9 95.0 4.1 ok
05-01-2021 15:00:29 YCU 1.15 25.0 95.0 4.1 ok
05-01-2021 14:50:29 YCU 1.19 24.9 95.0 4.1 ok
05-01-2021 14:40:29 YCU 1.17 24.8 95.0 4.1 ok
05-01-2021 14:30:29 YCU 1.20 24.8 95.0 4.1 ok
05-01-2021 14:20:29 YCU 1.13 24.7 95.0 4.1 ok
05-01-2021 14:10:28 YCU 1.15 24.2 95.0 4.1 ok
05-01-2021 14:00:29 YCU 1.16 24.3 95.0 4.1 ok
05-01-2021 13:50:28 YCU 1.16 24.1 95.0 4.1 ok
05-01-2021 13:40:29 YCU 1.17 24.2 95.0 4.1 ok
05-01-2021 13:30:28 YCU 1.13 24.5 95.0 4.1 ok
05-01-2021 13:20:28 YCU 1.16 24.9 95.0 4.1 ok
05-01-2021 13:10:27 YCU 1.17 25.6 95.0 4.1 ok
05-01-2021 13:00:27 YCU 1.19 26.2 95.0 4.1 ok
05-01-2021 12:50:27 YCU 1.14 26.7 95.0 4.1 ok
05-01-2021 12:40:26 YCU 1.12 26.5 95.0 4.1 ok
05-01-2021 12:30:26 YCU 1.12 26.2 95.0 4.1 ok
05-01-2021 12:20:26 YCU 1.06 25.9 95.0 4.1 ok
05-01-2021 12:10:25 YCU 1.10 26.4 95.0 4.1 ok
05-01-2021 12:00:24 YCU 1.06 27.4 95.0 4.1 ok
05-01-2021 11:50:23 YCU 1.04 27.2 95.0 4.1 ok
05-01-2021 11:40:23 YCU 0.99 27.1 95.0 4.1 ok
05-01-2021 11:30:23 YCU 0.98 26.4 95.0 4.1 ok
05-01-2021 11:20:23 YCU 0.93 26.4 95.0 4.1 ok
05-01-2021 11:10:23 YCU 0.92 26.3 95.0 4.1 ok
05-01-2021 11:00:23 YCU 0.95 26.1 95.0 4.1 ok
05-01-2021 10:50:22 YCU 0.92 25.8 95.0 4.1 ok
05-01-2021 10:40:22 YCU 0.91 26.0 95.0 4.1 ok
05-01-2021 10:30:22 YCU 0.87 25.8 95.0 4.1 ok
05-01-2021 10:20:22 YCU 0.86 25.6 95.0 4.1 ok
05-01-2021 10:10:22 YCU 0.88 25.6 95.0 4.1 ok
05-01-2021 10:00:22 YCU 0.92 25.2 95.0 4.1 ok
05-01-2021 09:50:22 YCU 0.90 25.2 95.0 4.1 ok
05-01-2021 09:40:22 YCU 0.96 25.5 95.0 4.1 ok
05-01-2021 09:30:22 YCU 0.97 25.4 95.0 4.1 ok
05-01-2021 09:20:22 YCU 0.97 25.7 95.0 4.1 ok
05-01-2021 09:10:22 YCU 0.95 25.6 95.0 4.1 ok
05-01-2021 09:00:22 YCU 1.01 25.6 95.0 4.1 ok
05-01-2021 08:50:22 YCU 1.02 25.5 95.0 4.1 ok
05-01-2021 08:40:22 YCU 1.06 25.7 95.0 4.1 ok
05-01-2021 08:30:22 YCU 1.04 25.9 95.0 4.1 ok
05-01-2021 08:20:22 YCU 1.05 25.9 95.0 4.1 ok
05-01-2021 08:10:21 YCU 1.10 25.4 95.0 4.1 ok
05-01-2021 08:00:21 YCU 1.07 25.2 95.0 4.1 ok
05-01-2021 07:50:21 YCU 1.06 24.8 95.0 4.1 ok
05-01-2021 07:40:21 YCU 1.04 24.4 95.0 4.1 ok
05-01-2021 07:30:21 YCU 1.04 24.2 95.0 4.1 ok
05-01-2021 07:20:21 YCU 1.06 23.9 95.0 4.1 ok
05-01-2021 07:10:21 YCU 1.05 23.4 95.0 4.1 ok
05-01-2021 07:00:21 YCU 1.08 22.7 95.0 4.1 ok
05-01-2021 06:50:20 YCU 1.04 22.2 95.0 4.1 ok
05-01-2021 06:40:20 YCU 1.04 22.2 95.0 4.1 ok
05-01-2021 06:30:20 YCU 1.00 22.0 95.0 4.1 ok
05-01-2021 06:20:20 YCU 1.04 21.8 94.0 4.1 ok
05-01-2021 06:10:20 YCU 1.05 21.8 94.0 4.1 ok
05-01-2021 06:00:17 YCU 1.05 21.8 94.0 4.1 ok
05-01-2021 05:50:17 YCU 1.08 21.8 94.0 4.1 ok
05-01-2021 05:40:17 YCU 1.11 22.0 95.0 4.1 ok
05-01-2021 05:30:17 YCU 1.09 22.0 95.0 4.1 ok
05-01-2021 05:20:17 YCU 1.12 21.9 94.0 4.1 ok
05-01-2021 05:10:17 YCU 1.15 21.8 94.0 4.1 ok
05-01-2021 05:00:17 YCU 1.17 21.8 94.0 4.1 ok
05-01-2021 04:50:17 YCU 1.14 21.8 94.0 4.1 ok
05-01-2021 04:40:17 YCU 1.20 21.8 94.0 4.1 ok
05-01-2021 04:30:16 YCU 1.19 21.8 94.0 4.1 ok
05-01-2021 04:20:16 YCU 1.14 21.8 94.0 4.1 ok
05-01-2021 04:10:17 YCU 1.17 21.9 94.0 4.1 ok
05-01-2021 04:00:17 YCU 1.12 21.9 94.0 4.1 ok
05-01-2021 03:50:17 YCU 1.10 21.9 94.0 4.1 ok
05-01-2021 03:40:17 YCU 1.15 21.9 94.0 4.1 ok
05-01-2021 03:30:18 YCU 1.10 21.9 94.0 4.1 ok
05-01-2021 03:20:18 YCU 1.10 21.8 94.0 4.1 ok
05-01-2021 03:10:18 YCU 1.06 21.9 94.0 4.1 ok
05-01-2021 03:00:18 YCU 1.07 22.1 95.0 4.1 ok
05-01-2021 02:50:19 YCU 1.09 22.2 95.0 4.1 ok
05-01-2021 02:40:19 YCU 1.10 22.2 95.0 4.1 ok
05-01-2021 02:30:20 YCU 1.13 22.4 95.0 4.1 ok
05-01-2021 02:20:20 YCU 1.08 22.5 95.0 4.1 ok
05-01-2021 02:10:20 YCU 1.09 22.7 95.0 4.1 ok
05-01-2021 02:00:20 YCU 1.10 22.9 95.0 4.1 ok
05-01-2021 01:50:20 YCU 1.08 23.0 95.0 4.1 ok
05-01-2021 01:40:21 YCU 1.06 23.2 95.0 4.1 ok
05-01-2021 01:30:21 YCU 1.05 23.2 95.0 4.1 ok
05-01-2021 01:20:21 YCU 1.06 23.2 95.0 4.1 WF
05-01-2021 01:08:04 YCU 1.04 23.3 95.0 4.1 ok
05-01-2021 00:58:03 YCU 1.02 23.3 95.0 4.1 ok
05-01-2021 00:48:03 YCU 0.96 22.9 95.0 4.1 ok
05-01-2021 00:38:03 YCU 1.01 22.7 95.0 4.1 ok
05-01-2021 00:28:03 YCU 1.03 22.8 95.0 4.1 ok
05-01-2021 00:18:03 YCU 0.97 22.9 95.0 4.1 ok
05-01-2021 00:08:03 YCU 0.94 23.1 95.0 4.1 ok
04-01-2021 23:58:03 YCU 0.97 23.0 95.0 4.1 ok
04-01-2021 23:48:03 YCU 0.95 23.0 95.0 4.1 ok
04-01-2021 23:38:03 YCU 0.90 22.9 95.0 4.1 ok
04-01-2021 23:28:03 YCU 0.85 22.8 95.0 4.1 ok
04-01-2021 23:18:03 YCU 0.87 22.7 95.0 4.1 ok
04-01-2021 23:08:03 YCU 0.85 22.6 95.0 4.1 ok
04-01-2021 22:58:03 YCU 0.87 22.6 95.0 4.1 ok
04-01-2021 22:48:02 YCU 0.87 22.6 95.0 4.1 ok
04-01-2021 22:38:02 YCU 0.91 22.6 95.0 4.1 ok
04-01-2021 22:28:02 YCU 0.86 22.6 95.0 4.1 ok
04-01-2021 22:18:02 YCU 0.87 22.6 95.0 4.1 ok
04-01-2021 22:08:01 YCU 0.87 22.7 95.0 4.1 ok
04-01-2021 21:58:01 YCU 0.93 22.8 95.0 4.1 ok
04-01-2021 21:48:01 YCU 0.94 22.8 95.0 4.1 ok
04-01-2021 21:38:01 YCU 0.96 22.7 95.0 4.1 ok
04-01-2021 21:28:01 YCU 1.05 22.5 95.0 4.1 ok
04-01-2021 21:18:01 YCU 1.05 22.3 95.0 4.1 ok
04-01-2021 21:08:01 YCU 1.06 22.3 95.0 4.1 ok
04-01-2021 20:58:01 YCU 1.06 22.3 95.0 4.1 ok
04-01-2021 20:48:01 YCU 1.02 22.3 95.0 4.1 ok
04-01-2021 20:38:01 YCU 1.13 22.3 95.0 4.1 ok
04-01-2021 20:28:01 YCU 1.14 22.3 95.0 4.1 ok
04-01-2021 20:18:00 YCU 1.22 22.4 95.0 4.1 ok
04-01-2021 20:08:00 YCU 1.20 22.5 95.0 4.1 ok
04-01-2021 19:58:00 YCU 1.28 22.7 95.0 4.1 ok
04-01-2021 19:48:00 YCU 1.28 22.7 95.0 4.1 ok
04-01-2021 19:38:00 YCU 1.34 22.8 95.0 4.1 ok
04-01-2021 19:28:00 YCU 1.38 22.9 95.0 4.1 WF
04-01-2021 19:16:00 YCU 1.38 23.2 95.0 4.1 ok
04-01-2021 19:06:00 YCU 1.43 23.5 95.0 4.1 ok
04-01-2021 18:56:00 YCU 1.40 23.7 95.0 4.1 ok
04-01-2021 18:46:00 YCU 1.38 24.0 95.0 4.1 ok
04-01-2021 18:36:00 YCU 1.35 23.9 95.0 4.1 ok
04-01-2021 18:26:00 YCU 1.33 24.1 95.0 4.1 ok
04-01-2021 18:16:00 YCU 1.33 23.9 95.0 4.1 ok
04-01-2021 18:06:00 YCU 1.37 23.9 95.0 4.1 ok
04-01-2021 17:56:00 YCU 1.33 24.0 95.0 4.1 ok
04-01-2021 17:46:00 YCU 1.36 24.1 95.0 4.1 ok
04-01-2021 17:35:59 YCU 1.43 24.1 95.0 4.1 ok
04-01-2021 17:25:59 YCU 1.31 24.1 95.0 4.1 ok
04-01-2021 17:15:58 YCU 1.31 24.0 95.0 4.1 ok
04-01-2021 17:05:58 YCU 1.38 24.1 95.0 4.1 ok
04-01-2021 16:55:58 YCU 1.31 24.3 95.0 4.1 ok
04-01-2021 16:45:58 YCU 1.29 24.3 95.0 4.1 ok
04-01-2021 16:35:57 YCU 1.24 24.4 95.0 4.1 ok
04-01-2021 16:25:58 YCU 1.20 24.6 95.0 4.1 ok
04-01-2021 16:15:57 YCU 1.17 24.7 95.0 4.1 ok
04-01-2021 16:05:57 YCU 1.19 24.7 95.0 4.1 ok
04-01-2021 15:55:57 YCU 1.21 24.8 95.0 4.1 ok
04-01-2021 15:45:57 YCU 1.19 24.9 95.0 4.1 ok
04-01-2021 15:35:57 YCU 1.19 25.0 95.0 4.1 ok
04-01-2021 15:25:57 YCU 1.14 25.0 95.0 4.1 ok
04-01-2021 15:15:57 YCU 1.15 25.1 95.0 4.1 ok
04-01-2021 15:05:57 YCU 1.12 25.2 95.0 4.1 ok
04-01-2021 14:55:57 YCU 1.17 25.3 95.0 4.1 ok
04-01-2021 14:45:57 YCU 1.20 25.3 95.0 4.1 ok
04-01-2021 14:35:57 YCU 1.24 25.2 95.0 4.1 ok
04-01-2021 14:25:57 YCU 1.27 25.4 95.0 4.1 ok
04-01-2021 14:15:57 YCU 1.23 25.3 95.0 4.1 ok
04-01-2021 14:05:57 YCU 1.19 25.5 95.0 4.1 ok
04-01-2021 13:55:57 YCU 1.18 25.6 95.0 4.1 ok
04-01-2021 13:45:57 YCU 1.10 25.6 95.0 4.1 WF
04-01-2021 13:33:57 YCU 1.18 25.9 95.0 4.1 ok
04-01-2021 13:23:57 YCU 1.17 26.4 95.0 4.1 ok
04-01-2021 13:13:57 YCU 1.23 26.6 95.0 4.1 ok
04-01-2021 13:03:57 YCU 1.25 26.8 95.0 4.1 ok
04-01-2021 12:53:57 YCU 1.22 26.8 95.0 4.1 ok
04-01-2021 12:43:57 YCU 1.26 27.0 95.0 4.1 ok
04-01-2021 12:33:57 YCU 1.22 27.2 95.0 4.1 ok
04-01-2021 12:23:57 YCU 1.23 26.9 95.0 4.1 ok
04-01-2021 12:13:57 YCU 1.22 27.4 95.0 4.1 ok
04-01-2021 12:03:56 YCU 1.20 27.7 95.0 4.1 ok
04-01-2021 11:53:56 YCU 1.08 27.7 95.0 4.1 ok
04-01-2021 11:43:56 YCU 1.06 28.9 95.0 4.1 ok
04-01-2021 11:33:56 YCU 1.03 29.1 95.0 4.1 ok
04-01-2021 11:23:56 YCU 0.97 29.4 95.0 4.1 ok
04-01-2021 11:13:56 YCU 0.92 29.2 95.0 4.1 ok
04-01-2021 11:03:56 YCU 0.93 28.1 95.0 4.1 ok
04-01-2021 10:53:56 YCU 0.87 27.5 95.0 4.1 ok
04-01-2021 10:43:56 YCU 0.91 27.4 95.0 4.1 ok
04-01-2021 10:33:56 YCU 0.81 26.5 95.0 4.1 ok
04-01-2021 10:23:55 YCU 0.77 25.9 95.0 4.1 ok
04-01-2021 10:13:55 YCU 0.78 26.4 95.0 4.1 ok
04-01-2021 10:03:55 YCU 0.82 26.5 95.0 4.1 ok
04-01-2021 09:53:55 YCU 0.78 25.5 95.0 4.1 ok
04-01-2021 09:43:55 YCU 0.78 24.5 95.0 4.1 ok
04-01-2021 09:33:55 YCU 0.73 24.7 95.0 4.1 ok
04-01-2021 09:23:55 YCU 0.73 24.3 95.0 4.1 ok
04-01-2021 09:13:55 YCU 0.72 24.1 95.0 4.1 ok
04-01-2021 09:03:55 YCU 0.76 23.6 95.0 4.1 ok
04-01-2021 08:53:55 YCU 0.73 23.1 95.0 4.1 ok
04-01-2021 08:43:55 YCU 0.80 23.0 95.0 4.1 ok
04-01-2021 08:33:55 YCU 0.80 22.8 95.0 4.1 ok
04-01-2021 08:23:55 YCU 0.84 22.9 95.0 4.1 ok
04-01-2021 08:13:55 YCU 0.86 23.1 95.0 4.1 ok
04-01-2021 08:03:55 YCU 0.85 23.4 95.0 4.1 ok
04-01-2021 07:53:55 YCU 0.85 23.3 95.0 4.1 ok
04-01-2021 07:43:55 YCU 0.88 22.7 95.0 4.1 ok
04-01-2021 07:33:55 YCU 0.89 22.4 95.0 4.1 ok
04-01-2021 07:23:55 YCU 0.88 22.4 95.0 4.1 ok
04-01-2021 07:13:55 YCU 0.86 22.2 95.0 4.1 ok
04-01-2021 07:03:54 YCU 0.86 21.7 94.0 4.1 ok
04-01-2021 06:53:55 YCU 0.89 21.6 94.0 4.1 ok
04-01-2021 06:43:54 YCU 0.90 21.3 94.0 4.1 ok
04-01-2021 06:33:54 YCU 0.93 21.2 94.0 4.1 ok
04-01-2021 06:23:54 YCU 0.93 21.1 94.0 4.1 ok
04-01-2021 06:13:54 YCU 1.00 20.9 93.0 4.1 ok
04-01-2021 06:03:54 YCU 0.85 20.8 93.0 4.1 ok
04-01-2021 05:53:54 YCU 0.86 20.7 93.0 4.1 ok
04-01-2021 05:43:54 YCU 0.79 20.7 93.0 4.1 ok
04-01-2021 05:33:54 YCU 0.86 20.7 93.0 4.1 ok
04-01-2021 05:23:54 YCU 0.81 20.7 93.0 4.1 ok
04-01-2021 05:13:54 YCU 0.88 20.7 93.0 4.1 ok
04-01-2021 05:03:54 YCU 0.89 20.6 93.0 4.1 ok
04-01-2021 04:53:54 YCU 0.90 20.6 93.0 4.1 ok
04-01-2021 04:43:54 YCU 0.84 20.5 93.0 4.1 ok
04-01-2021 04:33:53 YCU 0.92 20.5 93.0 4.1 ok
04-01-2021 04:23:54 YCU 0.93 20.5 93.0 4.1 ok
04-01-2021 04:13:53 YCU 0.87 20.6 93.0 4.1 ok
04-01-2021 04:03:53 YCU 0.92 20.5 93.0 4.1 ok
04-01-2021 03:53:54 YCU 0.92 20.5 93.0 4.1 ok
04-01-2021 03:43:54 YCU 0.90 20.4 93.0 4.1 ok
04-01-2021 03:33:54 YCU 0.89 20.4 93.0 4.1 ok
04-01-2021 03:23:54 YCU 0.88 20.4 93.0 4.1 ok
04-01-2021 03:13:54 YCU 0.92 20.5 93.0 4.1 ok
04-01-2021 03:03:54 YCU 0.92 20.5 93.0 4.1 ok
04-01-2021 02:53:54 YCU 0.86 20.4 93.0 4.1 ok
04-01-2021 02:43:54 YCU 0.88 20.5 93.0 4.1 ok
04-01-2021 02:33:54 YCU 0.87 20.5 93.0 4.1 ok
04-01-2021 02:23:54 YCU 0.85 20.6 93.0 4.1 ok
04-01-2021 02:13:54 YCU 0.80 20.7 93.0 4.1 ok
04-01-2021 02:03:54 YCU 0.78 20.7 93.0 4.1 ok
04-01-2021 01:53:54 YCU 0.83 20.7 93.0 4.1 ok
04-01-2021 01:43:54 YCU 0.80 20.9 93.0 4.1 ok
04-01-2021 01:33:54 YCU 0.75 20.9 93.0 4.1 ok
04-01-2021 01:23:54 YCU 0.80 21.1 94.0 4.1 ok
04-01-2021 01:13:54 YCU 0.81 21.2 94.0 4.1 ok
04-01-2021 01:03:54 YCU 0.75 21.3 94.0 4.1 ok
04-01-2021 00:53:54 YCU 0.84 21.4 94.0 4.1 ok
04-01-2021 00:43:54 YCU 0.77 21.6 94.0 4.1 ok
04-01-2021 00:33:54 YCU 0.66 21.7 94.0 4.1 ok
04-01-2021 00:23:54 YCU 0.66 21.9 94.0 4.1 ok
04-01-2021 00:13:54 YCU 0.67 22.0 95.0 4.1 ok
04-01-2021 00:03:54 YCU 0.71 22.0 95.0 4.1 ok
03-01-2021 23:53:54 YCU 0.69 22.2 95.0 4.1 ok
03-01-2021 23:43:54 YCU 0.67 22.3 95.0 4.1 ok
03-01-2021 23:33:54 YCU 0.61 22.5 95.0 4.1 ok
03-01-2021 23:23:54 YCU 0.67 22.7 95.0 4.1 ok
03-01-2021 23:13:54 YCU 0.61 22.8 95.0 4.1 ok
03-01-2021 23:03:54 YCU 0.63 23.1 95.0 4.1 ok
03-01-2021 22:53:53 YCU 0.62 23.2 95.0 4.1 ok
03-01-2021 22:43:53 YCU 0.62 23.3 95.0 4.1 ok
03-01-2021 22:33:53 YCU 0.60 23.5 95.0 4.1 ok
03-01-2021 22:23:52 YCU 0.49 23.7 95.0 4.1 ok
03-01-2021 22:13:52 YCU 0.64 23.8 95.0 4.1 ok
03-01-2021 22:03:52 YCU 0.55 23.9 95.0 4.1 ok
03-01-2021 21:53:52 YCU 0.59 23.8 95.0 4.1 ok
03-01-2021 21:43:52 YCU 0.54 23.6 95.0 4.1 ok
03-01-2021 21:33:52 YCU 0.47 23.6 95.0 4.1 ok
03-01-2021 21:23:52 YCU 0.51 23.5 95.0 4.1 ok
03-01-2021 21:13:52 YCU 0.60 23.4 95.0 4.1 ok
03-01-2021 21:03:52 YCU 0.65 23.3 95.0 4.1 ok
03-01-2021 20:53:52 YCU 0.62 23.1 95.0 4.1 ok